<?xml version="1.0" encoding="UTF-8" standalone="no" ?>
<gpx xmlns="http://www.topografix.com/GPX/1/1" xmlns:xsi="http://www.w3.org/2001/XMLSchema-instance" xsi:schemaLocation="http://www.topografix.com/GPX/1/1 http://www.topografix.com/GPX/1/1/gpx.xsd" version="1.1" creator="VisuGPX - https://www.visugpx.com">
  <metadata>
    <name>mrt 04 02 2016</name>
    <desc><![CDATA[bon-repos ,tregnanton]]></desc>
  </metadata>
  <trk>
    <name><![CDATA[mrt 04 02 2016_1]]></name>
    <trkseg>
      <trkpt lat="48.21312" lon="-3.12831">
        <ele>129</ele>
        <time>2016-02-04T12:58:35Z</time>
      </trkpt>
      <trkpt lat="48.21289" lon="-3.12855">
        <ele>128</ele>
        <time>2016-02-04T12:59:02Z</time>
      </trkpt>
      <trkpt lat="48.21286" lon="-3.12857">
        <ele>128</ele>
        <time>2016-02-04T12:59:06Z</time>
      </trkpt>
      <trkpt lat="48.21284" lon="-3.1286">
        <ele>127</ele>
        <time>2016-02-04T12:59:09Z</time>
      </trkpt>
      <trkpt lat="48.21281" lon="-3.12863">
        <ele>127</ele>
        <time>2016-02-04T12:59:13Z</time>
      </trkpt>
      <trkpt lat="48.21278" lon="-3.12865">
        <ele>127</ele>
        <time>2016-02-04T12:59:18Z</time>
      </trkpt>
      <trkpt lat="48.2128" lon="-3.12865">
        <ele>126</ele>
        <time>2016-02-04T12:59:59Z</time>
      </trkpt>
      <trkpt lat="48.21279" lon="-3.12863">
        <ele>126</ele>
        <time>2016-02-04T13:00:18Z</time>
      </trkpt>
      <trkpt lat="48.2128" lon="-3.12865">
        <ele>126</ele>
        <time>2016-02-04T13:00:29Z</time>
      </trkpt>
      <trkpt lat="48.21278" lon="-3.1287">
        <ele>126</ele>
        <time>2016-02-04T13:00:33Z</time>
      </trkpt>
      <trkpt lat="48.21275" lon="-3.12876">
        <ele>126</ele>
        <time>2016-02-04T13:00:37Z</time>
      </trkpt>
      <trkpt lat="48.21273" lon="-3.12881">
        <ele>126</ele>
        <time>2016-02-04T13:00:41Z</time>
      </trkpt>
      <trkpt lat="48.2127" lon="-3.12887">
        <ele>126</ele>
        <time>2016-02-04T13:00:45Z</time>
      </trkpt>
      <trkpt lat="48.21267" lon="-3.12893">
        <ele>126</ele>
        <time>2016-02-04T13:00:49Z</time>
      </trkpt>
      <trkpt lat="48.21265" lon="-3.12898">
        <ele>126</ele>
        <time>2016-02-04T13:00:53Z</time>
      </trkpt>
      <trkpt lat="48.21263" lon="-3.12903">
        <ele>126</ele>
        <time>2016-02-04T13:00:57Z</time>
      </trkpt>
      <trkpt lat="48.2126" lon="-3.12908">
        <ele>126</ele>
        <time>2016-02-04T13:01:01Z</time>
      </trkpt>
      <trkpt lat="48.21257" lon="-3.12913">
        <ele>126</ele>
        <time>2016-02-04T13:01:05Z</time>
      </trkpt>
      <trkpt lat="48.21254" lon="-3.12918">
        <ele>126</ele>
        <time>2016-02-04T13:01:09Z</time>
      </trkpt>
      <trkpt lat="48.21251" lon="-3.12923">
        <ele>126</ele>
        <time>2016-02-04T13:01:13Z</time>
      </trkpt>
      <trkpt lat="48.21248" lon="-3.12928">
        <ele>126</ele>
        <time>2016-02-04T13:01:17Z</time>
      </trkpt>
      <trkpt lat="48.21245" lon="-3.12933">
        <ele>126</ele>
        <time>2016-02-04T13:01:21Z</time>
      </trkpt>
      <trkpt lat="48.21242" lon="-3.12938">
        <ele>126</ele>
        <time>2016-02-04T13:01:25Z</time>
      </trkpt>
      <trkpt lat="48.2124" lon="-3.12942">
        <ele>126</ele>
        <time>2016-02-04T13:01:29Z</time>
      </trkpt>
      <trkpt lat="48.21237" lon="-3.12947">
        <ele>126</ele>
        <time>2016-02-04T13:01:33Z</time>
      </trkpt>
      <trkpt lat="48.21234" lon="-3.12952">
        <ele>125</ele>
        <time>2016-02-04T13:01:37Z</time>
      </trkpt>
      <trkpt lat="48.21231" lon="-3.12957">
        <ele>125</ele>
        <time>2016-02-04T13:01:41Z</time>
      </trkpt>
      <trkpt lat="48.21228" lon="-3.12962">
        <ele>125</ele>
        <time>2016-02-04T13:01:45Z</time>
      </trkpt>
      <trkpt lat="48.21225" lon="-3.12967">
        <ele>125</ele>
        <time>2016-02-04T13:01:49Z</time>
      </trkpt>
      <trkpt lat="48.21222" lon="-3.12972">
        <ele>125</ele>
        <time>2016-02-04T13:01:53Z</time>
      </trkpt>
      <trkpt lat="48.2122" lon="-3.12977">
        <ele>125</ele>
        <time>2016-02-04T13:01:58Z</time>
      </trkpt>
      <trkpt lat="48.21217" lon="-3.12981">
        <ele>125</ele>
        <time>2016-02-04T13:02:02Z</time>
      </trkpt>
      <trkpt lat="48.21215" lon="-3.12985">
        <ele>125</ele>
        <time>2016-02-04T13:02:06Z</time>
      </trkpt>
      <trkpt lat="48.21213" lon="-3.12989">
        <ele>125</ele>
        <time>2016-02-04T13:02:10Z</time>
      </trkpt>
      <trkpt lat="48.2121" lon="-3.12994">
        <ele>125</ele>
        <time>2016-02-04T13:02:14Z</time>
      </trkpt>
      <trkpt lat="48.21206" lon="-3.12998">
        <ele>125</ele>
        <time>2016-02-04T13:02:18Z</time>
      </trkpt>
      <trkpt lat="48.21203" lon="-3.13001">
        <ele>125</ele>
        <time>2016-02-04T13:02:22Z</time>
      </trkpt>
      <trkpt lat="48.21198" lon="-3.13006">
        <ele>125</ele>
        <time>2016-02-04T13:02:26Z</time>
      </trkpt>
      <trkpt lat="48.21196" lon="-3.13007">
        <ele>125</ele>
        <time>2016-02-04T13:02:30Z</time>
      </trkpt>
      <trkpt lat="48.21193" lon="-3.13008">
        <ele>125</ele>
        <time>2016-02-04T13:02:34Z</time>
      </trkpt>
      <trkpt lat="48.21189" lon="-3.13009">
        <ele>125</ele>
        <time>2016-02-04T13:02:38Z</time>
      </trkpt>
      <trkpt lat="48.21186" lon="-3.13009">
        <ele>126</ele>
        <time>2016-02-04T13:02:41Z</time>
      </trkpt>
      <trkpt lat="48.21183" lon="-3.1301">
        <ele>126</ele>
        <time>2016-02-04T13:02:45Z</time>
      </trkpt>
      <trkpt lat="48.2118" lon="-3.13009">
        <ele>126</ele>
        <time>2016-02-04T13:02:49Z</time>
      </trkpt>
      <trkpt lat="48.21175" lon="-3.13009">
        <ele>126</ele>
        <time>2016-02-04T13:02:53Z</time>
      </trkpt>
      <trkpt lat="48.21171" lon="-3.13009">
        <ele>126</ele>
        <time>2016-02-04T13:02:57Z</time>
      </trkpt>
      <trkpt lat="48.21166" lon="-3.13008">
        <ele>126</ele>
        <time>2016-02-04T13:03:04Z</time>
      </trkpt>
      <trkpt lat="48.21163" lon="-3.13007">
        <ele>126</ele>
        <time>2016-02-04T13:03:08Z</time>
      </trkpt>
      <trkpt lat="48.21161" lon="-3.13006">
        <ele>126</ele>
        <time>2016-02-04T13:03:12Z</time>
      </trkpt>
      <trkpt lat="48.21161" lon="-3.13008">
        <ele>127</ele>
        <time>2016-02-04T13:03:15Z</time>
      </trkpt>
      <trkpt lat="48.21162" lon="-3.13008">
        <ele>129</ele>
        <time>2016-02-04T13:03:20Z</time>
      </trkpt>
      <trkpt lat="48.21162" lon="-3.13007">
        <ele>132</ele>
        <time>2016-02-04T13:03:28Z</time>
      </trkpt>
      <trkpt lat="48.21161" lon="-3.13007">
        <ele>133</ele>
        <time>2016-02-04T13:03:44Z</time>
      </trkpt>
      <trkpt lat="48.21159" lon="-3.13009">
        <ele>133</ele>
        <time>2016-02-04T13:03:49Z</time>
      </trkpt>
      <trkpt lat="48.21156" lon="-3.13011">
        <ele>133</ele>
        <time>2016-02-04T13:03:54Z</time>
      </trkpt>
      <trkpt lat="48.21155" lon="-3.13011">
        <ele>133</ele>
        <time>2016-02-04T13:04:06Z</time>
      </trkpt>
      <trkpt lat="48.21153" lon="-3.13012">
        <ele>133</ele>
        <time>2016-02-04T13:04:14Z</time>
      </trkpt>
      <trkpt lat="48.21152" lon="-3.13008">
        <ele>133</ele>
        <time>2016-02-04T13:04:18Z</time>
      </trkpt>
      <trkpt lat="48.21151" lon="-3.13003">
        <ele>133</ele>
        <time>2016-02-04T13:04:24Z</time>
      </trkpt>
      <trkpt lat="48.2115" lon="-3.12997">
        <ele>133</ele>
        <time>2016-02-04T13:04:28Z</time>
      </trkpt>
      <trkpt lat="48.21149" lon="-3.12993">
        <ele>137</ele>
        <time>2016-02-04T13:04:35Z</time>
      </trkpt>
      <trkpt lat="48.21149" lon="-3.12991">
        <ele>143</ele>
        <time>2016-02-04T13:04:50Z</time>
      </trkpt>
      <trkpt lat="48.21149" lon="-3.12994">
        <ele>143</ele>
        <time>2016-02-04T13:04:57Z</time>
      </trkpt>
      <trkpt lat="48.21149" lon="-3.12993">
        <ele>143</ele>
        <time>2016-02-04T13:05:09Z</time>
      </trkpt>
      <trkpt lat="48.21149" lon="-3.1299">
        <ele>143</ele>
        <time>2016-02-04T13:05:14Z</time>
      </trkpt>
      <trkpt lat="48.21147" lon="-3.12985">
        <ele>143</ele>
        <time>2016-02-04T13:05:17Z</time>
      </trkpt>
      <trkpt lat="48.21146" lon="-3.1298">
        <ele>143</ele>
        <time>2016-02-04T13:05:20Z</time>
      </trkpt>
      <trkpt lat="48.21145" lon="-3.12977">
        <ele>143</ele>
        <time>2016-02-04T13:05:25Z</time>
      </trkpt>
      <trkpt lat="48.21148" lon="-3.12973">
        <ele>141</ele>
        <time>2016-02-04T13:05:32Z</time>
      </trkpt>
      <trkpt lat="48.21149" lon="-3.12974">
        <ele>139</ele>
        <time>2016-02-04T13:05:35Z</time>
      </trkpt>
      <trkpt lat="48.21152" lon="-3.12976">
        <ele>139</ele>
        <time>2016-02-04T13:05:40Z</time>
      </trkpt>
      <trkpt lat="48.21153" lon="-3.12977">
        <ele>139</ele>
        <time>2016-02-04T13:05:44Z</time>
      </trkpt>
      <trkpt lat="48.21156" lon="-3.12976">
        <ele>139</ele>
        <time>2016-02-04T13:05:49Z</time>
      </trkpt>
      <trkpt lat="48.21156" lon="-3.12974">
        <ele>139</ele>
        <time>2016-02-04T13:05:53Z</time>
      </trkpt>
      <trkpt lat="48.21154" lon="-3.12976">
        <ele>137</ele>
        <time>2016-02-04T13:06:19Z</time>
      </trkpt>
      <trkpt lat="48.21153" lon="-3.12976">
        <ele>136</ele>
        <time>2016-02-04T13:06:22Z</time>
      </trkpt>
      <trkpt lat="48.21152" lon="-3.12976">
        <ele>136</ele>
        <time>2016-02-04T13:06:28Z</time>
      </trkpt>
      <trkpt lat="48.21151" lon="-3.12977">
        <ele>135</ele>
        <time>2016-02-04T13:06:33Z</time>
      </trkpt>
      <trkpt lat="48.21149" lon="-3.12975">
        <ele>133</ele>
        <time>2016-02-04T13:06:37Z</time>
      </trkpt>
      <trkpt lat="48.21149" lon="-3.12973">
        <ele>133</ele>
        <time>2016-02-04T13:06:41Z</time>
      </trkpt>
      <trkpt lat="48.21148" lon="-3.12978">
        <ele>133</ele>
        <time>2016-02-04T13:06:46Z</time>
      </trkpt>
      <trkpt lat="48.21146" lon="-3.12982">
        <ele>131</ele>
        <time>2016-02-04T13:06:49Z</time>
      </trkpt>
      <trkpt lat="48.21145" lon="-3.12987">
        <ele>128</ele>
        <time>2016-02-04T13:06:53Z</time>
      </trkpt>
      <trkpt lat="48.21147" lon="-3.12989">
        <ele>126</ele>
        <time>2016-02-04T13:06:56Z</time>
      </trkpt>
      <trkpt lat="48.2115" lon="-3.12992">
        <ele>126</ele>
        <time>2016-02-04T13:07:00Z</time>
      </trkpt>
      <trkpt lat="48.21151" lon="-3.12994">
        <ele>126</ele>
        <time>2016-02-04T13:07:03Z</time>
      </trkpt>
      <trkpt lat="48.21154" lon="-3.12997">
        <ele>126</ele>
        <time>2016-02-04T13:07:08Z</time>
      </trkpt>
      <trkpt lat="48.21154" lon="-3.13002">
        <ele>126</ele>
        <time>2016-02-04T13:07:13Z</time>
      </trkpt>
      <trkpt lat="48.21156" lon="-3.13004">
        <ele>126</ele>
        <time>2016-02-04T13:07:21Z</time>
      </trkpt>
      <trkpt lat="48.21158" lon="-3.13004">
        <ele>126</ele>
        <time>2016-02-04T13:07:26Z</time>
      </trkpt>
      <trkpt lat="48.21161" lon="-3.13003">
        <ele>126</ele>
        <time>2016-02-04T13:07:30Z</time>
      </trkpt>
      <trkpt lat="48.21162" lon="-3.13004">
        <ele>126</ele>
        <time>2016-02-04T13:07:33Z</time>
      </trkpt>
      <trkpt lat="48.21165" lon="-3.13006">
        <ele>126</ele>
        <time>2016-02-04T13:07:37Z</time>
      </trkpt>
      <trkpt lat="48.21166" lon="-3.13006">
        <ele>126</ele>
        <time>2016-02-04T13:07:40Z</time>
      </trkpt>
      <trkpt lat="48.21168" lon="-3.13007">
        <ele>126</ele>
        <time>2016-02-04T13:07:46Z</time>
      </trkpt>
      <trkpt lat="48.21169" lon="-3.13005">
        <ele>126</ele>
        <time>2016-02-04T13:07:58Z</time>
      </trkpt>
      <trkpt lat="48.21171" lon="-3.13004">
        <ele>126</ele>
        <time>2016-02-04T13:08:02Z</time>
      </trkpt>
      <trkpt lat="48.21174" lon="-3.13003">
        <ele>126</ele>
        <time>2016-02-04T13:08:07Z</time>
      </trkpt>
      <trkpt lat="48.21178" lon="-3.13003">
        <ele>126</ele>
        <time>2016-02-04T13:08:11Z</time>
      </trkpt>
      <trkpt lat="48.21181" lon="-3.13003">
        <ele>126</ele>
        <time>2016-02-04T13:08:15Z</time>
      </trkpt>
      <trkpt lat="48.21185" lon="-3.13003">
        <ele>126</ele>
        <time>2016-02-04T13:08:19Z</time>
      </trkpt>
      <trkpt lat="48.21188" lon="-3.13003">
        <ele>126</ele>
        <time>2016-02-04T13:08:23Z</time>
      </trkpt>
      <trkpt lat="48.21191" lon="-3.13003">
        <ele>126</ele>
        <time>2016-02-04T13:08:27Z</time>
      </trkpt>
      <trkpt lat="48.21195" lon="-3.13003">
        <ele>126</ele>
        <time>2016-02-04T13:08:31Z</time>
      </trkpt>
      <trkpt lat="48.21198" lon="-3.13002">
        <ele>126</ele>
        <time>2016-02-04T13:08:34Z</time>
      </trkpt>
      <trkpt lat="48.21201" lon="-3.13">
        <ele>126</ele>
        <time>2016-02-04T13:08:37Z</time>
      </trkpt>
      <trkpt lat="48.21205" lon="-3.12997">
        <ele>126</ele>
        <time>2016-02-04T13:08:40Z</time>
      </trkpt>
      <trkpt lat="48.21209" lon="-3.12993">
        <ele>126</ele>
        <time>2016-02-04T13:08:44Z</time>
      </trkpt>
      <trkpt lat="48.21212" lon="-3.12987">
        <ele>126</ele>
        <time>2016-02-04T13:08:48Z</time>
      </trkpt>
      <trkpt lat="48.21215" lon="-3.12982">
        <ele>126</ele>
        <time>2016-02-04T13:08:52Z</time>
      </trkpt>
      <trkpt lat="48.21219" lon="-3.12977">
        <ele>126</ele>
        <time>2016-02-04T13:08:56Z</time>
      </trkpt>
      <trkpt lat="48.21222" lon="-3.12972">
        <ele>126</ele>
        <time>2016-02-04T13:09:00Z</time>
      </trkpt>
      <trkpt lat="48.21225" lon="-3.12967">
        <ele>126</ele>
        <time>2016-02-04T13:09:04Z</time>
      </trkpt>
      <trkpt lat="48.21228" lon="-3.12962">
        <ele>126</ele>
        <time>2016-02-04T13:09:08Z</time>
      </trkpt>
      <trkpt lat="48.21232" lon="-3.12958">
        <ele>126</ele>
        <time>2016-02-04T13:09:12Z</time>
      </trkpt>
      <trkpt lat="48.21236" lon="-3.12953">
        <ele>126</ele>
        <time>2016-02-04T13:09:16Z</time>
      </trkpt>
      <trkpt lat="48.21238" lon="-3.12948">
        <ele>126</ele>
        <time>2016-02-04T13:09:20Z</time>
      </trkpt>
      <trkpt lat="48.21239" lon="-3.12943">
        <ele>126</ele>
        <time>2016-02-04T13:09:23Z</time>
      </trkpt>
      <trkpt lat="48.21237" lon="-3.12939">
        <ele>126</ele>
        <time>2016-02-04T13:09:27Z</time>
      </trkpt>
      <trkpt lat="48.21234" lon="-3.12936">
        <ele>126</ele>
        <time>2016-02-04T13:09:31Z</time>
      </trkpt>
      <trkpt lat="48.21231" lon="-3.12933">
        <ele>126</ele>
        <time>2016-02-04T13:09:35Z</time>
      </trkpt>
      <trkpt lat="48.21229" lon="-3.12929">
        <ele>126</ele>
        <time>2016-02-04T13:09:45Z</time>
      </trkpt>
      <trkpt lat="48.21226" lon="-3.12927">
        <ele>126</ele>
        <time>2016-02-04T13:09:53Z</time>
      </trkpt>
      <trkpt lat="48.21222" lon="-3.12925">
        <ele>126</ele>
        <time>2016-02-04T13:09:56Z</time>
      </trkpt>
      <trkpt lat="48.21217" lon="-3.1292">
        <ele>126</ele>
        <time>2016-02-04T13:10:00Z</time>
      </trkpt>
      <trkpt lat="48.21214" lon="-3.12917">
        <ele>126</ele>
        <time>2016-02-04T13:10:03Z</time>
      </trkpt>
      <trkpt lat="48.2121" lon="-3.12913">
        <ele>126</ele>
        <time>2016-02-04T13:10:07Z</time>
      </trkpt>
      <trkpt lat="48.21207" lon="-3.12911">
        <ele>126</ele>
        <time>2016-02-04T13:10:10Z</time>
      </trkpt>
      <trkpt lat="48.21203" lon="-3.1291">
        <ele>126</ele>
        <time>2016-02-04T13:10:13Z</time>
      </trkpt>
      <trkpt lat="48.21199" lon="-3.12909">
        <ele>126</ele>
        <time>2016-02-04T13:10:16Z</time>
      </trkpt>
      <trkpt lat="48.21195" lon="-3.12909">
        <ele>126</ele>
        <time>2016-02-04T13:10:19Z</time>
      </trkpt>
      <trkpt lat="48.21191" lon="-3.12908">
        <ele>126</ele>
        <time>2016-02-04T13:10:22Z</time>
      </trkpt>
      <trkpt lat="48.21188" lon="-3.12909">
        <ele>126</ele>
        <time>2016-02-04T13:10:25Z</time>
      </trkpt>
      <trkpt lat="48.21184" lon="-3.12909">
        <ele>126</ele>
        <time>2016-02-04T13:10:28Z</time>
      </trkpt>
      <trkpt lat="48.2118" lon="-3.12909">
        <ele>126</ele>
        <time>2016-02-04T13:10:31Z</time>
      </trkpt>
      <trkpt lat="48.21176" lon="-3.12909">
        <ele>126</ele>
        <time>2016-02-04T13:10:34Z</time>
      </trkpt>
      <trkpt lat="48.21172" lon="-3.12908">
        <ele>126</ele>
        <time>2016-02-04T13:10:37Z</time>
      </trkpt>
      <trkpt lat="48.21168" lon="-3.12907">
        <ele>126</ele>
        <time>2016-02-04T13:10:40Z</time>
      </trkpt>
      <trkpt lat="48.21164" lon="-3.12905">
        <ele>126</ele>
        <time>2016-02-04T13:10:43Z</time>
      </trkpt>
      <trkpt lat="48.2116" lon="-3.12903">
        <ele>126</ele>
        <time>2016-02-04T13:10:46Z</time>
      </trkpt>
      <trkpt lat="48.21157" lon="-3.129">
        <ele>126</ele>
        <time>2016-02-04T13:10:49Z</time>
      </trkpt>
      <trkpt lat="48.21152" lon="-3.12896">
        <ele>126</ele>
        <time>2016-02-04T13:10:53Z</time>
      </trkpt>
      <trkpt lat="48.21149" lon="-3.12892">
        <ele>126</ele>
        <time>2016-02-04T13:10:56Z</time>
      </trkpt>
      <trkpt lat="48.21145" lon="-3.12888">
        <ele>126</ele>
        <time>2016-02-04T13:11:00Z</time>
      </trkpt>
      <trkpt lat="48.21141" lon="-3.12883">
        <ele>126</ele>
        <time>2016-02-04T13:11:04Z</time>
      </trkpt>
      <trkpt lat="48.21137" lon="-3.12879">
        <ele>126</ele>
        <time>2016-02-04T13:11:08Z</time>
      </trkpt>
      <trkpt lat="48.21133" lon="-3.12875">
        <ele>126</ele>
        <time>2016-02-04T13:11:12Z</time>
      </trkpt>
      <trkpt lat="48.2113" lon="-3.12872">
        <ele>126</ele>
        <time>2016-02-04T13:11:15Z</time>
      </trkpt>
      <trkpt lat="48.21126" lon="-3.12868">
        <ele>126</ele>
        <time>2016-02-04T13:11:19Z</time>
      </trkpt>
      <trkpt lat="48.21123" lon="-3.12865">
        <ele>126</ele>
        <time>2016-02-04T13:11:22Z</time>
      </trkpt>
      <trkpt lat="48.21119" lon="-3.12861">
        <ele>126</ele>
        <time>2016-02-04T13:11:26Z</time>
      </trkpt>
      <trkpt lat="48.21115" lon="-3.12857">
        <ele>126</ele>
        <time>2016-02-04T13:11:30Z</time>
      </trkpt>
      <trkpt lat="48.21111" lon="-3.12852">
        <ele>126</ele>
        <time>2016-02-04T13:11:34Z</time>
      </trkpt>
      <trkpt lat="48.21107" lon="-3.12847">
        <ele>126</ele>
        <time>2016-02-04T13:11:38Z</time>
      </trkpt>
      <trkpt lat="48.21104" lon="-3.12841">
        <ele>126</ele>
        <time>2016-02-04T13:11:42Z</time>
      </trkpt>
      <trkpt lat="48.211" lon="-3.12836">
        <ele>126</ele>
        <time>2016-02-04T13:11:46Z</time>
      </trkpt>
      <trkpt lat="48.21098" lon="-3.12831">
        <ele>125</ele>
        <time>2016-02-04T13:11:49Z</time>
      </trkpt>
      <trkpt lat="48.21095" lon="-3.12825">
        <ele>125</ele>
        <time>2016-02-04T13:11:53Z</time>
      </trkpt>
      <trkpt lat="48.21092" lon="-3.12818">
        <ele>125</ele>
        <time>2016-02-04T13:11:57Z</time>
      </trkpt>
      <trkpt lat="48.2109" lon="-3.12813">
        <ele>125</ele>
        <time>2016-02-04T13:12:00Z</time>
      </trkpt>
      <trkpt lat="48.21087" lon="-3.12809">
        <ele>125</ele>
        <time>2016-02-04T13:12:03Z</time>
      </trkpt>
      <trkpt lat="48.21084" lon="-3.12805">
        <ele>125</ele>
        <time>2016-02-04T13:12:06Z</time>
      </trkpt>
      <trkpt lat="48.21082" lon="-3.128">
        <ele>125</ele>
        <time>2016-02-04T13:12:09Z</time>
      </trkpt>
      <trkpt lat="48.21079" lon="-3.12794">
        <ele>125</ele>
        <time>2016-02-04T13:12:13Z</time>
      </trkpt>
      <trkpt lat="48.21078" lon="-3.1279">
        <ele>125</ele>
        <time>2016-02-04T13:12:16Z</time>
      </trkpt>
      <trkpt lat="48.21075" lon="-3.12786">
        <ele>125</ele>
        <time>2016-02-04T13:12:19Z</time>
      </trkpt>
      <trkpt lat="48.21072" lon="-3.12782">
        <ele>125</ele>
        <time>2016-02-04T13:12:22Z</time>
      </trkpt>
      <trkpt lat="48.2107" lon="-3.12776">
        <ele>125</ele>
        <time>2016-02-04T13:12:25Z</time>
      </trkpt>
      <trkpt lat="48.21069" lon="-3.12771">
        <ele>125</ele>
        <time>2016-02-04T13:12:28Z</time>
      </trkpt>
      <trkpt lat="48.21068" lon="-3.12765">
        <ele>125</ele>
        <time>2016-02-04T13:12:31Z</time>
      </trkpt>
      <trkpt lat="48.21067" lon="-3.12759">
        <ele>125</ele>
        <time>2016-02-04T13:12:34Z</time>
      </trkpt>
      <trkpt lat="48.21068" lon="-3.12755">
        <ele>126</ele>
        <time>2016-02-04T13:12:37Z</time>
      </trkpt>
      <trkpt lat="48.21067" lon="-3.1275">
        <ele>128</ele>
        <time>2016-02-04T13:12:40Z</time>
      </trkpt>
      <trkpt lat="48.21067" lon="-3.12745">
        <ele>131</ele>
        <time>2016-02-04T13:12:43Z</time>
      </trkpt>
      <trkpt lat="48.21066" lon="-3.1274">
        <ele>131</ele>
        <time>2016-02-04T13:12:46Z</time>
      </trkpt>
      <trkpt lat="48.21065" lon="-3.12735">
        <ele>131</ele>
        <time>2016-02-04T13:12:49Z</time>
      </trkpt>
      <trkpt lat="48.21065" lon="-3.1273">
        <ele>131</ele>
        <time>2016-02-04T13:12:52Z</time>
      </trkpt>
      <trkpt lat="48.21064" lon="-3.12724">
        <ele>131</ele>
        <time>2016-02-04T13:12:55Z</time>
      </trkpt>
      <trkpt lat="48.21062" lon="-3.12717">
        <ele>131</ele>
        <time>2016-02-04T13:12:58Z</time>
      </trkpt>
      <trkpt lat="48.21059" lon="-3.12712">
        <ele>131</ele>
        <time>2016-02-04T13:13:01Z</time>
      </trkpt>
      <trkpt lat="48.21058" lon="-3.12706">
        <ele>131</ele>
        <time>2016-02-04T13:13:04Z</time>
      </trkpt>
      <trkpt lat="48.21056" lon="-3.12701">
        <ele>131</ele>
        <time>2016-02-04T13:13:07Z</time>
      </trkpt>
      <trkpt lat="48.21056" lon="-3.12695">
        <ele>131</ele>
        <time>2016-02-04T13:13:10Z</time>
      </trkpt>
      <trkpt lat="48.21054" lon="-3.12689">
        <ele>131</ele>
        <time>2016-02-04T13:13:13Z</time>
      </trkpt>
      <trkpt lat="48.21052" lon="-3.12683">
        <ele>131</ele>
        <time>2016-02-04T13:13:16Z</time>
      </trkpt>
      <trkpt lat="48.21052" lon="-3.12677">
        <ele>131</ele>
        <time>2016-02-04T13:13:19Z</time>
      </trkpt>
      <trkpt lat="48.21052" lon="-3.12671">
        <ele>131</ele>
        <time>2016-02-04T13:13:22Z</time>
      </trkpt>
      <trkpt lat="48.21052" lon="-3.12665">
        <ele>131</ele>
        <time>2016-02-04T13:13:25Z</time>
      </trkpt>
      <trkpt lat="48.21051" lon="-3.12659">
        <ele>131</ele>
        <time>2016-02-04T13:13:28Z</time>
      </trkpt>
      <trkpt lat="48.21051" lon="-3.12653">
        <ele>131</ele>
        <time>2016-02-04T13:13:31Z</time>
      </trkpt>
      <trkpt lat="48.2105" lon="-3.12647">
        <ele>131</ele>
        <time>2016-02-04T13:13:34Z</time>
      </trkpt>
      <trkpt lat="48.21052" lon="-3.1264">
        <ele>131</ele>
        <time>2016-02-04T13:13:37Z</time>
      </trkpt>
      <trkpt lat="48.21051" lon="-3.12634">
        <ele>131</ele>
        <time>2016-02-04T13:13:40Z</time>
      </trkpt>
      <trkpt lat="48.21049" lon="-3.12627">
        <ele>131</ele>
        <time>2016-02-04T13:13:43Z</time>
      </trkpt>
      <trkpt lat="48.21048" lon="-3.12621">
        <ele>131</ele>
        <time>2016-02-04T13:13:46Z</time>
      </trkpt>
      <trkpt lat="48.21048" lon="-3.12615">
        <ele>131</ele>
        <time>2016-02-04T13:13:49Z</time>
      </trkpt>
      <trkpt lat="48.21048" lon="-3.1261">
        <ele>131</ele>
        <time>2016-02-04T13:13:52Z</time>
      </trkpt>
      <trkpt lat="48.21047" lon="-3.12603">
        <ele>131</ele>
        <time>2016-02-04T13:13:55Z</time>
      </trkpt>
      <trkpt lat="48.21048" lon="-3.12597">
        <ele>131</ele>
        <time>2016-02-04T13:13:58Z</time>
      </trkpt>
      <trkpt lat="48.21047" lon="-3.12592">
        <ele>131</ele>
        <time>2016-02-04T13:14:01Z</time>
      </trkpt>
      <trkpt lat="48.21049" lon="-3.12586">
        <ele>131</ele>
        <time>2016-02-04T13:14:04Z</time>
      </trkpt>
      <trkpt lat="48.21049" lon="-3.12579">
        <ele>131</ele>
        <time>2016-02-04T13:14:07Z</time>
      </trkpt>
      <trkpt lat="48.21051" lon="-3.12574">
        <ele>131</ele>
        <time>2016-02-04T13:14:10Z</time>
      </trkpt>
      <trkpt lat="48.21052" lon="-3.12568">
        <ele>131</ele>
        <time>2016-02-04T13:14:13Z</time>
      </trkpt>
      <trkpt lat="48.21053" lon="-3.12561">
        <ele>131</ele>
        <time>2016-02-04T13:14:17Z</time>
      </trkpt>
      <trkpt lat="48.21052" lon="-3.12555">
        <ele>131</ele>
        <time>2016-02-04T13:14:20Z</time>
      </trkpt>
      <trkpt lat="48.21053" lon="-3.12549">
        <ele>130</ele>
        <time>2016-02-04T13:14:23Z</time>
      </trkpt>
      <trkpt lat="48.21053" lon="-3.12543">
        <ele>130</ele>
        <time>2016-02-04T13:14:26Z</time>
      </trkpt>
      <trkpt lat="48.21053" lon="-3.12537">
        <ele>129</ele>
        <time>2016-02-04T13:14:29Z</time>
      </trkpt>
      <trkpt lat="48.21054" lon="-3.12531">
        <ele>129</ele>
        <time>2016-02-04T13:14:32Z</time>
      </trkpt>
      <trkpt lat="48.21056" lon="-3.12525">
        <ele>129</ele>
        <time>2016-02-04T13:14:35Z</time>
      </trkpt>
      <trkpt lat="48.21055" lon="-3.12519">
        <ele>129</ele>
        <time>2016-02-04T13:14:38Z</time>
      </trkpt>
      <trkpt lat="48.21056" lon="-3.12513">
        <ele>128</ele>
        <time>2016-02-04T13:14:41Z</time>
      </trkpt>
      <trkpt lat="48.21056" lon="-3.12508">
        <ele>128</ele>
        <time>2016-02-04T13:14:44Z</time>
      </trkpt>
      <trkpt lat="48.21056" lon="-3.12502">
        <ele>128</ele>
        <time>2016-02-04T13:14:47Z</time>
      </trkpt>
      <trkpt lat="48.21056" lon="-3.12496">
        <ele>128</ele>
        <time>2016-02-04T13:14:50Z</time>
      </trkpt>
      <trkpt lat="48.21056" lon="-3.1249">
        <ele>128</ele>
        <time>2016-02-04T13:14:53Z</time>
      </trkpt>
      <trkpt lat="48.21056" lon="-3.12484">
        <ele>128</ele>
        <time>2016-02-04T13:14:56Z</time>
      </trkpt>
      <trkpt lat="48.21056" lon="-3.12478">
        <ele>128</ele>
        <time>2016-02-04T13:14:59Z</time>
      </trkpt>
      <trkpt lat="48.21057" lon="-3.12472">
        <ele>128</ele>
        <time>2016-02-04T13:15:02Z</time>
      </trkpt>
      <trkpt lat="48.21058" lon="-3.12466">
        <ele>128</ele>
        <time>2016-02-04T13:15:05Z</time>
      </trkpt>
      <trkpt lat="48.21058" lon="-3.1246">
        <ele>128</ele>
        <time>2016-02-04T13:15:08Z</time>
      </trkpt>
      <trkpt lat="48.21058" lon="-3.12455">
        <ele>128</ele>
        <time>2016-02-04T13:15:11Z</time>
      </trkpt>
      <trkpt lat="48.21058" lon="-3.12449">
        <ele>128</ele>
        <time>2016-02-04T13:15:14Z</time>
      </trkpt>
      <trkpt lat="48.21058" lon="-3.12443">
        <ele>128</ele>
        <time>2016-02-04T13:15:17Z</time>
      </trkpt>
      <trkpt lat="48.21059" lon="-3.12437">
        <ele>128</ele>
        <time>2016-02-04T13:15:20Z</time>
      </trkpt>
      <trkpt lat="48.21059" lon="-3.12432">
        <ele>128</ele>
        <time>2016-02-04T13:15:23Z</time>
      </trkpt>
      <trkpt lat="48.21059" lon="-3.12427">
        <ele>128</ele>
        <time>2016-02-04T13:15:26Z</time>
      </trkpt>
      <trkpt lat="48.21061" lon="-3.12423">
        <ele>128</ele>
        <time>2016-02-04T13:15:29Z</time>
      </trkpt>
      <trkpt lat="48.2106" lon="-3.12417">
        <ele>128</ele>
        <time>2016-02-04T13:15:32Z</time>
      </trkpt>
      <trkpt lat="48.21061" lon="-3.12412">
        <ele>128</ele>
        <time>2016-02-04T13:15:35Z</time>
      </trkpt>
      <trkpt lat="48.21062" lon="-3.12407">
        <ele>127</ele>
        <time>2016-02-04T13:15:38Z</time>
      </trkpt>
      <trkpt lat="48.21062" lon="-3.12402">
        <ele>126</ele>
        <time>2016-02-04T13:15:41Z</time>
      </trkpt>
      <trkpt lat="48.21062" lon="-3.12395">
        <ele>126</ele>
        <time>2016-02-04T13:15:45Z</time>
      </trkpt>
      <trkpt lat="48.21063" lon="-3.12389">
        <ele>126</ele>
        <time>2016-02-04T13:15:49Z</time>
      </trkpt>
      <trkpt lat="48.21064" lon="-3.12385">
        <ele>126</ele>
        <time>2016-02-04T13:15:52Z</time>
      </trkpt>
      <trkpt lat="48.21064" lon="-3.12378">
        <ele>125</ele>
        <time>2016-02-04T13:15:55Z</time>
      </trkpt>
      <trkpt lat="48.21065" lon="-3.12373">
        <ele>125</ele>
        <time>2016-02-04T13:15:58Z</time>
      </trkpt>
      <trkpt lat="48.21064" lon="-3.12367">
        <ele>125</ele>
        <time>2016-02-04T13:16:01Z</time>
      </trkpt>
      <trkpt lat="48.21064" lon="-3.12359">
        <ele>125</ele>
        <time>2016-02-04T13:16:04Z</time>
      </trkpt>
      <trkpt lat="48.21066" lon="-3.12354">
        <ele>125</ele>
        <time>2016-02-04T13:16:07Z</time>
      </trkpt>
      <trkpt lat="48.21067" lon="-3.12348">
        <ele>125</ele>
        <time>2016-02-04T13:16:11Z</time>
      </trkpt>
      <trkpt lat="48.21068" lon="-3.12343">
        <ele>125</ele>
        <time>2016-02-04T13:16:14Z</time>
      </trkpt>
      <trkpt lat="48.21069" lon="-3.12337">
        <ele>124</ele>
        <time>2016-02-04T13:16:18Z</time>
      </trkpt>
      <trkpt lat="48.21071" lon="-3.12331">
        <ele>123</ele>
        <time>2016-02-04T13:16:21Z</time>
      </trkpt>
      <trkpt lat="48.21071" lon="-3.12326">
        <ele>123</ele>
        <time>2016-02-04T13:16:24Z</time>
      </trkpt>
      <trkpt lat="48.21073" lon="-3.12319">
        <ele>122</ele>
        <time>2016-02-04T13:16:28Z</time>
      </trkpt>
      <trkpt lat="48.21073" lon="-3.12314">
        <ele>122</ele>
        <time>2016-02-04T13:16:31Z</time>
      </trkpt>
      <trkpt lat="48.21074" lon="-3.12309">
        <ele>121</ele>
        <time>2016-02-04T13:16:34Z</time>
      </trkpt>
      <trkpt lat="48.21075" lon="-3.123">
        <ele>121</ele>
        <time>2016-02-04T13:16:39Z</time>
      </trkpt>
      <trkpt lat="48.21075" lon="-3.12293">
        <ele>121</ele>
        <time>2016-02-04T13:16:43Z</time>
      </trkpt>
      <trkpt lat="48.21075" lon="-3.12288">
        <ele>121</ele>
        <time>2016-02-04T13:16:46Z</time>
      </trkpt>
      <trkpt lat="48.21075" lon="-3.12282">
        <ele>121</ele>
        <time>2016-02-04T13:16:49Z</time>
      </trkpt>
      <trkpt lat="48.21074" lon="-3.12276">
        <ele>121</ele>
        <time>2016-02-04T13:16:52Z</time>
      </trkpt>
      <trkpt lat="48.21074" lon="-3.12271">
        <ele>121</ele>
        <time>2016-02-04T13:16:55Z</time>
      </trkpt>
      <trkpt lat="48.21073" lon="-3.12265">
        <ele>121</ele>
        <time>2016-02-04T13:16:58Z</time>
      </trkpt>
      <trkpt lat="48.21073" lon="-3.12259">
        <ele>121</ele>
        <time>2016-02-04T13:17:01Z</time>
      </trkpt>
      <trkpt lat="48.21073" lon="-3.12253">
        <ele>121</ele>
        <time>2016-02-04T13:17:04Z</time>
      </trkpt>
      <trkpt lat="48.21074" lon="-3.12247">
        <ele>121</ele>
        <time>2016-02-04T13:17:07Z</time>
      </trkpt>
      <trkpt lat="48.21074" lon="-3.12242">
        <ele>121</ele>
        <time>2016-02-04T13:17:10Z</time>
      </trkpt>
      <trkpt lat="48.21075" lon="-3.12236">
        <ele>121</ele>
        <time>2016-02-04T13:17:13Z</time>
      </trkpt>
      <trkpt lat="48.21075" lon="-3.12231">
        <ele>121</ele>
        <time>2016-02-04T13:17:16Z</time>
      </trkpt>
      <trkpt lat="48.21076" lon="-3.12226">
        <ele>121</ele>
        <time>2016-02-04T13:17:19Z</time>
      </trkpt>
      <trkpt lat="48.21076" lon="-3.1222">
        <ele>121</ele>
        <time>2016-02-04T13:17:22Z</time>
      </trkpt>
      <trkpt lat="48.21076" lon="-3.12214">
        <ele>121</ele>
        <time>2016-02-04T13:17:25Z</time>
      </trkpt>
      <trkpt lat="48.21076" lon="-3.12209">
        <ele>121</ele>
        <time>2016-02-04T13:17:28Z</time>
      </trkpt>
      <trkpt lat="48.21076" lon="-3.12203">
        <ele>121</ele>
        <time>2016-02-04T13:17:31Z</time>
      </trkpt>
      <trkpt lat="48.21077" lon="-3.12198">
        <ele>121</ele>
        <time>2016-02-04T13:17:34Z</time>
      </trkpt>
      <trkpt lat="48.21077" lon="-3.12193">
        <ele>121</ele>
        <time>2016-02-04T13:17:37Z</time>
      </trkpt>
      <trkpt lat="48.21076" lon="-3.12187">
        <ele>121</ele>
        <time>2016-02-04T13:17:40Z</time>
      </trkpt>
      <trkpt lat="48.21076" lon="-3.1218">
        <ele>121</ele>
        <time>2016-02-04T13:17:43Z</time>
      </trkpt>
      <trkpt lat="48.21075" lon="-3.12174">
        <ele>121</ele>
        <time>2016-02-04T13:17:46Z</time>
      </trkpt>
      <trkpt lat="48.21076" lon="-3.12168">
        <ele>121</ele>
        <time>2016-02-04T13:17:49Z</time>
      </trkpt>
      <trkpt lat="48.21076" lon="-3.12162">
        <ele>121</ele>
        <time>2016-02-04T13:17:52Z</time>
      </trkpt>
      <trkpt lat="48.21077" lon="-3.12157">
        <ele>121</ele>
        <time>2016-02-04T13:17:55Z</time>
      </trkpt>
      <trkpt lat="48.21077" lon="-3.12151">
        <ele>121</ele>
        <time>2016-02-04T13:17:58Z</time>
      </trkpt>
      <trkpt lat="48.21078" lon="-3.12145">
        <ele>121</ele>
        <time>2016-02-04T13:18:01Z</time>
      </trkpt>
      <trkpt lat="48.21077" lon="-3.1214">
        <ele>121</ele>
        <time>2016-02-04T13:18:04Z</time>
      </trkpt>
      <trkpt lat="48.21077" lon="-3.12135">
        <ele>121</ele>
        <time>2016-02-04T13:18:07Z</time>
      </trkpt>
      <trkpt lat="48.21077" lon="-3.12128">
        <ele>121</ele>
        <time>2016-02-04T13:18:10Z</time>
      </trkpt>
      <trkpt lat="48.21077" lon="-3.12122">
        <ele>121</ele>
        <time>2016-02-04T13:18:13Z</time>
      </trkpt>
      <trkpt lat="48.21077" lon="-3.12117">
        <ele>121</ele>
        <time>2016-02-04T13:18:16Z</time>
      </trkpt>
      <trkpt lat="48.21077" lon="-3.1211">
        <ele>121</ele>
        <time>2016-02-04T13:18:19Z</time>
      </trkpt>
      <trkpt lat="48.21078" lon="-3.12105">
        <ele>121</ele>
        <time>2016-02-04T13:18:22Z</time>
      </trkpt>
      <trkpt lat="48.21078" lon="-3.12099">
        <ele>121</ele>
        <time>2016-02-04T13:18:25Z</time>
      </trkpt>
      <trkpt lat="48.21079" lon="-3.12093">
        <ele>121</ele>
        <time>2016-02-04T13:18:28Z</time>
      </trkpt>
      <trkpt lat="48.21079" lon="-3.12088">
        <ele>121</ele>
        <time>2016-02-04T13:18:31Z</time>
      </trkpt>
      <trkpt lat="48.21079" lon="-3.12082">
        <ele>121</ele>
        <time>2016-02-04T13:18:34Z</time>
      </trkpt>
      <trkpt lat="48.2108" lon="-3.12075">
        <ele>121</ele>
        <time>2016-02-04T13:18:37Z</time>
      </trkpt>
      <trkpt lat="48.2108" lon="-3.12069">
        <ele>121</ele>
        <time>2016-02-04T13:18:40Z</time>
      </trkpt>
      <trkpt lat="48.2108" lon="-3.12064">
        <ele>121</ele>
        <time>2016-02-04T13:18:43Z</time>
      </trkpt>
      <trkpt lat="48.2108" lon="-3.12058">
        <ele>121</ele>
        <time>2016-02-04T13:18:46Z</time>
      </trkpt>
      <trkpt lat="48.2108" lon="-3.12052">
        <ele>121</ele>
        <time>2016-02-04T13:18:49Z</time>
      </trkpt>
      <trkpt lat="48.21081" lon="-3.12046">
        <ele>121</ele>
        <time>2016-02-04T13:18:52Z</time>
      </trkpt>
      <trkpt lat="48.2108" lon="-3.12038">
        <ele>121</ele>
        <time>2016-02-04T13:18:56Z</time>
      </trkpt>
      <trkpt lat="48.21079" lon="-3.12034">
        <ele>121</ele>
        <time>2016-02-04T13:19:00Z</time>
      </trkpt>
      <trkpt lat="48.21078" lon="-3.12029">
        <ele>121</ele>
        <time>2016-02-04T13:19:03Z</time>
      </trkpt>
      <trkpt lat="48.21078" lon="-3.12023">
        <ele>122</ele>
        <time>2016-02-04T13:19:06Z</time>
      </trkpt>
      <trkpt lat="48.21079" lon="-3.12016">
        <ele>123</ele>
        <time>2016-02-04T13:19:09Z</time>
      </trkpt>
      <trkpt lat="48.21079" lon="-3.1201">
        <ele>123</ele>
        <time>2016-02-04T13:19:12Z</time>
      </trkpt>
      <trkpt lat="48.21079" lon="-3.12004">
        <ele>124</ele>
        <time>2016-02-04T13:19:15Z</time>
      </trkpt>
      <trkpt lat="48.21078" lon="-3.11996">
        <ele>126</ele>
        <time>2016-02-04T13:19:19Z</time>
      </trkpt>
      <trkpt lat="48.21079" lon="-3.1199">
        <ele>127</ele>
        <time>2016-02-04T13:19:22Z</time>
      </trkpt>
      <trkpt lat="48.2108" lon="-3.11983">
        <ele>127</ele>
        <time>2016-02-04T13:19:26Z</time>
      </trkpt>
      <trkpt lat="48.21081" lon="-3.11978">
        <ele>127</ele>
        <time>2016-02-04T13:19:29Z</time>
      </trkpt>
      <trkpt lat="48.21081" lon="-3.11973">
        <ele>127</ele>
        <time>2016-02-04T13:19:32Z</time>
      </trkpt>
      <trkpt lat="48.21081" lon="-3.11967">
        <ele>127</ele>
        <time>2016-02-04T13:19:35Z</time>
      </trkpt>
      <trkpt lat="48.21079" lon="-3.11963">
        <ele>127</ele>
        <time>2016-02-04T13:19:38Z</time>
      </trkpt>
      <trkpt lat="48.21075" lon="-3.11958">
        <ele>130</ele>
        <time>2016-02-04T13:19:41Z</time>
      </trkpt>
      <trkpt lat="48.21073" lon="-3.11952">
        <ele>133</ele>
        <time>2016-02-04T13:19:44Z</time>
      </trkpt>
      <trkpt lat="48.2107" lon="-3.11946">
        <ele>136</ele>
        <time>2016-02-04T13:19:47Z</time>
      </trkpt>
      <trkpt lat="48.21072" lon="-3.1194">
        <ele>139</ele>
        <time>2016-02-04T13:19:50Z</time>
      </trkpt>
      <trkpt lat="48.21071" lon="-3.11934">
        <ele>139</ele>
        <time>2016-02-04T13:19:53Z</time>
      </trkpt>
      <trkpt lat="48.2107" lon="-3.11928">
        <ele>139</ele>
        <time>2016-02-04T13:19:56Z</time>
      </trkpt>
      <trkpt lat="48.21072" lon="-3.11922">
        <ele>139</ele>
        <time>2016-02-04T13:19:59Z</time>
      </trkpt>
      <trkpt lat="48.21073" lon="-3.11915">
        <ele>139</ele>
        <time>2016-02-04T13:20:02Z</time>
      </trkpt>
      <trkpt lat="48.21072" lon="-3.11909">
        <ele>138</ele>
        <time>2016-02-04T13:20:05Z</time>
      </trkpt>
      <trkpt lat="48.2107" lon="-3.11905">
        <ele>138</ele>
        <time>2016-02-04T13:20:08Z</time>
      </trkpt>
      <trkpt lat="48.21071" lon="-3.11897">
        <ele>136</ele>
        <time>2016-02-04T13:20:12Z</time>
      </trkpt>
      <trkpt lat="48.21069" lon="-3.11893">
        <ele>136</ele>
        <time>2016-02-04T13:20:15Z</time>
      </trkpt>
      <trkpt lat="48.2107" lon="-3.11887">
        <ele>136</ele>
        <time>2016-02-04T13:20:18Z</time>
      </trkpt>
      <trkpt lat="48.21069" lon="-3.11881">
        <ele>136</ele>
        <time>2016-02-04T13:20:21Z</time>
      </trkpt>
      <trkpt lat="48.21068" lon="-3.11877">
        <ele>136</ele>
        <time>2016-02-04T13:20:24Z</time>
      </trkpt>
      <trkpt lat="48.21068" lon="-3.11872">
        <ele>136</ele>
        <time>2016-02-04T13:20:27Z</time>
      </trkpt>
      <trkpt lat="48.21067" lon="-3.11866">
        <ele>136</ele>
        <time>2016-02-04T13:20:31Z</time>
      </trkpt>
      <trkpt lat="48.21065" lon="-3.11861">
        <ele>136</ele>
        <time>2016-02-04T13:20:34Z</time>
      </trkpt>
      <trkpt lat="48.21062" lon="-3.11856">
        <ele>136</ele>
        <time>2016-02-04T13:20:37Z</time>
      </trkpt>
      <trkpt lat="48.21058" lon="-3.11851">
        <ele>136</ele>
        <time>2016-02-04T13:20:40Z</time>
      </trkpt>
      <trkpt lat="48.21058" lon="-3.11845">
        <ele>136</ele>
        <time>2016-02-04T13:20:44Z</time>
      </trkpt>
      <trkpt lat="48.21058" lon="-3.1184">
        <ele>136</ele>
        <time>2016-02-04T13:20:47Z</time>
      </trkpt>
      <trkpt lat="48.21055" lon="-3.11834">
        <ele>136</ele>
        <time>2016-02-04T13:20:51Z</time>
      </trkpt>
      <trkpt lat="48.21053" lon="-3.11829">
        <ele>136</ele>
        <time>2016-02-04T13:20:54Z</time>
      </trkpt>
      <trkpt lat="48.21052" lon="-3.11824">
        <ele>136</ele>
        <time>2016-02-04T13:20:57Z</time>
      </trkpt>
      <trkpt lat="48.21051" lon="-3.11816">
        <ele>136</ele>
        <time>2016-02-04T13:21:01Z</time>
      </trkpt>
      <trkpt lat="48.21051" lon="-3.11811">
        <ele>136</ele>
        <time>2016-02-04T13:21:04Z</time>
      </trkpt>
      <trkpt lat="48.21047" lon="-3.11807">
        <ele>136</ele>
        <time>2016-02-04T13:21:07Z</time>
      </trkpt>
      <trkpt lat="48.21046" lon="-3.11801">
        <ele>136</ele>
        <time>2016-02-04T13:21:11Z</time>
      </trkpt>
      <trkpt lat="48.21044" lon="-3.11795">
        <ele>136</ele>
        <time>2016-02-04T13:21:14Z</time>
      </trkpt>
      <trkpt lat="48.21043" lon="-3.11791">
        <ele>136</ele>
        <time>2016-02-04T13:21:17Z</time>
      </trkpt>
      <trkpt lat="48.21043" lon="-3.11785">
        <ele>136</ele>
        <time>2016-02-04T13:21:20Z</time>
      </trkpt>
      <trkpt lat="48.21041" lon="-3.1178">
        <ele>136</ele>
        <time>2016-02-04T13:21:23Z</time>
      </trkpt>
      <trkpt lat="48.21038" lon="-3.11775">
        <ele>136</ele>
        <time>2016-02-04T13:21:26Z</time>
      </trkpt>
      <trkpt lat="48.21037" lon="-3.1177">
        <ele>136</ele>
        <time>2016-02-04T13:21:29Z</time>
      </trkpt>
      <trkpt lat="48.21033" lon="-3.11766">
        <ele>136</ele>
        <time>2016-02-04T13:21:32Z</time>
      </trkpt>
      <trkpt lat="48.21031" lon="-3.11762">
        <ele>136</ele>
        <time>2016-02-04T13:21:35Z</time>
      </trkpt>
      <trkpt lat="48.2103" lon="-3.11756">
        <ele>136</ele>
        <time>2016-02-04T13:21:38Z</time>
      </trkpt>
      <trkpt lat="48.21029" lon="-3.11751">
        <ele>136</ele>
        <time>2016-02-04T13:21:41Z</time>
      </trkpt>
      <trkpt lat="48.21024" lon="-3.11745">
        <ele>137</ele>
        <time>2016-02-04T13:21:45Z</time>
      </trkpt>
      <trkpt lat="48.2102" lon="-3.11739">
        <ele>140</ele>
        <time>2016-02-04T13:21:49Z</time>
      </trkpt>
      <trkpt lat="48.2102" lon="-3.11733">
        <ele>140</ele>
        <time>2016-02-04T13:21:52Z</time>
      </trkpt>
      <trkpt lat="48.2102" lon="-3.11727">
        <ele>140</ele>
        <time>2016-02-04T13:21:55Z</time>
      </trkpt>
      <trkpt lat="48.21018" lon="-3.11722">
        <ele>140</ele>
        <time>2016-02-04T13:21:58Z</time>
      </trkpt>
      <trkpt lat="48.21019" lon="-3.11716">
        <ele>140</ele>
        <time>2016-02-04T13:22:01Z</time>
      </trkpt>
      <trkpt lat="48.21017" lon="-3.11709">
        <ele>140</ele>
        <time>2016-02-04T13:22:05Z</time>
      </trkpt>
      <trkpt lat="48.21014" lon="-3.11705">
        <ele>140</ele>
        <time>2016-02-04T13:22:08Z</time>
      </trkpt>
      <trkpt lat="48.21015" lon="-3.11698">
        <ele>140</ele>
        <time>2016-02-04T13:22:11Z</time>
      </trkpt>
      <trkpt lat="48.21014" lon="-3.11692">
        <ele>139</ele>
        <time>2016-02-04T13:22:14Z</time>
      </trkpt>
      <trkpt lat="48.21014" lon="-3.11687">
        <ele>137</ele>
        <time>2016-02-04T13:22:17Z</time>
      </trkpt>
      <trkpt lat="48.21013" lon="-3.11682">
        <ele>136</ele>
        <time>2016-02-04T13:22:20Z</time>
      </trkpt>
      <trkpt lat="48.21012" lon="-3.11677">
        <ele>134</ele>
        <time>2016-02-04T13:22:23Z</time>
      </trkpt>
      <trkpt lat="48.21011" lon="-3.11672">
        <ele>133</ele>
        <time>2016-02-04T13:22:26Z</time>
      </trkpt>
      <trkpt lat="48.2101" lon="-3.11666">
        <ele>132</ele>
        <time>2016-02-04T13:22:29Z</time>
      </trkpt>
      <trkpt lat="48.21009" lon="-3.11661">
        <ele>131</ele>
        <time>2016-02-04T13:22:32Z</time>
      </trkpt>
      <trkpt lat="48.21008" lon="-3.11656">
        <ele>130</ele>
        <time>2016-02-04T13:22:35Z</time>
      </trkpt>
      <trkpt lat="48.21005" lon="-3.11651">
        <ele>130</ele>
        <time>2016-02-04T13:22:38Z</time>
      </trkpt>
      <trkpt lat="48.21004" lon="-3.11646">
        <ele>129</ele>
        <time>2016-02-04T13:22:41Z</time>
      </trkpt>
      <trkpt lat="48.21002" lon="-3.11641">
        <ele>129</ele>
        <time>2016-02-04T13:22:44Z</time>
      </trkpt>
      <trkpt lat="48.21" lon="-3.11636">
        <ele>128</ele>
        <time>2016-02-04T13:22:47Z</time>
      </trkpt>
      <trkpt lat="48.20997" lon="-3.11632">
        <ele>128</ele>
        <time>2016-02-04T13:22:50Z</time>
      </trkpt>
      <trkpt lat="48.20994" lon="-3.11627">
        <ele>128</ele>
        <time>2016-02-04T13:22:53Z</time>
      </trkpt>
      <trkpt lat="48.20993" lon="-3.11622">
        <ele>128</ele>
        <time>2016-02-04T13:22:56Z</time>
      </trkpt>
      <trkpt lat="48.20989" lon="-3.11617">
        <ele>128</ele>
        <time>2016-02-04T13:22:59Z</time>
      </trkpt>
      <trkpt lat="48.20985" lon="-3.11613">
        <ele>128</ele>
        <time>2016-02-04T13:23:02Z</time>
      </trkpt>
      <trkpt lat="48.20982" lon="-3.11607">
        <ele>128</ele>
        <time>2016-02-04T13:23:06Z</time>
      </trkpt>
      <trkpt lat="48.20979" lon="-3.11603">
        <ele>128</ele>
        <time>2016-02-04T13:23:09Z</time>
      </trkpt>
      <trkpt lat="48.20973" lon="-3.11599">
        <ele>129</ele>
        <time>2016-02-04T13:23:13Z</time>
      </trkpt>
      <trkpt lat="48.2097" lon="-3.11595">
        <ele>130</ele>
        <time>2016-02-04T13:23:17Z</time>
      </trkpt>
      <trkpt lat="48.20967" lon="-3.1159">
        <ele>130</ele>
        <time>2016-02-04T13:23:21Z</time>
      </trkpt>
      <trkpt lat="48.20964" lon="-3.11587">
        <ele>130</ele>
        <time>2016-02-04T13:23:24Z</time>
      </trkpt>
      <trkpt lat="48.2096" lon="-3.11583">
        <ele>130</ele>
        <time>2016-02-04T13:23:28Z</time>
      </trkpt>
      <trkpt lat="48.20956" lon="-3.11581">
        <ele>130</ele>
        <time>2016-02-04T13:23:32Z</time>
      </trkpt>
      <trkpt lat="48.20953" lon="-3.11579">
        <ele>130</ele>
        <time>2016-02-04T13:23:35Z</time>
      </trkpt>
      <trkpt lat="48.20949" lon="-3.11578">
        <ele>129</ele>
        <time>2016-02-04T13:23:38Z</time>
      </trkpt>
      <trkpt lat="48.20946" lon="-3.11578">
        <ele>129</ele>
        <time>2016-02-04T13:23:41Z</time>
      </trkpt>
      <trkpt lat="48.20943" lon="-3.11577">
        <ele>128</ele>
        <time>2016-02-04T13:23:44Z</time>
      </trkpt>
      <trkpt lat="48.20939" lon="-3.11578">
        <ele>127</ele>
        <time>2016-02-04T13:23:47Z</time>
      </trkpt>
      <trkpt lat="48.20936" lon="-3.11579">
        <ele>127</ele>
        <time>2016-02-04T13:23:50Z</time>
      </trkpt>
      <trkpt lat="48.20932" lon="-3.11581">
        <ele>126</ele>
        <time>2016-02-04T13:23:54Z</time>
      </trkpt>
      <trkpt lat="48.20928" lon="-3.11584">
        <ele>126</ele>
        <time>2016-02-04T13:23:57Z</time>
      </trkpt>
      <trkpt lat="48.20924" lon="-3.11589">
        <ele>126</ele>
        <time>2016-02-04T13:24:01Z</time>
      </trkpt>
      <trkpt lat="48.20919" lon="-3.11593">
        <ele>126</ele>
        <time>2016-02-04T13:24:05Z</time>
      </trkpt>
      <trkpt lat="48.20916" lon="-3.11596">
        <ele>125</ele>
        <time>2016-02-04T13:24:09Z</time>
      </trkpt>
      <trkpt lat="48.20912" lon="-3.11599">
        <ele>125</ele>
        <time>2016-02-04T13:24:12Z</time>
      </trkpt>
      <trkpt lat="48.20909" lon="-3.11604">
        <ele>125</ele>
        <time>2016-02-04T13:24:15Z</time>
      </trkpt>
      <trkpt lat="48.20905" lon="-3.11609">
        <ele>125</ele>
        <time>2016-02-04T13:24:18Z</time>
      </trkpt>
      <trkpt lat="48.20901" lon="-3.11612">
        <ele>125</ele>
        <time>2016-02-04T13:24:22Z</time>
      </trkpt>
      <trkpt lat="48.20898" lon="-3.11615">
        <ele>125</ele>
        <time>2016-02-04T13:24:26Z</time>
      </trkpt>
      <trkpt lat="48.20894" lon="-3.11616">
        <ele>125</ele>
        <time>2016-02-04T13:24:30Z</time>
      </trkpt>
      <trkpt lat="48.2089" lon="-3.11618">
        <ele>125</ele>
        <time>2016-02-04T13:24:34Z</time>
      </trkpt>
      <trkpt lat="48.20887" lon="-3.11623">
        <ele>128</ele>
        <time>2016-02-04T13:24:37Z</time>
      </trkpt>
      <trkpt lat="48.20884" lon="-3.11626">
        <ele>131</ele>
        <time>2016-02-04T13:24:40Z</time>
      </trkpt>
      <trkpt lat="48.20881" lon="-3.11626">
        <ele>136</ele>
        <time>2016-02-04T13:24:45Z</time>
      </trkpt>
      <trkpt lat="48.20877" lon="-3.11625">
        <ele>140</ele>
        <time>2016-02-04T13:24:49Z</time>
      </trkpt>
      <trkpt lat="48.20875" lon="-3.11624">
        <ele>142</ele>
        <time>2016-02-04T13:24:52Z</time>
      </trkpt>
      <trkpt lat="48.20872" lon="-3.11625">
        <ele>146</ele>
        <time>2016-02-04T13:24:56Z</time>
      </trkpt>
      <trkpt lat="48.20866" lon="-3.11622">
        <ele>147</ele>
        <time>2016-02-04T13:24:59Z</time>
      </trkpt>
      <trkpt lat="48.20862" lon="-3.11621">
        <ele>147</ele>
        <time>2016-02-04T13:25:02Z</time>
      </trkpt>
      <trkpt lat="48.20858" lon="-3.1162">
        <ele>147</ele>
        <time>2016-02-04T13:25:05Z</time>
      </trkpt>
      <trkpt lat="48.20853" lon="-3.11619">
        <ele>147</ele>
        <time>2016-02-04T13:25:09Z</time>
      </trkpt>
      <trkpt lat="48.20848" lon="-3.11618">
        <ele>147</ele>
        <time>2016-02-04T13:25:12Z</time>
      </trkpt>
      <trkpt lat="48.20844" lon="-3.11616">
        <ele>147</ele>
        <time>2016-02-04T13:25:15Z</time>
      </trkpt>
      <trkpt lat="48.20839" lon="-3.11614">
        <ele>147</ele>
        <time>2016-02-04T13:25:18Z</time>
      </trkpt>
      <trkpt lat="48.20834" lon="-3.11612">
        <ele>147</ele>
        <time>2016-02-04T13:25:21Z</time>
      </trkpt>
      <trkpt lat="48.20829" lon="-3.1161">
        <ele>144</ele>
        <time>2016-02-04T13:25:24Z</time>
      </trkpt>
      <trkpt lat="48.20824" lon="-3.11609">
        <ele>142</ele>
        <time>2016-02-04T13:25:27Z</time>
      </trkpt>
      <trkpt lat="48.20819" lon="-3.11607">
        <ele>141</ele>
        <time>2016-02-04T13:25:30Z</time>
      </trkpt>
      <trkpt lat="48.20815" lon="-3.11607">
        <ele>141</ele>
        <time>2016-02-04T13:25:33Z</time>
      </trkpt>
      <trkpt lat="48.20809" lon="-3.11607">
        <ele>141</ele>
        <time>2016-02-04T13:25:36Z</time>
      </trkpt>
      <trkpt lat="48.20804" lon="-3.11606">
        <ele>141</ele>
        <time>2016-02-04T13:25:39Z</time>
      </trkpt>
      <trkpt lat="48.20798" lon="-3.11602">
        <ele>140</ele>
        <time>2016-02-04T13:25:43Z</time>
      </trkpt>
      <trkpt lat="48.20794" lon="-3.11601">
        <ele>140</ele>
        <time>2016-02-04T13:25:46Z</time>
      </trkpt>
      <trkpt lat="48.2079" lon="-3.11598">
        <ele>139</ele>
        <time>2016-02-04T13:25:50Z</time>
      </trkpt>
      <trkpt lat="48.20786" lon="-3.11596">
        <ele>138</ele>
        <time>2016-02-04T13:25:53Z</time>
      </trkpt>
      <trkpt lat="48.20783" lon="-3.11592">
        <ele>137</ele>
        <time>2016-02-04T13:25:57Z</time>
      </trkpt>
      <trkpt lat="48.2078" lon="-3.11589">
        <ele>137</ele>
        <time>2016-02-04T13:26:00Z</time>
      </trkpt>
      <trkpt lat="48.20776" lon="-3.11586">
        <ele>137</ele>
        <time>2016-02-04T13:26:03Z</time>
      </trkpt>
      <trkpt lat="48.20773" lon="-3.11583">
        <ele>136</ele>
        <time>2016-02-04T13:26:06Z</time>
      </trkpt>
      <trkpt lat="48.20769" lon="-3.11581">
        <ele>135</ele>
        <time>2016-02-04T13:26:09Z</time>
      </trkpt>
      <trkpt lat="48.20765" lon="-3.11579">
        <ele>135</ele>
        <time>2016-02-04T13:26:12Z</time>
      </trkpt>
      <trkpt lat="48.20761" lon="-3.11574">
        <ele>135</ele>
        <time>2016-02-04T13:26:16Z</time>
      </trkpt>
      <trkpt lat="48.20757" lon="-3.11568">
        <ele>135</ele>
        <time>2016-02-04T13:26:20Z</time>
      </trkpt>
      <trkpt lat="48.20753" lon="-3.11563">
        <ele>135</ele>
        <time>2016-02-04T13:26:24Z</time>
      </trkpt>
      <trkpt lat="48.2075" lon="-3.11558">
        <ele>135</ele>
        <time>2016-02-04T13:26:27Z</time>
      </trkpt>
      <trkpt lat="48.20746" lon="-3.11553">
        <ele>134</ele>
        <time>2016-02-04T13:26:31Z</time>
      </trkpt>
      <trkpt lat="48.20743" lon="-3.11549">
        <ele>133</ele>
        <time>2016-02-04T13:26:34Z</time>
      </trkpt>
      <trkpt lat="48.20739" lon="-3.11544">
        <ele>132</ele>
        <time>2016-02-04T13:26:38Z</time>
      </trkpt>
      <trkpt lat="48.20735" lon="-3.1154">
        <ele>131</ele>
        <time>2016-02-04T13:26:42Z</time>
      </trkpt>
      <trkpt lat="48.20732" lon="-3.11536">
        <ele>131</ele>
        <time>2016-02-04T13:26:45Z</time>
      </trkpt>
      <trkpt lat="48.20728" lon="-3.11531">
        <ele>130</ele>
        <time>2016-02-04T13:26:49Z</time>
      </trkpt>
      <trkpt lat="48.20724" lon="-3.11527">
        <ele>129</ele>
        <time>2016-02-04T13:26:53Z</time>
      </trkpt>
      <trkpt lat="48.2072" lon="-3.11523">
        <ele>129</ele>
        <time>2016-02-04T13:26:57Z</time>
      </trkpt>
      <trkpt lat="48.20716" lon="-3.11517">
        <ele>129</ele>
        <time>2016-02-04T13:27:01Z</time>
      </trkpt>
      <trkpt lat="48.20712" lon="-3.11513">
        <ele>129</ele>
        <time>2016-02-04T13:27:05Z</time>
      </trkpt>
      <trkpt lat="48.20708" lon="-3.11507">
        <ele>129</ele>
        <time>2016-02-04T13:27:09Z</time>
      </trkpt>
      <trkpt lat="48.20705" lon="-3.11504">
        <ele>129</ele>
        <time>2016-02-04T13:27:12Z</time>
      </trkpt>
      <trkpt lat="48.20702" lon="-3.11499">
        <ele>128</ele>
        <time>2016-02-04T13:27:16Z</time>
      </trkpt>
      <trkpt lat="48.20699" lon="-3.11493">
        <ele>128</ele>
        <time>2016-02-04T13:27:20Z</time>
      </trkpt>
      <trkpt lat="48.20696" lon="-3.11488">
        <ele>128</ele>
        <time>2016-02-04T13:27:24Z</time>
      </trkpt>
      <trkpt lat="48.20694" lon="-3.11485">
        <ele>128</ele>
        <time>2016-02-04T13:27:27Z</time>
      </trkpt>
      <trkpt lat="48.2069" lon="-3.11481">
        <ele>127</ele>
        <time>2016-02-04T13:27:30Z</time>
      </trkpt>
      <trkpt lat="48.20686" lon="-3.11476">
        <ele>127</ele>
        <time>2016-02-04T13:27:34Z</time>
      </trkpt>
      <trkpt lat="48.20683" lon="-3.11472">
        <ele>127</ele>
        <time>2016-02-04T13:27:37Z</time>
      </trkpt>
      <trkpt lat="48.20681" lon="-3.11468">
        <ele>127</ele>
        <time>2016-02-04T13:27:40Z</time>
      </trkpt>
      <trkpt lat="48.20679" lon="-3.11463">
        <ele>127</ele>
        <time>2016-02-04T13:27:43Z</time>
      </trkpt>
      <trkpt lat="48.20675" lon="-3.11458">
        <ele>127</ele>
        <time>2016-02-04T13:27:47Z</time>
      </trkpt>
      <trkpt lat="48.20673" lon="-3.11453">
        <ele>127</ele>
        <time>2016-02-04T13:27:50Z</time>
      </trkpt>
      <trkpt lat="48.20671" lon="-3.11449">
        <ele>127</ele>
        <time>2016-02-04T13:27:53Z</time>
      </trkpt>
      <trkpt lat="48.20668" lon="-3.11443">
        <ele>127</ele>
        <time>2016-02-04T13:27:57Z</time>
      </trkpt>
      <trkpt lat="48.20665" lon="-3.11437">
        <ele>127</ele>
        <time>2016-02-04T13:28:01Z</time>
      </trkpt>
      <trkpt lat="48.20663" lon="-3.11432">
        <ele>127</ele>
        <time>2016-02-04T13:28:04Z</time>
      </trkpt>
      <trkpt lat="48.2066" lon="-3.11427">
        <ele>127</ele>
        <time>2016-02-04T13:28:07Z</time>
      </trkpt>
      <trkpt lat="48.20658" lon="-3.11422">
        <ele>127</ele>
        <time>2016-02-04T13:28:10Z</time>
      </trkpt>
      <trkpt lat="48.20655" lon="-3.11418">
        <ele>127</ele>
        <time>2016-02-04T13:28:13Z</time>
      </trkpt>
      <trkpt lat="48.20653" lon="-3.11413">
        <ele>127</ele>
        <time>2016-02-04T13:28:16Z</time>
      </trkpt>
      <trkpt lat="48.20652" lon="-3.11409">
        <ele>127</ele>
        <time>2016-02-04T13:28:19Z</time>
      </trkpt>
      <trkpt lat="48.20649" lon="-3.11403">
        <ele>127</ele>
        <time>2016-02-04T13:28:23Z</time>
      </trkpt>
      <trkpt lat="48.20646" lon="-3.11398">
        <ele>127</ele>
        <time>2016-02-04T13:28:27Z</time>
      </trkpt>
      <trkpt lat="48.20643" lon="-3.11392">
        <ele>127</ele>
        <time>2016-02-04T13:28:31Z</time>
      </trkpt>
      <trkpt lat="48.2064" lon="-3.11388">
        <ele>127</ele>
        <time>2016-02-04T13:28:34Z</time>
      </trkpt>
      <trkpt lat="48.20636" lon="-3.11383">
        <ele>127</ele>
        <time>2016-02-04T13:28:38Z</time>
      </trkpt>
      <trkpt lat="48.20633" lon="-3.11377">
        <ele>128</ele>
        <time>2016-02-04T13:28:42Z</time>
      </trkpt>
      <trkpt lat="48.2063" lon="-3.11371">
        <ele>128</ele>
        <time>2016-02-04T13:28:46Z</time>
      </trkpt>
      <trkpt lat="48.20627" lon="-3.11365">
        <ele>128</ele>
        <time>2016-02-04T13:28:50Z</time>
      </trkpt>
      <trkpt lat="48.20626" lon="-3.11359">
        <ele>128</ele>
        <time>2016-02-04T13:28:53Z</time>
      </trkpt>
      <trkpt lat="48.20624" lon="-3.11354">
        <ele>128</ele>
        <time>2016-02-04T13:28:56Z</time>
      </trkpt>
      <trkpt lat="48.20621" lon="-3.11348">
        <ele>128</ele>
        <time>2016-02-04T13:29:00Z</time>
      </trkpt>
      <trkpt lat="48.20618" lon="-3.11344">
        <ele>128</ele>
        <time>2016-02-04T13:29:03Z</time>
      </trkpt>
      <trkpt lat="48.20616" lon="-3.11339">
        <ele>128</ele>
        <time>2016-02-04T13:29:06Z</time>
      </trkpt>
      <trkpt lat="48.20614" lon="-3.11334">
        <ele>128</ele>
        <time>2016-02-04T13:29:09Z</time>
      </trkpt>
      <trkpt lat="48.2061" lon="-3.11331">
        <ele>128</ele>
        <time>2016-02-04T13:29:12Z</time>
      </trkpt>
      <trkpt lat="48.20608" lon="-3.11326">
        <ele>128</ele>
        <time>2016-02-04T13:29:15Z</time>
      </trkpt>
      <trkpt lat="48.20605" lon="-3.11321">
        <ele>128</ele>
        <time>2016-02-04T13:29:18Z</time>
      </trkpt>
      <trkpt lat="48.20602" lon="-3.11317">
        <ele>128</ele>
        <time>2016-02-04T13:29:21Z</time>
      </trkpt>
      <trkpt lat="48.206" lon="-3.11312">
        <ele>128</ele>
        <time>2016-02-04T13:29:24Z</time>
      </trkpt>
      <trkpt lat="48.20598" lon="-3.11307">
        <ele>128</ele>
        <time>2016-02-04T13:29:28Z</time>
      </trkpt>
      <trkpt lat="48.20595" lon="-3.11302">
        <ele>128</ele>
        <time>2016-02-04T13:29:32Z</time>
      </trkpt>
      <trkpt lat="48.20593" lon="-3.11297">
        <ele>128</ele>
        <time>2016-02-04T13:29:35Z</time>
      </trkpt>
      <trkpt lat="48.20592" lon="-3.11291">
        <ele>128</ele>
        <time>2016-02-04T13:29:38Z</time>
      </trkpt>
      <trkpt lat="48.20591" lon="-3.11285">
        <ele>128</ele>
        <time>2016-02-04T13:29:41Z</time>
      </trkpt>
      <trkpt lat="48.20589" lon="-3.1128">
        <ele>128</ele>
        <time>2016-02-04T13:29:44Z</time>
      </trkpt>
      <trkpt lat="48.20589" lon="-3.11273">
        <ele>128</ele>
        <time>2016-02-04T13:29:47Z</time>
      </trkpt>
      <trkpt lat="48.20588" lon="-3.11267">
        <ele>128</ele>
        <time>2016-02-04T13:29:50Z</time>
      </trkpt>
      <trkpt lat="48.20587" lon="-3.11259">
        <ele>128</ele>
        <time>2016-02-04T13:29:54Z</time>
      </trkpt>
      <trkpt lat="48.20587" lon="-3.11255">
        <ele>128</ele>
        <time>2016-02-04T13:29:57Z</time>
      </trkpt>
      <trkpt lat="48.20584" lon="-3.11248">
        <ele>128</ele>
        <time>2016-02-04T13:30:01Z</time>
      </trkpt>
      <trkpt lat="48.20582" lon="-3.11243">
        <ele>128</ele>
        <time>2016-02-04T13:30:04Z</time>
      </trkpt>
      <trkpt lat="48.2058" lon="-3.11237">
        <ele>128</ele>
        <time>2016-02-04T13:30:08Z</time>
      </trkpt>
      <trkpt lat="48.20578" lon="-3.11231">
        <ele>128</ele>
        <time>2016-02-04T13:30:12Z</time>
      </trkpt>
      <trkpt lat="48.20577" lon="-3.11226">
        <ele>128</ele>
        <time>2016-02-04T13:30:15Z</time>
      </trkpt>
      <trkpt lat="48.20575" lon="-3.11221">
        <ele>128</ele>
        <time>2016-02-04T13:30:18Z</time>
      </trkpt>
      <trkpt lat="48.20574" lon="-3.11216">
        <ele>128</ele>
        <time>2016-02-04T13:30:21Z</time>
      </trkpt>
      <trkpt lat="48.20573" lon="-3.1121">
        <ele>128</ele>
        <time>2016-02-04T13:30:24Z</time>
      </trkpt>
      <trkpt lat="48.20572" lon="-3.11204">
        <ele>128</ele>
        <time>2016-02-04T13:30:27Z</time>
      </trkpt>
      <trkpt lat="48.20572" lon="-3.11198">
        <ele>128</ele>
        <time>2016-02-04T13:30:30Z</time>
      </trkpt>
      <trkpt lat="48.20571" lon="-3.11192">
        <ele>128</ele>
        <time>2016-02-04T13:30:33Z</time>
      </trkpt>
      <trkpt lat="48.20571" lon="-3.11187">
        <ele>128</ele>
        <time>2016-02-04T13:30:36Z</time>
      </trkpt>
      <trkpt lat="48.20571" lon="-3.11181">
        <ele>128</ele>
        <time>2016-02-04T13:30:39Z</time>
      </trkpt>
      <trkpt lat="48.20571" lon="-3.11175">
        <ele>128</ele>
        <time>2016-02-04T13:30:42Z</time>
      </trkpt>
      <trkpt lat="48.20571" lon="-3.11169">
        <ele>128</ele>
        <time>2016-02-04T13:30:45Z</time>
      </trkpt>
      <trkpt lat="48.20572" lon="-3.11163">
        <ele>128</ele>
        <time>2016-02-04T13:30:48Z</time>
      </trkpt>
      <trkpt lat="48.20572" lon="-3.11157">
        <ele>128</ele>
        <time>2016-02-04T13:30:51Z</time>
      </trkpt>
      <trkpt lat="48.20573" lon="-3.11151">
        <ele>128</ele>
        <time>2016-02-04T13:30:54Z</time>
      </trkpt>
      <trkpt lat="48.20573" lon="-3.11145">
        <ele>128</ele>
        <time>2016-02-04T13:30:57Z</time>
      </trkpt>
      <trkpt lat="48.20573" lon="-3.1114">
        <ele>128</ele>
        <time>2016-02-04T13:31:00Z</time>
      </trkpt>
      <trkpt lat="48.20574" lon="-3.11134">
        <ele>128</ele>
        <time>2016-02-04T13:31:03Z</time>
      </trkpt>
      <trkpt lat="48.20574" lon="-3.11127">
        <ele>128</ele>
        <time>2016-02-04T13:31:06Z</time>
      </trkpt>
      <trkpt lat="48.20573" lon="-3.11121">
        <ele>128</ele>
        <time>2016-02-04T13:31:09Z</time>
      </trkpt>
      <trkpt lat="48.20574" lon="-3.11116">
        <ele>128</ele>
        <time>2016-02-04T13:31:12Z</time>
      </trkpt>
      <trkpt lat="48.20574" lon="-3.1111">
        <ele>128</ele>
        <time>2016-02-04T13:31:15Z</time>
      </trkpt>
      <trkpt lat="48.20575" lon="-3.11104">
        <ele>128</ele>
        <time>2016-02-04T13:31:18Z</time>
      </trkpt>
      <trkpt lat="48.20575" lon="-3.11099">
        <ele>128</ele>
        <time>2016-02-04T13:31:21Z</time>
      </trkpt>
      <trkpt lat="48.20576" lon="-3.11093">
        <ele>128</ele>
        <time>2016-02-04T13:31:24Z</time>
      </trkpt>
      <trkpt lat="48.20578" lon="-3.11085">
        <ele>128</ele>
        <time>2016-02-04T13:31:28Z</time>
      </trkpt>
      <trkpt lat="48.20579" lon="-3.11079">
        <ele>128</ele>
        <time>2016-02-04T13:31:31Z</time>
      </trkpt>
      <trkpt lat="48.20581" lon="-3.11072">
        <ele>128</ele>
        <time>2016-02-04T13:31:35Z</time>
      </trkpt>
      <trkpt lat="48.20583" lon="-3.11067">
        <ele>128</ele>
        <time>2016-02-04T13:31:39Z</time>
      </trkpt>
      <trkpt lat="48.20585" lon="-3.11062">
        <ele>128</ele>
        <time>2016-02-04T13:31:42Z</time>
      </trkpt>
      <trkpt lat="48.20589" lon="-3.11056">
        <ele>128</ele>
        <time>2016-02-04T13:31:46Z</time>
      </trkpt>
      <trkpt lat="48.20592" lon="-3.11051">
        <ele>128</ele>
        <time>2016-02-04T13:31:50Z</time>
      </trkpt>
      <trkpt lat="48.20596" lon="-3.11049">
        <ele>128</ele>
        <time>2016-02-04T13:31:53Z</time>
      </trkpt>
      <trkpt lat="48.206" lon="-3.11046">
        <ele>127</ele>
        <time>2016-02-04T13:31:57Z</time>
      </trkpt>
      <trkpt lat="48.20604" lon="-3.11044">
        <ele>127</ele>
        <time>2016-02-04T13:32:01Z</time>
      </trkpt>
      <trkpt lat="48.20607" lon="-3.11042">
        <ele>127</ele>
        <time>2016-02-04T13:32:04Z</time>
      </trkpt>
      <trkpt lat="48.20611" lon="-3.11041">
        <ele>127</ele>
        <time>2016-02-04T13:32:07Z</time>
      </trkpt>
      <trkpt lat="48.20615" lon="-3.11039">
        <ele>127</ele>
        <time>2016-02-04T13:32:10Z</time>
      </trkpt>
      <trkpt lat="48.20619" lon="-3.11037">
        <ele>127</ele>
        <time>2016-02-04T13:32:13Z</time>
      </trkpt>
      <trkpt lat="48.20622" lon="-3.11034">
        <ele>127</ele>
        <time>2016-02-04T13:32:16Z</time>
      </trkpt>
      <trkpt lat="48.20625" lon="-3.11031">
        <ele>127</ele>
        <time>2016-02-04T13:32:19Z</time>
      </trkpt>
      <trkpt lat="48.20629" lon="-3.11029">
        <ele>127</ele>
        <time>2016-02-04T13:32:22Z</time>
      </trkpt>
      <trkpt lat="48.20633" lon="-3.11028">
        <ele>127</ele>
        <time>2016-02-04T13:32:25Z</time>
      </trkpt>
      <trkpt lat="48.20637" lon="-3.11028">
        <ele>127</ele>
        <time>2016-02-04T13:32:28Z</time>
      </trkpt>
      <trkpt lat="48.20641" lon="-3.11029">
        <ele>127</ele>
        <time>2016-02-04T13:32:31Z</time>
      </trkpt>
      <trkpt lat="48.20645" lon="-3.11027">
        <ele>127</ele>
        <time>2016-02-04T13:32:35Z</time>
      </trkpt>
      <trkpt lat="48.20649" lon="-3.11027">
        <ele>127</ele>
        <time>2016-02-04T13:32:38Z</time>
      </trkpt>
      <trkpt lat="48.20654" lon="-3.11024">
        <ele>127</ele>
        <time>2016-02-04T13:32:42Z</time>
      </trkpt>
      <trkpt lat="48.20658" lon="-3.11022">
        <ele>127</ele>
        <time>2016-02-04T13:32:45Z</time>
      </trkpt>
      <trkpt lat="48.20662" lon="-3.1102">
        <ele>127</ele>
        <time>2016-02-04T13:32:48Z</time>
      </trkpt>
      <trkpt lat="48.20665" lon="-3.1102">
        <ele>127</ele>
        <time>2016-02-04T13:32:51Z</time>
      </trkpt>
      <trkpt lat="48.20669" lon="-3.11018">
        <ele>127</ele>
        <time>2016-02-04T13:32:55Z</time>
      </trkpt>
      <trkpt lat="48.20674" lon="-3.11016">
        <ele>127</ele>
        <time>2016-02-04T13:32:59Z</time>
      </trkpt>
      <trkpt lat="48.20677" lon="-3.11014">
        <ele>127</ele>
        <time>2016-02-04T13:33:02Z</time>
      </trkpt>
      <trkpt lat="48.20681" lon="-3.11014">
        <ele>127</ele>
        <time>2016-02-04T13:33:05Z</time>
      </trkpt>
      <trkpt lat="48.20684" lon="-3.11012">
        <ele>127</ele>
        <time>2016-02-04T13:33:08Z</time>
      </trkpt>
      <trkpt lat="48.20688" lon="-3.11011">
        <ele>127</ele>
        <time>2016-02-04T13:33:11Z</time>
      </trkpt>
      <trkpt lat="48.20692" lon="-3.11009">
        <ele>127</ele>
        <time>2016-02-04T13:33:14Z</time>
      </trkpt>
      <trkpt lat="48.20696" lon="-3.11006">
        <ele>127</ele>
        <time>2016-02-04T13:33:18Z</time>
      </trkpt>
      <trkpt lat="48.20699" lon="-3.11004">
        <ele>127</ele>
        <time>2016-02-04T13:33:21Z</time>
      </trkpt>
      <trkpt lat="48.20702" lon="-3.11002">
        <ele>127</ele>
        <time>2016-02-04T13:33:25Z</time>
      </trkpt>
      <trkpt lat="48.20706" lon="-3.10999">
        <ele>127</ele>
        <time>2016-02-04T13:33:29Z</time>
      </trkpt>
      <trkpt lat="48.20709" lon="-3.10997">
        <ele>127</ele>
        <time>2016-02-04T13:33:32Z</time>
      </trkpt>
      <trkpt lat="48.20713" lon="-3.10995">
        <ele>127</ele>
        <time>2016-02-04T13:33:35Z</time>
      </trkpt>
      <trkpt lat="48.20716" lon="-3.10994">
        <ele>127</ele>
        <time>2016-02-04T13:33:38Z</time>
      </trkpt>
      <trkpt lat="48.20721" lon="-3.10991">
        <ele>127</ele>
        <time>2016-02-04T13:33:42Z</time>
      </trkpt>
      <trkpt lat="48.20725" lon="-3.10989">
        <ele>127</ele>
        <time>2016-02-04T13:33:45Z</time>
      </trkpt>
      <trkpt lat="48.20729" lon="-3.10988">
        <ele>127</ele>
        <time>2016-02-04T13:33:48Z</time>
      </trkpt>
      <trkpt lat="48.20732" lon="-3.10988">
        <ele>127</ele>
        <time>2016-02-04T13:33:52Z</time>
      </trkpt>
      <trkpt lat="48.20733" lon="-3.10987">
        <ele>127</ele>
        <time>2016-02-04T13:34:01Z</time>
      </trkpt>
      <trkpt lat="48.20736" lon="-3.10984">
        <ele>127</ele>
        <time>2016-02-04T13:34:05Z</time>
      </trkpt>
      <trkpt lat="48.20739" lon="-3.10981">
        <ele>127</ele>
        <time>2016-02-04T13:34:08Z</time>
      </trkpt>
      <trkpt lat="48.20742" lon="-3.10979">
        <ele>127</ele>
        <time>2016-02-04T13:34:11Z</time>
      </trkpt>
      <trkpt lat="48.20745" lon="-3.10978">
        <ele>127</ele>
        <time>2016-02-04T13:34:14Z</time>
      </trkpt>
      <trkpt lat="48.20747" lon="-3.10976">
        <ele>127</ele>
        <time>2016-02-04T13:34:17Z</time>
      </trkpt>
      <trkpt lat="48.20751" lon="-3.10978">
        <ele>127</ele>
        <time>2016-02-04T13:34:20Z</time>
      </trkpt>
      <trkpt lat="48.20755" lon="-3.10982">
        <ele>127</ele>
        <time>2016-02-04T13:34:24Z</time>
      </trkpt>
      <trkpt lat="48.20755" lon="-3.10984">
        <ele>127</ele>
        <time>2016-02-04T13:34:28Z</time>
      </trkpt>
      <trkpt lat="48.20754" lon="-3.10982">
        <ele>127</ele>
        <time>2016-02-04T13:34:36Z</time>
      </trkpt>
      <trkpt lat="48.20753" lon="-3.1098">
        <ele>127</ele>
        <time>2016-02-04T13:34:46Z</time>
      </trkpt>
      <trkpt lat="48.20755" lon="-3.10983">
        <ele>127</ele>
        <time>2016-02-04T13:34:54Z</time>
      </trkpt>
      <trkpt lat="48.20756" lon="-3.10988">
        <ele>127</ele>
        <time>2016-02-04T13:34:57Z</time>
      </trkpt>
      <trkpt lat="48.20758" lon="-3.10993">
        <ele>127</ele>
        <time>2016-02-04T13:35:00Z</time>
      </trkpt>
      <trkpt lat="48.20761" lon="-3.10994">
        <ele>127</ele>
        <time>2016-02-04T13:35:03Z</time>
      </trkpt>
      <trkpt lat="48.20765" lon="-3.10992">
        <ele>127</ele>
        <time>2016-02-04T13:35:06Z</time>
      </trkpt>
      <trkpt lat="48.2077" lon="-3.10991">
        <ele>127</ele>
        <time>2016-02-04T13:35:09Z</time>
      </trkpt>
      <trkpt lat="48.20773" lon="-3.10991">
        <ele>127</ele>
        <time>2016-02-04T13:35:12Z</time>
      </trkpt>
      <trkpt lat="48.20777" lon="-3.10991">
        <ele>127</ele>
        <time>2016-02-04T13:35:15Z</time>
      </trkpt>
      <trkpt lat="48.20781" lon="-3.1099">
        <ele>127</ele>
        <time>2016-02-04T13:35:18Z</time>
      </trkpt>
      <trkpt lat="48.20785" lon="-3.1099">
        <ele>127</ele>
        <time>2016-02-04T13:35:21Z</time>
      </trkpt>
      <trkpt lat="48.20789" lon="-3.1099">
        <ele>127</ele>
        <time>2016-02-04T13:35:25Z</time>
      </trkpt>
      <trkpt lat="48.20792" lon="-3.10991">
        <ele>127</ele>
        <time>2016-02-04T13:35:29Z</time>
      </trkpt>
      <trkpt lat="48.20795" lon="-3.10992">
        <ele>127</ele>
        <time>2016-02-04T13:35:33Z</time>
      </trkpt>
      <trkpt lat="48.20799" lon="-3.1099">
        <ele>127</ele>
        <time>2016-02-04T13:35:36Z</time>
      </trkpt>
      <trkpt lat="48.20803" lon="-3.10989">
        <ele>127</ele>
        <time>2016-02-04T13:35:39Z</time>
      </trkpt>
      <trkpt lat="48.20807" lon="-3.10987">
        <ele>127</ele>
        <time>2016-02-04T13:35:42Z</time>
      </trkpt>
      <trkpt lat="48.2081" lon="-3.10985">
        <ele>127</ele>
        <time>2016-02-04T13:35:45Z</time>
      </trkpt>
      <trkpt lat="48.20813" lon="-3.10982">
        <ele>127</ele>
        <time>2016-02-04T13:35:48Z</time>
      </trkpt>
      <trkpt lat="48.20816" lon="-3.1098">
        <ele>127</ele>
        <time>2016-02-04T13:35:51Z</time>
      </trkpt>
      <trkpt lat="48.2082" lon="-3.10979">
        <ele>127</ele>
        <time>2016-02-04T13:35:54Z</time>
      </trkpt>
      <trkpt lat="48.20824" lon="-3.10977">
        <ele>127</ele>
        <time>2016-02-04T13:35:58Z</time>
      </trkpt>
      <trkpt lat="48.20826" lon="-3.10973">
        <ele>127</ele>
        <time>2016-02-04T13:36:01Z</time>
      </trkpt>
      <trkpt lat="48.2083" lon="-3.10969">
        <ele>127</ele>
        <time>2016-02-04T13:36:04Z</time>
      </trkpt>
      <trkpt lat="48.20834" lon="-3.10965">
        <ele>127</ele>
        <time>2016-02-04T13:36:07Z</time>
      </trkpt>
      <trkpt lat="48.20837" lon="-3.10962">
        <ele>127</ele>
        <time>2016-02-04T13:36:10Z</time>
      </trkpt>
      <trkpt lat="48.20841" lon="-3.1096">
        <ele>127</ele>
        <time>2016-02-04T13:36:13Z</time>
      </trkpt>
      <trkpt lat="48.20845" lon="-3.10957">
        <ele>127</ele>
        <time>2016-02-04T13:36:17Z</time>
      </trkpt>
      <trkpt lat="48.20848" lon="-3.10954">
        <ele>127</ele>
        <time>2016-02-04T13:36:20Z</time>
      </trkpt>
      <trkpt lat="48.20853" lon="-3.10949">
        <ele>127</ele>
        <time>2016-02-04T13:36:24Z</time>
      </trkpt>
      <trkpt lat="48.20856" lon="-3.10946">
        <ele>127</ele>
        <time>2016-02-04T13:36:27Z</time>
      </trkpt>
      <trkpt lat="48.20859" lon="-3.10942">
        <ele>127</ele>
        <time>2016-02-04T13:36:30Z</time>
      </trkpt>
      <trkpt lat="48.20863" lon="-3.10938">
        <ele>127</ele>
        <time>2016-02-04T13:36:33Z</time>
      </trkpt>
      <trkpt lat="48.20868" lon="-3.10934">
        <ele>127</ele>
        <time>2016-02-04T13:36:37Z</time>
      </trkpt>
      <trkpt lat="48.20872" lon="-3.10933">
        <ele>127</ele>
        <time>2016-02-04T13:36:41Z</time>
      </trkpt>
      <trkpt lat="48.20876" lon="-3.10931">
        <ele>127</ele>
        <time>2016-02-04T13:36:45Z</time>
      </trkpt>
      <trkpt lat="48.2088" lon="-3.10929">
        <ele>127</ele>
        <time>2016-02-04T13:36:48Z</time>
      </trkpt>
      <trkpt lat="48.20884" lon="-3.10926">
        <ele>127</ele>
        <time>2016-02-04T13:36:51Z</time>
      </trkpt>
      <trkpt lat="48.20887" lon="-3.10921">
        <ele>127</ele>
        <time>2016-02-04T13:36:55Z</time>
      </trkpt>
      <trkpt lat="48.2089" lon="-3.10916">
        <ele>127</ele>
        <time>2016-02-04T13:36:58Z</time>
      </trkpt>
      <trkpt lat="48.20893" lon="-3.10911">
        <ele>129</ele>
        <time>2016-02-04T13:37:01Z</time>
      </trkpt>
      <trkpt lat="48.20896" lon="-3.10905">
        <ele>130</ele>
        <time>2016-02-04T13:37:05Z</time>
      </trkpt>
      <trkpt lat="48.20899" lon="-3.109">
        <ele>131</ele>
        <time>2016-02-04T13:37:09Z</time>
      </trkpt>
      <trkpt lat="48.209" lon="-3.10895">
        <ele>132</ele>
        <time>2016-02-04T13:37:12Z</time>
      </trkpt>
      <trkpt lat="48.20903" lon="-3.1089">
        <ele>133</ele>
        <time>2016-02-04T13:37:15Z</time>
      </trkpt>
      <trkpt lat="48.20907" lon="-3.10885">
        <ele>135</ele>
        <time>2016-02-04T13:37:19Z</time>
      </trkpt>
      <trkpt lat="48.20909" lon="-3.10879">
        <ele>136</ele>
        <time>2016-02-04T13:37:22Z</time>
      </trkpt>
      <trkpt lat="48.20913" lon="-3.10874">
        <ele>137</ele>
        <time>2016-02-04T13:37:26Z</time>
      </trkpt>
      <trkpt lat="48.20916" lon="-3.10869">
        <ele>137</ele>
        <time>2016-02-04T13:37:30Z</time>
      </trkpt>
      <trkpt lat="48.2092" lon="-3.10863">
        <ele>137</ele>
        <time>2016-02-04T13:37:34Z</time>
      </trkpt>
      <trkpt lat="48.20921" lon="-3.10858">
        <ele>137</ele>
        <time>2016-02-04T13:37:37Z</time>
      </trkpt>
      <trkpt lat="48.20921" lon="-3.10854">
        <ele>137</ele>
        <time>2016-02-04T13:37:40Z</time>
      </trkpt>
      <trkpt lat="48.20921" lon="-3.1085">
        <ele>137</ele>
        <time>2016-02-04T13:37:44Z</time>
      </trkpt>
      <trkpt lat="48.2092" lon="-3.10848">
        <ele>137</ele>
        <time>2016-02-04T13:37:47Z</time>
      </trkpt>
      <trkpt lat="48.20919" lon="-3.10847">
        <ele>137</ele>
        <time>2016-02-04T13:37:50Z</time>
      </trkpt>
      <trkpt lat="48.20916" lon="-3.10842">
        <ele>137</ele>
        <time>2016-02-04T13:37:54Z</time>
      </trkpt>
      <trkpt lat="48.20913" lon="-3.1084">
        <ele>137</ele>
        <time>2016-02-04T13:37:58Z</time>
      </trkpt>
      <trkpt lat="48.2091" lon="-3.10837">
        <ele>135</ele>
        <time>2016-02-04T13:38:02Z</time>
      </trkpt>
      <trkpt lat="48.20908" lon="-3.10833">
        <ele>133</ele>
        <time>2016-02-04T13:38:06Z</time>
      </trkpt>
      <trkpt lat="48.20906" lon="-3.10827">
        <ele>132</ele>
        <time>2016-02-04T13:38:10Z</time>
      </trkpt>
      <trkpt lat="48.20903" lon="-3.10823">
        <ele>131</ele>
        <time>2016-02-04T13:38:14Z</time>
      </trkpt>
      <trkpt lat="48.209" lon="-3.10819">
        <ele>131</ele>
        <time>2016-02-04T13:38:18Z</time>
      </trkpt>
      <trkpt lat="48.20899" lon="-3.10813">
        <ele>131</ele>
        <time>2016-02-04T13:38:22Z</time>
      </trkpt>
      <trkpt lat="48.20898" lon="-3.10808">
        <ele>131</ele>
        <time>2016-02-04T13:38:26Z</time>
      </trkpt>
      <trkpt lat="48.20895" lon="-3.10803">
        <ele>131</ele>
        <time>2016-02-04T13:38:29Z</time>
      </trkpt>
      <trkpt lat="48.20895" lon="-3.10798">
        <ele>131</ele>
        <time>2016-02-04T13:38:32Z</time>
      </trkpt>
      <trkpt lat="48.20895" lon="-3.10793">
        <ele>131</ele>
        <time>2016-02-04T13:38:35Z</time>
      </trkpt>
      <trkpt lat="48.20895" lon="-3.10788">
        <ele>131</ele>
        <time>2016-02-04T13:38:38Z</time>
      </trkpt>
      <trkpt lat="48.20895" lon="-3.1078">
        <ele>131</ele>
        <time>2016-02-04T13:38:42Z</time>
      </trkpt>
      <trkpt lat="48.20894" lon="-3.10776">
        <ele>131</ele>
        <time>2016-02-04T13:38:46Z</time>
      </trkpt>
      <trkpt lat="48.20893" lon="-3.10774">
        <ele>131</ele>
        <time>2016-02-04T13:38:49Z</time>
      </trkpt>
      <trkpt lat="48.20888" lon="-3.1077">
        <ele>131</ele>
        <time>2016-02-04T13:38:53Z</time>
      </trkpt>
      <trkpt lat="48.20886" lon="-3.10767">
        <ele>131</ele>
        <time>2016-02-04T13:38:57Z</time>
      </trkpt>
      <trkpt lat="48.20883" lon="-3.1077">
        <ele>130</ele>
        <time>2016-02-04T13:39:01Z</time>
      </trkpt>
      <trkpt lat="48.20881" lon="-3.10773">
        <ele>128</ele>
        <time>2016-02-04T13:39:05Z</time>
      </trkpt>
      <trkpt lat="48.20878" lon="-3.10776">
        <ele>128</ele>
        <time>2016-02-04T13:39:09Z</time>
      </trkpt>
      <trkpt lat="48.20875" lon="-3.10779">
        <ele>127</ele>
        <time>2016-02-04T13:39:13Z</time>
      </trkpt>
      <trkpt lat="48.20874" lon="-3.10779">
        <ele>127</ele>
        <time>2016-02-04T13:39:16Z</time>
      </trkpt>
      <trkpt lat="48.20875" lon="-3.10776">
        <ele>127</ele>
        <time>2016-02-04T13:39:21Z</time>
      </trkpt>
      <trkpt lat="48.20876" lon="-3.10774">
        <ele>127</ele>
        <time>2016-02-04T13:39:31Z</time>
      </trkpt>
      <trkpt lat="48.20878" lon="-3.10771">
        <ele>127</ele>
        <time>2016-02-04T13:39:36Z</time>
      </trkpt>
      <trkpt lat="48.20881" lon="-3.10767">
        <ele>127</ele>
        <time>2016-02-04T13:39:40Z</time>
      </trkpt>
      <trkpt lat="48.20883" lon="-3.10763">
        <ele>127</ele>
        <time>2016-02-04T13:39:45Z</time>
      </trkpt>
      <trkpt lat="48.20883" lon="-3.10758">
        <ele>127</ele>
        <time>2016-02-04T13:39:48Z</time>
      </trkpt>
      <trkpt lat="48.20883" lon="-3.1075">
        <ele>127</ele>
        <time>2016-02-04T13:39:52Z</time>
      </trkpt>
      <trkpt lat="48.20885" lon="-3.10745">
        <ele>127</ele>
        <time>2016-02-04T13:39:56Z</time>
      </trkpt>
      <trkpt lat="48.20885" lon="-3.10741">
        <ele>127</ele>
        <time>2016-02-04T13:40:00Z</time>
      </trkpt>
      <trkpt lat="48.20883" lon="-3.10737">
        <ele>127</ele>
        <time>2016-02-04T13:40:04Z</time>
      </trkpt>
      <trkpt lat="48.20881" lon="-3.10733">
        <ele>127</ele>
        <time>2016-02-04T13:40:08Z</time>
      </trkpt>
      <trkpt lat="48.20881" lon="-3.1073">
        <ele>127</ele>
        <time>2016-02-04T13:40:12Z</time>
      </trkpt>
      <trkpt lat="48.20878" lon="-3.10726">
        <ele>127</ele>
        <time>2016-02-04T13:40:16Z</time>
      </trkpt>
      <trkpt lat="48.20875" lon="-3.10722">
        <ele>129</ele>
        <time>2016-02-04T13:40:20Z</time>
      </trkpt>
      <trkpt lat="48.20874" lon="-3.10716">
        <ele>130</ele>
        <time>2016-02-04T13:40:24Z</time>
      </trkpt>
      <trkpt lat="48.20874" lon="-3.10711">
        <ele>131</ele>
        <time>2016-02-04T13:40:27Z</time>
      </trkpt>
      <trkpt lat="48.20874" lon="-3.10706">
        <ele>131</ele>
        <time>2016-02-04T13:40:30Z</time>
      </trkpt>
      <trkpt lat="48.20873" lon="-3.10702">
        <ele>131</ele>
        <time>2016-02-04T13:40:33Z</time>
      </trkpt>
      <trkpt lat="48.2087" lon="-3.10698">
        <ele>131</ele>
        <time>2016-02-04T13:40:37Z</time>
      </trkpt>
      <trkpt lat="48.20867" lon="-3.10695">
        <ele>131</ele>
        <time>2016-02-04T13:40:41Z</time>
      </trkpt>
      <trkpt lat="48.20864" lon="-3.10691">
        <ele>131</ele>
        <time>2016-02-04T13:40:45Z</time>
      </trkpt>
      <trkpt lat="48.20861" lon="-3.10689">
        <ele>131</ele>
        <time>2016-02-04T13:40:49Z</time>
      </trkpt>
      <trkpt lat="48.20856" lon="-3.10685">
        <ele>132</ele>
        <time>2016-02-04T13:40:52Z</time>
      </trkpt>
      <trkpt lat="48.20852" lon="-3.10681">
        <ele>132</ele>
        <time>2016-02-04T13:40:55Z</time>
      </trkpt>
      <trkpt lat="48.20848" lon="-3.10676">
        <ele>132</ele>
        <time>2016-02-04T13:40:58Z</time>
      </trkpt>
      <trkpt lat="48.20846" lon="-3.10673">
        <ele>132</ele>
        <time>2016-02-04T13:41:01Z</time>
      </trkpt>
      <trkpt lat="48.20843" lon="-3.10669">
        <ele>132</ele>
        <time>2016-02-04T13:41:05Z</time>
      </trkpt>
      <trkpt lat="48.20839" lon="-3.10665">
        <ele>132</ele>
        <time>2016-02-04T13:41:09Z</time>
      </trkpt>
      <trkpt lat="48.20836" lon="-3.1066">
        <ele>132</ele>
        <time>2016-02-04T13:41:13Z</time>
      </trkpt>
      <trkpt lat="48.20832" lon="-3.10657">
        <ele>133</ele>
        <time>2016-02-04T13:41:17Z</time>
      </trkpt>
      <trkpt lat="48.20831" lon="-3.10654">
        <ele>133</ele>
        <time>2016-02-04T13:41:21Z</time>
      </trkpt>
      <trkpt lat="48.20832" lon="-3.10653">
        <ele>133</ele>
        <time>2016-02-04T13:41:25Z</time>
      </trkpt>
      <trkpt lat="48.20831" lon="-3.10652">
        <ele>133</ele>
        <time>2016-02-04T13:41:30Z</time>
      </trkpt>
      <trkpt lat="48.20827" lon="-3.1065">
        <ele>133</ele>
        <time>2016-02-04T13:41:34Z</time>
      </trkpt>
      <trkpt lat="48.20824" lon="-3.10647">
        <ele>133</ele>
        <time>2016-02-04T13:41:38Z</time>
      </trkpt>
      <trkpt lat="48.20821" lon="-3.10644">
        <ele>133</ele>
        <time>2016-02-04T13:41:42Z</time>
      </trkpt>
      <trkpt lat="48.20819" lon="-3.10641">
        <ele>133</ele>
        <time>2016-02-04T13:41:46Z</time>
      </trkpt>
      <trkpt lat="48.20816" lon="-3.10638">
        <ele>134</ele>
        <time>2016-02-04T13:41:50Z</time>
      </trkpt>
      <trkpt lat="48.20814" lon="-3.10635">
        <ele>134</ele>
        <time>2016-02-04T13:41:54Z</time>
      </trkpt>
      <trkpt lat="48.2081" lon="-3.10633">
        <ele>135</ele>
        <time>2016-02-04T13:41:58Z</time>
      </trkpt>
      <trkpt lat="48.20807" lon="-3.10629">
        <ele>135</ele>
        <time>2016-02-04T13:42:02Z</time>
      </trkpt>
      <trkpt lat="48.20804" lon="-3.10626">
        <ele>135</ele>
        <time>2016-02-04T13:42:06Z</time>
      </trkpt>
      <trkpt lat="48.20801" lon="-3.10623">
        <ele>135</ele>
        <time>2016-02-04T13:42:10Z</time>
      </trkpt>
      <trkpt lat="48.20798" lon="-3.10621">
        <ele>136</ele>
        <time>2016-02-04T13:42:14Z</time>
      </trkpt>
      <trkpt lat="48.20794" lon="-3.10619">
        <ele>136</ele>
        <time>2016-02-04T13:42:18Z</time>
      </trkpt>
      <trkpt lat="48.2079" lon="-3.10617">
        <ele>138</ele>
        <time>2016-02-04T13:42:22Z</time>
      </trkpt>
      <trkpt lat="48.20786" lon="-3.10615">
        <ele>139</ele>
        <time>2016-02-04T13:42:26Z</time>
      </trkpt>
      <trkpt lat="48.20782" lon="-3.10612">
        <ele>140</ele>
        <time>2016-02-04T13:42:30Z</time>
      </trkpt>
      <trkpt lat="48.20779" lon="-3.1061">
        <ele>141</ele>
        <time>2016-02-04T13:42:34Z</time>
      </trkpt>
      <trkpt lat="48.2078" lon="-3.10612">
        <ele>141</ele>
        <time>2016-02-04T13:42:43Z</time>
      </trkpt>
      <trkpt lat="48.2078" lon="-3.10613">
        <ele>141</ele>
        <time>2016-02-04T13:42:48Z</time>
      </trkpt>
      <trkpt lat="48.20779" lon="-3.10613">
        <ele>141</ele>
        <time>2016-02-04T13:42:54Z</time>
      </trkpt>
      <trkpt lat="48.20775" lon="-3.1061">
        <ele>141</ele>
        <time>2016-02-04T13:42:58Z</time>
      </trkpt>
      <trkpt lat="48.20771" lon="-3.10608">
        <ele>141</ele>
        <time>2016-02-04T13:43:02Z</time>
      </trkpt>
      <trkpt lat="48.20767" lon="-3.10606">
        <ele>141</ele>
        <time>2016-02-04T13:43:06Z</time>
      </trkpt>
      <trkpt lat="48.20763" lon="-3.10604">
        <ele>141</ele>
        <time>2016-02-04T13:43:10Z</time>
      </trkpt>
      <trkpt lat="48.2076" lon="-3.10602">
        <ele>141</ele>
        <time>2016-02-04T13:43:14Z</time>
      </trkpt>
      <trkpt lat="48.20757" lon="-3.106">
        <ele>141</ele>
        <time>2016-02-04T13:43:17Z</time>
      </trkpt>
      <trkpt lat="48.20752" lon="-3.10598">
        <ele>141</ele>
        <time>2016-02-04T13:43:20Z</time>
      </trkpt>
      <trkpt lat="48.2075" lon="-3.10596">
        <ele>141</ele>
        <time>2016-02-04T13:43:29Z</time>
      </trkpt>
      <trkpt lat="48.20746" lon="-3.10593">
        <ele>143</ele>
        <time>2016-02-04T13:43:33Z</time>
      </trkpt>
      <trkpt lat="48.20742" lon="-3.1059">
        <ele>143</ele>
        <time>2016-02-04T13:43:37Z</time>
      </trkpt>
      <trkpt lat="48.20738" lon="-3.1059">
        <ele>143</ele>
        <time>2016-02-04T13:43:40Z</time>
      </trkpt>
      <trkpt lat="48.20734" lon="-3.10589">
        <ele>144</ele>
        <time>2016-02-04T13:43:44Z</time>
      </trkpt>
      <trkpt lat="48.20731" lon="-3.10587">
        <ele>144</ele>
        <time>2016-02-04T13:43:47Z</time>
      </trkpt>
      <trkpt lat="48.20728" lon="-3.10585">
        <ele>144</ele>
        <time>2016-02-04T13:43:51Z</time>
      </trkpt>
      <trkpt lat="48.20724" lon="-3.10584">
        <ele>144</ele>
        <time>2016-02-04T13:43:54Z</time>
      </trkpt>
      <trkpt lat="48.20721" lon="-3.10583">
        <ele>144</ele>
        <time>2016-02-04T13:43:58Z</time>
      </trkpt>
      <trkpt lat="48.20718" lon="-3.10584">
        <ele>144</ele>
        <time>2016-02-04T13:44:01Z</time>
      </trkpt>
      <trkpt lat="48.20713" lon="-3.10583">
        <ele>144</ele>
        <time>2016-02-04T13:44:04Z</time>
      </trkpt>
      <trkpt lat="48.20709" lon="-3.10583">
        <ele>145</ele>
        <time>2016-02-04T13:44:07Z</time>
      </trkpt>
      <trkpt lat="48.20706" lon="-3.10583">
        <ele>145</ele>
        <time>2016-02-04T13:44:10Z</time>
      </trkpt>
      <trkpt lat="48.20702" lon="-3.10583">
        <ele>145</ele>
        <time>2016-02-04T13:44:14Z</time>
      </trkpt>
      <trkpt lat="48.20698" lon="-3.10582">
        <ele>145</ele>
        <time>2016-02-04T13:44:19Z</time>
      </trkpt>
      <trkpt lat="48.20695" lon="-3.10582">
        <ele>145</ele>
        <time>2016-02-04T13:44:22Z</time>
      </trkpt>
      <trkpt lat="48.2069" lon="-3.10582">
        <ele>145</ele>
        <time>2016-02-04T13:44:26Z</time>
      </trkpt>
      <trkpt lat="48.20687" lon="-3.10584">
        <ele>145</ele>
        <time>2016-02-04T13:44:29Z</time>
      </trkpt>
      <trkpt lat="48.20682" lon="-3.10586">
        <ele>145</ele>
        <time>2016-02-04T13:44:33Z</time>
      </trkpt>
      <trkpt lat="48.20679" lon="-3.10589">
        <ele>144</ele>
        <time>2016-02-04T13:44:36Z</time>
      </trkpt>
      <trkpt lat="48.20674" lon="-3.10592">
        <ele>143</ele>
        <time>2016-02-04T13:44:40Z</time>
      </trkpt>
      <trkpt lat="48.20672" lon="-3.10594">
        <ele>143</ele>
        <time>2016-02-04T13:44:43Z</time>
      </trkpt>
      <trkpt lat="48.20667" lon="-3.10598">
        <ele>142</ele>
        <time>2016-02-04T13:44:46Z</time>
      </trkpt>
      <trkpt lat="48.20664" lon="-3.106">
        <ele>140</ele>
        <time>2016-02-04T13:44:50Z</time>
      </trkpt>
      <trkpt lat="48.20663" lon="-3.106">
        <ele>140</ele>
        <time>2016-02-04T13:44:53Z</time>
      </trkpt>
      <trkpt lat="48.20659" lon="-3.10602">
        <ele>140</ele>
        <time>2016-02-04T13:44:57Z</time>
      </trkpt>
      <trkpt lat="48.20655" lon="-3.10603">
        <ele>140</ele>
        <time>2016-02-04T13:45:01Z</time>
      </trkpt>
      <trkpt lat="48.20652" lon="-3.10606">
        <ele>139</ele>
        <time>2016-02-04T13:45:05Z</time>
      </trkpt>
      <trkpt lat="48.20647" lon="-3.10608">
        <ele>139</ele>
        <time>2016-02-04T13:45:09Z</time>
      </trkpt>
      <trkpt lat="48.20644" lon="-3.10607">
        <ele>138</ele>
        <time>2016-02-04T13:45:12Z</time>
      </trkpt>
      <trkpt lat="48.20639" lon="-3.10607">
        <ele>137</ele>
        <time>2016-02-04T13:45:15Z</time>
      </trkpt>
      <trkpt lat="48.20636" lon="-3.10604">
        <ele>135</ele>
        <time>2016-02-04T13:45:18Z</time>
      </trkpt>
      <trkpt lat="48.20632" lon="-3.106">
        <ele>134</ele>
        <time>2016-02-04T13:45:22Z</time>
      </trkpt>
      <trkpt lat="48.20628" lon="-3.10596">
        <ele>134</ele>
        <time>2016-02-04T13:45:26Z</time>
      </trkpt>
      <trkpt lat="48.20626" lon="-3.10592">
        <ele>134</ele>
        <time>2016-02-04T13:45:30Z</time>
      </trkpt>
      <trkpt lat="48.20625" lon="-3.10589">
        <ele>134</ele>
        <time>2016-02-04T13:45:36Z</time>
      </trkpt>
      <trkpt lat="48.20623" lon="-3.10587">
        <ele>134</ele>
        <time>2016-02-04T13:45:39Z</time>
      </trkpt>
      <trkpt lat="48.2062" lon="-3.10583">
        <ele>134</ele>
        <time>2016-02-04T13:45:43Z</time>
      </trkpt>
      <trkpt lat="48.20618" lon="-3.1058">
        <ele>134</ele>
        <time>2016-02-04T13:45:46Z</time>
      </trkpt>
      <trkpt lat="48.20615" lon="-3.10575">
        <ele>134</ele>
        <time>2016-02-04T13:45:50Z</time>
      </trkpt>
      <trkpt lat="48.20611" lon="-3.10571">
        <ele>134</ele>
        <time>2016-02-04T13:45:54Z</time>
      </trkpt>
      <trkpt lat="48.20608" lon="-3.10567">
        <ele>134</ele>
        <time>2016-02-04T13:45:57Z</time>
      </trkpt>
      <trkpt lat="48.20607" lon="-3.10561">
        <ele>134</ele>
        <time>2016-02-04T13:46:01Z</time>
      </trkpt>
      <trkpt lat="48.20605" lon="-3.10553">
        <ele>134</ele>
        <time>2016-02-04T13:46:04Z</time>
      </trkpt>
      <trkpt lat="48.20604" lon="-3.10546">
        <ele>134</ele>
        <time>2016-02-04T13:46:07Z</time>
      </trkpt>
      <trkpt lat="48.20601" lon="-3.10541">
        <ele>135</ele>
        <time>2016-02-04T13:46:10Z</time>
      </trkpt>
      <trkpt lat="48.20599" lon="-3.10536">
        <ele>138</ele>
        <time>2016-02-04T13:46:14Z</time>
      </trkpt>
      <trkpt lat="48.20595" lon="-3.10535">
        <ele>138</ele>
        <time>2016-02-04T13:46:20Z</time>
      </trkpt>
      <trkpt lat="48.20593" lon="-3.1053">
        <ele>138</ele>
        <time>2016-02-04T13:46:24Z</time>
      </trkpt>
      <trkpt lat="48.20591" lon="-3.10525">
        <ele>138</ele>
        <time>2016-02-04T13:46:27Z</time>
      </trkpt>
      <trkpt lat="48.20591" lon="-3.10521">
        <ele>139</ele>
        <time>2016-02-04T13:46:30Z</time>
      </trkpt>
      <trkpt lat="48.2059" lon="-3.10517">
        <ele>139</ele>
        <time>2016-02-04T13:46:33Z</time>
      </trkpt>
      <trkpt lat="48.2059" lon="-3.10511">
        <ele>139</ele>
        <time>2016-02-04T13:46:37Z</time>
      </trkpt>
      <trkpt lat="48.20589" lon="-3.10507">
        <ele>139</ele>
        <time>2016-02-04T13:46:41Z</time>
      </trkpt>
      <trkpt lat="48.20587" lon="-3.105">
        <ele>139</ele>
        <time>2016-02-04T13:46:45Z</time>
      </trkpt>
      <trkpt lat="48.20585" lon="-3.10495">
        <ele>139</ele>
        <time>2016-02-04T13:46:50Z</time>
      </trkpt>
      <trkpt lat="48.20583" lon="-3.10493">
        <ele>142</ele>
        <time>2016-02-04T13:46:54Z</time>
      </trkpt>
      <trkpt lat="48.20581" lon="-3.10494">
        <ele>144</ele>
        <time>2016-02-04T13:46:57Z</time>
      </trkpt>
      <trkpt lat="48.20582" lon="-3.1049">
        <ele>145</ele>
        <time>2016-02-04T13:47:02Z</time>
      </trkpt>
      <trkpt lat="48.20583" lon="-3.10488">
        <ele>146</ele>
        <time>2016-02-04T13:47:05Z</time>
      </trkpt>
      <trkpt lat="48.20583" lon="-3.10487">
        <ele>149</ele>
        <time>2016-02-04T13:47:10Z</time>
      </trkpt>
      <trkpt lat="48.20581" lon="-3.10488">
        <ele>150</ele>
        <time>2016-02-04T13:47:17Z</time>
      </trkpt>
      <trkpt lat="48.20581" lon="-3.10486">
        <ele>150</ele>
        <time>2016-02-04T13:47:21Z</time>
      </trkpt>
      <trkpt lat="48.20582" lon="-3.10487">
        <ele>149</ele>
        <time>2016-02-04T13:47:24Z</time>
      </trkpt>
      <trkpt lat="48.20584" lon="-3.10491">
        <ele>148</ele>
        <time>2016-02-04T13:47:30Z</time>
      </trkpt>
      <trkpt lat="48.20581" lon="-3.10495">
        <ele>147</ele>
        <time>2016-02-04T13:47:33Z</time>
      </trkpt>
      <trkpt lat="48.20582" lon="-3.10495">
        <ele>142</ele>
        <time>2016-02-04T13:47:38Z</time>
      </trkpt>
      <trkpt lat="48.20583" lon="-3.10495">
        <ele>142</ele>
        <time>2016-02-04T13:47:41Z</time>
      </trkpt>
      <trkpt lat="48.20584" lon="-3.10491">
        <ele>145</ele>
        <time>2016-02-04T13:47:45Z</time>
      </trkpt>
      <trkpt lat="48.20587" lon="-3.10486">
        <ele>148</ele>
        <time>2016-02-04T13:47:48Z</time>
      </trkpt>
      <trkpt lat="48.20588" lon="-3.10482">
        <ele>149</ele>
        <time>2016-02-04T13:47:52Z</time>
      </trkpt>
      <trkpt lat="48.20589" lon="-3.10477">
        <ele>151</ele>
        <time>2016-02-04T13:47:56Z</time>
      </trkpt>
      <trkpt lat="48.20593" lon="-3.10471">
        <ele>151</ele>
        <time>2016-02-04T13:48:01Z</time>
      </trkpt>
      <trkpt lat="48.20595" lon="-3.10465">
        <ele>151</ele>
        <time>2016-02-04T13:48:04Z</time>
      </trkpt>
      <trkpt lat="48.20595" lon="-3.10458">
        <ele>151</ele>
        <time>2016-02-04T13:48:10Z</time>
      </trkpt>
      <trkpt lat="48.20594" lon="-3.10456">
        <ele>150</ele>
        <time>2016-02-04T13:48:13Z</time>
      </trkpt>
      <trkpt lat="48.20594" lon="-3.10452">
        <ele>148</ele>
        <time>2016-02-04T13:48:17Z</time>
      </trkpt>
      <trkpt lat="48.20596" lon="-3.10445">
        <ele>146</ele>
        <time>2016-02-04T13:48:20Z</time>
      </trkpt>
      <trkpt lat="48.20596" lon="-3.10438">
        <ele>146</ele>
        <time>2016-02-04T13:48:24Z</time>
      </trkpt>
      <trkpt lat="48.20597" lon="-3.10432">
        <ele>146</ele>
        <time>2016-02-04T13:48:28Z</time>
      </trkpt>
      <trkpt lat="48.20599" lon="-3.10428">
        <ele>146</ele>
        <time>2016-02-04T13:48:33Z</time>
      </trkpt>
      <trkpt lat="48.20599" lon="-3.10426">
        <ele>145</ele>
        <time>2016-02-04T13:48:36Z</time>
      </trkpt>
      <trkpt lat="48.20601" lon="-3.10421">
        <ele>142</ele>
        <time>2016-02-04T13:48:39Z</time>
      </trkpt>
      <trkpt lat="48.20602" lon="-3.10416">
        <ele>140</ele>
        <time>2016-02-04T13:48:45Z</time>
      </trkpt>
      <trkpt lat="48.206" lon="-3.10417">
        <ele>139</ele>
        <time>2016-02-04T13:48:52Z</time>
      </trkpt>
      <trkpt lat="48.20599" lon="-3.10415">
        <ele>139</ele>
        <time>2016-02-04T13:48:58Z</time>
      </trkpt>
      <trkpt lat="48.20599" lon="-3.10411">
        <ele>139</ele>
        <time>2016-02-04T13:49:02Z</time>
      </trkpt>
      <trkpt lat="48.206" lon="-3.10406">
        <ele>139</ele>
        <time>2016-02-04T13:49:05Z</time>
      </trkpt>
      <trkpt lat="48.20602" lon="-3.10401">
        <ele>139</ele>
        <time>2016-02-04T13:49:09Z</time>
      </trkpt>
      <trkpt lat="48.20604" lon="-3.10396">
        <ele>138</ele>
        <time>2016-02-04T13:49:16Z</time>
      </trkpt>
      <trkpt lat="48.20604" lon="-3.10391">
        <ele>137</ele>
        <time>2016-02-04T13:49:21Z</time>
      </trkpt>
      <trkpt lat="48.20607" lon="-3.10385">
        <ele>137</ele>
        <time>2016-02-04T13:49:25Z</time>
      </trkpt>
      <trkpt lat="48.2061" lon="-3.10378">
        <ele>135</ele>
        <time>2016-02-04T13:49:30Z</time>
      </trkpt>
      <trkpt lat="48.20611" lon="-3.10372">
        <ele>134</ele>
        <time>2016-02-04T13:49:34Z</time>
      </trkpt>
      <trkpt lat="48.20613" lon="-3.10367">
        <ele>133</ele>
        <time>2016-02-04T13:49:37Z</time>
      </trkpt>
      <trkpt lat="48.20616" lon="-3.10362">
        <ele>131</ele>
        <time>2016-02-04T13:49:41Z</time>
      </trkpt>
      <trkpt lat="48.20618" lon="-3.10356">
        <ele>131</ele>
        <time>2016-02-04T13:49:44Z</time>
      </trkpt>
      <trkpt lat="48.20618" lon="-3.10347">
        <ele>131</ele>
        <time>2016-02-04T13:49:48Z</time>
      </trkpt>
      <trkpt lat="48.20619" lon="-3.10338">
        <ele>131</ele>
        <time>2016-02-04T13:49:52Z</time>
      </trkpt>
      <trkpt lat="48.2062" lon="-3.1033">
        <ele>131</ele>
        <time>2016-02-04T13:49:57Z</time>
      </trkpt>
      <trkpt lat="48.20622" lon="-3.10324">
        <ele>131</ele>
        <time>2016-02-04T13:50:00Z</time>
      </trkpt>
      <trkpt lat="48.20621" lon="-3.10318">
        <ele>131</ele>
        <time>2016-02-04T13:50:04Z</time>
      </trkpt>
      <trkpt lat="48.20622" lon="-3.1031">
        <ele>131</ele>
        <time>2016-02-04T13:50:08Z</time>
      </trkpt>
      <trkpt lat="48.20626" lon="-3.10303">
        <ele>131</ele>
        <time>2016-02-04T13:50:13Z</time>
      </trkpt>
      <trkpt lat="48.20626" lon="-3.10295">
        <ele>131</ele>
        <time>2016-02-04T13:50:17Z</time>
      </trkpt>
      <trkpt lat="48.20628" lon="-3.10291">
        <ele>131</ele>
        <time>2016-02-04T13:50:20Z</time>
      </trkpt>
      <trkpt lat="48.2063" lon="-3.10288">
        <ele>131</ele>
        <time>2016-02-04T13:50:24Z</time>
      </trkpt>
      <trkpt lat="48.20631" lon="-3.10282">
        <ele>131</ele>
        <time>2016-02-04T13:50:28Z</time>
      </trkpt>
      <trkpt lat="48.20631" lon="-3.10275">
        <ele>131</ele>
        <time>2016-02-04T13:50:32Z</time>
      </trkpt>
      <trkpt lat="48.20633" lon="-3.10271">
        <ele>131</ele>
        <time>2016-02-04T13:50:35Z</time>
      </trkpt>
      <trkpt lat="48.20635" lon="-3.10265">
        <ele>129</ele>
        <time>2016-02-04T13:50:38Z</time>
      </trkpt>
      <trkpt lat="48.20638" lon="-3.1026">
        <ele>127</ele>
        <time>2016-02-04T13:50:42Z</time>
      </trkpt>
      <trkpt lat="48.20639" lon="-3.10254">
        <ele>127</ele>
        <time>2016-02-04T13:50:46Z</time>
      </trkpt>
      <trkpt lat="48.20641" lon="-3.10248">
        <ele>127</ele>
        <time>2016-02-04T13:50:49Z</time>
      </trkpt>
      <trkpt lat="48.20644" lon="-3.10241">
        <ele>127</ele>
        <time>2016-02-04T13:50:53Z</time>
      </trkpt>
      <trkpt lat="48.20644" lon="-3.10235">
        <ele>127</ele>
        <time>2016-02-04T13:50:56Z</time>
      </trkpt>
      <trkpt lat="48.20646" lon="-3.10231">
        <ele>127</ele>
        <time>2016-02-04T13:51:00Z</time>
      </trkpt>
      <trkpt lat="48.20649" lon="-3.10222">
        <ele>127</ele>
        <time>2016-02-04T13:51:05Z</time>
      </trkpt>
      <trkpt lat="48.20651" lon="-3.10214">
        <ele>127</ele>
        <time>2016-02-04T13:51:09Z</time>
      </trkpt>
      <trkpt lat="48.20652" lon="-3.10208">
        <ele>127</ele>
        <time>2016-02-04T13:51:13Z</time>
      </trkpt>
      <trkpt lat="48.20654" lon="-3.10203">
        <ele>127</ele>
        <time>2016-02-04T13:51:17Z</time>
      </trkpt>
      <trkpt lat="48.20653" lon="-3.10197">
        <ele>127</ele>
        <time>2016-02-04T13:51:21Z</time>
      </trkpt>
      <trkpt lat="48.20654" lon="-3.10191">
        <ele>127</ele>
        <time>2016-02-04T13:51:24Z</time>
      </trkpt>
      <trkpt lat="48.20656" lon="-3.10182">
        <ele>127</ele>
        <time>2016-02-04T13:51:29Z</time>
      </trkpt>
      <trkpt lat="48.20658" lon="-3.10176">
        <ele>127</ele>
        <time>2016-02-04T13:51:33Z</time>
      </trkpt>
      <trkpt lat="48.20657" lon="-3.10171">
        <ele>127</ele>
        <time>2016-02-04T13:51:36Z</time>
      </trkpt>
      <trkpt lat="48.20658" lon="-3.10165">
        <ele>127</ele>
        <time>2016-02-04T13:51:39Z</time>
      </trkpt>
      <trkpt lat="48.2066" lon="-3.10162">
        <ele>127</ele>
        <time>2016-02-04T13:51:42Z</time>
      </trkpt>
      <trkpt lat="48.20664" lon="-3.10159">
        <ele>126</ele>
        <time>2016-02-04T13:51:45Z</time>
      </trkpt>
      <trkpt lat="48.20666" lon="-3.10155">
        <ele>125</ele>
        <time>2016-02-04T13:51:48Z</time>
      </trkpt>
      <trkpt lat="48.20666" lon="-3.1015">
        <ele>125</ele>
        <time>2016-02-04T13:51:52Z</time>
      </trkpt>
      <trkpt lat="48.20666" lon="-3.10146">
        <ele>125</ele>
        <time>2016-02-04T13:52:02Z</time>
      </trkpt>
      <trkpt lat="48.20667" lon="-3.10142">
        <ele>125</ele>
        <time>2016-02-04T13:52:07Z</time>
      </trkpt>
      <trkpt lat="48.20665" lon="-3.10138">
        <ele>126</ele>
        <time>2016-02-04T13:52:10Z</time>
      </trkpt>
      <trkpt lat="48.20665" lon="-3.10133">
        <ele>126</ele>
        <time>2016-02-04T13:52:15Z</time>
      </trkpt>
      <trkpt lat="48.20666" lon="-3.10127">
        <ele>128</ele>
        <time>2016-02-04T13:52:18Z</time>
      </trkpt>
      <trkpt lat="48.20667" lon="-3.10119">
        <ele>131</ele>
        <time>2016-02-04T13:52:21Z</time>
      </trkpt>
      <trkpt lat="48.2067" lon="-3.10113">
        <ele>133</ele>
        <time>2016-02-04T13:52:24Z</time>
      </trkpt>
      <trkpt lat="48.20672" lon="-3.10106">
        <ele>133</ele>
        <time>2016-02-04T13:52:28Z</time>
      </trkpt>
      <trkpt lat="48.20673" lon="-3.10101">
        <ele>133</ele>
        <time>2016-02-04T13:52:31Z</time>
      </trkpt>
      <trkpt lat="48.20674" lon="-3.10095">
        <ele>133</ele>
        <time>2016-02-04T13:52:35Z</time>
      </trkpt>
      <trkpt lat="48.20674" lon="-3.1009">
        <ele>133</ele>
        <time>2016-02-04T13:52:38Z</time>
      </trkpt>
      <trkpt lat="48.20673" lon="-3.10085">
        <ele>133</ele>
        <time>2016-02-04T13:52:41Z</time>
      </trkpt>
      <trkpt lat="48.20673" lon="-3.10079">
        <ele>133</ele>
        <time>2016-02-04T13:52:45Z</time>
      </trkpt>
      <trkpt lat="48.20673" lon="-3.10072">
        <ele>133</ele>
        <time>2016-02-04T13:52:49Z</time>
      </trkpt>
      <trkpt lat="48.20675" lon="-3.10068">
        <ele>133</ele>
        <time>2016-02-04T13:52:52Z</time>
      </trkpt>
      <trkpt lat="48.20677" lon="-3.10059">
        <ele>133</ele>
        <time>2016-02-04T13:52:56Z</time>
      </trkpt>
      <trkpt lat="48.20677" lon="-3.10055">
        <ele>135</ele>
        <time>2016-02-04T13:52:59Z</time>
      </trkpt>
      <trkpt lat="48.20676" lon="-3.10051">
        <ele>135</ele>
        <time>2016-02-04T13:53:03Z</time>
      </trkpt>
      <trkpt lat="48.20675" lon="-3.10049">
        <ele>135</ele>
        <time>2016-02-04T13:53:06Z</time>
      </trkpt>
      <trkpt lat="48.20675" lon="-3.10044">
        <ele>135</ele>
        <time>2016-02-04T13:53:09Z</time>
      </trkpt>
      <trkpt lat="48.20676" lon="-3.1004">
        <ele>135</ele>
        <time>2016-02-04T13:53:12Z</time>
      </trkpt>
      <trkpt lat="48.20676" lon="-3.10034">
        <ele>135</ele>
        <time>2016-02-04T13:53:16Z</time>
      </trkpt>
      <trkpt lat="48.20678" lon="-3.1003">
        <ele>135</ele>
        <time>2016-02-04T13:53:19Z</time>
      </trkpt>
      <trkpt lat="48.20679" lon="-3.10023">
        <ele>134</ele>
        <time>2016-02-04T13:53:23Z</time>
      </trkpt>
      <trkpt lat="48.2068" lon="-3.10016">
        <ele>134</ele>
        <time>2016-02-04T13:53:28Z</time>
      </trkpt>
      <trkpt lat="48.20681" lon="-3.10013">
        <ele>134</ele>
        <time>2016-02-04T13:53:32Z</time>
      </trkpt>
      <trkpt lat="48.20682" lon="-3.10009">
        <ele>137</ele>
        <time>2016-02-04T13:53:36Z</time>
      </trkpt>
      <trkpt lat="48.20682" lon="-3.10003">
        <ele>140</ele>
        <time>2016-02-04T13:53:41Z</time>
      </trkpt>
      <trkpt lat="48.20685" lon="-3.09999">
        <ele>143</ele>
        <time>2016-02-04T13:53:47Z</time>
      </trkpt>
      <trkpt lat="48.20687" lon="-3.09998">
        <ele>143</ele>
        <time>2016-02-04T13:53:52Z</time>
      </trkpt>
      <trkpt lat="48.20689" lon="-3.09996">
        <ele>144</ele>
        <time>2016-02-04T13:53:55Z</time>
      </trkpt>
      <trkpt lat="48.20689" lon="-3.0999">
        <ele>144</ele>
        <time>2016-02-04T13:54:00Z</time>
      </trkpt>
      <trkpt lat="48.20688" lon="-3.09988">
        <ele>144</ele>
        <time>2016-02-04T13:54:03Z</time>
      </trkpt>
      <trkpt lat="48.20687" lon="-3.09983">
        <ele>145</ele>
        <time>2016-02-04T13:54:08Z</time>
      </trkpt>
      <trkpt lat="48.20687" lon="-3.09979">
        <ele>145</ele>
        <time>2016-02-04T13:54:12Z</time>
      </trkpt>
      <trkpt lat="48.20687" lon="-3.09978">
        <ele>145</ele>
        <time>2016-02-04T13:54:15Z</time>
      </trkpt>
      <trkpt lat="48.20688" lon="-3.09973">
        <ele>145</ele>
        <time>2016-02-04T13:54:18Z</time>
      </trkpt>
      <trkpt lat="48.20688" lon="-3.09971">
        <ele>145</ele>
        <time>2016-02-04T13:54:21Z</time>
      </trkpt>
      <trkpt lat="48.20686" lon="-3.09971">
        <ele>142</ele>
        <time>2016-02-04T13:54:26Z</time>
      </trkpt>
      <trkpt lat="48.20687" lon="-3.09969">
        <ele>141</ele>
        <time>2016-02-04T13:54:43Z</time>
      </trkpt>
      <trkpt lat="48.20686" lon="-3.09967">
        <ele>141</ele>
        <time>2016-02-04T13:54:46Z</time>
      </trkpt>
      <trkpt lat="48.20684" lon="-3.09963">
        <ele>137</ele>
        <time>2016-02-04T13:54:58Z</time>
      </trkpt>
      <trkpt lat="48.20683" lon="-3.09963">
        <ele>133</ele>
        <time>2016-02-04T13:55:01Z</time>
      </trkpt>
      <trkpt lat="48.2068" lon="-3.09963">
        <ele>129</ele>
        <time>2016-02-04T13:55:06Z</time>
      </trkpt>
      <trkpt lat="48.20681" lon="-3.09956">
        <ele>128</ele>
        <time>2016-02-04T13:55:09Z</time>
      </trkpt>
      <trkpt lat="48.20682" lon="-3.0995">
        <ele>128</ele>
        <time>2016-02-04T13:55:12Z</time>
      </trkpt>
      <trkpt lat="48.20683" lon="-3.09945">
        <ele>128</ele>
        <time>2016-02-04T13:55:15Z</time>
      </trkpt>
      <trkpt lat="48.20682" lon="-3.0994">
        <ele>128</ele>
        <time>2016-02-04T13:55:19Z</time>
      </trkpt>
      <trkpt lat="48.20682" lon="-3.09935">
        <ele>128</ele>
        <time>2016-02-04T13:55:22Z</time>
      </trkpt>
      <trkpt lat="48.20682" lon="-3.09929">
        <ele>128</ele>
        <time>2016-02-04T13:55:25Z</time>
      </trkpt>
      <trkpt lat="48.20683" lon="-3.09924">
        <ele>128</ele>
        <time>2016-02-04T13:55:30Z</time>
      </trkpt>
      <trkpt lat="48.20683" lon="-3.09919">
        <ele>128</ele>
        <time>2016-02-04T13:55:33Z</time>
      </trkpt>
      <trkpt lat="48.2068" lon="-3.09916">
        <ele>128</ele>
        <time>2016-02-04T13:55:37Z</time>
      </trkpt>
      <trkpt lat="48.20678" lon="-3.09911">
        <ele>128</ele>
        <time>2016-02-04T13:55:41Z</time>
      </trkpt>
      <trkpt lat="48.20678" lon="-3.09905">
        <ele>128</ele>
        <time>2016-02-04T13:55:44Z</time>
      </trkpt>
      <trkpt lat="48.20679" lon="-3.09899">
        <ele>128</ele>
        <time>2016-02-04T13:55:47Z</time>
      </trkpt>
      <trkpt lat="48.2068" lon="-3.09894">
        <ele>128</ele>
        <time>2016-02-04T13:55:50Z</time>
      </trkpt>
      <trkpt lat="48.20681" lon="-3.0989">
        <ele>129</ele>
        <time>2016-02-04T13:55:53Z</time>
      </trkpt>
      <trkpt lat="48.2068" lon="-3.09884">
        <ele>132</ele>
        <time>2016-02-04T13:55:57Z</time>
      </trkpt>
      <trkpt lat="48.2068" lon="-3.09882">
        <ele>134</ele>
        <time>2016-02-04T13:56:00Z</time>
      </trkpt>
      <trkpt lat="48.2068" lon="-3.0988">
        <ele>134</ele>
        <time>2016-02-04T13:56:04Z</time>
      </trkpt>
      <trkpt lat="48.20681" lon="-3.09878">
        <ele>134</ele>
        <time>2016-02-04T13:56:11Z</time>
      </trkpt>
      <trkpt lat="48.2068" lon="-3.09874">
        <ele>134</ele>
        <time>2016-02-04T13:56:17Z</time>
      </trkpt>
      <trkpt lat="48.2068" lon="-3.0987">
        <ele>134</ele>
        <time>2016-02-04T13:56:24Z</time>
      </trkpt>
      <trkpt lat="48.20681" lon="-3.09866">
        <ele>134</ele>
        <time>2016-02-04T13:56:30Z</time>
      </trkpt>
      <trkpt lat="48.20682" lon="-3.09861">
        <ele>134</ele>
        <time>2016-02-04T13:56:34Z</time>
      </trkpt>
      <trkpt lat="48.20681" lon="-3.09858">
        <ele>134</ele>
        <time>2016-02-04T13:56:40Z</time>
      </trkpt>
      <trkpt lat="48.20682" lon="-3.09854">
        <ele>134</ele>
        <time>2016-02-04T13:56:45Z</time>
      </trkpt>
      <trkpt lat="48.20681" lon="-3.09858">
        <ele>134</ele>
        <time>2016-02-04T13:56:49Z</time>
      </trkpt>
      <trkpt lat="48.20682" lon="-3.09859">
        <ele>134</ele>
        <time>2016-02-04T13:56:54Z</time>
      </trkpt>
      <trkpt lat="48.20683" lon="-3.09861">
        <ele>134</ele>
        <time>2016-02-04T13:56:58Z</time>
      </trkpt>
      <trkpt lat="48.20684" lon="-3.0986">
        <ele>129</ele>
        <time>2016-02-04T13:57:16Z</time>
      </trkpt>
      <trkpt lat="48.20688" lon="-3.09858">
        <ele>130</ele>
        <time>2016-02-04T13:57:19Z</time>
      </trkpt>
      <trkpt lat="48.2069" lon="-3.09857">
        <ele>133</ele>
        <time>2016-02-04T13:57:22Z</time>
      </trkpt>
      <trkpt lat="48.2069" lon="-3.09855">
        <ele>138</ele>
        <time>2016-02-04T13:57:28Z</time>
      </trkpt>
      <trkpt lat="48.20689" lon="-3.09856">
        <ele>140</ele>
        <time>2016-02-04T13:57:37Z</time>
      </trkpt>
      <trkpt lat="48.20689" lon="-3.09857">
        <ele>140</ele>
        <time>2016-02-04T13:57:40Z</time>
      </trkpt>
      <trkpt lat="48.20689" lon="-3.09856">
        <ele>140</ele>
        <time>2016-02-04T13:57:45Z</time>
      </trkpt>
      <trkpt lat="48.20684" lon="-3.09857">
        <ele>140</ele>
        <time>2016-02-04T13:57:51Z</time>
      </trkpt>
      <trkpt lat="48.20683" lon="-3.09855">
        <ele>138</ele>
        <time>2016-02-04T13:57:58Z</time>
      </trkpt>
      <trkpt lat="48.20686" lon="-3.09854">
        <ele>138</ele>
        <time>2016-02-04T13:58:02Z</time>
      </trkpt>
      <trkpt lat="48.20686" lon="-3.09856">
        <ele>139</ele>
        <time>2016-02-04T13:58:05Z</time>
      </trkpt>
      <trkpt lat="48.20688" lon="-3.09856">
        <ele>142</ele>
        <time>2016-02-04T13:58:09Z</time>
      </trkpt>
      <trkpt lat="48.20692" lon="-3.09858">
        <ele>142</ele>
        <time>2016-02-04T13:58:13Z</time>
      </trkpt>
      <trkpt lat="48.20692" lon="-3.09858">
        <ele>142</ele>
        <time>2016-02-04T13:58:22Z</time>
      </trkpt>
      <trkpt lat="48.20692" lon="-3.09857">
        <ele>140</ele>
        <time>2016-02-04T13:58:27Z</time>
      </trkpt>
      <trkpt lat="48.2069" lon="-3.09854">
        <ele>137</ele>
        <time>2016-02-04T13:58:33Z</time>
      </trkpt>
      <trkpt lat="48.20691" lon="-3.0985">
        <ele>137</ele>
        <time>2016-02-04T13:58:39Z</time>
      </trkpt>
      <trkpt lat="48.20692" lon="-3.0985">
        <ele>138</ele>
        <time>2016-02-04T13:58:45Z</time>
      </trkpt>
      <trkpt lat="48.2069" lon="-3.09856">
        <ele>138</ele>
        <time>2016-02-04T13:58:49Z</time>
      </trkpt>
      <trkpt lat="48.20688" lon="-3.09856">
        <ele>134</ele>
        <time>2016-02-04T13:59:01Z</time>
      </trkpt>
      <trkpt lat="48.20687" lon="-3.09853">
        <ele>138</ele>
        <time>2016-02-04T13:59:06Z</time>
      </trkpt>
      <trkpt lat="48.20686" lon="-3.09851">
        <ele>140</ele>
        <time>2016-02-04T13:59:10Z</time>
      </trkpt>
      <trkpt lat="48.20686" lon="-3.09847">
        <ele>140</ele>
        <time>2016-02-04T13:59:17Z</time>
      </trkpt>
      <trkpt lat="48.20685" lon="-3.09845">
        <ele>140</ele>
        <time>2016-02-04T13:59:20Z</time>
      </trkpt>
      <trkpt lat="48.20684" lon="-3.09841">
        <ele>140</ele>
        <time>2016-02-04T13:59:24Z</time>
      </trkpt>
      <trkpt lat="48.20684" lon="-3.09838">
        <ele>140</ele>
        <time>2016-02-04T13:59:27Z</time>
      </trkpt>
      <trkpt lat="48.20686" lon="-3.09834">
        <ele>140</ele>
        <time>2016-02-04T13:59:32Z</time>
      </trkpt>
      <trkpt lat="48.20687" lon="-3.0983">
        <ele>140</ele>
        <time>2016-02-04T13:59:36Z</time>
      </trkpt>
      <trkpt lat="48.20688" lon="-3.09825">
        <ele>140</ele>
        <time>2016-02-04T13:59:41Z</time>
      </trkpt>
      <trkpt lat="48.20688" lon="-3.09818">
        <ele>140</ele>
        <time>2016-02-04T13:59:44Z</time>
      </trkpt>
      <trkpt lat="48.20689" lon="-3.09813">
        <ele>140</ele>
        <time>2016-02-04T13:59:47Z</time>
      </trkpt>
      <trkpt lat="48.20689" lon="-3.09807">
        <ele>140</ele>
        <time>2016-02-04T13:59:52Z</time>
      </trkpt>
      <trkpt lat="48.20686" lon="-3.098">
        <ele>143</ele>
        <time>2016-02-04T13:59:57Z</time>
      </trkpt>
      <trkpt lat="48.20684" lon="-3.09797">
        <ele>144</ele>
        <time>2016-02-04T14:00:03Z</time>
      </trkpt>
      <trkpt lat="48.20683" lon="-3.09792">
        <ele>144</ele>
        <time>2016-02-04T14:00:06Z</time>
      </trkpt>
      <trkpt lat="48.20683" lon="-3.09787">
        <ele>144</ele>
        <time>2016-02-04T14:00:11Z</time>
      </trkpt>
      <trkpt lat="48.20683" lon="-3.09785">
        <ele>143</ele>
        <time>2016-02-04T14:00:15Z</time>
      </trkpt>
      <trkpt lat="48.20682" lon="-3.0978">
        <ele>142</ele>
        <time>2016-02-04T14:00:18Z</time>
      </trkpt>
      <trkpt lat="48.20681" lon="-3.09775">
        <ele>141</ele>
        <time>2016-02-04T14:00:22Z</time>
      </trkpt>
      <trkpt lat="48.2068" lon="-3.09773">
        <ele>140</ele>
        <time>2016-02-04T14:00:25Z</time>
      </trkpt>
      <trkpt lat="48.2068" lon="-3.09769">
        <ele>139</ele>
        <time>2016-02-04T14:00:28Z</time>
      </trkpt>
      <trkpt lat="48.2068" lon="-3.09765">
        <ele>139</ele>
        <time>2016-02-04T14:00:32Z</time>
      </trkpt>
      <trkpt lat="48.2068" lon="-3.09761">
        <ele>139</ele>
        <time>2016-02-04T14:00:37Z</time>
      </trkpt>
      <trkpt lat="48.2068" lon="-3.09759">
        <ele>139</ele>
        <time>2016-02-04T14:00:40Z</time>
      </trkpt>
      <trkpt lat="48.20679" lon="-3.09756">
        <ele>142</ele>
        <time>2016-02-04T14:00:44Z</time>
      </trkpt>
      <trkpt lat="48.20679" lon="-3.09754">
        <ele>149</ele>
        <time>2016-02-04T14:00:52Z</time>
      </trkpt>
      <trkpt lat="48.20681" lon="-3.09751">
        <ele>149</ele>
        <time>2016-02-04T14:00:56Z</time>
      </trkpt>
      <trkpt lat="48.20681" lon="-3.09745">
        <ele>149</ele>
        <time>2016-02-04T14:01:00Z</time>
      </trkpt>
      <trkpt lat="48.20681" lon="-3.09738">
        <ele>149</ele>
        <time>2016-02-04T14:01:04Z</time>
      </trkpt>
      <trkpt lat="48.20681" lon="-3.09732">
        <ele>149</ele>
        <time>2016-02-04T14:01:07Z</time>
      </trkpt>
      <trkpt lat="48.20681" lon="-3.09725">
        <ele>149</ele>
        <time>2016-02-04T14:01:11Z</time>
      </trkpt>
      <trkpt lat="48.20681" lon="-3.09718">
        <ele>149</ele>
        <time>2016-02-04T14:01:15Z</time>
      </trkpt>
      <trkpt lat="48.20681" lon="-3.09714">
        <ele>149</ele>
        <time>2016-02-04T14:01:18Z</time>
      </trkpt>
      <trkpt lat="48.20682" lon="-3.0971">
        <ele>149</ele>
        <time>2016-02-04T14:01:21Z</time>
      </trkpt>
      <trkpt lat="48.20682" lon="-3.09704">
        <ele>147</ele>
        <time>2016-02-04T14:01:25Z</time>
      </trkpt>
      <trkpt lat="48.20681" lon="-3.09699">
        <ele>146</ele>
        <time>2016-02-04T14:01:30Z</time>
      </trkpt>
      <trkpt lat="48.20681" lon="-3.09696">
        <ele>144</ele>
        <time>2016-02-04T14:01:33Z</time>
      </trkpt>
      <trkpt lat="48.20679" lon="-3.0969">
        <ele>141</ele>
        <time>2016-02-04T14:01:37Z</time>
      </trkpt>
      <trkpt lat="48.20676" lon="-3.09686">
        <ele>138</ele>
        <time>2016-02-04T14:01:41Z</time>
      </trkpt>
      <trkpt lat="48.20676" lon="-3.0968">
        <ele>136</ele>
        <time>2016-02-04T14:01:44Z</time>
      </trkpt>
      <trkpt lat="48.20676" lon="-3.09674">
        <ele>136</ele>
        <time>2016-02-04T14:01:47Z</time>
      </trkpt>
      <trkpt lat="48.20676" lon="-3.0967">
        <ele>136</ele>
        <time>2016-02-04T14:01:51Z</time>
      </trkpt>
      <trkpt lat="48.20676" lon="-3.09668">
        <ele>138</ele>
        <time>2016-02-04T14:01:54Z</time>
      </trkpt>
      <trkpt lat="48.20675" lon="-3.09664">
        <ele>139</ele>
        <time>2016-02-04T14:01:58Z</time>
      </trkpt>
      <trkpt lat="48.20671" lon="-3.09661">
        <ele>139</ele>
        <time>2016-02-04T14:02:04Z</time>
      </trkpt>
      <trkpt lat="48.20669" lon="-3.09658">
        <ele>137</ele>
        <time>2016-02-04T14:02:08Z</time>
      </trkpt>
      <trkpt lat="48.20668" lon="-3.09652">
        <ele>135</ele>
        <time>2016-02-04T14:02:12Z</time>
      </trkpt>
      <trkpt lat="48.20668" lon="-3.09647">
        <ele>137</ele>
        <time>2016-02-04T14:02:16Z</time>
      </trkpt>
      <trkpt lat="48.20667" lon="-3.09642">
        <ele>141</ele>
        <time>2016-02-04T14:02:20Z</time>
      </trkpt>
      <trkpt lat="48.20663" lon="-3.09642">
        <ele>146</ele>
        <time>2016-02-04T14:02:25Z</time>
      </trkpt>
      <trkpt lat="48.20663" lon="-3.09639">
        <ele>148</ele>
        <time>2016-02-04T14:02:28Z</time>
      </trkpt>
      <trkpt lat="48.2066" lon="-3.09634">
        <ele>148</ele>
        <time>2016-02-04T14:02:32Z</time>
      </trkpt>
      <trkpt lat="48.20659" lon="-3.09627">
        <ele>148</ele>
        <time>2016-02-04T14:02:36Z</time>
      </trkpt>
      <trkpt lat="48.20658" lon="-3.0962">
        <ele>151</ele>
        <time>2016-02-04T14:02:47Z</time>
      </trkpt>
      <trkpt lat="48.20656" lon="-3.09617">
        <ele>150</ele>
        <time>2016-02-04T14:02:52Z</time>
      </trkpt>
      <trkpt lat="48.20654" lon="-3.09614">
        <ele>145</ele>
        <time>2016-02-04T14:02:57Z</time>
      </trkpt>
      <trkpt lat="48.20651" lon="-3.0961">
        <ele>141</ele>
        <time>2016-02-04T14:03:01Z</time>
      </trkpt>
      <trkpt lat="48.20649" lon="-3.09606">
        <ele>137</ele>
        <time>2016-02-04T14:03:05Z</time>
      </trkpt>
      <trkpt lat="48.20646" lon="-3.09603">
        <ele>133</ele>
        <time>2016-02-04T14:03:09Z</time>
      </trkpt>
      <trkpt lat="48.20644" lon="-3.09599">
        <ele>132</ele>
        <time>2016-02-04T14:03:13Z</time>
      </trkpt>
      <trkpt lat="48.20641" lon="-3.09593">
        <ele>132</ele>
        <time>2016-02-04T14:03:16Z</time>
      </trkpt>
      <trkpt lat="48.20639" lon="-3.09585">
        <ele>133</ele>
        <time>2016-02-04T14:03:19Z</time>
      </trkpt>
      <trkpt lat="48.20639" lon="-3.09579">
        <ele>136</ele>
        <time>2016-02-04T14:03:22Z</time>
      </trkpt>
      <trkpt lat="48.20637" lon="-3.09575">
        <ele>139</ele>
        <time>2016-02-04T14:03:25Z</time>
      </trkpt>
      <trkpt lat="48.20635" lon="-3.09572">
        <ele>145</ele>
        <time>2016-02-04T14:03:33Z</time>
      </trkpt>
      <trkpt lat="48.20631" lon="-3.0957">
        <ele>145</ele>
        <time>2016-02-04T14:03:37Z</time>
      </trkpt>
      <trkpt lat="48.20628" lon="-3.09566">
        <ele>143</ele>
        <time>2016-02-04T14:03:41Z</time>
      </trkpt>
      <trkpt lat="48.20625" lon="-3.09567">
        <ele>140</ele>
        <time>2016-02-04T14:03:45Z</time>
      </trkpt>
      <trkpt lat="48.20623" lon="-3.09567">
        <ele>140</ele>
        <time>2016-02-04T14:03:49Z</time>
      </trkpt>
      <trkpt lat="48.20619" lon="-3.09566">
        <ele>140</ele>
        <time>2016-02-04T14:03:52Z</time>
      </trkpt>
      <trkpt lat="48.20617" lon="-3.0956">
        <ele>138</ele>
        <time>2016-02-04T14:03:56Z</time>
      </trkpt>
      <trkpt lat="48.20614" lon="-3.09555">
        <ele>138</ele>
        <time>2016-02-04T14:04:00Z</time>
      </trkpt>
      <trkpt lat="48.20611" lon="-3.0955">
        <ele>138</ele>
        <time>2016-02-04T14:04:04Z</time>
      </trkpt>
      <trkpt lat="48.2061" lon="-3.09548">
        <ele>138</ele>
        <time>2016-02-04T14:04:07Z</time>
      </trkpt>
      <trkpt lat="48.2061" lon="-3.09543">
        <ele>138</ele>
        <time>2016-02-04T14:04:11Z</time>
      </trkpt>
      <trkpt lat="48.20609" lon="-3.09537">
        <ele>138</ele>
        <time>2016-02-04T14:04:14Z</time>
      </trkpt>
      <trkpt lat="48.20607" lon="-3.09535">
        <ele>137</ele>
        <time>2016-02-04T14:04:18Z</time>
      </trkpt>
      <trkpt lat="48.20606" lon="-3.09531">
        <ele>136</ele>
        <time>2016-02-04T14:04:22Z</time>
      </trkpt>
      <trkpt lat="48.20605" lon="-3.0953">
        <ele>135</ele>
        <time>2016-02-04T14:04:25Z</time>
      </trkpt>
      <trkpt lat="48.20602" lon="-3.09527">
        <ele>134</ele>
        <time>2016-02-04T14:04:30Z</time>
      </trkpt>
      <trkpt lat="48.20601" lon="-3.09524">
        <ele>134</ele>
        <time>2016-02-04T14:04:33Z</time>
      </trkpt>
      <trkpt lat="48.20599" lon="-3.09523">
        <ele>134</ele>
        <time>2016-02-04T14:04:37Z</time>
      </trkpt>
      <trkpt lat="48.20596" lon="-3.09524">
        <ele>134</ele>
        <time>2016-02-04T14:04:41Z</time>
      </trkpt>
      <trkpt lat="48.20593" lon="-3.09525">
        <ele>134</ele>
        <time>2016-02-04T14:04:44Z</time>
      </trkpt>
      <trkpt lat="48.20589" lon="-3.09524">
        <ele>134</ele>
        <time>2016-02-04T14:04:49Z</time>
      </trkpt>
      <trkpt lat="48.20586" lon="-3.09522">
        <ele>134</ele>
        <time>2016-02-04T14:04:53Z</time>
      </trkpt>
      <trkpt lat="48.20583" lon="-3.09519">
        <ele>134</ele>
        <time>2016-02-04T14:04:57Z</time>
      </trkpt>
      <trkpt lat="48.20581" lon="-3.09511">
        <ele>134</ele>
        <time>2016-02-04T14:05:01Z</time>
      </trkpt>
      <trkpt lat="48.20578" lon="-3.09507">
        <ele>134</ele>
        <time>2016-02-04T14:05:04Z</time>
      </trkpt>
      <trkpt lat="48.20574" lon="-3.09501">
        <ele>134</ele>
        <time>2016-02-04T14:05:08Z</time>
      </trkpt>
      <trkpt lat="48.20573" lon="-3.09496">
        <ele>134</ele>
        <time>2016-02-04T14:05:11Z</time>
      </trkpt>
      <trkpt lat="48.2057" lon="-3.0949">
        <ele>134</ele>
        <time>2016-02-04T14:05:15Z</time>
      </trkpt>
      <trkpt lat="48.20567" lon="-3.09487">
        <ele>133</ele>
        <time>2016-02-04T14:05:19Z</time>
      </trkpt>
      <trkpt lat="48.20564" lon="-3.09485">
        <ele>132</ele>
        <time>2016-02-04T14:05:22Z</time>
      </trkpt>
      <trkpt lat="48.20561" lon="-3.09484">
        <ele>129</ele>
        <time>2016-02-04T14:05:25Z</time>
      </trkpt>
      <trkpt lat="48.20559" lon="-3.09479">
        <ele>128</ele>
        <time>2016-02-04T14:05:29Z</time>
      </trkpt>
      <trkpt lat="48.20555" lon="-3.09476">
        <ele>128</ele>
        <time>2016-02-04T14:05:32Z</time>
      </trkpt>
      <trkpt lat="48.20555" lon="-3.09472">
        <ele>128</ele>
        <time>2016-02-04T14:05:36Z</time>
      </trkpt>
      <trkpt lat="48.20553" lon="-3.09467">
        <ele>130</ele>
        <time>2016-02-04T14:05:41Z</time>
      </trkpt>
      <trkpt lat="48.20549" lon="-3.09465">
        <ele>131</ele>
        <time>2016-02-04T14:05:44Z</time>
      </trkpt>
      <trkpt lat="48.20546" lon="-3.09464">
        <ele>131</ele>
        <time>2016-02-04T14:05:47Z</time>
      </trkpt>
      <trkpt lat="48.20543" lon="-3.0946">
        <ele>130</ele>
        <time>2016-02-04T14:05:51Z</time>
      </trkpt>
      <trkpt lat="48.20541" lon="-3.09455">
        <ele>129</ele>
        <time>2016-02-04T14:05:55Z</time>
      </trkpt>
      <trkpt lat="48.20537" lon="-3.09452">
        <ele>129</ele>
        <time>2016-02-04T14:05:59Z</time>
      </trkpt>
      <trkpt lat="48.20534" lon="-3.0945">
        <ele>129</ele>
        <time>2016-02-04T14:06:03Z</time>
      </trkpt>
      <trkpt lat="48.20533" lon="-3.09447">
        <ele>128</ele>
        <time>2016-02-04T14:06:07Z</time>
      </trkpt>
      <trkpt lat="48.2053" lon="-3.09443">
        <ele>128</ele>
        <time>2016-02-04T14:06:10Z</time>
      </trkpt>
      <trkpt lat="48.20527" lon="-3.0944">
        <ele>128</ele>
        <time>2016-02-04T14:06:14Z</time>
      </trkpt>
      <trkpt lat="48.20523" lon="-3.09441">
        <ele>130</ele>
        <time>2016-02-04T14:06:18Z</time>
      </trkpt>
      <trkpt lat="48.20522" lon="-3.09438">
        <ele>131</ele>
        <time>2016-02-04T14:06:21Z</time>
      </trkpt>
      <trkpt lat="48.20523" lon="-3.09436">
        <ele>131</ele>
        <time>2016-02-04T14:06:26Z</time>
      </trkpt>
      <trkpt lat="48.20521" lon="-3.09436">
        <ele>132</ele>
        <time>2016-02-04T14:06:29Z</time>
      </trkpt>
      <trkpt lat="48.20519" lon="-3.09432">
        <ele>132</ele>
        <time>2016-02-04T14:06:32Z</time>
      </trkpt>
      <trkpt lat="48.20515" lon="-3.09431">
        <ele>132</ele>
        <time>2016-02-04T14:06:35Z</time>
      </trkpt>
      <trkpt lat="48.20511" lon="-3.09427">
        <ele>131</ele>
        <time>2016-02-04T14:06:38Z</time>
      </trkpt>
      <trkpt lat="48.2051" lon="-3.09422">
        <ele>130</ele>
        <time>2016-02-04T14:06:41Z</time>
      </trkpt>
      <trkpt lat="48.20509" lon="-3.09418">
        <ele>130</ele>
        <time>2016-02-04T14:06:45Z</time>
      </trkpt>
      <trkpt lat="48.20509" lon="-3.09414">
        <ele>131</ele>
        <time>2016-02-04T14:06:51Z</time>
      </trkpt>
      <trkpt lat="48.2051" lon="-3.09413">
        <ele>131</ele>
        <time>2016-02-04T14:06:54Z</time>
      </trkpt>
      <trkpt lat="48.20507" lon="-3.09413">
        <ele>131</ele>
        <time>2016-02-04T14:06:58Z</time>
      </trkpt>
      <trkpt lat="48.20504" lon="-3.09414">
        <ele>130</ele>
        <time>2016-02-04T14:07:01Z</time>
      </trkpt>
      <trkpt lat="48.20501" lon="-3.09415">
        <ele>128</ele>
        <time>2016-02-04T14:07:04Z</time>
      </trkpt>
      <trkpt lat="48.20498" lon="-3.09413">
        <ele>126</ele>
        <time>2016-02-04T14:07:08Z</time>
      </trkpt>
      <trkpt lat="48.20495" lon="-3.09413">
        <ele>125</ele>
        <time>2016-02-04T14:07:11Z</time>
      </trkpt>
      <trkpt lat="48.20494" lon="-3.09413">
        <ele>125</ele>
        <time>2016-02-04T14:07:31Z</time>
      </trkpt>
      <trkpt lat="48.20491" lon="-3.09413">
        <ele>125</ele>
        <time>2016-02-04T14:07:34Z</time>
      </trkpt>
      <trkpt lat="48.20487" lon="-3.09412">
        <ele>125</ele>
        <time>2016-02-04T14:07:38Z</time>
      </trkpt>
      <trkpt lat="48.20485" lon="-3.09407">
        <ele>125</ele>
        <time>2016-02-04T14:07:43Z</time>
      </trkpt>
      <trkpt lat="48.20484" lon="-3.09407">
        <ele>125</ele>
        <time>2016-02-04T14:07:46Z</time>
      </trkpt>
      <trkpt lat="48.20481" lon="-3.09406">
        <ele>125</ele>
        <time>2016-02-04T14:07:49Z</time>
      </trkpt>
      <trkpt lat="48.20478" lon="-3.09403">
        <ele>125</ele>
        <time>2016-02-04T14:07:53Z</time>
      </trkpt>
      <trkpt lat="48.20475" lon="-3.09402">
        <ele>125</ele>
        <time>2016-02-04T14:07:57Z</time>
      </trkpt>
      <trkpt lat="48.20472" lon="-3.09402">
        <ele>125</ele>
        <time>2016-02-04T14:08:03Z</time>
      </trkpt>
      <trkpt lat="48.20469" lon="-3.09401">
        <ele>125</ele>
        <time>2016-02-04T14:08:06Z</time>
      </trkpt>
      <trkpt lat="48.20466" lon="-3.09399">
        <ele>125</ele>
        <time>2016-02-04T14:08:09Z</time>
      </trkpt>
      <trkpt lat="48.20464" lon="-3.09398">
        <ele>125</ele>
        <time>2016-02-04T14:08:12Z</time>
      </trkpt>
      <trkpt lat="48.20459" lon="-3.09396">
        <ele>125</ele>
        <time>2016-02-04T14:08:17Z</time>
      </trkpt>
      <trkpt lat="48.20456" lon="-3.09392">
        <ele>125</ele>
        <time>2016-02-04T14:08:21Z</time>
      </trkpt>
      <trkpt lat="48.20452" lon="-3.09389">
        <ele>125</ele>
        <time>2016-02-04T14:08:24Z</time>
      </trkpt>
      <trkpt lat="48.20448" lon="-3.09387">
        <ele>125</ele>
        <time>2016-02-04T14:08:28Z</time>
      </trkpt>
      <trkpt lat="48.20444" lon="-3.09387">
        <ele>125</ele>
        <time>2016-02-04T14:08:31Z</time>
      </trkpt>
      <trkpt lat="48.2044" lon="-3.09383">
        <ele>124</ele>
        <time>2016-02-04T14:08:35Z</time>
      </trkpt>
      <trkpt lat="48.20436" lon="-3.0938">
        <ele>124</ele>
        <time>2016-02-04T14:08:39Z</time>
      </trkpt>
      <trkpt lat="48.20433" lon="-3.09377">
        <ele>124</ele>
        <time>2016-02-04T14:08:43Z</time>
      </trkpt>
      <trkpt lat="48.2043" lon="-3.09376">
        <ele>124</ele>
        <time>2016-02-04T14:08:46Z</time>
      </trkpt>
      <trkpt lat="48.20428" lon="-3.09376">
        <ele>124</ele>
        <time>2016-02-04T14:08:49Z</time>
      </trkpt>
      <trkpt lat="48.20424" lon="-3.09375">
        <ele>124</ele>
        <time>2016-02-04T14:08:53Z</time>
      </trkpt>
      <trkpt lat="48.2042" lon="-3.09372">
        <ele>124</ele>
        <time>2016-02-04T14:08:58Z</time>
      </trkpt>
      <trkpt lat="48.20417" lon="-3.09372">
        <ele>124</ele>
        <time>2016-02-04T14:09:02Z</time>
      </trkpt>
      <trkpt lat="48.20414" lon="-3.09373">
        <ele>124</ele>
        <time>2016-02-04T14:09:05Z</time>
      </trkpt>
      <trkpt lat="48.20411" lon="-3.09373">
        <ele>124</ele>
        <time>2016-02-04T14:09:09Z</time>
      </trkpt>
      <trkpt lat="48.20407" lon="-3.09373">
        <ele>124</ele>
        <time>2016-02-04T14:09:12Z</time>
      </trkpt>
      <trkpt lat="48.20404" lon="-3.0937">
        <ele>124</ele>
        <time>2016-02-04T14:09:16Z</time>
      </trkpt>
      <trkpt lat="48.20399" lon="-3.09372">
        <ele>124</ele>
        <time>2016-02-04T14:09:20Z</time>
      </trkpt>
      <trkpt lat="48.20396" lon="-3.09374">
        <ele>124</ele>
        <time>2016-02-04T14:09:24Z</time>
      </trkpt>
      <trkpt lat="48.20395" lon="-3.09376">
        <ele>124</ele>
        <time>2016-02-04T14:09:35Z</time>
      </trkpt>
      <trkpt lat="48.20396" lon="-3.09374">
        <ele>124</ele>
        <time>2016-02-04T14:09:38Z</time>
      </trkpt>
      <trkpt lat="48.20394" lon="-3.09374">
        <ele>124</ele>
        <time>2016-02-04T14:09:42Z</time>
      </trkpt>
      <trkpt lat="48.20392" lon="-3.09374">
        <ele>124</ele>
        <time>2016-02-04T14:09:45Z</time>
      </trkpt>
      <trkpt lat="48.2039" lon="-3.09374">
        <ele>124</ele>
        <time>2016-02-04T14:09:48Z</time>
      </trkpt>
      <trkpt lat="48.20389" lon="-3.09375">
        <ele>124</ele>
        <time>2016-02-04T14:09:51Z</time>
      </trkpt>
      <trkpt lat="48.20385" lon="-3.09378">
        <ele>124</ele>
        <time>2016-02-04T14:09:54Z</time>
      </trkpt>
      <trkpt lat="48.20382" lon="-3.09379">
        <ele>124</ele>
        <time>2016-02-04T14:09:57Z</time>
      </trkpt>
      <trkpt lat="48.20378" lon="-3.0938">
        <ele>124</ele>
        <time>2016-02-04T14:10:00Z</time>
      </trkpt>
      <trkpt lat="48.20374" lon="-3.09378">
        <ele>124</ele>
        <time>2016-02-04T14:10:04Z</time>
      </trkpt>
      <trkpt lat="48.20371" lon="-3.09377">
        <ele>125</ele>
        <time>2016-02-04T14:10:08Z</time>
      </trkpt>
      <trkpt lat="48.20368" lon="-3.09378">
        <ele>127</ele>
        <time>2016-02-04T14:10:13Z</time>
      </trkpt>
      <trkpt lat="48.20363" lon="-3.09378">
        <ele>128</ele>
        <time>2016-02-04T14:10:18Z</time>
      </trkpt>
      <trkpt lat="48.2036" lon="-3.09376">
        <ele>128</ele>
        <time>2016-02-04T14:10:23Z</time>
      </trkpt>
      <trkpt lat="48.20358" lon="-3.09375">
        <ele>128</ele>
        <time>2016-02-04T14:10:26Z</time>
      </trkpt>
      <trkpt lat="48.20355" lon="-3.09373">
        <ele>128</ele>
        <time>2016-02-04T14:10:30Z</time>
      </trkpt>
      <trkpt lat="48.20351" lon="-3.09375">
        <ele>128</ele>
        <time>2016-02-04T14:10:34Z</time>
      </trkpt>
      <trkpt lat="48.20349" lon="-3.09376">
        <ele>128</ele>
        <time>2016-02-04T14:10:39Z</time>
      </trkpt>
      <trkpt lat="48.20348" lon="-3.09378">
        <ele>128</ele>
        <time>2016-02-04T14:10:43Z</time>
      </trkpt>
      <trkpt lat="48.20345" lon="-3.0938">
        <ele>128</ele>
        <time>2016-02-04T14:10:47Z</time>
      </trkpt>
      <trkpt lat="48.20342" lon="-3.0938">
        <ele>128</ele>
        <time>2016-02-04T14:10:51Z</time>
      </trkpt>
      <trkpt lat="48.20339" lon="-3.09382">
        <ele>128</ele>
        <time>2016-02-04T14:10:55Z</time>
      </trkpt>
      <trkpt lat="48.20335" lon="-3.09383">
        <ele>128</ele>
        <time>2016-02-04T14:10:59Z</time>
      </trkpt>
      <trkpt lat="48.20332" lon="-3.09381">
        <ele>128</ele>
        <time>2016-02-04T14:11:04Z</time>
      </trkpt>
      <trkpt lat="48.2033" lon="-3.0938">
        <ele>128</ele>
        <time>2016-02-04T14:11:07Z</time>
      </trkpt>
      <trkpt lat="48.20328" lon="-3.09378">
        <ele>128</ele>
        <time>2016-02-04T14:11:12Z</time>
      </trkpt>
      <trkpt lat="48.20327" lon="-3.09376">
        <ele>129</ele>
        <time>2016-02-04T14:11:17Z</time>
      </trkpt>
      <trkpt lat="48.20326" lon="-3.09373">
        <ele>132</ele>
        <time>2016-02-04T14:11:21Z</time>
      </trkpt>
      <trkpt lat="48.20323" lon="-3.09372">
        <ele>133</ele>
        <time>2016-02-04T14:11:25Z</time>
      </trkpt>
      <trkpt lat="48.2032" lon="-3.0937">
        <ele>134</ele>
        <time>2016-02-04T14:11:29Z</time>
      </trkpt>
      <trkpt lat="48.20317" lon="-3.09368">
        <ele>135</ele>
        <time>2016-02-04T14:11:33Z</time>
      </trkpt>
      <trkpt lat="48.20314" lon="-3.09365">
        <ele>135</ele>
        <time>2016-02-04T14:11:37Z</time>
      </trkpt>
      <trkpt lat="48.20311" lon="-3.09361">
        <ele>135</ele>
        <time>2016-02-04T14:11:42Z</time>
      </trkpt>
      <trkpt lat="48.20309" lon="-3.09357">
        <ele>135</ele>
        <time>2016-02-04T14:11:46Z</time>
      </trkpt>
      <trkpt lat="48.20305" lon="-3.09356">
        <ele>135</ele>
        <time>2016-02-04T14:11:49Z</time>
      </trkpt>
      <trkpt lat="48.20301" lon="-3.09357">
        <ele>135</ele>
        <time>2016-02-04T14:11:54Z</time>
      </trkpt>
      <trkpt lat="48.203" lon="-3.09357">
        <ele>135</ele>
        <time>2016-02-04T14:11:58Z</time>
      </trkpt>
      <trkpt lat="48.20299" lon="-3.09355">
        <ele>139</ele>
        <time>2016-02-04T14:12:03Z</time>
      </trkpt>
      <trkpt lat="48.20298" lon="-3.09354">
        <ele>143</ele>
        <time>2016-02-04T14:12:07Z</time>
      </trkpt>
      <trkpt lat="48.20297" lon="-3.0935">
        <ele>147</ele>
        <time>2016-02-04T14:12:11Z</time>
      </trkpt>
      <trkpt lat="48.20295" lon="-3.09345">
        <ele>148</ele>
        <time>2016-02-04T14:12:15Z</time>
      </trkpt>
      <trkpt lat="48.20293" lon="-3.09341">
        <ele>148</ele>
        <time>2016-02-04T14:12:19Z</time>
      </trkpt>
      <trkpt lat="48.20288" lon="-3.09339">
        <ele>148</ele>
        <time>2016-02-04T14:12:23Z</time>
      </trkpt>
      <trkpt lat="48.20285" lon="-3.09336">
        <ele>147</ele>
        <time>2016-02-04T14:12:26Z</time>
      </trkpt>
      <trkpt lat="48.20281" lon="-3.09331">
        <ele>145</ele>
        <time>2016-02-04T14:12:30Z</time>
      </trkpt>
      <trkpt lat="48.20281" lon="-3.09327">
        <ele>143</ele>
        <time>2016-02-04T14:12:33Z</time>
      </trkpt>
      <trkpt lat="48.20282" lon="-3.09325">
        <ele>143</ele>
        <time>2016-02-04T14:12:36Z</time>
      </trkpt>
      <trkpt lat="48.20285" lon="-3.09322">
        <ele>143</ele>
        <time>2016-02-04T14:12:41Z</time>
      </trkpt>
      <trkpt lat="48.20287" lon="-3.0932">
        <ele>143</ele>
        <time>2016-02-04T14:12:44Z</time>
      </trkpt>
      <trkpt lat="48.20286" lon="-3.09316">
        <ele>143</ele>
        <time>2016-02-04T14:12:48Z</time>
      </trkpt>
      <trkpt lat="48.20284" lon="-3.09314">
        <ele>142</ele>
        <time>2016-02-04T14:12:51Z</time>
      </trkpt>
      <trkpt lat="48.20283" lon="-3.09308">
        <ele>142</ele>
        <time>2016-02-04T14:12:55Z</time>
      </trkpt>
      <trkpt lat="48.2028" lon="-3.09304">
        <ele>142</ele>
        <time>2016-02-04T14:12:58Z</time>
      </trkpt>
      <trkpt lat="48.2028" lon="-3.09298">
        <ele>142</ele>
        <time>2016-02-04T14:13:02Z</time>
      </trkpt>
      <trkpt lat="48.20278" lon="-3.09293">
        <ele>142</ele>
        <time>2016-02-04T14:13:06Z</time>
      </trkpt>
      <trkpt lat="48.20278" lon="-3.09289">
        <ele>142</ele>
        <time>2016-02-04T14:13:10Z</time>
      </trkpt>
      <trkpt lat="48.20277" lon="-3.09284">
        <ele>142</ele>
        <time>2016-02-04T14:13:14Z</time>
      </trkpt>
      <trkpt lat="48.20275" lon="-3.09281">
        <ele>140</ele>
        <time>2016-02-04T14:13:19Z</time>
      </trkpt>
      <trkpt lat="48.20275" lon="-3.09276">
        <ele>139</ele>
        <time>2016-02-04T14:13:23Z</time>
      </trkpt>
      <trkpt lat="48.20274" lon="-3.09271">
        <ele>139</ele>
        <time>2016-02-04T14:13:27Z</time>
      </trkpt>
      <trkpt lat="48.20274" lon="-3.09266">
        <ele>139</ele>
        <time>2016-02-04T14:13:31Z</time>
      </trkpt>
      <trkpt lat="48.20274" lon="-3.09261">
        <ele>139</ele>
        <time>2016-02-04T14:13:35Z</time>
      </trkpt>
      <trkpt lat="48.20274" lon="-3.09256">
        <ele>139</ele>
        <time>2016-02-04T14:13:39Z</time>
      </trkpt>
      <trkpt lat="48.20275" lon="-3.0925">
        <ele>139</ele>
        <time>2016-02-04T14:13:42Z</time>
      </trkpt>
      <trkpt lat="48.20275" lon="-3.09245">
        <ele>139</ele>
        <time>2016-02-04T14:13:45Z</time>
      </trkpt>
      <trkpt lat="48.20276" lon="-3.09238">
        <ele>139</ele>
        <time>2016-02-04T14:13:49Z</time>
      </trkpt>
      <trkpt lat="48.20278" lon="-3.09233">
        <ele>139</ele>
        <time>2016-02-04T14:13:52Z</time>
      </trkpt>
      <trkpt lat="48.20279" lon="-3.09228">
        <ele>139</ele>
        <time>2016-02-04T14:13:55Z</time>
      </trkpt>
      <trkpt lat="48.2028" lon="-3.09223">
        <ele>139</ele>
        <time>2016-02-04T14:13:58Z</time>
      </trkpt>
      <trkpt lat="48.20282" lon="-3.09218">
        <ele>140</ele>
        <time>2016-02-04T14:14:01Z</time>
      </trkpt>
      <trkpt lat="48.20282" lon="-3.09214">
        <ele>142</ele>
        <time>2016-02-04T14:14:05Z</time>
      </trkpt>
      <trkpt lat="48.20284" lon="-3.09209">
        <ele>143</ele>
        <time>2016-02-04T14:14:08Z</time>
      </trkpt>
      <trkpt lat="48.20285" lon="-3.09205">
        <ele>144</ele>
        <time>2016-02-04T14:14:11Z</time>
      </trkpt>
      <trkpt lat="48.20286" lon="-3.09203">
        <ele>146</ele>
        <time>2016-02-04T14:14:14Z</time>
      </trkpt>
      <trkpt lat="48.20286" lon="-3.09198">
        <ele>147</ele>
        <time>2016-02-04T14:14:18Z</time>
      </trkpt>
      <trkpt lat="48.20289" lon="-3.09192">
        <ele>148</ele>
        <time>2016-02-04T14:14:22Z</time>
      </trkpt>
      <trkpt lat="48.2029" lon="-3.09186">
        <ele>148</ele>
        <time>2016-02-04T14:14:26Z</time>
      </trkpt>
      <trkpt lat="48.20291" lon="-3.09179">
        <ele>148</ele>
        <time>2016-02-04T14:14:29Z</time>
      </trkpt>
      <trkpt lat="48.20293" lon="-3.09175">
        <ele>148</ele>
        <time>2016-02-04T14:14:32Z</time>
      </trkpt>
      <trkpt lat="48.20293" lon="-3.09169">
        <ele>148</ele>
        <time>2016-02-04T14:14:35Z</time>
      </trkpt>
      <trkpt lat="48.20294" lon="-3.09163">
        <ele>148</ele>
        <time>2016-02-04T14:14:38Z</time>
      </trkpt>
      <trkpt lat="48.20294" lon="-3.09157">
        <ele>148</ele>
        <time>2016-02-04T14:14:41Z</time>
      </trkpt>
      <trkpt lat="48.20294" lon="-3.09152">
        <ele>150</ele>
        <time>2016-02-04T14:14:46Z</time>
      </trkpt>
      <trkpt lat="48.20294" lon="-3.0915">
        <ele>150</ele>
        <time>2016-02-04T14:14:49Z</time>
      </trkpt>
      <trkpt lat="48.20294" lon="-3.09146">
        <ele>150</ele>
        <time>2016-02-04T14:14:53Z</time>
      </trkpt>
      <trkpt lat="48.20294" lon="-3.09141">
        <ele>150</ele>
        <time>2016-02-04T14:14:56Z</time>
      </trkpt>
      <trkpt lat="48.20295" lon="-3.09135">
        <ele>150</ele>
        <time>2016-02-04T14:15:00Z</time>
      </trkpt>
      <trkpt lat="48.20295" lon="-3.0913">
        <ele>148</ele>
        <time>2016-02-04T14:15:04Z</time>
      </trkpt>
      <trkpt lat="48.20297" lon="-3.09122">
        <ele>145</ele>
        <time>2016-02-04T14:15:08Z</time>
      </trkpt>
      <trkpt lat="48.20299" lon="-3.09116">
        <ele>145</ele>
        <time>2016-02-04T14:15:11Z</time>
      </trkpt>
      <trkpt lat="48.20302" lon="-3.09109">
        <ele>145</ele>
        <time>2016-02-04T14:15:15Z</time>
      </trkpt>
      <trkpt lat="48.20305" lon="-3.09103">
        <ele>145</ele>
        <time>2016-02-04T14:15:19Z</time>
      </trkpt>
      <trkpt lat="48.20308" lon="-3.09098">
        <ele>145</ele>
        <time>2016-02-04T14:15:23Z</time>
      </trkpt>
      <trkpt lat="48.20311" lon="-3.09092">
        <ele>142</ele>
        <time>2016-02-04T14:15:27Z</time>
      </trkpt>
      <trkpt lat="48.20313" lon="-3.09086">
        <ele>141</ele>
        <time>2016-02-04T14:15:31Z</time>
      </trkpt>
      <trkpt lat="48.20314" lon="-3.09082">
        <ele>140</ele>
        <time>2016-02-04T14:15:34Z</time>
      </trkpt>
      <trkpt lat="48.20316" lon="-3.09077">
        <ele>138</ele>
        <time>2016-02-04T14:15:37Z</time>
      </trkpt>
      <trkpt lat="48.2032" lon="-3.09073">
        <ele>137</ele>
        <time>2016-02-04T14:15:41Z</time>
      </trkpt>
      <trkpt lat="48.20321" lon="-3.0907">
        <ele>137</ele>
        <time>2016-02-04T14:15:45Z</time>
      </trkpt>
      <trkpt lat="48.20321" lon="-3.09065">
        <ele>136</ele>
        <time>2016-02-04T14:15:49Z</time>
      </trkpt>
      <trkpt lat="48.20321" lon="-3.09063">
        <ele>135</ele>
        <time>2016-02-04T14:15:52Z</time>
      </trkpt>
      <trkpt lat="48.2032" lon="-3.09058">
        <ele>132</ele>
        <time>2016-02-04T14:15:56Z</time>
      </trkpt>
      <trkpt lat="48.20321" lon="-3.09058">
        <ele>131</ele>
        <time>2016-02-04T14:15:59Z</time>
      </trkpt>
      <trkpt lat="48.20322" lon="-3.09056">
        <ele>131</ele>
        <time>2016-02-04T14:16:02Z</time>
      </trkpt>
      <trkpt lat="48.20325" lon="-3.09054">
        <ele>135</ele>
        <time>2016-02-04T14:16:08Z</time>
      </trkpt>
      <trkpt lat="48.20325" lon="-3.09055">
        <ele>140</ele>
        <time>2016-02-04T14:16:13Z</time>
      </trkpt>
      <trkpt lat="48.20324" lon="-3.09053">
        <ele>143</ele>
        <time>2016-02-04T14:16:16Z</time>
      </trkpt>
      <trkpt lat="48.20323" lon="-3.09054">
        <ele>145</ele>
        <time>2016-02-04T14:16:21Z</time>
      </trkpt>
      <trkpt lat="48.20323" lon="-3.09058">
        <ele>146</ele>
        <time>2016-02-04T14:16:28Z</time>
      </trkpt>
      <trkpt lat="48.20322" lon="-3.09057">
        <ele>142</ele>
        <time>2016-02-04T14:16:34Z</time>
      </trkpt>
      <trkpt lat="48.20322" lon="-3.09053">
        <ele>139</ele>
        <time>2016-02-04T14:16:37Z</time>
      </trkpt>
      <trkpt lat="48.20324" lon="-3.09052">
        <ele>136</ele>
        <time>2016-02-04T14:16:42Z</time>
      </trkpt>
      <trkpt lat="48.20327" lon="-3.09055">
        <ele>134</ele>
        <time>2016-02-04T14:16:46Z</time>
      </trkpt>
      <trkpt lat="48.20328" lon="-3.09055">
        <ele>133</ele>
        <time>2016-02-04T14:16:51Z</time>
      </trkpt>
      <trkpt lat="48.2033" lon="-3.09056">
        <ele>131</ele>
        <time>2016-02-04T14:16:56Z</time>
      </trkpt>
      <trkpt lat="48.2033" lon="-3.09059">
        <ele>131</ele>
        <time>2016-02-04T14:17:03Z</time>
      </trkpt>
      <trkpt lat="48.20328" lon="-3.09063">
        <ele>131</ele>
        <time>2016-02-04T14:17:07Z</time>
      </trkpt>
      <trkpt lat="48.20324" lon="-3.09066">
        <ele>131</ele>
        <time>2016-02-04T14:17:11Z</time>
      </trkpt>
      <trkpt lat="48.20322" lon="-3.09065">
        <ele>132</ele>
        <time>2016-02-04T14:17:15Z</time>
      </trkpt>
      <trkpt lat="48.20319" lon="-3.09062">
        <ele>136</ele>
        <time>2016-02-04T14:17:19Z</time>
      </trkpt>
      <trkpt lat="48.20318" lon="-3.09062">
        <ele>138</ele>
        <time>2016-02-04T14:17:22Z</time>
      </trkpt>
      <trkpt lat="48.20316" lon="-3.09063">
        <ele>139</ele>
        <time>2016-02-04T14:17:26Z</time>
      </trkpt>
      <trkpt lat="48.20313" lon="-3.09065">
        <ele>139</ele>
        <time>2016-02-04T14:17:31Z</time>
      </trkpt>
      <trkpt lat="48.20312" lon="-3.09067">
        <ele>135</ele>
        <time>2016-02-04T14:17:35Z</time>
      </trkpt>
      <trkpt lat="48.20311" lon="-3.09068">
        <ele>133</ele>
        <time>2016-02-04T14:17:42Z</time>
      </trkpt>
      <trkpt lat="48.20308" lon="-3.09072">
        <ele>131</ele>
        <time>2016-02-04T14:17:47Z</time>
      </trkpt>
      <trkpt lat="48.20309" lon="-3.09074">
        <ele>127</ele>
        <time>2016-02-04T14:17:51Z</time>
      </trkpt>
      <trkpt lat="48.2031" lon="-3.09076">
        <ele>122</ele>
        <time>2016-02-04T14:17:57Z</time>
      </trkpt>
      <trkpt lat="48.20314" lon="-3.09075">
        <ele>123</ele>
        <time>2016-02-04T14:18:01Z</time>
      </trkpt>
      <trkpt lat="48.20316" lon="-3.09072">
        <ele>127</ele>
        <time>2016-02-04T14:18:05Z</time>
      </trkpt>
      <trkpt lat="48.20317" lon="-3.09068">
        <ele>133</ele>
        <time>2016-02-04T14:18:10Z</time>
      </trkpt>
      <trkpt lat="48.20316" lon="-3.09066">
        <ele>137</ele>
        <time>2016-02-04T14:18:20Z</time>
      </trkpt>
      <trkpt lat="48.20319" lon="-3.09063">
        <ele>137</ele>
        <time>2016-02-04T14:18:24Z</time>
      </trkpt>
      <trkpt lat="48.20322" lon="-3.0906">
        <ele>137</ele>
        <time>2016-02-04T14:18:27Z</time>
      </trkpt>
      <trkpt lat="48.20324" lon="-3.09056">
        <ele>133</ele>
        <time>2016-02-04T14:18:32Z</time>
      </trkpt>
      <trkpt lat="48.20327" lon="-3.09051">
        <ele>130</ele>
        <time>2016-02-04T14:18:36Z</time>
      </trkpt>
      <trkpt lat="48.20329" lon="-3.09047">
        <ele>127</ele>
        <time>2016-02-04T14:18:39Z</time>
      </trkpt>
      <trkpt lat="48.2033" lon="-3.09041">
        <ele>125</ele>
        <time>2016-02-04T14:18:42Z</time>
      </trkpt>
      <trkpt lat="48.20331" lon="-3.09037">
        <ele>125</ele>
        <time>2016-02-04T14:18:45Z</time>
      </trkpt>
      <trkpt lat="48.20334" lon="-3.09033">
        <ele>125</ele>
        <time>2016-02-04T14:18:49Z</time>
      </trkpt>
      <trkpt lat="48.20337" lon="-3.09028">
        <ele>125</ele>
        <time>2016-02-04T14:18:53Z</time>
      </trkpt>
      <trkpt lat="48.20339" lon="-3.09023">
        <ele>125</ele>
        <time>2016-02-04T14:18:56Z</time>
      </trkpt>
      <trkpt lat="48.20342" lon="-3.09018">
        <ele>125</ele>
        <time>2016-02-04T14:19:00Z</time>
      </trkpt>
      <trkpt lat="48.20345" lon="-3.09015">
        <ele>125</ele>
        <time>2016-02-04T14:19:05Z</time>
      </trkpt>
      <trkpt lat="48.20346" lon="-3.09012">
        <ele>125</ele>
        <time>2016-02-04T14:19:10Z</time>
      </trkpt>
      <trkpt lat="48.20345" lon="-3.0901">
        <ele>125</ele>
        <time>2016-02-04T14:19:14Z</time>
      </trkpt>
      <trkpt lat="48.20346" lon="-3.09008">
        <ele>125</ele>
        <time>2016-02-04T14:19:18Z</time>
      </trkpt>
      <trkpt lat="48.20346" lon="-3.09005">
        <ele>130</ele>
        <time>2016-02-04T14:19:23Z</time>
      </trkpt>
      <trkpt lat="48.20348" lon="-3.09">
        <ele>133</ele>
        <time>2016-02-04T14:19:26Z</time>
      </trkpt>
      <trkpt lat="48.20351" lon="-3.08997">
        <ele>134</ele>
        <time>2016-02-04T14:19:31Z</time>
      </trkpt>
      <trkpt lat="48.20355" lon="-3.08993">
        <ele>134</ele>
        <time>2016-02-04T14:19:35Z</time>
      </trkpt>
      <trkpt lat="48.20359" lon="-3.08986">
        <ele>134</ele>
        <time>2016-02-04T14:19:39Z</time>
      </trkpt>
      <trkpt lat="48.20363" lon="-3.08985">
        <ele>134</ele>
        <time>2016-02-04T14:19:42Z</time>
      </trkpt>
      <trkpt lat="48.20366" lon="-3.08979">
        <ele>134</ele>
        <time>2016-02-04T14:19:45Z</time>
      </trkpt>
      <trkpt lat="48.2037" lon="-3.08974">
        <ele>134</ele>
        <time>2016-02-04T14:19:49Z</time>
      </trkpt>
      <trkpt lat="48.20372" lon="-3.08968">
        <ele>131</ele>
        <time>2016-02-04T14:19:52Z</time>
      </trkpt>
      <trkpt lat="48.20375" lon="-3.08964">
        <ele>130</ele>
        <time>2016-02-04T14:19:56Z</time>
      </trkpt>
      <trkpt lat="48.20376" lon="-3.08959">
        <ele>130</ele>
        <time>2016-02-04T14:19:59Z</time>
      </trkpt>
      <trkpt lat="48.20375" lon="-3.08953">
        <ele>130</ele>
        <time>2016-02-04T14:20:03Z</time>
      </trkpt>
      <trkpt lat="48.20377" lon="-3.08946">
        <ele>130</ele>
        <time>2016-02-04T14:20:06Z</time>
      </trkpt>
      <trkpt lat="48.2038" lon="-3.08943">
        <ele>130</ele>
        <time>2016-02-04T14:20:09Z</time>
      </trkpt>
      <trkpt lat="48.20383" lon="-3.08937">
        <ele>130</ele>
        <time>2016-02-04T14:20:12Z</time>
      </trkpt>
      <trkpt lat="48.20385" lon="-3.08931">
        <ele>130</ele>
        <time>2016-02-04T14:20:16Z</time>
      </trkpt>
      <trkpt lat="48.20387" lon="-3.08931">
        <ele>130</ele>
        <time>2016-02-04T14:20:22Z</time>
      </trkpt>
      <trkpt lat="48.20389" lon="-3.08928">
        <ele>130</ele>
        <time>2016-02-04T14:20:26Z</time>
      </trkpt>
      <trkpt lat="48.20389" lon="-3.08919">
        <ele>130</ele>
        <time>2016-02-04T14:20:30Z</time>
      </trkpt>
      <trkpt lat="48.2039" lon="-3.08911">
        <ele>130</ele>
        <time>2016-02-04T14:20:33Z</time>
      </trkpt>
      <trkpt lat="48.20393" lon="-3.08908">
        <ele>131</ele>
        <time>2016-02-04T14:20:37Z</time>
      </trkpt>
      <trkpt lat="48.20396" lon="-3.08904">
        <ele>132</ele>
        <time>2016-02-04T14:20:41Z</time>
      </trkpt>
      <trkpt lat="48.20399" lon="-3.08898">
        <ele>134</ele>
        <time>2016-02-04T14:20:44Z</time>
      </trkpt>
      <trkpt lat="48.20401" lon="-3.08894">
        <ele>134</ele>
        <time>2016-02-04T14:20:47Z</time>
      </trkpt>
      <trkpt lat="48.20401" lon="-3.08886">
        <ele>136</ele>
        <time>2016-02-04T14:20:52Z</time>
      </trkpt>
      <trkpt lat="48.20402" lon="-3.08879">
        <ele>138</ele>
        <time>2016-02-04T14:20:56Z</time>
      </trkpt>
      <trkpt lat="48.20404" lon="-3.08873">
        <ele>140</ele>
        <time>2016-02-04T14:20:59Z</time>
      </trkpt>
      <trkpt lat="48.20404" lon="-3.08869">
        <ele>142</ele>
        <time>2016-02-04T14:21:02Z</time>
      </trkpt>
      <trkpt lat="48.20406" lon="-3.08862">
        <ele>142</ele>
        <time>2016-02-04T14:21:06Z</time>
      </trkpt>
      <trkpt lat="48.20407" lon="-3.08857">
        <ele>142</ele>
        <time>2016-02-04T14:21:09Z</time>
      </trkpt>
      <trkpt lat="48.20407" lon="-3.08854">
        <ele>142</ele>
        <time>2016-02-04T14:21:14Z</time>
      </trkpt>
      <trkpt lat="48.20407" lon="-3.08848">
        <ele>142</ele>
        <time>2016-02-04T14:21:17Z</time>
      </trkpt>
      <trkpt lat="48.20409" lon="-3.08843">
        <ele>142</ele>
        <time>2016-02-04T14:21:22Z</time>
      </trkpt>
      <trkpt lat="48.20411" lon="-3.08839">
        <ele>142</ele>
        <time>2016-02-04T14:21:27Z</time>
      </trkpt>
      <trkpt lat="48.20413" lon="-3.08837">
        <ele>142</ele>
        <time>2016-02-04T14:21:31Z</time>
      </trkpt>
      <trkpt lat="48.20416" lon="-3.08835">
        <ele>142</ele>
        <time>2016-02-04T14:21:36Z</time>
      </trkpt>
      <trkpt lat="48.20417" lon="-3.0883">
        <ele>144</ele>
        <time>2016-02-04T14:21:41Z</time>
      </trkpt>
      <trkpt lat="48.20418" lon="-3.08828">
        <ele>144</ele>
        <time>2016-02-04T14:21:44Z</time>
      </trkpt>
      <trkpt lat="48.20421" lon="-3.08825">
        <ele>144</ele>
        <time>2016-02-04T14:21:48Z</time>
      </trkpt>
      <trkpt lat="48.20423" lon="-3.0882">
        <ele>146</ele>
        <time>2016-02-04T14:21:52Z</time>
      </trkpt>
      <trkpt lat="48.20423" lon="-3.08818">
        <ele>147</ele>
        <time>2016-02-04T14:21:55Z</time>
      </trkpt>
      <trkpt lat="48.20424" lon="-3.08814">
        <ele>147</ele>
        <time>2016-02-04T14:21:59Z</time>
      </trkpt>
      <trkpt lat="48.20425" lon="-3.08811">
        <ele>147</ele>
        <time>2016-02-04T14:22:02Z</time>
      </trkpt>
      <trkpt lat="48.20424" lon="-3.08807">
        <ele>147</ele>
        <time>2016-02-04T14:22:06Z</time>
      </trkpt>
      <trkpt lat="48.20423" lon="-3.08805">
        <ele>147</ele>
        <time>2016-02-04T14:22:09Z</time>
      </trkpt>
      <trkpt lat="48.20423" lon="-3.08799">
        <ele>147</ele>
        <time>2016-02-04T14:22:13Z</time>
      </trkpt>
      <trkpt lat="48.20424" lon="-3.08789">
        <ele>147</ele>
        <time>2016-02-04T14:22:17Z</time>
      </trkpt>
      <trkpt lat="48.20427" lon="-3.08785">
        <ele>147</ele>
        <time>2016-02-04T14:22:20Z</time>
      </trkpt>
      <trkpt lat="48.2043" lon="-3.0878">
        <ele>147</ele>
        <time>2016-02-04T14:22:23Z</time>
      </trkpt>
      <trkpt lat="48.20433" lon="-3.08776">
        <ele>147</ele>
        <time>2016-02-04T14:22:26Z</time>
      </trkpt>
      <trkpt lat="48.20437" lon="-3.08772">
        <ele>144</ele>
        <time>2016-02-04T14:22:30Z</time>
      </trkpt>
      <trkpt lat="48.20438" lon="-3.08768">
        <ele>141</ele>
        <time>2016-02-04T14:22:33Z</time>
      </trkpt>
      <trkpt lat="48.2044" lon="-3.08761">
        <ele>139</ele>
        <time>2016-02-04T14:22:36Z</time>
      </trkpt>
      <trkpt lat="48.20441" lon="-3.08759">
        <ele>138</ele>
        <time>2016-02-04T14:22:39Z</time>
      </trkpt>
      <trkpt lat="48.20442" lon="-3.08755">
        <ele>138</ele>
        <time>2016-02-04T14:22:42Z</time>
      </trkpt>
      <trkpt lat="48.20444" lon="-3.08748">
        <ele>138</ele>
        <time>2016-02-04T14:22:45Z</time>
      </trkpt>
      <trkpt lat="48.20446" lon="-3.08742">
        <ele>138</ele>
        <time>2016-02-04T14:22:48Z</time>
      </trkpt>
      <trkpt lat="48.20449" lon="-3.08741">
        <ele>138</ele>
        <time>2016-02-04T14:22:52Z</time>
      </trkpt>
      <trkpt lat="48.20453" lon="-3.0874">
        <ele>135</ele>
        <time>2016-02-04T14:22:56Z</time>
      </trkpt>
      <trkpt lat="48.20456" lon="-3.08738">
        <ele>133</ele>
        <time>2016-02-04T14:22:59Z</time>
      </trkpt>
      <trkpt lat="48.20459" lon="-3.08734">
        <ele>131</ele>
        <time>2016-02-04T14:23:02Z</time>
      </trkpt>
      <trkpt lat="48.20462" lon="-3.08729">
        <ele>129</ele>
        <time>2016-02-04T14:23:06Z</time>
      </trkpt>
      <trkpt lat="48.20463" lon="-3.08724">
        <ele>128</ele>
        <time>2016-02-04T14:23:10Z</time>
      </trkpt>
      <trkpt lat="48.20463" lon="-3.08719">
        <ele>126</ele>
        <time>2016-02-04T14:23:13Z</time>
      </trkpt>
      <trkpt lat="48.20464" lon="-3.08712">
        <ele>122</ele>
        <time>2016-02-04T14:23:17Z</time>
      </trkpt>
      <trkpt lat="48.20464" lon="-3.08705">
        <ele>120</ele>
        <time>2016-02-04T14:23:20Z</time>
      </trkpt>
      <trkpt lat="48.20466" lon="-3.087">
        <ele>120</ele>
        <time>2016-02-04T14:23:23Z</time>
      </trkpt>
      <trkpt lat="48.20469" lon="-3.08695">
        <ele>119</ele>
        <time>2016-02-04T14:23:27Z</time>
      </trkpt>
      <trkpt lat="48.20473" lon="-3.08692">
        <ele>117</ele>
        <time>2016-02-04T14:23:30Z</time>
      </trkpt>
      <trkpt lat="48.20478" lon="-3.08689">
        <ele>117</ele>
        <time>2016-02-04T14:23:33Z</time>
      </trkpt>
      <trkpt lat="48.20482" lon="-3.08689">
        <ele>117</ele>
        <time>2016-02-04T14:23:36Z</time>
      </trkpt>
      <trkpt lat="48.20485" lon="-3.08691">
        <ele>117</ele>
        <time>2016-02-04T14:23:39Z</time>
      </trkpt>
      <trkpt lat="48.20488" lon="-3.08691">
        <ele>117</ele>
        <time>2016-02-04T14:23:42Z</time>
      </trkpt>
      <trkpt lat="48.20493" lon="-3.08691">
        <ele>118</ele>
        <time>2016-02-04T14:23:45Z</time>
      </trkpt>
      <trkpt lat="48.20496" lon="-3.0869">
        <ele>118</ele>
        <time>2016-02-04T14:23:48Z</time>
      </trkpt>
      <trkpt lat="48.205" lon="-3.08687">
        <ele>119</ele>
        <time>2016-02-04T14:23:51Z</time>
      </trkpt>
      <trkpt lat="48.20505" lon="-3.08687">
        <ele>119</ele>
        <time>2016-02-04T14:23:54Z</time>
      </trkpt>
      <trkpt lat="48.20508" lon="-3.08688">
        <ele>120</ele>
        <time>2016-02-04T14:23:57Z</time>
      </trkpt>
      <trkpt lat="48.20512" lon="-3.08686">
        <ele>121</ele>
        <time>2016-02-04T14:24:01Z</time>
      </trkpt>
      <trkpt lat="48.20515" lon="-3.08684">
        <ele>122</ele>
        <time>2016-02-04T14:24:05Z</time>
      </trkpt>
      <trkpt lat="48.20519" lon="-3.08682">
        <ele>123</ele>
        <time>2016-02-04T14:24:08Z</time>
      </trkpt>
      <trkpt lat="48.20523" lon="-3.08681">
        <ele>123</ele>
        <time>2016-02-04T14:24:11Z</time>
      </trkpt>
      <trkpt lat="48.20527" lon="-3.08681">
        <ele>123</ele>
        <time>2016-02-04T14:24:14Z</time>
      </trkpt>
      <trkpt lat="48.2053" lon="-3.08682">
        <ele>123</ele>
        <time>2016-02-04T14:24:17Z</time>
      </trkpt>
      <trkpt lat="48.20535" lon="-3.0868">
        <ele>123</ele>
        <time>2016-02-04T14:24:21Z</time>
      </trkpt>
      <trkpt lat="48.20539" lon="-3.08681">
        <ele>123</ele>
        <time>2016-02-04T14:24:24Z</time>
      </trkpt>
      <trkpt lat="48.20544" lon="-3.08681">
        <ele>123</ele>
        <time>2016-02-04T14:24:27Z</time>
      </trkpt>
      <trkpt lat="48.20548" lon="-3.08683">
        <ele>123</ele>
        <time>2016-02-04T14:24:30Z</time>
      </trkpt>
      <trkpt lat="48.20552" lon="-3.08685">
        <ele>123</ele>
        <time>2016-02-04T14:24:34Z</time>
      </trkpt>
      <trkpt lat="48.20557" lon="-3.08686">
        <ele>123</ele>
        <time>2016-02-04T14:24:39Z</time>
      </trkpt>
      <trkpt lat="48.20561" lon="-3.08687">
        <ele>123</ele>
        <time>2016-02-04T14:24:43Z</time>
      </trkpt>
      <trkpt lat="48.20565" lon="-3.08687">
        <ele>123</ele>
        <time>2016-02-04T14:24:47Z</time>
      </trkpt>
      <trkpt lat="48.20569" lon="-3.08686">
        <ele>123</ele>
        <time>2016-02-04T14:24:50Z</time>
      </trkpt>
      <trkpt lat="48.20572" lon="-3.08686">
        <ele>123</ele>
        <time>2016-02-04T14:24:53Z</time>
      </trkpt>
      <trkpt lat="48.20576" lon="-3.08686">
        <ele>123</ele>
        <time>2016-02-04T14:24:57Z</time>
      </trkpt>
      <trkpt lat="48.20582" lon="-3.08687">
        <ele>123</ele>
        <time>2016-02-04T14:25:01Z</time>
      </trkpt>
      <trkpt lat="48.20585" lon="-3.08689">
        <ele>123</ele>
        <time>2016-02-04T14:25:04Z</time>
      </trkpt>
      <trkpt lat="48.20589" lon="-3.08694">
        <ele>123</ele>
        <time>2016-02-04T14:25:09Z</time>
      </trkpt>
      <trkpt lat="48.20593" lon="-3.08692">
        <ele>123</ele>
        <time>2016-02-04T14:25:13Z</time>
      </trkpt>
      <trkpt lat="48.20596" lon="-3.08692">
        <ele>124</ele>
        <time>2016-02-04T14:25:17Z</time>
      </trkpt>
      <trkpt lat="48.20599" lon="-3.08693">
        <ele>125</ele>
        <time>2016-02-04T14:25:21Z</time>
      </trkpt>
      <trkpt lat="48.206" lon="-3.08691">
        <ele>126</ele>
        <time>2016-02-04T14:25:26Z</time>
      </trkpt>
      <trkpt lat="48.20602" lon="-3.0869">
        <ele>126</ele>
        <time>2016-02-04T14:25:29Z</time>
      </trkpt>
      <trkpt lat="48.20606" lon="-3.08689">
        <ele>126</ele>
        <time>2016-02-04T14:25:33Z</time>
      </trkpt>
      <trkpt lat="48.2061" lon="-3.0869">
        <ele>126</ele>
        <time>2016-02-04T14:25:37Z</time>
      </trkpt>
      <trkpt lat="48.20613" lon="-3.08691">
        <ele>126</ele>
        <time>2016-02-04T14:25:40Z</time>
      </trkpt>
      <trkpt lat="48.20616" lon="-3.0869">
        <ele>126</ele>
        <time>2016-02-04T14:25:43Z</time>
      </trkpt>
      <trkpt lat="48.20618" lon="-3.0869">
        <ele>126</ele>
        <time>2016-02-04T14:25:46Z</time>
      </trkpt>
      <trkpt lat="48.2062" lon="-3.0869">
        <ele>126</ele>
        <time>2016-02-04T14:25:50Z</time>
      </trkpt>
      <trkpt lat="48.20623" lon="-3.08689">
        <ele>126</ele>
        <time>2016-02-04T14:25:54Z</time>
      </trkpt>
      <trkpt lat="48.20627" lon="-3.08689">
        <ele>126</ele>
        <time>2016-02-04T14:25:58Z</time>
      </trkpt>
      <trkpt lat="48.20633" lon="-3.08691">
        <ele>126</ele>
        <time>2016-02-04T14:26:03Z</time>
      </trkpt>
      <trkpt lat="48.20636" lon="-3.0869">
        <ele>126</ele>
        <time>2016-02-04T14:26:06Z</time>
      </trkpt>
      <trkpt lat="48.20639" lon="-3.08689">
        <ele>126</ele>
        <time>2016-02-04T14:26:10Z</time>
      </trkpt>
      <trkpt lat="48.20642" lon="-3.0869">
        <ele>126</ele>
        <time>2016-02-04T14:26:14Z</time>
      </trkpt>
      <trkpt lat="48.20644" lon="-3.08688">
        <ele>126</ele>
        <time>2016-02-04T14:26:17Z</time>
      </trkpt>
      <trkpt lat="48.20647" lon="-3.08689">
        <ele>126</ele>
        <time>2016-02-04T14:26:20Z</time>
      </trkpt>
      <trkpt lat="48.2065" lon="-3.08688">
        <ele>126</ele>
        <time>2016-02-04T14:26:23Z</time>
      </trkpt>
      <trkpt lat="48.20654" lon="-3.08689">
        <ele>126</ele>
        <time>2016-02-04T14:26:26Z</time>
      </trkpt>
      <trkpt lat="48.20658" lon="-3.08689">
        <ele>125</ele>
        <time>2016-02-04T14:26:30Z</time>
      </trkpt>
      <trkpt lat="48.20663" lon="-3.08688">
        <ele>125</ele>
        <time>2016-02-04T14:26:33Z</time>
      </trkpt>
      <trkpt lat="48.20668" lon="-3.08689">
        <ele>124</ele>
        <time>2016-02-04T14:26:38Z</time>
      </trkpt>
      <trkpt lat="48.20673" lon="-3.08687">
        <ele>124</ele>
        <time>2016-02-04T14:26:43Z</time>
      </trkpt>
      <trkpt lat="48.20676" lon="-3.08687">
        <ele>124</ele>
        <time>2016-02-04T14:26:46Z</time>
      </trkpt>
      <trkpt lat="48.20679" lon="-3.08687">
        <ele>124</ele>
        <time>2016-02-04T14:26:49Z</time>
      </trkpt>
      <trkpt lat="48.20683" lon="-3.08689">
        <ele>124</ele>
        <time>2016-02-04T14:26:54Z</time>
      </trkpt>
      <trkpt lat="48.20686" lon="-3.08691">
        <ele>124</ele>
        <time>2016-02-04T14:26:58Z</time>
      </trkpt>
      <trkpt lat="48.2069" lon="-3.08693">
        <ele>124</ele>
        <time>2016-02-04T14:27:02Z</time>
      </trkpt>
      <trkpt lat="48.20691" lon="-3.08693">
        <ele>124</ele>
        <time>2016-02-04T14:27:05Z</time>
      </trkpt>
      <trkpt lat="48.20695" lon="-3.08694">
        <ele>124</ele>
        <time>2016-02-04T14:27:10Z</time>
      </trkpt>
      <trkpt lat="48.207" lon="-3.08697">
        <ele>124</ele>
        <time>2016-02-04T14:27:14Z</time>
      </trkpt>
      <trkpt lat="48.20702" lon="-3.08697">
        <ele>124</ele>
        <time>2016-02-04T14:27:19Z</time>
      </trkpt>
      <trkpt lat="48.20706" lon="-3.08696">
        <ele>124</ele>
        <time>2016-02-04T14:27:23Z</time>
      </trkpt>
      <trkpt lat="48.20711" lon="-3.08696">
        <ele>124</ele>
        <time>2016-02-04T14:27:28Z</time>
      </trkpt>
      <trkpt lat="48.20714" lon="-3.08697">
        <ele>124</ele>
        <time>2016-02-04T14:27:32Z</time>
      </trkpt>
      <trkpt lat="48.20716" lon="-3.08697">
        <ele>124</ele>
        <time>2016-02-04T14:27:36Z</time>
      </trkpt>
      <trkpt lat="48.20718" lon="-3.08698">
        <ele>124</ele>
        <time>2016-02-04T14:27:39Z</time>
      </trkpt>
      <trkpt lat="48.20721" lon="-3.087">
        <ele>124</ele>
        <time>2016-02-04T14:27:43Z</time>
      </trkpt>
      <trkpt lat="48.20724" lon="-3.08701">
        <ele>124</ele>
        <time>2016-02-04T14:27:47Z</time>
      </trkpt>
      <trkpt lat="48.20725" lon="-3.087">
        <ele>124</ele>
        <time>2016-02-04T14:27:50Z</time>
      </trkpt>
      <trkpt lat="48.20728" lon="-3.08698">
        <ele>124</ele>
        <time>2016-02-04T14:27:54Z</time>
      </trkpt>
      <trkpt lat="48.2073" lon="-3.087">
        <ele>124</ele>
        <time>2016-02-04T14:28:00Z</time>
      </trkpt>
      <trkpt lat="48.2073" lon="-3.08698">
        <ele>123</ele>
        <time>2016-02-04T14:28:03Z</time>
      </trkpt>
      <trkpt lat="48.20732" lon="-3.08694">
        <ele>123</ele>
        <time>2016-02-04T14:28:07Z</time>
      </trkpt>
      <trkpt lat="48.20736" lon="-3.08692">
        <ele>123</ele>
        <time>2016-02-04T14:28:10Z</time>
      </trkpt>
      <trkpt lat="48.20739" lon="-3.08693">
        <ele>123</ele>
        <time>2016-02-04T14:28:14Z</time>
      </trkpt>
      <trkpt lat="48.20742" lon="-3.08694">
        <ele>123</ele>
        <time>2016-02-04T14:28:17Z</time>
      </trkpt>
      <trkpt lat="48.20745" lon="-3.08694">
        <ele>123</ele>
        <time>2016-02-04T14:28:22Z</time>
      </trkpt>
      <trkpt lat="48.20747" lon="-3.08695">
        <ele>123</ele>
        <time>2016-02-04T14:28:28Z</time>
      </trkpt>
      <trkpt lat="48.20748" lon="-3.08695">
        <ele>123</ele>
        <time>2016-02-04T14:28:31Z</time>
      </trkpt>
      <trkpt lat="48.2075" lon="-3.08694">
        <ele>123</ele>
        <time>2016-02-04T14:28:34Z</time>
      </trkpt>
      <trkpt lat="48.20753" lon="-3.08694">
        <ele>123</ele>
        <time>2016-02-04T14:28:38Z</time>
      </trkpt>
      <trkpt lat="48.20757" lon="-3.08694">
        <ele>123</ele>
        <time>2016-02-04T14:28:42Z</time>
      </trkpt>
      <trkpt lat="48.20761" lon="-3.08694">
        <ele>123</ele>
        <time>2016-02-04T14:28:47Z</time>
      </trkpt>
      <trkpt lat="48.20764" lon="-3.08694">
        <ele>123</ele>
        <time>2016-02-04T14:28:51Z</time>
      </trkpt>
      <trkpt lat="48.20768" lon="-3.08693">
        <ele>123</ele>
        <time>2016-02-04T14:28:55Z</time>
      </trkpt>
      <trkpt lat="48.20771" lon="-3.08694">
        <ele>123</ele>
        <time>2016-02-04T14:28:59Z</time>
      </trkpt>
      <trkpt lat="48.20774" lon="-3.08696">
        <ele>123</ele>
        <time>2016-02-04T14:29:03Z</time>
      </trkpt>
      <trkpt lat="48.20777" lon="-3.08698">
        <ele>123</ele>
        <time>2016-02-04T14:29:06Z</time>
      </trkpt>
      <trkpt lat="48.20778" lon="-3.08699">
        <ele>123</ele>
        <time>2016-02-04T14:29:09Z</time>
      </trkpt>
      <trkpt lat="48.20778" lon="-3.087">
        <ele>123</ele>
        <time>2016-02-04T14:29:17Z</time>
      </trkpt>
      <trkpt lat="48.20779" lon="-3.08699">
        <ele>123</ele>
        <time>2016-02-04T14:29:21Z</time>
      </trkpt>
      <trkpt lat="48.2078" lon="-3.087">
        <ele>125</ele>
        <time>2016-02-04T14:29:43Z</time>
      </trkpt>
      <trkpt lat="48.20782" lon="-3.08701">
        <ele>126</ele>
        <time>2016-02-04T14:29:47Z</time>
      </trkpt>
      <trkpt lat="48.20783" lon="-3.087">
        <ele>127</ele>
        <time>2016-02-04T14:29:53Z</time>
      </trkpt>
      <trkpt lat="48.20786" lon="-3.08699">
        <ele>127</ele>
        <time>2016-02-04T14:29:57Z</time>
      </trkpt>
      <trkpt lat="48.20789" lon="-3.087">
        <ele>127</ele>
        <time>2016-02-04T14:30:01Z</time>
      </trkpt>
      <trkpt lat="48.2079" lon="-3.087">
        <ele>127</ele>
        <time>2016-02-04T14:30:04Z</time>
      </trkpt>
      <trkpt lat="48.20791" lon="-3.08703">
        <ele>127</ele>
        <time>2016-02-04T14:30:10Z</time>
      </trkpt>
      <trkpt lat="48.2079" lon="-3.08706">
        <ele>128</ele>
        <time>2016-02-04T14:30:14Z</time>
      </trkpt>
      <trkpt lat="48.2079" lon="-3.08708">
        <ele>128</ele>
        <time>2016-02-04T14:30:17Z</time>
      </trkpt>
      <trkpt lat="48.20789" lon="-3.08711">
        <ele>130</ele>
        <time>2016-02-04T14:30:23Z</time>
      </trkpt>
      <trkpt lat="48.2079" lon="-3.08713">
        <ele>131</ele>
        <time>2016-02-04T14:30:27Z</time>
      </trkpt>
      <trkpt lat="48.20792" lon="-3.08715">
        <ele>132</ele>
        <time>2016-02-04T14:30:31Z</time>
      </trkpt>
      <trkpt lat="48.20794" lon="-3.08718">
        <ele>132</ele>
        <time>2016-02-04T14:30:36Z</time>
      </trkpt>
      <trkpt lat="48.20794" lon="-3.08721">
        <ele>134</ele>
        <time>2016-02-04T14:30:47Z</time>
      </trkpt>
      <trkpt lat="48.20794" lon="-3.08722">
        <ele>134</ele>
        <time>2016-02-04T14:30:50Z</time>
      </trkpt>
      <trkpt lat="48.20795" lon="-3.08724">
        <ele>135</ele>
        <time>2016-02-04T14:30:53Z</time>
      </trkpt>
      <trkpt lat="48.20795" lon="-3.08725">
        <ele>137</ele>
        <time>2016-02-04T14:30:56Z</time>
      </trkpt>
      <trkpt lat="48.20795" lon="-3.08729">
        <ele>138</ele>
        <time>2016-02-04T14:31:01Z</time>
      </trkpt>
      <trkpt lat="48.20794" lon="-3.08733">
        <ele>140</ele>
        <time>2016-02-04T14:31:05Z</time>
      </trkpt>
      <trkpt lat="48.20793" lon="-3.08735">
        <ele>141</ele>
        <time>2016-02-04T14:31:09Z</time>
      </trkpt>
      <trkpt lat="48.20791" lon="-3.08735">
        <ele>143</ele>
        <time>2016-02-04T14:31:12Z</time>
      </trkpt>
      <trkpt lat="48.20791" lon="-3.08737">
        <ele>146</ele>
        <time>2016-02-04T14:31:16Z</time>
      </trkpt>
      <trkpt lat="48.20788" lon="-3.08738">
        <ele>146</ele>
        <time>2016-02-04T14:31:19Z</time>
      </trkpt>
      <trkpt lat="48.20786" lon="-3.08735">
        <ele>147</ele>
        <time>2016-02-04T14:31:26Z</time>
      </trkpt>
      <trkpt lat="48.20785" lon="-3.08735">
        <ele>146</ele>
        <time>2016-02-04T14:31:31Z</time>
      </trkpt>
      <trkpt lat="48.20784" lon="-3.08741">
        <ele>145</ele>
        <time>2016-02-04T14:31:35Z</time>
      </trkpt>
      <trkpt lat="48.20784" lon="-3.08745">
        <ele>145</ele>
        <time>2016-02-04T14:31:38Z</time>
      </trkpt>
      <trkpt lat="48.20783" lon="-3.08749">
        <ele>145</ele>
        <time>2016-02-04T14:31:42Z</time>
      </trkpt>
      <trkpt lat="48.20783" lon="-3.08751">
        <ele>145</ele>
        <time>2016-02-04T14:31:45Z</time>
      </trkpt>
      <trkpt lat="48.20786" lon="-3.08754">
        <ele>145</ele>
        <time>2016-02-04T14:31:49Z</time>
      </trkpt>
      <trkpt lat="48.20788" lon="-3.08756">
        <ele>145</ele>
        <time>2016-02-04T14:31:53Z</time>
      </trkpt>
      <trkpt lat="48.20792" lon="-3.08757">
        <ele>145</ele>
        <time>2016-02-04T14:31:57Z</time>
      </trkpt>
      <trkpt lat="48.20795" lon="-3.08758">
        <ele>146</ele>
        <time>2016-02-04T14:32:02Z</time>
      </trkpt>
      <trkpt lat="48.20795" lon="-3.0876">
        <ele>147</ele>
        <time>2016-02-04T14:32:06Z</time>
      </trkpt>
      <trkpt lat="48.20795" lon="-3.08762">
        <ele>148</ele>
        <time>2016-02-04T14:32:10Z</time>
      </trkpt>
      <trkpt lat="48.20793" lon="-3.08764">
        <ele>148</ele>
        <time>2016-02-04T14:32:13Z</time>
      </trkpt>
      <trkpt lat="48.2079" lon="-3.08768">
        <ele>148</ele>
        <time>2016-02-04T14:32:18Z</time>
      </trkpt>
      <trkpt lat="48.20788" lon="-3.08768">
        <ele>149</ele>
        <time>2016-02-04T14:32:22Z</time>
      </trkpt>
      <trkpt lat="48.20787" lon="-3.0877">
        <ele>150</ele>
        <time>2016-02-04T14:32:26Z</time>
      </trkpt>
      <trkpt lat="48.20787" lon="-3.08774">
        <ele>151</ele>
        <time>2016-02-04T14:32:32Z</time>
      </trkpt>
      <trkpt lat="48.20785" lon="-3.08779">
        <ele>152</ele>
        <time>2016-02-04T14:32:36Z</time>
      </trkpt>
      <trkpt lat="48.20783" lon="-3.08783">
        <ele>152</ele>
        <time>2016-02-04T14:32:40Z</time>
      </trkpt>
      <trkpt lat="48.20783" lon="-3.08787">
        <ele>152</ele>
        <time>2016-02-04T14:32:43Z</time>
      </trkpt>
      <trkpt lat="48.20784" lon="-3.08786">
        <ele>152</ele>
        <time>2016-02-04T14:32:46Z</time>
      </trkpt>
      <trkpt lat="48.20786" lon="-3.08787">
        <ele>152</ele>
        <time>2016-02-04T14:32:49Z</time>
      </trkpt>
      <trkpt lat="48.20789" lon="-3.08787">
        <ele>154</ele>
        <time>2016-02-04T14:32:54Z</time>
      </trkpt>
      <trkpt lat="48.20791" lon="-3.08787">
        <ele>155</ele>
        <time>2016-02-04T14:32:58Z</time>
      </trkpt>
      <trkpt lat="48.20794" lon="-3.08788">
        <ele>155</ele>
        <time>2016-02-04T14:33:03Z</time>
      </trkpt>
      <trkpt lat="48.20795" lon="-3.08789">
        <ele>155</ele>
        <time>2016-02-04T14:33:06Z</time>
      </trkpt>
      <trkpt lat="48.20797" lon="-3.08792">
        <ele>157</ele>
        <time>2016-02-04T14:33:11Z</time>
      </trkpt>
      <trkpt lat="48.20798" lon="-3.08789">
        <ele>157</ele>
        <time>2016-02-04T14:33:18Z</time>
      </trkpt>
      <trkpt lat="48.20799" lon="-3.08788">
        <ele>157</ele>
        <time>2016-02-04T14:33:21Z</time>
      </trkpt>
      <trkpt lat="48.20798" lon="-3.08789">
        <ele>159</ele>
        <time>2016-02-04T14:33:28Z</time>
      </trkpt>
      <trkpt lat="48.20796" lon="-3.0879">
        <ele>159</ele>
        <time>2016-02-04T14:33:31Z</time>
      </trkpt>
      <trkpt lat="48.20797" lon="-3.0879">
        <ele>160</ele>
        <time>2016-02-04T14:33:48Z</time>
      </trkpt>
      <trkpt lat="48.20799" lon="-3.08789">
        <ele>160</ele>
        <time>2016-02-04T14:33:52Z</time>
      </trkpt>
      <trkpt lat="48.208" lon="-3.08787">
        <ele>160</ele>
        <time>2016-02-04T14:33:56Z</time>
      </trkpt>
      <trkpt lat="48.20803" lon="-3.08786">
        <ele>164</ele>
        <time>2016-02-04T14:34:00Z</time>
      </trkpt>
      <trkpt lat="48.20803" lon="-3.08785">
        <ele>164</ele>
        <time>2016-02-04T14:34:08Z</time>
      </trkpt>
      <trkpt lat="48.20802" lon="-3.08785">
        <ele>165</ele>
        <time>2016-02-04T14:34:12Z</time>
      </trkpt>
      <trkpt lat="48.208" lon="-3.08786">
        <ele>166</ele>
        <time>2016-02-04T14:34:22Z</time>
      </trkpt>
      <trkpt lat="48.20799" lon="-3.08787">
        <ele>166</ele>
        <time>2016-02-04T14:34:33Z</time>
      </trkpt>
      <trkpt lat="48.20799" lon="-3.08785">
        <ele>166</ele>
        <time>2016-02-04T14:34:47Z</time>
      </trkpt>
      <trkpt lat="48.208" lon="-3.08783">
        <ele>166</ele>
        <time>2016-02-04T14:34:51Z</time>
      </trkpt>
      <trkpt lat="48.208" lon="-3.08779">
        <ele>166</ele>
        <time>2016-02-04T14:34:55Z</time>
      </trkpt>
      <trkpt lat="48.20801" lon="-3.08776">
        <ele>166</ele>
        <time>2016-02-04T14:35:00Z</time>
      </trkpt>
      <trkpt lat="48.20802" lon="-3.08771">
        <ele>163</ele>
        <time>2016-02-04T14:35:05Z</time>
      </trkpt>
      <trkpt lat="48.20802" lon="-3.08767">
        <ele>162</ele>
        <time>2016-02-04T14:35:08Z</time>
      </trkpt>
      <trkpt lat="48.20803" lon="-3.08764">
        <ele>161</ele>
        <time>2016-02-04T14:35:13Z</time>
      </trkpt>
      <trkpt lat="48.20804" lon="-3.08762">
        <ele>160</ele>
        <time>2016-02-04T14:35:17Z</time>
      </trkpt>
      <trkpt lat="48.20804" lon="-3.0876">
        <ele>159</ele>
        <time>2016-02-04T14:35:22Z</time>
      </trkpt>
      <trkpt lat="48.20804" lon="-3.08758">
        <ele>157</ele>
        <time>2016-02-04T14:35:25Z</time>
      </trkpt>
      <trkpt lat="48.20804" lon="-3.08755">
        <ele>156</ele>
        <time>2016-02-04T14:35:29Z</time>
      </trkpt>
      <trkpt lat="48.20805" lon="-3.08753">
        <ele>155</ele>
        <time>2016-02-04T14:35:32Z</time>
      </trkpt>
      <trkpt lat="48.20805" lon="-3.08751">
        <ele>154</ele>
        <time>2016-02-04T14:35:36Z</time>
      </trkpt>
      <trkpt lat="48.20805" lon="-3.08747">
        <ele>153</ele>
        <time>2016-02-04T14:35:40Z</time>
      </trkpt>
      <trkpt lat="48.20806" lon="-3.08743">
        <ele>152</ele>
        <time>2016-02-04T14:35:44Z</time>
      </trkpt>
      <trkpt lat="48.20808" lon="-3.08738">
        <ele>151</ele>
        <time>2016-02-04T14:35:48Z</time>
      </trkpt>
      <trkpt lat="48.2081" lon="-3.08736">
        <ele>149</ele>
        <time>2016-02-04T14:35:53Z</time>
      </trkpt>
      <trkpt lat="48.20811" lon="-3.08732">
        <ele>146</ele>
        <time>2016-02-04T14:35:58Z</time>
      </trkpt>
      <trkpt lat="48.20812" lon="-3.0873">
        <ele>144</ele>
        <time>2016-02-04T14:36:04Z</time>
      </trkpt>
      <trkpt lat="48.20813" lon="-3.08725">
        <ele>143</ele>
        <time>2016-02-04T14:36:08Z</time>
      </trkpt>
      <trkpt lat="48.20817" lon="-3.08722">
        <ele>143</ele>
        <time>2016-02-04T14:36:12Z</time>
      </trkpt>
      <trkpt lat="48.2082" lon="-3.08721">
        <ele>143</ele>
        <time>2016-02-04T14:36:17Z</time>
      </trkpt>
      <trkpt lat="48.20821" lon="-3.08719">
        <ele>145</ele>
        <time>2016-02-04T14:36:21Z</time>
      </trkpt>
      <trkpt lat="48.20823" lon="-3.08719">
        <ele>148</ele>
        <time>2016-02-04T14:36:24Z</time>
      </trkpt>
      <trkpt lat="48.20825" lon="-3.08721">
        <ele>151</ele>
        <time>2016-02-04T14:36:28Z</time>
      </trkpt>
      <trkpt lat="48.20828" lon="-3.08722">
        <ele>153</ele>
        <time>2016-02-04T14:36:32Z</time>
      </trkpt>
      <trkpt lat="48.20831" lon="-3.08722">
        <ele>153</ele>
        <time>2016-02-04T14:36:37Z</time>
      </trkpt>
      <trkpt lat="48.20832" lon="-3.08723">
        <ele>153</ele>
        <time>2016-02-04T14:36:40Z</time>
      </trkpt>
      <trkpt lat="48.20833" lon="-3.08725">
        <ele>153</ele>
        <time>2016-02-04T14:36:43Z</time>
      </trkpt>
      <trkpt lat="48.20836" lon="-3.08726">
        <ele>153</ele>
        <time>2016-02-04T14:36:47Z</time>
      </trkpt>
      <trkpt lat="48.20839" lon="-3.08728">
        <ele>154</ele>
        <time>2016-02-04T14:36:51Z</time>
      </trkpt>
      <trkpt lat="48.20841" lon="-3.08729">
        <ele>155</ele>
        <time>2016-02-04T14:36:54Z</time>
      </trkpt>
      <trkpt lat="48.20844" lon="-3.08731">
        <ele>156</ele>
        <time>2016-02-04T14:36:58Z</time>
      </trkpt>
      <trkpt lat="48.20847" lon="-3.08731">
        <ele>157</ele>
        <time>2016-02-04T14:37:03Z</time>
      </trkpt>
      <trkpt lat="48.20848" lon="-3.08735">
        <ele>157</ele>
        <time>2016-02-04T14:37:07Z</time>
      </trkpt>
      <trkpt lat="48.20849" lon="-3.08737">
        <ele>157</ele>
        <time>2016-02-04T14:37:11Z</time>
      </trkpt>
      <trkpt lat="48.20852" lon="-3.08739">
        <ele>157</ele>
        <time>2016-02-04T14:37:15Z</time>
      </trkpt>
      <trkpt lat="48.20855" lon="-3.08741">
        <ele>157</ele>
        <time>2016-02-04T14:37:21Z</time>
      </trkpt>
      <trkpt lat="48.20856" lon="-3.08744">
        <ele>157</ele>
        <time>2016-02-04T14:37:29Z</time>
      </trkpt>
      <trkpt lat="48.20858" lon="-3.08748">
        <ele>157</ele>
        <time>2016-02-04T14:37:33Z</time>
      </trkpt>
      <trkpt lat="48.20858" lon="-3.0875">
        <ele>157</ele>
        <time>2016-02-04T14:37:39Z</time>
      </trkpt>
      <trkpt lat="48.2086" lon="-3.08749">
        <ele>157</ele>
        <time>2016-02-04T14:37:48Z</time>
      </trkpt>
      <trkpt lat="48.20861" lon="-3.08749">
        <ele>157</ele>
        <time>2016-02-04T14:38:00Z</time>
      </trkpt>
      <trkpt lat="48.20862" lon="-3.08749">
        <ele>157</ele>
        <time>2016-02-04T14:38:20Z</time>
      </trkpt>
      <trkpt lat="48.20861" lon="-3.08749">
        <ele>157</ele>
        <time>2016-02-04T14:38:23Z</time>
      </trkpt>
      <trkpt lat="48.20859" lon="-3.08749">
        <ele>157</ele>
        <time>2016-02-04T14:38:26Z</time>
      </trkpt>
      <trkpt lat="48.20858" lon="-3.08749">
        <ele>157</ele>
        <time>2016-02-04T14:38:29Z</time>
      </trkpt>
      <trkpt lat="48.20859" lon="-3.08751">
        <ele>157</ele>
        <time>2016-02-04T14:38:36Z</time>
      </trkpt>
      <trkpt lat="48.2086" lon="-3.08751">
        <ele>158</ele>
        <time>2016-02-04T14:38:52Z</time>
      </trkpt>
      <trkpt lat="48.20861" lon="-3.08752">
        <ele>158</ele>
        <time>2016-02-04T14:39:06Z</time>
      </trkpt>
      <trkpt lat="48.20863" lon="-3.08751">
        <ele>159</ele>
        <time>2016-02-04T14:39:18Z</time>
      </trkpt>
      <trkpt lat="48.20866" lon="-3.08752">
        <ele>159</ele>
        <time>2016-02-04T14:39:22Z</time>
      </trkpt>
      <trkpt lat="48.20871" lon="-3.08753">
        <ele>159</ele>
        <time>2016-02-04T14:39:26Z</time>
      </trkpt>
      <trkpt lat="48.20874" lon="-3.08757">
        <ele>159</ele>
        <time>2016-02-04T14:39:30Z</time>
      </trkpt>
      <trkpt lat="48.20876" lon="-3.08763">
        <ele>159</ele>
        <time>2016-02-04T14:39:34Z</time>
      </trkpt>
      <trkpt lat="48.20877" lon="-3.08764">
        <ele>159</ele>
        <time>2016-02-04T14:39:37Z</time>
      </trkpt>
      <trkpt lat="48.2088" lon="-3.08765">
        <ele>159</ele>
        <time>2016-02-04T14:39:41Z</time>
      </trkpt>
      <trkpt lat="48.20884" lon="-3.08768">
        <ele>159</ele>
        <time>2016-02-04T14:39:45Z</time>
      </trkpt>
      <trkpt lat="48.20885" lon="-3.08773">
        <ele>159</ele>
        <time>2016-02-04T14:39:49Z</time>
      </trkpt>
      <trkpt lat="48.20888" lon="-3.08778">
        <ele>159</ele>
        <time>2016-02-04T14:39:53Z</time>
      </trkpt>
      <trkpt lat="48.20889" lon="-3.08782">
        <ele>158</ele>
        <time>2016-02-04T14:39:57Z</time>
      </trkpt>
      <trkpt lat="48.2089" lon="-3.08783">
        <ele>158</ele>
        <time>2016-02-04T14:40:00Z</time>
      </trkpt>
      <trkpt lat="48.20894" lon="-3.08786">
        <ele>158</ele>
        <time>2016-02-04T14:40:04Z</time>
      </trkpt>
      <trkpt lat="48.20897" lon="-3.08787">
        <ele>157</ele>
        <time>2016-02-04T14:40:08Z</time>
      </trkpt>
      <trkpt lat="48.20899" lon="-3.08785">
        <ele>157</ele>
        <time>2016-02-04T14:40:12Z</time>
      </trkpt>
      <trkpt lat="48.209" lon="-3.08786">
        <ele>156</ele>
        <time>2016-02-04T14:40:15Z</time>
      </trkpt>
      <trkpt lat="48.20902" lon="-3.08787">
        <ele>155</ele>
        <time>2016-02-04T14:40:18Z</time>
      </trkpt>
      <trkpt lat="48.20903" lon="-3.08788">
        <ele>155</ele>
        <time>2016-02-04T14:40:21Z</time>
      </trkpt>
      <trkpt lat="48.20905" lon="-3.08789">
        <ele>154</ele>
        <time>2016-02-04T14:40:26Z</time>
      </trkpt>
      <trkpt lat="48.20906" lon="-3.08794">
        <ele>154</ele>
        <time>2016-02-04T14:40:30Z</time>
      </trkpt>
      <trkpt lat="48.20906" lon="-3.08795">
        <ele>154</ele>
        <time>2016-02-04T14:40:34Z</time>
      </trkpt>
      <trkpt lat="48.20908" lon="-3.08798">
        <ele>154</ele>
        <time>2016-02-04T14:40:37Z</time>
      </trkpt>
      <trkpt lat="48.20909" lon="-3.08801">
        <ele>154</ele>
        <time>2016-02-04T14:40:41Z</time>
      </trkpt>
      <trkpt lat="48.20912" lon="-3.08803">
        <ele>153</ele>
        <time>2016-02-04T14:40:47Z</time>
      </trkpt>
      <trkpt lat="48.20915" lon="-3.08803">
        <ele>153</ele>
        <time>2016-02-04T14:40:51Z</time>
      </trkpt>
      <trkpt lat="48.20918" lon="-3.08805">
        <ele>153</ele>
        <time>2016-02-04T14:40:55Z</time>
      </trkpt>
      <trkpt lat="48.20921" lon="-3.08805">
        <ele>152</ele>
        <time>2016-02-04T14:40:59Z</time>
      </trkpt>
      <trkpt lat="48.20924" lon="-3.08807">
        <ele>152</ele>
        <time>2016-02-04T14:41:03Z</time>
      </trkpt>
      <trkpt lat="48.20926" lon="-3.08811">
        <ele>152</ele>
        <time>2016-02-04T14:41:07Z</time>
      </trkpt>
      <trkpt lat="48.2093" lon="-3.08814">
        <ele>152</ele>
        <time>2016-02-04T14:41:11Z</time>
      </trkpt>
      <trkpt lat="48.20934" lon="-3.08815">
        <ele>152</ele>
        <time>2016-02-04T14:41:15Z</time>
      </trkpt>
      <trkpt lat="48.20938" lon="-3.08814">
        <ele>152</ele>
        <time>2016-02-04T14:41:19Z</time>
      </trkpt>
      <trkpt lat="48.20941" lon="-3.08813">
        <ele>152</ele>
        <time>2016-02-04T14:41:23Z</time>
      </trkpt>
      <trkpt lat="48.20945" lon="-3.0881">
        <ele>152</ele>
        <time>2016-02-04T14:41:27Z</time>
      </trkpt>
      <trkpt lat="48.20948" lon="-3.08807">
        <ele>151</ele>
        <time>2016-02-04T14:41:31Z</time>
      </trkpt>
      <trkpt lat="48.2095" lon="-3.08803">
        <ele>149</ele>
        <time>2016-02-04T14:41:35Z</time>
      </trkpt>
      <trkpt lat="48.20952" lon="-3.08798">
        <ele>148</ele>
        <time>2016-02-04T14:41:39Z</time>
      </trkpt>
      <trkpt lat="48.20953" lon="-3.08793">
        <ele>147</ele>
        <time>2016-02-04T14:41:43Z</time>
      </trkpt>
      <trkpt lat="48.20955" lon="-3.08789">
        <ele>145</ele>
        <time>2016-02-04T14:41:47Z</time>
      </trkpt>
      <trkpt lat="48.20956" lon="-3.08784">
        <ele>143</ele>
        <time>2016-02-04T14:41:51Z</time>
      </trkpt>
      <trkpt lat="48.20957" lon="-3.08782">
        <ele>143</ele>
        <time>2016-02-04T14:41:54Z</time>
      </trkpt>
      <trkpt lat="48.20959" lon="-3.08778">
        <ele>143</ele>
        <time>2016-02-04T14:41:58Z</time>
      </trkpt>
      <trkpt lat="48.20961" lon="-3.08773">
        <ele>142</ele>
        <time>2016-02-04T14:42:02Z</time>
      </trkpt>
      <trkpt lat="48.20965" lon="-3.08771">
        <ele>142</ele>
        <time>2016-02-04T14:42:05Z</time>
      </trkpt>
      <trkpt lat="48.20968" lon="-3.0877">
        <ele>142</ele>
        <time>2016-02-04T14:42:08Z</time>
      </trkpt>
      <trkpt lat="48.20972" lon="-3.08769">
        <ele>142</ele>
        <time>2016-02-04T14:42:12Z</time>
      </trkpt>
      <trkpt lat="48.20976" lon="-3.08769">
        <ele>142</ele>
        <time>2016-02-04T14:42:17Z</time>
      </trkpt>
      <trkpt lat="48.20979" lon="-3.08768">
        <ele>141</ele>
        <time>2016-02-04T14:42:21Z</time>
      </trkpt>
      <trkpt lat="48.20983" lon="-3.08769">
        <ele>141</ele>
        <time>2016-02-04T14:42:25Z</time>
      </trkpt>
      <trkpt lat="48.20986" lon="-3.08767">
        <ele>141</ele>
        <time>2016-02-04T14:42:30Z</time>
      </trkpt>
      <trkpt lat="48.20988" lon="-3.08763">
        <ele>140</ele>
        <time>2016-02-04T14:42:34Z</time>
      </trkpt>
      <trkpt lat="48.20986" lon="-3.08757">
        <ele>138</ele>
        <time>2016-02-04T14:42:39Z</time>
      </trkpt>
      <trkpt lat="48.20986" lon="-3.08753">
        <ele>136</ele>
        <time>2016-02-04T14:42:43Z</time>
      </trkpt>
      <trkpt lat="48.20986" lon="-3.08751">
        <ele>135</ele>
        <time>2016-02-04T14:42:47Z</time>
      </trkpt>
      <trkpt lat="48.20986" lon="-3.0875">
        <ele>134</ele>
        <time>2016-02-04T14:42:50Z</time>
      </trkpt>
      <trkpt lat="48.20985" lon="-3.08748">
        <ele>133</ele>
        <time>2016-02-04T14:42:53Z</time>
      </trkpt>
      <trkpt lat="48.20985" lon="-3.08745">
        <ele>133</ele>
        <time>2016-02-04T14:42:56Z</time>
      </trkpt>
      <trkpt lat="48.20987" lon="-3.08741">
        <ele>131</ele>
        <time>2016-02-04T14:43:00Z</time>
      </trkpt>
      <trkpt lat="48.2099" lon="-3.08741">
        <ele>131</ele>
        <time>2016-02-04T14:43:04Z</time>
      </trkpt>
      <trkpt lat="48.20993" lon="-3.08742">
        <ele>131</ele>
        <time>2016-02-04T14:43:08Z</time>
      </trkpt>
      <trkpt lat="48.20995" lon="-3.08742">
        <ele>131</ele>
        <time>2016-02-04T14:43:15Z</time>
      </trkpt>
      <trkpt lat="48.20996" lon="-3.08741">
        <ele>131</ele>
        <time>2016-02-04T14:43:23Z</time>
      </trkpt>
      <trkpt lat="48.20998" lon="-3.08739">
        <ele>131</ele>
        <time>2016-02-04T14:43:27Z</time>
      </trkpt>
      <trkpt lat="48.21" lon="-3.08739">
        <ele>131</ele>
        <time>2016-02-04T14:43:34Z</time>
      </trkpt>
      <trkpt lat="48.21001" lon="-3.08739">
        <ele>131</ele>
        <time>2016-02-04T14:43:37Z</time>
      </trkpt>
      <trkpt lat="48.21004" lon="-3.08738">
        <ele>131</ele>
        <time>2016-02-04T14:43:40Z</time>
      </trkpt>
      <trkpt lat="48.21008" lon="-3.08738">
        <ele>130</ele>
        <time>2016-02-04T14:43:43Z</time>
      </trkpt>
      <trkpt lat="48.21011" lon="-3.08738">
        <ele>130</ele>
        <time>2016-02-04T14:43:47Z</time>
      </trkpt>
      <trkpt lat="48.21012" lon="-3.08737">
        <ele>130</ele>
        <time>2016-02-04T14:43:50Z</time>
      </trkpt>
      <trkpt lat="48.21012" lon="-3.08733">
        <ele>128</ele>
        <time>2016-02-04T14:43:54Z</time>
      </trkpt>
      <trkpt lat="48.21014" lon="-3.08729">
        <ele>126</ele>
        <time>2016-02-04T14:43:59Z</time>
      </trkpt>
      <trkpt lat="48.21016" lon="-3.08728">
        <ele>126</ele>
        <time>2016-02-04T14:44:02Z</time>
      </trkpt>
      <trkpt lat="48.21018" lon="-3.08728">
        <ele>125</ele>
        <time>2016-02-04T14:44:06Z</time>
      </trkpt>
      <trkpt lat="48.21021" lon="-3.08732">
        <ele>124</ele>
        <time>2016-02-04T14:44:10Z</time>
      </trkpt>
      <trkpt lat="48.21024" lon="-3.08734">
        <ele>124</ele>
        <time>2016-02-04T14:44:13Z</time>
      </trkpt>
      <trkpt lat="48.21025" lon="-3.08739">
        <ele>124</ele>
        <time>2016-02-04T14:44:17Z</time>
      </trkpt>
      <trkpt lat="48.21028" lon="-3.08743">
        <ele>124</ele>
        <time>2016-02-04T14:44:20Z</time>
      </trkpt>
      <trkpt lat="48.21031" lon="-3.08748">
        <ele>124</ele>
        <time>2016-02-04T14:44:23Z</time>
      </trkpt>
      <trkpt lat="48.21034" lon="-3.08751">
        <ele>124</ele>
        <time>2016-02-04T14:44:29Z</time>
      </trkpt>
      <trkpt lat="48.21037" lon="-3.08753">
        <ele>124</ele>
        <time>2016-02-04T14:44:32Z</time>
      </trkpt>
      <trkpt lat="48.21039" lon="-3.08757">
        <ele>124</ele>
        <time>2016-02-04T14:44:36Z</time>
      </trkpt>
      <trkpt lat="48.21042" lon="-3.08762">
        <ele>124</ele>
        <time>2016-02-04T14:44:40Z</time>
      </trkpt>
      <trkpt lat="48.21045" lon="-3.08767">
        <ele>124</ele>
        <time>2016-02-04T14:44:43Z</time>
      </trkpt>
      <trkpt lat="48.21046" lon="-3.08773">
        <ele>124</ele>
        <time>2016-02-04T14:44:47Z</time>
      </trkpt>
      <trkpt lat="48.21049" lon="-3.08778">
        <ele>124</ele>
        <time>2016-02-04T14:44:50Z</time>
      </trkpt>
      <trkpt lat="48.21052" lon="-3.08779">
        <ele>124</ele>
        <time>2016-02-04T14:44:54Z</time>
      </trkpt>
      <trkpt lat="48.21055" lon="-3.08779">
        <ele>124</ele>
        <time>2016-02-04T14:44:57Z</time>
      </trkpt>
      <trkpt lat="48.21059" lon="-3.08779">
        <ele>124</ele>
        <time>2016-02-04T14:45:01Z</time>
      </trkpt>
      <trkpt lat="48.21061" lon="-3.08781">
        <ele>124</ele>
        <time>2016-02-04T14:45:04Z</time>
      </trkpt>
      <trkpt lat="48.21066" lon="-3.08784">
        <ele>124</ele>
        <time>2016-02-04T14:45:08Z</time>
      </trkpt>
      <trkpt lat="48.2107" lon="-3.08786">
        <ele>124</ele>
        <time>2016-02-04T14:45:11Z</time>
      </trkpt>
      <trkpt lat="48.21073" lon="-3.08786">
        <ele>124</ele>
        <time>2016-02-04T14:45:14Z</time>
      </trkpt>
      <trkpt lat="48.21077" lon="-3.08784">
        <ele>124</ele>
        <time>2016-02-04T14:45:17Z</time>
      </trkpt>
      <trkpt lat="48.21082" lon="-3.08785">
        <ele>124</ele>
        <time>2016-02-04T14:45:21Z</time>
      </trkpt>
      <trkpt lat="48.21085" lon="-3.08788">
        <ele>124</ele>
        <time>2016-02-04T14:45:25Z</time>
      </trkpt>
      <trkpt lat="48.21088" lon="-3.08789">
        <ele>124</ele>
        <time>2016-02-04T14:45:28Z</time>
      </trkpt>
      <trkpt lat="48.21092" lon="-3.08792">
        <ele>124</ele>
        <time>2016-02-04T14:45:32Z</time>
      </trkpt>
      <trkpt lat="48.21095" lon="-3.08794">
        <ele>124</ele>
        <time>2016-02-04T14:45:35Z</time>
      </trkpt>
      <trkpt lat="48.211" lon="-3.08797">
        <ele>124</ele>
        <time>2016-02-04T14:45:38Z</time>
      </trkpt>
      <trkpt lat="48.21104" lon="-3.08801">
        <ele>124</ele>
        <time>2016-02-04T14:45:41Z</time>
      </trkpt>
      <trkpt lat="48.21108" lon="-3.08806">
        <ele>123</ele>
        <time>2016-02-04T14:45:45Z</time>
      </trkpt>
      <trkpt lat="48.21111" lon="-3.08808">
        <ele>123</ele>
        <time>2016-02-04T14:45:48Z</time>
      </trkpt>
      <trkpt lat="48.21114" lon="-3.08812">
        <ele>123</ele>
        <time>2016-02-04T14:45:52Z</time>
      </trkpt>
      <trkpt lat="48.21117" lon="-3.08814">
        <ele>123</ele>
        <time>2016-02-04T14:45:55Z</time>
      </trkpt>
      <trkpt lat="48.21121" lon="-3.08816">
        <ele>123</ele>
        <time>2016-02-04T14:45:58Z</time>
      </trkpt>
      <trkpt lat="48.21124" lon="-3.08819">
        <ele>123</ele>
        <time>2016-02-04T14:46:01Z</time>
      </trkpt>
      <trkpt lat="48.21126" lon="-3.08822">
        <ele>123</ele>
        <time>2016-02-04T14:46:04Z</time>
      </trkpt>
      <trkpt lat="48.21131" lon="-3.08826">
        <ele>123</ele>
        <time>2016-02-04T14:46:08Z</time>
      </trkpt>
      <trkpt lat="48.21131" lon="-3.08828">
        <ele>123</ele>
        <time>2016-02-04T14:46:13Z</time>
      </trkpt>
      <trkpt lat="48.21133" lon="-3.0883">
        <ele>123</ele>
        <time>2016-02-04T14:46:25Z</time>
      </trkpt>
      <trkpt lat="48.21136" lon="-3.08831">
        <ele>120</ele>
        <time>2016-02-04T14:46:29Z</time>
      </trkpt>
      <trkpt lat="48.2114" lon="-3.08832">
        <ele>119</ele>
        <time>2016-02-04T14:46:32Z</time>
      </trkpt>
      <trkpt lat="48.21142" lon="-3.0883">
        <ele>117</ele>
        <time>2016-02-04T14:46:36Z</time>
      </trkpt>
      <trkpt lat="48.21145" lon="-3.08829">
        <ele>117</ele>
        <time>2016-02-04T14:46:40Z</time>
      </trkpt>
      <trkpt lat="48.21148" lon="-3.08827">
        <ele>117</ele>
        <time>2016-02-04T14:46:44Z</time>
      </trkpt>
      <trkpt lat="48.21151" lon="-3.08825">
        <ele>117</ele>
        <time>2016-02-04T14:46:47Z</time>
      </trkpt>
      <trkpt lat="48.21154" lon="-3.08823">
        <ele>118</ele>
        <time>2016-02-04T14:46:50Z</time>
      </trkpt>
      <trkpt lat="48.21158" lon="-3.08819">
        <ele>120</ele>
        <time>2016-02-04T14:46:54Z</time>
      </trkpt>
      <trkpt lat="48.21162" lon="-3.08818">
        <ele>121</ele>
        <time>2016-02-04T14:46:57Z</time>
      </trkpt>
      <trkpt lat="48.21162" lon="-3.08815">
        <ele>124</ele>
        <time>2016-02-04T14:47:03Z</time>
      </trkpt>
      <trkpt lat="48.21162" lon="-3.0881">
        <ele>125</ele>
        <time>2016-02-04T14:47:07Z</time>
      </trkpt>
      <trkpt lat="48.21162" lon="-3.08808">
        <ele>127</ele>
        <time>2016-02-04T14:47:11Z</time>
      </trkpt>
      <trkpt lat="48.21161" lon="-3.08806">
        <ele>129</ele>
        <time>2016-02-04T14:47:17Z</time>
      </trkpt>
      <trkpt lat="48.2116" lon="-3.08801">
        <ele>129</ele>
        <time>2016-02-04T14:47:22Z</time>
      </trkpt>
      <trkpt lat="48.21161" lon="-3.08798">
        <ele>129</ele>
        <time>2016-02-04T14:47:28Z</time>
      </trkpt>
      <trkpt lat="48.2116" lon="-3.08793">
        <ele>128</ele>
        <time>2016-02-04T14:47:32Z</time>
      </trkpt>
      <trkpt lat="48.21159" lon="-3.08788">
        <ele>124</ele>
        <time>2016-02-04T14:47:36Z</time>
      </trkpt>
      <trkpt lat="48.21158" lon="-3.08783">
        <ele>122</ele>
        <time>2016-02-04T14:47:39Z</time>
      </trkpt>
      <trkpt lat="48.21157" lon="-3.08778">
        <ele>121</ele>
        <time>2016-02-04T14:47:42Z</time>
      </trkpt>
      <trkpt lat="48.21156" lon="-3.08773">
        <ele>117</ele>
        <time>2016-02-04T14:47:46Z</time>
      </trkpt>
      <trkpt lat="48.21155" lon="-3.08767">
        <ele>114</ele>
        <time>2016-02-04T14:47:49Z</time>
      </trkpt>
      <trkpt lat="48.21154" lon="-3.08761">
        <ele>111</ele>
        <time>2016-02-04T14:47:52Z</time>
      </trkpt>
      <trkpt lat="48.21155" lon="-3.08756">
        <ele>108</ele>
        <time>2016-02-04T14:47:55Z</time>
      </trkpt>
      <trkpt lat="48.21156" lon="-3.08751">
        <ele>107</ele>
        <time>2016-02-04T14:47:58Z</time>
      </trkpt>
      <trkpt lat="48.21156" lon="-3.08745">
        <ele>107</ele>
        <time>2016-02-04T14:48:01Z</time>
      </trkpt>
      <trkpt lat="48.21155" lon="-3.08739">
        <ele>109</ele>
        <time>2016-02-04T14:48:04Z</time>
      </trkpt>
      <trkpt lat="48.21154" lon="-3.08733">
        <ele>110</ele>
        <time>2016-02-04T14:48:08Z</time>
      </trkpt>
      <trkpt lat="48.21154" lon="-3.08728">
        <ele>111</ele>
        <time>2016-02-04T14:48:11Z</time>
      </trkpt>
      <trkpt lat="48.21154" lon="-3.08725">
        <ele>113</ele>
        <time>2016-02-04T14:48:16Z</time>
      </trkpt>
      <trkpt lat="48.21154" lon="-3.08723">
        <ele>116</ele>
        <time>2016-02-04T14:48:20Z</time>
      </trkpt>
      <trkpt lat="48.21154" lon="-3.08721">
        <ele>120</ele>
        <time>2016-02-04T14:48:26Z</time>
      </trkpt>
      <trkpt lat="48.21153" lon="-3.0872">
        <ele>122</ele>
        <time>2016-02-04T14:48:33Z</time>
      </trkpt>
      <trkpt lat="48.21152" lon="-3.08721">
        <ele>122</ele>
        <time>2016-02-04T14:48:42Z</time>
      </trkpt>
      <trkpt lat="48.21151" lon="-3.08719">
        <ele>122</ele>
        <time>2016-02-04T14:48:51Z</time>
      </trkpt>
      <trkpt lat="48.2115" lon="-3.08717">
        <ele>122</ele>
        <time>2016-02-04T14:49:02Z</time>
      </trkpt>
      <trkpt lat="48.21149" lon="-3.08715">
        <ele>122</ele>
        <time>2016-02-04T14:49:05Z</time>
      </trkpt>
      <trkpt lat="48.21149" lon="-3.0871">
        <ele>122</ele>
        <time>2016-02-04T14:49:09Z</time>
      </trkpt>
      <trkpt lat="48.21148" lon="-3.08708">
        <ele>125</ele>
        <time>2016-02-04T14:49:16Z</time>
      </trkpt>
      <trkpt lat="48.21148" lon="-3.08703">
        <ele>126</ele>
        <time>2016-02-04T14:49:20Z</time>
      </trkpt>
      <trkpt lat="48.21147" lon="-3.08698">
        <ele>126</ele>
        <time>2016-02-04T14:49:23Z</time>
      </trkpt>
      <trkpt lat="48.21147" lon="-3.08694">
        <ele>126</ele>
        <time>2016-02-04T14:49:26Z</time>
      </trkpt>
      <trkpt lat="48.21146" lon="-3.08688">
        <ele>126</ele>
        <time>2016-02-04T14:49:30Z</time>
      </trkpt>
      <trkpt lat="48.21143" lon="-3.08682">
        <ele>127</ele>
        <time>2016-02-04T14:49:34Z</time>
      </trkpt>
      <trkpt lat="48.21143" lon="-3.08677">
        <ele>128</ele>
        <time>2016-02-04T14:49:37Z</time>
      </trkpt>
      <trkpt lat="48.21143" lon="-3.08671">
        <ele>128</ele>
        <time>2016-02-04T14:49:40Z</time>
      </trkpt>
      <trkpt lat="48.21142" lon="-3.08665">
        <ele>128</ele>
        <time>2016-02-04T14:49:43Z</time>
      </trkpt>
      <trkpt lat="48.21141" lon="-3.0866">
        <ele>128</ele>
        <time>2016-02-04T14:49:46Z</time>
      </trkpt>
      <trkpt lat="48.21141" lon="-3.08654">
        <ele>128</ele>
        <time>2016-02-04T14:49:49Z</time>
      </trkpt>
      <trkpt lat="48.21141" lon="-3.08649">
        <ele>128</ele>
        <time>2016-02-04T14:49:52Z</time>
      </trkpt>
      <trkpt lat="48.21141" lon="-3.08644">
        <ele>128</ele>
        <time>2016-02-04T14:49:55Z</time>
      </trkpt>
      <trkpt lat="48.2114" lon="-3.08637">
        <ele>128</ele>
        <time>2016-02-04T14:49:59Z</time>
      </trkpt>
      <trkpt lat="48.21139" lon="-3.08631">
        <ele>128</ele>
        <time>2016-02-04T14:50:03Z</time>
      </trkpt>
      <trkpt lat="48.21139" lon="-3.08622">
        <ele>128</ele>
        <time>2016-02-04T14:50:08Z</time>
      </trkpt>
      <trkpt lat="48.21138" lon="-3.08617">
        <ele>128</ele>
        <time>2016-02-04T14:50:11Z</time>
      </trkpt>
      <trkpt lat="48.21138" lon="-3.08612">
        <ele>128</ele>
        <time>2016-02-04T14:50:14Z</time>
      </trkpt>
      <trkpt lat="48.21138" lon="-3.08605">
        <ele>128</ele>
        <time>2016-02-04T14:50:17Z</time>
      </trkpt>
      <trkpt lat="48.21138" lon="-3.08598">
        <ele>128</ele>
        <time>2016-02-04T14:50:20Z</time>
      </trkpt>
      <trkpt lat="48.21138" lon="-3.08593">
        <ele>128</ele>
        <time>2016-02-04T14:50:23Z</time>
      </trkpt>
      <trkpt lat="48.21137" lon="-3.08587">
        <ele>128</ele>
        <time>2016-02-04T14:50:26Z</time>
      </trkpt>
      <trkpt lat="48.21136" lon="-3.08583">
        <ele>128</ele>
        <time>2016-02-04T14:50:29Z</time>
      </trkpt>
      <trkpt lat="48.21136" lon="-3.0858">
        <ele>128</ele>
        <time>2016-02-04T14:50:32Z</time>
      </trkpt>
      <trkpt lat="48.21135" lon="-3.08576">
        <ele>128</ele>
        <time>2016-02-04T14:50:35Z</time>
      </trkpt>
      <trkpt lat="48.21135" lon="-3.08571">
        <ele>128</ele>
        <time>2016-02-04T14:50:38Z</time>
      </trkpt>
      <trkpt lat="48.21135" lon="-3.08566">
        <ele>128</ele>
        <time>2016-02-04T14:50:41Z</time>
      </trkpt>
      <trkpt lat="48.21134" lon="-3.08561">
        <ele>128</ele>
        <time>2016-02-04T14:50:44Z</time>
      </trkpt>
      <trkpt lat="48.21133" lon="-3.08555">
        <ele>128</ele>
        <time>2016-02-04T14:50:48Z</time>
      </trkpt>
      <trkpt lat="48.21133" lon="-3.08549">
        <ele>128</ele>
        <time>2016-02-04T14:50:52Z</time>
      </trkpt>
      <trkpt lat="48.21133" lon="-3.08543">
        <ele>128</ele>
        <time>2016-02-04T14:50:56Z</time>
      </trkpt>
      <trkpt lat="48.21133" lon="-3.08538">
        <ele>128</ele>
        <time>2016-02-04T14:51:00Z</time>
      </trkpt>
      <trkpt lat="48.21133" lon="-3.08531">
        <ele>128</ele>
        <time>2016-02-04T14:51:04Z</time>
      </trkpt>
      <trkpt lat="48.21133" lon="-3.08526">
        <ele>128</ele>
        <time>2016-02-04T14:51:08Z</time>
      </trkpt>
      <trkpt lat="48.21134" lon="-3.08521">
        <ele>128</ele>
        <time>2016-02-04T14:51:11Z</time>
      </trkpt>
      <trkpt lat="48.21135" lon="-3.08518">
        <ele>128</ele>
        <time>2016-02-04T14:51:14Z</time>
      </trkpt>
      <trkpt lat="48.21135" lon="-3.08512">
        <ele>128</ele>
        <time>2016-02-04T14:51:18Z</time>
      </trkpt>
      <trkpt lat="48.21135" lon="-3.08507">
        <ele>128</ele>
        <time>2016-02-04T14:51:21Z</time>
      </trkpt>
      <trkpt lat="48.21136" lon="-3.085">
        <ele>128</ele>
        <time>2016-02-04T14:51:25Z</time>
      </trkpt>
      <trkpt lat="48.21137" lon="-3.08494">
        <ele>128</ele>
        <time>2016-02-04T14:51:28Z</time>
      </trkpt>
      <trkpt lat="48.21138" lon="-3.0849">
        <ele>128</ele>
        <time>2016-02-04T14:51:31Z</time>
      </trkpt>
      <trkpt lat="48.21135" lon="-3.08487">
        <ele>129</ele>
        <time>2016-02-04T14:51:37Z</time>
      </trkpt>
      <trkpt lat="48.21134" lon="-3.08487">
        <ele>130</ele>
        <time>2016-02-04T14:51:42Z</time>
      </trkpt>
      <trkpt lat="48.21133" lon="-3.08487">
        <ele>132</ele>
        <time>2016-02-04T14:51:46Z</time>
      </trkpt>
      <trkpt lat="48.21132" lon="-3.08487">
        <ele>135</ele>
        <time>2016-02-04T14:51:50Z</time>
      </trkpt>
      <trkpt lat="48.2113" lon="-3.08488">
        <ele>139</ele>
        <time>2016-02-04T14:51:54Z</time>
      </trkpt>
      <trkpt lat="48.21129" lon="-3.08487">
        <ele>142</ele>
        <time>2016-02-04T14:52:00Z</time>
      </trkpt>
      <trkpt lat="48.21128" lon="-3.08486">
        <ele>142</ele>
        <time>2016-02-04T14:52:06Z</time>
      </trkpt>
      <trkpt lat="48.21127" lon="-3.08484">
        <ele>142</ele>
        <time>2016-02-04T14:52:10Z</time>
      </trkpt>
      <trkpt lat="48.21127" lon="-3.08483">
        <ele>142</ele>
        <time>2016-02-04T14:52:13Z</time>
      </trkpt>
      <trkpt lat="48.2113" lon="-3.08479">
        <ele>142</ele>
        <time>2016-02-04T14:52:17Z</time>
      </trkpt>
      <trkpt lat="48.21133" lon="-3.08478">
        <ele>142</ele>
        <time>2016-02-04T14:52:20Z</time>
      </trkpt>
      <trkpt lat="48.21137" lon="-3.08474">
        <ele>142</ele>
        <time>2016-02-04T14:52:24Z</time>
      </trkpt>
      <trkpt lat="48.2114" lon="-3.08471">
        <ele>142</ele>
        <time>2016-02-04T14:52:28Z</time>
      </trkpt>
      <trkpt lat="48.21141" lon="-3.0847">
        <ele>142</ele>
        <time>2016-02-04T14:52:35Z</time>
      </trkpt>
      <trkpt lat="48.21143" lon="-3.08471">
        <ele>142</ele>
        <time>2016-02-04T14:52:39Z</time>
      </trkpt>
      <trkpt lat="48.21143" lon="-3.08471">
        <ele>143</ele>
        <time>2016-02-04T14:52:44Z</time>
      </trkpt>
      <trkpt lat="48.21144" lon="-3.08471">
        <ele>143</ele>
        <time>2016-02-04T14:52:47Z</time>
      </trkpt>
      <trkpt lat="48.21148" lon="-3.0847">
        <ele>143</ele>
        <time>2016-02-04T14:52:51Z</time>
      </trkpt>
      <trkpt lat="48.21153" lon="-3.08469">
        <ele>143</ele>
        <time>2016-02-04T14:52:54Z</time>
      </trkpt>
      <trkpt lat="48.21152" lon="-3.08471">
        <ele>143</ele>
        <time>2016-02-04T14:52:59Z</time>
      </trkpt>
      <trkpt lat="48.21151" lon="-3.08471">
        <ele>143</ele>
        <time>2016-02-04T14:53:04Z</time>
      </trkpt>
      <trkpt lat="48.21152" lon="-3.08469">
        <ele>142</ele>
        <time>2016-02-04T14:53:09Z</time>
      </trkpt>
      <trkpt lat="48.21154" lon="-3.08465">
        <ele>142</ele>
        <time>2016-02-04T14:53:13Z</time>
      </trkpt>
      <trkpt lat="48.21157" lon="-3.08464">
        <ele>142</ele>
        <time>2016-02-04T14:53:17Z</time>
      </trkpt>
      <trkpt lat="48.21159" lon="-3.08461">
        <ele>142</ele>
        <time>2016-02-04T14:53:21Z</time>
      </trkpt>
      <trkpt lat="48.21161" lon="-3.08463">
        <ele>142</ele>
        <time>2016-02-04T14:53:27Z</time>
      </trkpt>
      <trkpt lat="48.2116" lon="-3.08468">
        <ele>142</ele>
        <time>2016-02-04T14:53:31Z</time>
      </trkpt>
      <trkpt lat="48.21162" lon="-3.0847">
        <ele>142</ele>
        <time>2016-02-04T14:53:34Z</time>
      </trkpt>
      <trkpt lat="48.21163" lon="-3.08476">
        <ele>142</ele>
        <time>2016-02-04T14:53:39Z</time>
      </trkpt>
      <trkpt lat="48.21162" lon="-3.08478">
        <ele>142</ele>
        <time>2016-02-04T14:53:47Z</time>
      </trkpt>
      <trkpt lat="48.21161" lon="-3.08472">
        <ele>142</ele>
        <time>2016-02-04T14:53:52Z</time>
      </trkpt>
      <trkpt lat="48.21159" lon="-3.08468">
        <ele>142</ele>
        <time>2016-02-04T14:53:56Z</time>
      </trkpt>
      <trkpt lat="48.21158" lon="-3.08464">
        <ele>142</ele>
        <time>2016-02-04T14:53:59Z</time>
      </trkpt>
      <trkpt lat="48.21162" lon="-3.0846">
        <ele>142</ele>
        <time>2016-02-04T14:54:03Z</time>
      </trkpt>
      <trkpt lat="48.21165" lon="-3.0846">
        <ele>142</ele>
        <time>2016-02-04T14:54:06Z</time>
      </trkpt>
      <trkpt lat="48.2117" lon="-3.08461">
        <ele>142</ele>
        <time>2016-02-04T14:54:10Z</time>
      </trkpt>
      <trkpt lat="48.21174" lon="-3.08461">
        <ele>142</ele>
        <time>2016-02-04T14:54:14Z</time>
      </trkpt>
      <trkpt lat="48.21177" lon="-3.08461">
        <ele>142</ele>
        <time>2016-02-04T14:54:17Z</time>
      </trkpt>
      <trkpt lat="48.2118" lon="-3.08462">
        <ele>142</ele>
        <time>2016-02-04T14:54:20Z</time>
      </trkpt>
      <trkpt lat="48.21185" lon="-3.08463">
        <ele>142</ele>
        <time>2016-02-04T14:54:25Z</time>
      </trkpt>
      <trkpt lat="48.21188" lon="-3.08463">
        <ele>142</ele>
        <time>2016-02-04T14:54:29Z</time>
      </trkpt>
      <trkpt lat="48.21192" lon="-3.08463">
        <ele>142</ele>
        <time>2016-02-04T14:54:33Z</time>
      </trkpt>
      <trkpt lat="48.21196" lon="-3.08463">
        <ele>142</ele>
        <time>2016-02-04T14:54:37Z</time>
      </trkpt>
      <trkpt lat="48.21199" lon="-3.08462">
        <ele>142</ele>
        <time>2016-02-04T14:54:41Z</time>
      </trkpt>
      <trkpt lat="48.21203" lon="-3.08459">
        <ele>142</ele>
        <time>2016-02-04T14:54:45Z</time>
      </trkpt>
      <trkpt lat="48.21206" lon="-3.08457">
        <ele>142</ele>
        <time>2016-02-04T14:54:48Z</time>
      </trkpt>
      <trkpt lat="48.2121" lon="-3.08454">
        <ele>142</ele>
        <time>2016-02-04T14:54:52Z</time>
      </trkpt>
      <trkpt lat="48.21215" lon="-3.08451">
        <ele>142</ele>
        <time>2016-02-04T14:54:56Z</time>
      </trkpt>
      <trkpt lat="48.21218" lon="-3.08448">
        <ele>142</ele>
        <time>2016-02-04T14:55:00Z</time>
      </trkpt>
      <trkpt lat="48.21223" lon="-3.08444">
        <ele>142</ele>
        <time>2016-02-04T14:55:04Z</time>
      </trkpt>
      <trkpt lat="48.21226" lon="-3.0844">
        <ele>142</ele>
        <time>2016-02-04T14:55:08Z</time>
      </trkpt>
      <trkpt lat="48.2123" lon="-3.08435">
        <ele>142</ele>
        <time>2016-02-04T14:55:12Z</time>
      </trkpt>
      <trkpt lat="48.21233" lon="-3.08429">
        <ele>142</ele>
        <time>2016-02-04T14:55:16Z</time>
      </trkpt>
      <trkpt lat="48.21238" lon="-3.08425">
        <ele>142</ele>
        <time>2016-02-04T14:55:20Z</time>
      </trkpt>
      <trkpt lat="48.21242" lon="-3.0842">
        <ele>142</ele>
        <time>2016-02-04T14:55:24Z</time>
      </trkpt>
      <trkpt lat="48.21246" lon="-3.08414">
        <ele>142</ele>
        <time>2016-02-04T14:55:28Z</time>
      </trkpt>
      <trkpt lat="48.2125" lon="-3.08408">
        <ele>142</ele>
        <time>2016-02-04T14:55:32Z</time>
      </trkpt>
      <trkpt lat="48.21253" lon="-3.08403">
        <ele>142</ele>
        <time>2016-02-04T14:55:36Z</time>
      </trkpt>
      <trkpt lat="48.21256" lon="-3.08399">
        <ele>142</ele>
        <time>2016-02-04T14:55:40Z</time>
      </trkpt>
      <trkpt lat="48.21259" lon="-3.08394">
        <ele>142</ele>
        <time>2016-02-04T14:55:44Z</time>
      </trkpt>
      <trkpt lat="48.21262" lon="-3.08389">
        <ele>142</ele>
        <time>2016-02-04T14:55:48Z</time>
      </trkpt>
      <trkpt lat="48.21267" lon="-3.08385">
        <ele>142</ele>
        <time>2016-02-04T14:55:52Z</time>
      </trkpt>
      <trkpt lat="48.21269" lon="-3.08383">
        <ele>142</ele>
        <time>2016-02-04T14:55:55Z</time>
      </trkpt>
      <trkpt lat="48.21273" lon="-3.0838">
        <ele>143</ele>
        <time>2016-02-04T14:55:59Z</time>
      </trkpt>
      <trkpt lat="48.21277" lon="-3.08377">
        <ele>144</ele>
        <time>2016-02-04T14:56:03Z</time>
      </trkpt>
      <trkpt lat="48.21281" lon="-3.08374">
        <ele>144</ele>
        <time>2016-02-04T14:56:06Z</time>
      </trkpt>
      <trkpt lat="48.21285" lon="-3.0837">
        <ele>145</ele>
        <time>2016-02-04T14:56:10Z</time>
      </trkpt>
      <trkpt lat="48.21288" lon="-3.08368">
        <ele>145</ele>
        <time>2016-02-04T14:56:13Z</time>
      </trkpt>
      <trkpt lat="48.21292" lon="-3.08367">
        <ele>145</ele>
        <time>2016-02-04T14:56:16Z</time>
      </trkpt>
      <trkpt lat="48.21296" lon="-3.08366">
        <ele>145</ele>
        <time>2016-02-04T14:56:19Z</time>
      </trkpt>
      <trkpt lat="48.21301" lon="-3.08366">
        <ele>145</ele>
        <time>2016-02-04T14:56:22Z</time>
      </trkpt>
      <trkpt lat="48.21307" lon="-3.08366">
        <ele>145</ele>
        <time>2016-02-04T14:56:26Z</time>
      </trkpt>
      <trkpt lat="48.21312" lon="-3.08367">
        <ele>146</ele>
        <time>2016-02-04T14:56:29Z</time>
      </trkpt>
      <trkpt lat="48.21315" lon="-3.08368">
        <ele>146</ele>
        <time>2016-02-04T14:56:32Z</time>
      </trkpt>
      <trkpt lat="48.21318" lon="-3.0837">
        <ele>147</ele>
        <time>2016-02-04T14:56:36Z</time>
      </trkpt>
      <trkpt lat="48.21322" lon="-3.08374">
        <ele>147</ele>
        <time>2016-02-04T14:56:40Z</time>
      </trkpt>
      <trkpt lat="48.21325" lon="-3.08377">
        <ele>147</ele>
        <time>2016-02-04T14:56:43Z</time>
      </trkpt>
      <trkpt lat="48.21329" lon="-3.08383">
        <ele>148</ele>
        <time>2016-02-04T14:56:48Z</time>
      </trkpt>
      <trkpt lat="48.21333" lon="-3.0839">
        <ele>148</ele>
        <time>2016-02-04T14:56:52Z</time>
      </trkpt>
      <trkpt lat="48.21334" lon="-3.08395">
        <ele>149</ele>
        <time>2016-02-04T14:56:55Z</time>
      </trkpt>
      <trkpt lat="48.21335" lon="-3.08401">
        <ele>149</ele>
        <time>2016-02-04T14:56:58Z</time>
      </trkpt>
      <trkpt lat="48.21335" lon="-3.08407">
        <ele>149</ele>
        <time>2016-02-04T14:57:01Z</time>
      </trkpt>
      <trkpt lat="48.21335" lon="-3.08413">
        <ele>149</ele>
        <time>2016-02-04T14:57:04Z</time>
      </trkpt>
      <trkpt lat="48.21334" lon="-3.08418">
        <ele>149</ele>
        <time>2016-02-04T14:57:07Z</time>
      </trkpt>
      <trkpt lat="48.21333" lon="-3.08424">
        <ele>149</ele>
        <time>2016-02-04T14:57:10Z</time>
      </trkpt>
      <trkpt lat="48.21333" lon="-3.0843">
        <ele>149</ele>
        <time>2016-02-04T14:57:13Z</time>
      </trkpt>
      <trkpt lat="48.21332" lon="-3.08435">
        <ele>149</ele>
        <time>2016-02-04T14:57:16Z</time>
      </trkpt>
      <trkpt lat="48.21332" lon="-3.08441">
        <ele>149</ele>
        <time>2016-02-04T14:57:19Z</time>
      </trkpt>
      <trkpt lat="48.21331" lon="-3.08447">
        <ele>149</ele>
        <time>2016-02-04T14:57:23Z</time>
      </trkpt>
      <trkpt lat="48.21329" lon="-3.0845">
        <ele>149</ele>
        <time>2016-02-04T14:57:28Z</time>
      </trkpt>
      <trkpt lat="48.21327" lon="-3.08455">
        <ele>149</ele>
        <time>2016-02-04T14:57:32Z</time>
      </trkpt>
      <trkpt lat="48.21325" lon="-3.08462">
        <ele>149</ele>
        <time>2016-02-04T14:57:36Z</time>
      </trkpt>
      <trkpt lat="48.21323" lon="-3.08468">
        <ele>149</ele>
        <time>2016-02-04T14:57:40Z</time>
      </trkpt>
      <trkpt lat="48.21322" lon="-3.08473">
        <ele>149</ele>
        <time>2016-02-04T14:57:44Z</time>
      </trkpt>
      <trkpt lat="48.21321" lon="-3.08478">
        <ele>149</ele>
        <time>2016-02-04T14:57:48Z</time>
      </trkpt>
      <trkpt lat="48.21319" lon="-3.08485">
        <ele>149</ele>
        <time>2016-02-04T14:57:52Z</time>
      </trkpt>
      <trkpt lat="48.21317" lon="-3.0849">
        <ele>149</ele>
        <time>2016-02-04T14:57:56Z</time>
      </trkpt>
      <trkpt lat="48.21314" lon="-3.08495">
        <ele>149</ele>
        <time>2016-02-04T14:58:00Z</time>
      </trkpt>
      <trkpt lat="48.21311" lon="-3.08501">
        <ele>149</ele>
        <time>2016-02-04T14:58:04Z</time>
      </trkpt>
      <trkpt lat="48.21309" lon="-3.08505">
        <ele>149</ele>
        <time>2016-02-04T14:58:07Z</time>
      </trkpt>
      <trkpt lat="48.21306" lon="-3.0851">
        <ele>149</ele>
        <time>2016-02-04T14:58:11Z</time>
      </trkpt>
      <trkpt lat="48.21302" lon="-3.08516">
        <ele>149</ele>
        <time>2016-02-04T14:58:15Z</time>
      </trkpt>
      <trkpt lat="48.21299" lon="-3.08522">
        <ele>149</ele>
        <time>2016-02-04T14:58:19Z</time>
      </trkpt>
      <trkpt lat="48.21296" lon="-3.08527">
        <ele>149</ele>
        <time>2016-02-04T14:58:22Z</time>
      </trkpt>
      <trkpt lat="48.21293" lon="-3.08532">
        <ele>149</ele>
        <time>2016-02-04T14:58:26Z</time>
      </trkpt>
      <trkpt lat="48.21289" lon="-3.08538">
        <ele>149</ele>
        <time>2016-02-04T14:58:30Z</time>
      </trkpt>
      <trkpt lat="48.21286" lon="-3.08543">
        <ele>149</ele>
        <time>2016-02-04T14:58:34Z</time>
      </trkpt>
      <trkpt lat="48.21284" lon="-3.08548">
        <ele>149</ele>
        <time>2016-02-04T14:58:37Z</time>
      </trkpt>
      <trkpt lat="48.21281" lon="-3.08554">
        <ele>149</ele>
        <time>2016-02-04T14:58:41Z</time>
      </trkpt>
      <trkpt lat="48.21279" lon="-3.08558">
        <ele>149</ele>
        <time>2016-02-04T14:58:44Z</time>
      </trkpt>
      <trkpt lat="48.21277" lon="-3.08564">
        <ele>149</ele>
        <time>2016-02-04T14:58:48Z</time>
      </trkpt>
      <trkpt lat="48.21275" lon="-3.08569">
        <ele>149</ele>
        <time>2016-02-04T14:58:51Z</time>
      </trkpt>
      <trkpt lat="48.21273" lon="-3.08574">
        <ele>149</ele>
        <time>2016-02-04T14:58:54Z</time>
      </trkpt>
      <trkpt lat="48.21271" lon="-3.08579">
        <ele>149</ele>
        <time>2016-02-04T14:58:57Z</time>
      </trkpt>
      <trkpt lat="48.2127" lon="-3.08585">
        <ele>150</ele>
        <time>2016-02-04T14:59:00Z</time>
      </trkpt>
      <trkpt lat="48.21269" lon="-3.08591">
        <ele>150</ele>
        <time>2016-02-04T14:59:03Z</time>
      </trkpt>
      <trkpt lat="48.21268" lon="-3.08598">
        <ele>150</ele>
        <time>2016-02-04T14:59:07Z</time>
      </trkpt>
      <trkpt lat="48.21267" lon="-3.08604">
        <ele>151</ele>
        <time>2016-02-04T14:59:10Z</time>
      </trkpt>
      <trkpt lat="48.21265" lon="-3.0861">
        <ele>151</ele>
        <time>2016-02-04T14:59:14Z</time>
      </trkpt>
      <trkpt lat="48.21263" lon="-3.08617">
        <ele>151</ele>
        <time>2016-02-04T14:59:18Z</time>
      </trkpt>
      <trkpt lat="48.21261" lon="-3.08622">
        <ele>151</ele>
        <time>2016-02-04T14:59:22Z</time>
      </trkpt>
      <trkpt lat="48.21259" lon="-3.08627">
        <ele>151</ele>
        <time>2016-02-04T14:59:26Z</time>
      </trkpt>
      <trkpt lat="48.21257" lon="-3.08632">
        <ele>151</ele>
        <time>2016-02-04T14:59:30Z</time>
      </trkpt>
      <trkpt lat="48.21255" lon="-3.08638">
        <ele>151</ele>
        <time>2016-02-04T14:59:34Z</time>
      </trkpt>
      <trkpt lat="48.21252" lon="-3.08644">
        <ele>152</ele>
        <time>2016-02-04T14:59:38Z</time>
      </trkpt>
      <trkpt lat="48.2125" lon="-3.0865">
        <ele>152</ele>
        <time>2016-02-04T14:59:42Z</time>
      </trkpt>
      <trkpt lat="48.21249" lon="-3.08654">
        <ele>152</ele>
        <time>2016-02-04T14:59:45Z</time>
      </trkpt>
      <trkpt lat="48.21247" lon="-3.08659">
        <ele>152</ele>
        <time>2016-02-04T14:59:48Z</time>
      </trkpt>
      <trkpt lat="48.21245" lon="-3.08665">
        <ele>152</ele>
        <time>2016-02-04T14:59:52Z</time>
      </trkpt>
      <trkpt lat="48.21243" lon="-3.0867">
        <ele>153</ele>
        <time>2016-02-04T14:59:55Z</time>
      </trkpt>
      <trkpt lat="48.21241" lon="-3.08676">
        <ele>153</ele>
        <time>2016-02-04T14:59:59Z</time>
      </trkpt>
      <trkpt lat="48.2124" lon="-3.0868">
        <ele>153</ele>
        <time>2016-02-04T15:00:02Z</time>
      </trkpt>
      <trkpt lat="48.21238" lon="-3.08685">
        <ele>153</ele>
        <time>2016-02-04T15:00:08Z</time>
      </trkpt>
      <trkpt lat="48.21235" lon="-3.08691">
        <ele>153</ele>
        <time>2016-02-04T15:00:12Z</time>
      </trkpt>
      <trkpt lat="48.21232" lon="-3.08695">
        <ele>153</ele>
        <time>2016-02-04T15:00:16Z</time>
      </trkpt>
      <trkpt lat="48.2123" lon="-3.08699">
        <ele>153</ele>
        <time>2016-02-04T15:00:25Z</time>
      </trkpt>
      <trkpt lat="48.2123" lon="-3.08701">
        <ele>154</ele>
        <time>2016-02-04T15:00:32Z</time>
      </trkpt>
      <trkpt lat="48.21227" lon="-3.08706">
        <ele>154</ele>
        <time>2016-02-04T15:00:36Z</time>
      </trkpt>
      <trkpt lat="48.21223" lon="-3.08712">
        <ele>154</ele>
        <time>2016-02-04T15:00:40Z</time>
      </trkpt>
      <trkpt lat="48.2122" lon="-3.08717">
        <ele>154</ele>
        <time>2016-02-04T15:00:44Z</time>
      </trkpt>
      <trkpt lat="48.21217" lon="-3.08721">
        <ele>154</ele>
        <time>2016-02-04T15:00:47Z</time>
      </trkpt>
      <trkpt lat="48.21214" lon="-3.08724">
        <ele>154</ele>
        <time>2016-02-04T15:00:50Z</time>
      </trkpt>
      <trkpt lat="48.21213" lon="-3.0873">
        <ele>154</ele>
        <time>2016-02-04T15:00:54Z</time>
      </trkpt>
      <trkpt lat="48.21211" lon="-3.08734">
        <ele>154</ele>
        <time>2016-02-04T15:00:58Z</time>
      </trkpt>
      <trkpt lat="48.21207" lon="-3.08738">
        <ele>154</ele>
        <time>2016-02-04T15:01:02Z</time>
      </trkpt>
      <trkpt lat="48.21202" lon="-3.08741">
        <ele>154</ele>
        <time>2016-02-04T15:01:06Z</time>
      </trkpt>
      <trkpt lat="48.21199" lon="-3.08744">
        <ele>154</ele>
        <time>2016-02-04T15:01:10Z</time>
      </trkpt>
      <trkpt lat="48.21196" lon="-3.08747">
        <ele>153</ele>
        <time>2016-02-04T15:01:14Z</time>
      </trkpt>
      <trkpt lat="48.21193" lon="-3.08751">
        <ele>152</ele>
        <time>2016-02-04T15:01:17Z</time>
      </trkpt>
      <trkpt lat="48.21191" lon="-3.08755">
        <ele>151</ele>
        <time>2016-02-04T15:01:21Z</time>
      </trkpt>
      <trkpt lat="48.2119" lon="-3.08759">
        <ele>151</ele>
        <time>2016-02-04T15:01:43Z</time>
      </trkpt>
      <trkpt lat="48.2119" lon="-3.08759">
        <ele>151</ele>
        <time>2016-02-04T15:01:48Z</time>
      </trkpt>
      <trkpt lat="48.2119" lon="-3.08762">
        <ele>151</ele>
        <time>2016-02-04T15:01:51Z</time>
      </trkpt>
      <trkpt lat="48.2119" lon="-3.08765">
        <ele>151</ele>
        <time>2016-02-04T15:01:55Z</time>
      </trkpt>
      <trkpt lat="48.2119" lon="-3.08767">
        <ele>151</ele>
        <time>2016-02-04T15:01:59Z</time>
      </trkpt>
      <trkpt lat="48.21188" lon="-3.08768">
        <ele>151</ele>
        <time>2016-02-04T15:02:02Z</time>
      </trkpt>
      <trkpt lat="48.21188" lon="-3.08766">
        <ele>150</ele>
        <time>2016-02-04T15:02:05Z</time>
      </trkpt>
      <trkpt lat="48.2119" lon="-3.08762">
        <ele>149</ele>
        <time>2016-02-04T15:02:08Z</time>
      </trkpt>
      <trkpt lat="48.21191" lon="-3.08758">
        <ele>148</ele>
        <time>2016-02-04T15:02:12Z</time>
      </trkpt>
      <trkpt lat="48.21191" lon="-3.08753">
        <ele>147</ele>
        <time>2016-02-04T15:02:15Z</time>
      </trkpt>
      <trkpt lat="48.21195" lon="-3.08748">
        <ele>146</ele>
        <time>2016-02-04T15:02:19Z</time>
      </trkpt>
      <trkpt lat="48.21198" lon="-3.08745">
        <ele>146</ele>
        <time>2016-02-04T15:02:22Z</time>
      </trkpt>
      <trkpt lat="48.21201" lon="-3.08743">
        <ele>146</ele>
        <time>2016-02-04T15:02:25Z</time>
      </trkpt>
      <trkpt lat="48.21204" lon="-3.0874">
        <ele>146</ele>
        <time>2016-02-04T15:02:28Z</time>
      </trkpt>
      <trkpt lat="48.21207" lon="-3.08737">
        <ele>146</ele>
        <time>2016-02-04T15:02:32Z</time>
      </trkpt>
      <trkpt lat="48.2121" lon="-3.08732">
        <ele>146</ele>
        <time>2016-02-04T15:02:35Z</time>
      </trkpt>
      <trkpt lat="48.21214" lon="-3.08727">
        <ele>146</ele>
        <time>2016-02-04T15:02:38Z</time>
      </trkpt>
      <trkpt lat="48.21217" lon="-3.08722">
        <ele>146</ele>
        <time>2016-02-04T15:02:42Z</time>
      </trkpt>
      <trkpt lat="48.21221" lon="-3.08718">
        <ele>146</ele>
        <time>2016-02-04T15:02:45Z</time>
      </trkpt>
      <trkpt lat="48.21224" lon="-3.08713">
        <ele>146</ele>
        <time>2016-02-04T15:02:49Z</time>
      </trkpt>
      <trkpt lat="48.21226" lon="-3.08708">
        <ele>146</ele>
        <time>2016-02-04T15:02:52Z</time>
      </trkpt>
      <trkpt lat="48.2123" lon="-3.08702">
        <ele>146</ele>
        <time>2016-02-04T15:02:56Z</time>
      </trkpt>
      <trkpt lat="48.21233" lon="-3.08696">
        <ele>146</ele>
        <time>2016-02-04T15:03:00Z</time>
      </trkpt>
      <trkpt lat="48.21237" lon="-3.08694">
        <ele>146</ele>
        <time>2016-02-04T15:03:04Z</time>
      </trkpt>
      <trkpt lat="48.21237" lon="-3.08696">
        <ele>148</ele>
        <time>2016-02-04T15:03:18Z</time>
      </trkpt>
      <trkpt lat="48.21236" lon="-3.08702">
        <ele>148</ele>
        <time>2016-02-04T15:03:22Z</time>
      </trkpt>
      <trkpt lat="48.21236" lon="-3.08707">
        <ele>148</ele>
        <time>2016-02-04T15:03:25Z</time>
      </trkpt>
      <trkpt lat="48.21235" lon="-3.08712">
        <ele>149</ele>
        <time>2016-02-04T15:03:28Z</time>
      </trkpt>
      <trkpt lat="48.21232" lon="-3.08716">
        <ele>150</ele>
        <time>2016-02-04T15:03:32Z</time>
      </trkpt>
      <trkpt lat="48.21233" lon="-3.08714">
        <ele>150</ele>
        <time>2016-02-04T15:03:36Z</time>
      </trkpt>
      <trkpt lat="48.21231" lon="-3.08714">
        <ele>150</ele>
        <time>2016-02-04T15:03:42Z</time>
      </trkpt>
      <trkpt lat="48.2123" lon="-3.08713">
        <ele>150</ele>
        <time>2016-02-04T15:03:45Z</time>
      </trkpt>
      <trkpt lat="48.21229" lon="-3.08713">
        <ele>150</ele>
        <time>2016-02-04T15:03:50Z</time>
      </trkpt>
      <trkpt lat="48.21228" lon="-3.08713">
        <ele>151</ele>
        <time>2016-02-04T15:03:59Z</time>
      </trkpt>
      <trkpt lat="48.21231" lon="-3.08713">
        <ele>151</ele>
        <time>2016-02-04T15:04:03Z</time>
      </trkpt>
      <trkpt lat="48.21231" lon="-3.08711">
        <ele>151</ele>
        <time>2016-02-04T15:04:06Z</time>
      </trkpt>
      <trkpt lat="48.21234" lon="-3.08708">
        <ele>152</ele>
        <time>2016-02-04T15:04:10Z</time>
      </trkpt>
      <trkpt lat="48.21236" lon="-3.0871">
        <ele>153</ele>
        <time>2016-02-04T15:04:16Z</time>
      </trkpt>
      <trkpt lat="48.21237" lon="-3.08717">
        <ele>153</ele>
        <time>2016-02-04T15:04:20Z</time>
      </trkpt>
      <trkpt lat="48.21237" lon="-3.08718">
        <ele>153</ele>
        <time>2016-02-04T15:04:23Z</time>
      </trkpt>
      <trkpt lat="48.21236" lon="-3.08717">
        <ele>153</ele>
        <time>2016-02-04T15:04:26Z</time>
      </trkpt>
      <trkpt lat="48.21237" lon="-3.08712">
        <ele>153</ele>
        <time>2016-02-04T15:04:30Z</time>
      </trkpt>
      <trkpt lat="48.21237" lon="-3.08706">
        <ele>153</ele>
        <time>2016-02-04T15:04:34Z</time>
      </trkpt>
      <trkpt lat="48.21237" lon="-3.08701">
        <ele>153</ele>
        <time>2016-02-04T15:04:38Z</time>
      </trkpt>
      <trkpt lat="48.21237" lon="-3.08696">
        <ele>153</ele>
        <time>2016-02-04T15:04:42Z</time>
      </trkpt>
      <trkpt lat="48.21239" lon="-3.08692">
        <ele>153</ele>
        <time>2016-02-04T15:04:46Z</time>
      </trkpt>
      <trkpt lat="48.21239" lon="-3.08686">
        <ele>153</ele>
        <time>2016-02-04T15:04:49Z</time>
      </trkpt>
      <trkpt lat="48.21238" lon="-3.0868">
        <ele>153</ele>
        <time>2016-02-04T15:04:53Z</time>
      </trkpt>
      <trkpt lat="48.21236" lon="-3.08678">
        <ele>153</ele>
        <time>2016-02-04T15:04:57Z</time>
      </trkpt>
      <trkpt lat="48.21237" lon="-3.08677">
        <ele>153</ele>
        <time>2016-02-04T15:05:02Z</time>
      </trkpt>
      <trkpt lat="48.21239" lon="-3.0868">
        <ele>153</ele>
        <time>2016-02-04T15:05:06Z</time>
      </trkpt>
      <trkpt lat="48.2124" lon="-3.08683">
        <ele>153</ele>
        <time>2016-02-04T15:05:10Z</time>
      </trkpt>
      <trkpt lat="48.21239" lon="-3.08686">
        <ele>153</ele>
        <time>2016-02-04T15:05:22Z</time>
      </trkpt>
      <trkpt lat="48.2124" lon="-3.08691">
        <ele>153</ele>
        <time>2016-02-04T15:05:25Z</time>
      </trkpt>
      <trkpt lat="48.21243" lon="-3.08697">
        <ele>153</ele>
        <time>2016-02-04T15:05:29Z</time>
      </trkpt>
      <trkpt lat="48.21247" lon="-3.08703">
        <ele>153</ele>
        <time>2016-02-04T15:05:33Z</time>
      </trkpt>
      <trkpt lat="48.2125" lon="-3.08706">
        <ele>153</ele>
        <time>2016-02-04T15:05:37Z</time>
      </trkpt>
      <trkpt lat="48.21252" lon="-3.08711">
        <ele>153</ele>
        <time>2016-02-04T15:05:41Z</time>
      </trkpt>
      <trkpt lat="48.21256" lon="-3.08716">
        <ele>153</ele>
        <time>2016-02-04T15:05:45Z</time>
      </trkpt>
      <trkpt lat="48.21258" lon="-3.08721">
        <ele>153</ele>
        <time>2016-02-04T15:05:48Z</time>
      </trkpt>
      <trkpt lat="48.2126" lon="-3.08725">
        <ele>153</ele>
        <time>2016-02-04T15:05:52Z</time>
      </trkpt>
      <trkpt lat="48.2126" lon="-3.08731">
        <ele>153</ele>
        <time>2016-02-04T15:05:55Z</time>
      </trkpt>
      <trkpt lat="48.21262" lon="-3.08737">
        <ele>153</ele>
        <time>2016-02-04T15:05:59Z</time>
      </trkpt>
      <trkpt lat="48.21263" lon="-3.08742">
        <ele>153</ele>
        <time>2016-02-04T15:06:02Z</time>
      </trkpt>
      <trkpt lat="48.21264" lon="-3.08749">
        <ele>152</ele>
        <time>2016-02-04T15:06:06Z</time>
      </trkpt>
      <trkpt lat="48.21264" lon="-3.08754">
        <ele>152</ele>
        <time>2016-02-04T15:06:09Z</time>
      </trkpt>
      <trkpt lat="48.21265" lon="-3.08759">
        <ele>152</ele>
        <time>2016-02-04T15:06:12Z</time>
      </trkpt>
      <trkpt lat="48.21265" lon="-3.08764">
        <ele>151</ele>
        <time>2016-02-04T15:06:15Z</time>
      </trkpt>
      <trkpt lat="48.21266" lon="-3.08769">
        <ele>150</ele>
        <time>2016-02-04T15:06:18Z</time>
      </trkpt>
      <trkpt lat="48.21267" lon="-3.08775">
        <ele>150</ele>
        <time>2016-02-04T15:06:21Z</time>
      </trkpt>
      <trkpt lat="48.21267" lon="-3.0878">
        <ele>149</ele>
        <time>2016-02-04T15:06:26Z</time>
      </trkpt>
      <trkpt lat="48.21268" lon="-3.08785">
        <ele>149</ele>
        <time>2016-02-04T15:06:29Z</time>
      </trkpt>
      <trkpt lat="48.2127" lon="-3.0879">
        <ele>148</ele>
        <time>2016-02-04T15:06:33Z</time>
      </trkpt>
      <trkpt lat="48.21274" lon="-3.08796">
        <ele>147</ele>
        <time>2016-02-04T15:06:37Z</time>
      </trkpt>
      <trkpt lat="48.21276" lon="-3.08801">
        <ele>147</ele>
        <time>2016-02-04T15:06:40Z</time>
      </trkpt>
      <trkpt lat="48.21277" lon="-3.08806">
        <ele>146</ele>
        <time>2016-02-04T15:06:43Z</time>
      </trkpt>
      <trkpt lat="48.21278" lon="-3.08811">
        <ele>145</ele>
        <time>2016-02-04T15:06:46Z</time>
      </trkpt>
      <trkpt lat="48.21279" lon="-3.08817">
        <ele>144</ele>
        <time>2016-02-04T15:06:49Z</time>
      </trkpt>
      <trkpt lat="48.2128" lon="-3.08822">
        <ele>143</ele>
        <time>2016-02-04T15:06:52Z</time>
      </trkpt>
      <trkpt lat="48.2128" lon="-3.08827">
        <ele>143</ele>
        <time>2016-02-04T15:06:55Z</time>
      </trkpt>
      <trkpt lat="48.2128" lon="-3.08832">
        <ele>142</ele>
        <time>2016-02-04T15:06:58Z</time>
      </trkpt>
      <trkpt lat="48.21279" lon="-3.08838">
        <ele>141</ele>
        <time>2016-02-04T15:07:01Z</time>
      </trkpt>
      <trkpt lat="48.21279" lon="-3.08842">
        <ele>140</ele>
        <time>2016-02-04T15:07:04Z</time>
      </trkpt>
      <trkpt lat="48.21279" lon="-3.08848">
        <ele>140</ele>
        <time>2016-02-04T15:07:08Z</time>
      </trkpt>
      <trkpt lat="48.21278" lon="-3.08853">
        <ele>139</ele>
        <time>2016-02-04T15:07:11Z</time>
      </trkpt>
      <trkpt lat="48.21278" lon="-3.08859">
        <ele>139</ele>
        <time>2016-02-04T15:07:14Z</time>
      </trkpt>
      <trkpt lat="48.21278" lon="-3.08864">
        <ele>139</ele>
        <time>2016-02-04T15:07:17Z</time>
      </trkpt>
      <trkpt lat="48.21278" lon="-3.0887">
        <ele>139</ele>
        <time>2016-02-04T15:07:20Z</time>
      </trkpt>
      <trkpt lat="48.21278" lon="-3.08875">
        <ele>139</ele>
        <time>2016-02-04T15:07:23Z</time>
      </trkpt>
      <trkpt lat="48.21278" lon="-3.08881">
        <ele>139</ele>
        <time>2016-02-04T15:07:26Z</time>
      </trkpt>
      <trkpt lat="48.21279" lon="-3.08886">
        <ele>139</ele>
        <time>2016-02-04T15:07:29Z</time>
      </trkpt>
      <trkpt lat="48.21281" lon="-3.0889">
        <ele>139</ele>
        <time>2016-02-04T15:07:32Z</time>
      </trkpt>
      <trkpt lat="48.21281" lon="-3.08896">
        <ele>138</ele>
        <time>2016-02-04T15:07:35Z</time>
      </trkpt>
      <trkpt lat="48.21281" lon="-3.08901">
        <ele>138</ele>
        <time>2016-02-04T15:07:38Z</time>
      </trkpt>
      <trkpt lat="48.21282" lon="-3.08906">
        <ele>137</ele>
        <time>2016-02-04T15:07:41Z</time>
      </trkpt>
      <trkpt lat="48.21283" lon="-3.08911">
        <ele>137</ele>
        <time>2016-02-04T15:07:44Z</time>
      </trkpt>
      <trkpt lat="48.21284" lon="-3.08917">
        <ele>136</ele>
        <time>2016-02-04T15:07:47Z</time>
      </trkpt>
      <trkpt lat="48.21285" lon="-3.08922">
        <ele>136</ele>
        <time>2016-02-04T15:07:50Z</time>
      </trkpt>
      <trkpt lat="48.21286" lon="-3.08928">
        <ele>136</ele>
        <time>2016-02-04T15:07:54Z</time>
      </trkpt>
      <trkpt lat="48.21288" lon="-3.08934">
        <ele>135</ele>
        <time>2016-02-04T15:07:58Z</time>
      </trkpt>
      <trkpt lat="48.21289" lon="-3.08939">
        <ele>135</ele>
        <time>2016-02-04T15:08:01Z</time>
      </trkpt>
      <trkpt lat="48.2129" lon="-3.08945">
        <ele>135</ele>
        <time>2016-02-04T15:08:04Z</time>
      </trkpt>
      <trkpt lat="48.21291" lon="-3.08951">
        <ele>135</ele>
        <time>2016-02-04T15:08:07Z</time>
      </trkpt>
      <trkpt lat="48.21292" lon="-3.08957">
        <ele>135</ele>
        <time>2016-02-04T15:08:10Z</time>
      </trkpt>
      <trkpt lat="48.21292" lon="-3.08963">
        <ele>135</ele>
        <time>2016-02-04T15:08:13Z</time>
      </trkpt>
      <trkpt lat="48.21292" lon="-3.0897">
        <ele>135</ele>
        <time>2016-02-04T15:08:16Z</time>
      </trkpt>
      <trkpt lat="48.21293" lon="-3.08976">
        <ele>135</ele>
        <time>2016-02-04T15:08:19Z</time>
      </trkpt>
      <trkpt lat="48.21293" lon="-3.08982">
        <ele>135</ele>
        <time>2016-02-04T15:08:22Z</time>
      </trkpt>
      <trkpt lat="48.21295" lon="-3.08988">
        <ele>135</ele>
        <time>2016-02-04T15:08:25Z</time>
      </trkpt>
      <trkpt lat="48.21295" lon="-3.08994">
        <ele>135</ele>
        <time>2016-02-04T15:08:28Z</time>
      </trkpt>
      <trkpt lat="48.21296" lon="-3.08999">
        <ele>135</ele>
        <time>2016-02-04T15:08:31Z</time>
      </trkpt>
      <trkpt lat="48.21296" lon="-3.09005">
        <ele>135</ele>
        <time>2016-02-04T15:08:34Z</time>
      </trkpt>
      <trkpt lat="48.21297" lon="-3.09011">
        <ele>135</ele>
        <time>2016-02-04T15:08:37Z</time>
      </trkpt>
      <trkpt lat="48.21297" lon="-3.09017">
        <ele>135</ele>
        <time>2016-02-04T15:08:40Z</time>
      </trkpt>
      <trkpt lat="48.21296" lon="-3.09024">
        <ele>135</ele>
        <time>2016-02-04T15:08:44Z</time>
      </trkpt>
      <trkpt lat="48.21296" lon="-3.0903">
        <ele>136</ele>
        <time>2016-02-04T15:08:47Z</time>
      </trkpt>
      <trkpt lat="48.21295" lon="-3.09035">
        <ele>137</ele>
        <time>2016-02-04T15:08:50Z</time>
      </trkpt>
      <trkpt lat="48.21296" lon="-3.09041">
        <ele>138</ele>
        <time>2016-02-04T15:08:53Z</time>
      </trkpt>
      <trkpt lat="48.21295" lon="-3.09047">
        <ele>139</ele>
        <time>2016-02-04T15:08:56Z</time>
      </trkpt>
      <trkpt lat="48.21297" lon="-3.09053">
        <ele>140</ele>
        <time>2016-02-04T15:08:59Z</time>
      </trkpt>
      <trkpt lat="48.21299" lon="-3.09061">
        <ele>141</ele>
        <time>2016-02-04T15:09:02Z</time>
      </trkpt>
      <trkpt lat="48.21299" lon="-3.09068">
        <ele>141</ele>
        <time>2016-02-04T15:09:05Z</time>
      </trkpt>
      <trkpt lat="48.21299" lon="-3.09073">
        <ele>141</ele>
        <time>2016-02-04T15:09:08Z</time>
      </trkpt>
      <trkpt lat="48.21299" lon="-3.09079">
        <ele>141</ele>
        <time>2016-02-04T15:09:11Z</time>
      </trkpt>
      <trkpt lat="48.213" lon="-3.09085">
        <ele>141</ele>
        <time>2016-02-04T15:09:14Z</time>
      </trkpt>
      <trkpt lat="48.21301" lon="-3.09091">
        <ele>141</ele>
        <time>2016-02-04T15:09:18Z</time>
      </trkpt>
      <trkpt lat="48.21301" lon="-3.09097">
        <ele>141</ele>
        <time>2016-02-04T15:09:21Z</time>
      </trkpt>
      <trkpt lat="48.21299" lon="-3.09102">
        <ele>141</ele>
        <time>2016-02-04T15:09:25Z</time>
      </trkpt>
      <trkpt lat="48.21298" lon="-3.09104">
        <ele>141</ele>
        <time>2016-02-04T15:09:30Z</time>
      </trkpt>
      <trkpt lat="48.21295" lon="-3.09107">
        <ele>141</ele>
        <time>2016-02-04T15:09:34Z</time>
      </trkpt>
      <trkpt lat="48.21291" lon="-3.09108">
        <ele>141</ele>
        <time>2016-02-04T15:09:37Z</time>
      </trkpt>
      <trkpt lat="48.21288" lon="-3.09109">
        <ele>141</ele>
        <time>2016-02-04T15:09:40Z</time>
      </trkpt>
      <trkpt lat="48.21284" lon="-3.09114">
        <ele>141</ele>
        <time>2016-02-04T15:09:44Z</time>
      </trkpt>
      <trkpt lat="48.21281" lon="-3.09119">
        <ele>141</ele>
        <time>2016-02-04T15:09:47Z</time>
      </trkpt>
      <trkpt lat="48.21281" lon="-3.09124">
        <ele>141</ele>
        <time>2016-02-04T15:09:51Z</time>
      </trkpt>
      <trkpt lat="48.21284" lon="-3.09129">
        <ele>139</ele>
        <time>2016-02-04T15:09:55Z</time>
      </trkpt>
      <trkpt lat="48.21287" lon="-3.09134">
        <ele>139</ele>
        <time>2016-02-04T15:09:59Z</time>
      </trkpt>
      <trkpt lat="48.21291" lon="-3.09138">
        <ele>139</ele>
        <time>2016-02-04T15:10:03Z</time>
      </trkpt>
      <trkpt lat="48.21294" lon="-3.09142">
        <ele>139</ele>
        <time>2016-02-04T15:10:06Z</time>
      </trkpt>
      <trkpt lat="48.21296" lon="-3.09146">
        <ele>139</ele>
        <time>2016-02-04T15:10:09Z</time>
      </trkpt>
      <trkpt lat="48.213" lon="-3.0915">
        <ele>139</ele>
        <time>2016-02-04T15:10:12Z</time>
      </trkpt>
      <trkpt lat="48.21302" lon="-3.09152">
        <ele>139</ele>
        <time>2016-02-04T15:10:15Z</time>
      </trkpt>
      <trkpt lat="48.21305" lon="-3.09157">
        <ele>139</ele>
        <time>2016-02-04T15:10:19Z</time>
      </trkpt>
      <trkpt lat="48.21309" lon="-3.09162">
        <ele>139</ele>
        <time>2016-02-04T15:10:23Z</time>
      </trkpt>
      <trkpt lat="48.21314" lon="-3.09165">
        <ele>139</ele>
        <time>2016-02-04T15:10:26Z</time>
      </trkpt>
      <trkpt lat="48.21317" lon="-3.0917">
        <ele>140</ele>
        <time>2016-02-04T15:10:30Z</time>
      </trkpt>
      <trkpt lat="48.21322" lon="-3.09173">
        <ele>140</ele>
        <time>2016-02-04T15:10:33Z</time>
      </trkpt>
      <trkpt lat="48.21325" lon="-3.09177">
        <ele>142</ele>
        <time>2016-02-04T15:10:36Z</time>
      </trkpt>
      <trkpt lat="48.21328" lon="-3.09182">
        <ele>143</ele>
        <time>2016-02-04T15:10:40Z</time>
      </trkpt>
      <trkpt lat="48.21332" lon="-3.09186">
        <ele>143</ele>
        <time>2016-02-04T15:10:43Z</time>
      </trkpt>
      <trkpt lat="48.21336" lon="-3.09189">
        <ele>144</ele>
        <time>2016-02-04T15:10:46Z</time>
      </trkpt>
      <trkpt lat="48.2134" lon="-3.09196">
        <ele>145</ele>
        <time>2016-02-04T15:10:50Z</time>
      </trkpt>
      <trkpt lat="48.21342" lon="-3.09202">
        <ele>145</ele>
        <time>2016-02-04T15:10:54Z</time>
      </trkpt>
      <trkpt lat="48.21344" lon="-3.09208">
        <ele>145</ele>
        <time>2016-02-04T15:10:58Z</time>
      </trkpt>
      <trkpt lat="48.21347" lon="-3.09213">
        <ele>145</ele>
        <time>2016-02-04T15:11:01Z</time>
      </trkpt>
      <trkpt lat="48.21348" lon="-3.0922">
        <ele>145</ele>
        <time>2016-02-04T15:11:05Z</time>
      </trkpt>
      <trkpt lat="48.2135" lon="-3.09226">
        <ele>145</ele>
        <time>2016-02-04T15:11:08Z</time>
      </trkpt>
      <trkpt lat="48.21355" lon="-3.09231">
        <ele>145</ele>
        <time>2016-02-04T15:11:11Z</time>
      </trkpt>
      <trkpt lat="48.21358" lon="-3.09238">
        <ele>145</ele>
        <time>2016-02-04T15:11:15Z</time>
      </trkpt>
      <trkpt lat="48.21362" lon="-3.09244">
        <ele>147</ele>
        <time>2016-02-04T15:11:18Z</time>
      </trkpt>
      <trkpt lat="48.21362" lon="-3.09249">
        <ele>149</ele>
        <time>2016-02-04T15:11:22Z</time>
      </trkpt>
      <trkpt lat="48.21363" lon="-3.09255">
        <ele>149</ele>
        <time>2016-02-04T15:11:25Z</time>
      </trkpt>
      <trkpt lat="48.21362" lon="-3.09262">
        <ele>150</ele>
        <time>2016-02-04T15:11:28Z</time>
      </trkpt>
      <trkpt lat="48.21363" lon="-3.09268">
        <ele>151</ele>
        <time>2016-02-04T15:11:31Z</time>
      </trkpt>
      <trkpt lat="48.21363" lon="-3.09274">
        <ele>153</ele>
        <time>2016-02-04T15:11:34Z</time>
      </trkpt>
      <trkpt lat="48.21362" lon="-3.09282">
        <ele>153</ele>
        <time>2016-02-04T15:11:37Z</time>
      </trkpt>
      <trkpt lat="48.21363" lon="-3.09288">
        <ele>154</ele>
        <time>2016-02-04T15:11:40Z</time>
      </trkpt>
      <trkpt lat="48.21366" lon="-3.09292">
        <ele>154</ele>
        <time>2016-02-04T15:11:43Z</time>
      </trkpt>
      <trkpt lat="48.21366" lon="-3.09296">
        <ele>154</ele>
        <time>2016-02-04T15:11:46Z</time>
      </trkpt>
      <trkpt lat="48.21368" lon="-3.09303">
        <ele>154</ele>
        <time>2016-02-04T15:11:49Z</time>
      </trkpt>
      <trkpt lat="48.21368" lon="-3.09309">
        <ele>154</ele>
        <time>2016-02-04T15:11:52Z</time>
      </trkpt>
      <trkpt lat="48.21367" lon="-3.09313">
        <ele>154</ele>
        <time>2016-02-04T15:11:55Z</time>
      </trkpt>
      <trkpt lat="48.21367" lon="-3.09318">
        <ele>154</ele>
        <time>2016-02-04T15:11:58Z</time>
      </trkpt>
      <trkpt lat="48.21369" lon="-3.09322">
        <ele>154</ele>
        <time>2016-02-04T15:12:01Z</time>
      </trkpt>
      <trkpt lat="48.21368" lon="-3.09328">
        <ele>154</ele>
        <time>2016-02-04T15:12:04Z</time>
      </trkpt>
      <trkpt lat="48.21369" lon="-3.09334">
        <ele>154</ele>
        <time>2016-02-04T15:12:07Z</time>
      </trkpt>
      <trkpt lat="48.21367" lon="-3.09339">
        <ele>154</ele>
        <time>2016-02-04T15:12:10Z</time>
      </trkpt>
      <trkpt lat="48.21368" lon="-3.09345">
        <ele>154</ele>
        <time>2016-02-04T15:12:13Z</time>
      </trkpt>
      <trkpt lat="48.21368" lon="-3.09351">
        <ele>154</ele>
        <time>2016-02-04T15:12:17Z</time>
      </trkpt>
      <trkpt lat="48.21368" lon="-3.09356">
        <ele>154</ele>
        <time>2016-02-04T15:12:20Z</time>
      </trkpt>
      <trkpt lat="48.21366" lon="-3.09362">
        <ele>154</ele>
        <time>2016-02-04T15:12:24Z</time>
      </trkpt>
      <trkpt lat="48.21367" lon="-3.09366">
        <ele>154</ele>
        <time>2016-02-04T15:12:27Z</time>
      </trkpt>
      <trkpt lat="48.21367" lon="-3.09371">
        <ele>155</ele>
        <time>2016-02-04T15:12:30Z</time>
      </trkpt>
      <trkpt lat="48.21368" lon="-3.09377">
        <ele>155</ele>
        <time>2016-02-04T15:12:33Z</time>
      </trkpt>
      <trkpt lat="48.21368" lon="-3.09383">
        <ele>155</ele>
        <time>2016-02-04T15:12:36Z</time>
      </trkpt>
      <trkpt lat="48.2137" lon="-3.09388">
        <ele>155</ele>
        <time>2016-02-04T15:12:39Z</time>
      </trkpt>
      <trkpt lat="48.2137" lon="-3.09394">
        <ele>155</ele>
        <time>2016-02-04T15:12:42Z</time>
      </trkpt>
      <trkpt lat="48.2137" lon="-3.09398">
        <ele>155</ele>
        <time>2016-02-04T15:12:45Z</time>
      </trkpt>
      <trkpt lat="48.21373" lon="-3.09405">
        <ele>155</ele>
        <time>2016-02-04T15:12:48Z</time>
      </trkpt>
      <trkpt lat="48.21373" lon="-3.09412">
        <ele>155</ele>
        <time>2016-02-04T15:12:51Z</time>
      </trkpt>
      <trkpt lat="48.21373" lon="-3.09419">
        <ele>155</ele>
        <time>2016-02-04T15:12:54Z</time>
      </trkpt>
      <trkpt lat="48.21373" lon="-3.09426">
        <ele>156</ele>
        <time>2016-02-04T15:12:57Z</time>
      </trkpt>
      <trkpt lat="48.21374" lon="-3.09432">
        <ele>157</ele>
        <time>2016-02-04T15:13:00Z</time>
      </trkpt>
      <trkpt lat="48.21376" lon="-3.09437">
        <ele>159</ele>
        <time>2016-02-04T15:13:04Z</time>
      </trkpt>
      <trkpt lat="48.21376" lon="-3.09441">
        <ele>159</ele>
        <time>2016-02-04T15:13:08Z</time>
      </trkpt>
      <trkpt lat="48.21375" lon="-3.09445">
        <ele>159</ele>
        <time>2016-02-04T15:13:12Z</time>
      </trkpt>
      <trkpt lat="48.21373" lon="-3.0945">
        <ele>159</ele>
        <time>2016-02-04T15:13:15Z</time>
      </trkpt>
      <trkpt lat="48.21371" lon="-3.09454">
        <ele>159</ele>
        <time>2016-02-04T15:13:18Z</time>
      </trkpt>
      <trkpt lat="48.2137" lon="-3.09458">
        <ele>159</ele>
        <time>2016-02-04T15:13:21Z</time>
      </trkpt>
      <trkpt lat="48.21368" lon="-3.09462">
        <ele>159</ele>
        <time>2016-02-04T15:13:25Z</time>
      </trkpt>
      <trkpt lat="48.2137" lon="-3.09467">
        <ele>159</ele>
        <time>2016-02-04T15:13:29Z</time>
      </trkpt>
      <trkpt lat="48.2137" lon="-3.09471">
        <ele>159</ele>
        <time>2016-02-04T15:13:32Z</time>
      </trkpt>
      <trkpt lat="48.21369" lon="-3.09472">
        <ele>159</ele>
        <time>2016-02-04T15:13:37Z</time>
      </trkpt>
      <trkpt lat="48.2137" lon="-3.09474">
        <ele>158</ele>
        <time>2016-02-04T15:13:41Z</time>
      </trkpt>
      <trkpt lat="48.2137" lon="-3.0948">
        <ele>158</ele>
        <time>2016-02-04T15:13:45Z</time>
      </trkpt>
      <trkpt lat="48.2137" lon="-3.09485">
        <ele>157</ele>
        <time>2016-02-04T15:13:48Z</time>
      </trkpt>
      <trkpt lat="48.21372" lon="-3.09493">
        <ele>157</ele>
        <time>2016-02-04T15:13:51Z</time>
      </trkpt>
      <trkpt lat="48.21371" lon="-3.09498">
        <ele>157</ele>
        <time>2016-02-04T15:13:54Z</time>
      </trkpt>
      <trkpt lat="48.2137" lon="-3.09504">
        <ele>157</ele>
        <time>2016-02-04T15:13:58Z</time>
      </trkpt>
      <trkpt lat="48.21368" lon="-3.09508">
        <ele>157</ele>
        <time>2016-02-04T15:14:01Z</time>
      </trkpt>
      <trkpt lat="48.21365" lon="-3.09513">
        <ele>157</ele>
        <time>2016-02-04T15:14:04Z</time>
      </trkpt>
      <trkpt lat="48.21365" lon="-3.09518">
        <ele>159</ele>
        <time>2016-02-04T15:14:08Z</time>
      </trkpt>
      <trkpt lat="48.21365" lon="-3.09525">
        <ele>160</ele>
        <time>2016-02-04T15:14:11Z</time>
      </trkpt>
      <trkpt lat="48.21366" lon="-3.09532">
        <ele>160</ele>
        <time>2016-02-04T15:14:14Z</time>
      </trkpt>
      <trkpt lat="48.21367" lon="-3.09536">
        <ele>160</ele>
        <time>2016-02-04T15:14:17Z</time>
      </trkpt>
      <trkpt lat="48.21366" lon="-3.09542">
        <ele>161</ele>
        <time>2016-02-04T15:14:20Z</time>
      </trkpt>
      <trkpt lat="48.21365" lon="-3.09547">
        <ele>163</ele>
        <time>2016-02-04T15:14:24Z</time>
      </trkpt>
      <trkpt lat="48.21365" lon="-3.09554">
        <ele>163</ele>
        <time>2016-02-04T15:14:27Z</time>
      </trkpt>
      <trkpt lat="48.21365" lon="-3.09562">
        <ele>164</ele>
        <time>2016-02-04T15:14:30Z</time>
      </trkpt>
      <trkpt lat="48.21365" lon="-3.09568">
        <ele>164</ele>
        <time>2016-02-04T15:14:34Z</time>
      </trkpt>
      <trkpt lat="48.21365" lon="-3.09574">
        <ele>164</ele>
        <time>2016-02-04T15:14:37Z</time>
      </trkpt>
      <trkpt lat="48.21364" lon="-3.0958">
        <ele>164</ele>
        <time>2016-02-04T15:14:40Z</time>
      </trkpt>
      <trkpt lat="48.21361" lon="-3.09584">
        <ele>164</ele>
        <time>2016-02-04T15:14:43Z</time>
      </trkpt>
      <trkpt lat="48.21363" lon="-3.09589">
        <ele>164</ele>
        <time>2016-02-04T15:14:47Z</time>
      </trkpt>
      <trkpt lat="48.21366" lon="-3.09594">
        <ele>164</ele>
        <time>2016-02-04T15:14:50Z</time>
      </trkpt>
      <trkpt lat="48.21365" lon="-3.09602">
        <ele>165</ele>
        <time>2016-02-04T15:14:54Z</time>
      </trkpt>
      <trkpt lat="48.21366" lon="-3.09606">
        <ele>165</ele>
        <time>2016-02-04T15:14:57Z</time>
      </trkpt>
      <trkpt lat="48.21367" lon="-3.09612">
        <ele>165</ele>
        <time>2016-02-04T15:15:01Z</time>
      </trkpt>
      <trkpt lat="48.2137" lon="-3.0962">
        <ele>165</ele>
        <time>2016-02-04T15:15:05Z</time>
      </trkpt>
      <trkpt lat="48.21372" lon="-3.09626">
        <ele>165</ele>
        <time>2016-02-04T15:15:08Z</time>
      </trkpt>
      <trkpt lat="48.21377" lon="-3.0963">
        <ele>165</ele>
        <time>2016-02-04T15:15:12Z</time>
      </trkpt>
      <trkpt lat="48.2138" lon="-3.09636">
        <ele>165</ele>
        <time>2016-02-04T15:15:16Z</time>
      </trkpt>
      <trkpt lat="48.21382" lon="-3.09641">
        <ele>165</ele>
        <time>2016-02-04T15:15:19Z</time>
      </trkpt>
      <trkpt lat="48.21384" lon="-3.09641">
        <ele>161</ele>
        <time>2016-02-04T15:15:26Z</time>
      </trkpt>
      <trkpt lat="48.21386" lon="-3.0964">
        <ele>158</ele>
        <time>2016-02-04T15:15:30Z</time>
      </trkpt>
      <trkpt lat="48.2139" lon="-3.09646">
        <ele>156</ele>
        <time>2016-02-04T15:15:34Z</time>
      </trkpt>
      <trkpt lat="48.21394" lon="-3.0965">
        <ele>156</ele>
        <time>2016-02-04T15:15:37Z</time>
      </trkpt>
      <trkpt lat="48.21396" lon="-3.09657">
        <ele>156</ele>
        <time>2016-02-04T15:15:41Z</time>
      </trkpt>
      <trkpt lat="48.21396" lon="-3.09662">
        <ele>156</ele>
        <time>2016-02-04T15:15:44Z</time>
      </trkpt>
      <trkpt lat="48.21396" lon="-3.09666">
        <ele>156</ele>
        <time>2016-02-04T15:15:48Z</time>
      </trkpt>
      <trkpt lat="48.21397" lon="-3.09671">
        <ele>156</ele>
        <time>2016-02-04T15:15:52Z</time>
      </trkpt>
      <trkpt lat="48.21395" lon="-3.09676">
        <ele>156</ele>
        <time>2016-02-04T15:15:56Z</time>
      </trkpt>
      <trkpt lat="48.21394" lon="-3.09683">
        <ele>156</ele>
        <time>2016-02-04T15:16:00Z</time>
      </trkpt>
      <trkpt lat="48.21392" lon="-3.09688">
        <ele>156</ele>
        <time>2016-02-04T15:16:04Z</time>
      </trkpt>
      <trkpt lat="48.2139" lon="-3.09692">
        <ele>157</ele>
        <time>2016-02-04T15:16:08Z</time>
      </trkpt>
      <trkpt lat="48.2139" lon="-3.09694">
        <ele>157</ele>
        <time>2016-02-04T15:16:11Z</time>
      </trkpt>
      <trkpt lat="48.2139" lon="-3.09697">
        <ele>157</ele>
        <time>2016-02-04T15:16:19Z</time>
      </trkpt>
      <trkpt lat="48.2139" lon="-3.09699">
        <ele>157</ele>
        <time>2016-02-04T15:16:27Z</time>
      </trkpt>
      <trkpt lat="48.2139" lon="-3.09701">
        <ele>158</ele>
        <time>2016-02-04T15:16:31Z</time>
      </trkpt>
      <trkpt lat="48.21389" lon="-3.09705">
        <ele>159</ele>
        <time>2016-02-04T15:16:38Z</time>
      </trkpt>
      <trkpt lat="48.21388" lon="-3.09703">
        <ele>160</ele>
        <time>2016-02-04T15:16:44Z</time>
      </trkpt>
      <trkpt lat="48.21387" lon="-3.09702">
        <ele>160</ele>
        <time>2016-02-04T15:16:48Z</time>
      </trkpt>
      <trkpt lat="48.21386" lon="-3.09701">
        <ele>160</ele>
        <time>2016-02-04T15:16:52Z</time>
      </trkpt>
      <trkpt lat="48.21383" lon="-3.09697">
        <ele>160</ele>
        <time>2016-02-04T15:16:56Z</time>
      </trkpt>
      <trkpt lat="48.21383" lon="-3.09695">
        <ele>158</ele>
        <time>2016-02-04T15:16:59Z</time>
      </trkpt>
      <trkpt lat="48.21381" lon="-3.09693">
        <ele>157</ele>
        <time>2016-02-04T15:17:02Z</time>
      </trkpt>
      <trkpt lat="48.2138" lon="-3.09692">
        <ele>155</ele>
        <time>2016-02-04T15:17:07Z</time>
      </trkpt>
      <trkpt lat="48.21379" lon="-3.0969">
        <ele>152</ele>
        <time>2016-02-04T15:17:15Z</time>
      </trkpt>
      <trkpt lat="48.21381" lon="-3.09689">
        <ele>152</ele>
        <time>2016-02-04T15:17:28Z</time>
      </trkpt>
      <trkpt lat="48.21384" lon="-3.09689">
        <ele>152</ele>
        <time>2016-02-04T15:17:32Z</time>
      </trkpt>
      <trkpt lat="48.21386" lon="-3.09688">
        <ele>157</ele>
        <time>2016-02-04T15:17:48Z</time>
      </trkpt>
      <trkpt lat="48.21385" lon="-3.09687">
        <ele>157</ele>
        <time>2016-02-04T15:17:55Z</time>
      </trkpt>
      <trkpt lat="48.21386" lon="-3.09689">
        <ele>157</ele>
        <time>2016-02-04T15:18:03Z</time>
      </trkpt>
      <trkpt lat="48.21386" lon="-3.09691">
        <ele>157</ele>
        <time>2016-02-04T15:18:06Z</time>
      </trkpt>
      <trkpt lat="48.21386" lon="-3.09693">
        <ele>157</ele>
        <time>2016-02-04T15:18:09Z</time>
      </trkpt>
      <trkpt lat="48.21386" lon="-3.09695">
        <ele>157</ele>
        <time>2016-02-04T15:18:12Z</time>
      </trkpt>
      <trkpt lat="48.21387" lon="-3.09696">
        <ele>157</ele>
        <time>2016-02-04T15:18:22Z</time>
      </trkpt>
      <trkpt lat="48.21387" lon="-3.09698">
        <ele>157</ele>
        <time>2016-02-04T15:18:27Z</time>
      </trkpt>
      <trkpt lat="48.21387" lon="-3.09699">
        <ele>158</ele>
        <time>2016-02-04T15:18:41Z</time>
      </trkpt>
      <trkpt lat="48.21388" lon="-3.09706">
        <ele>158</ele>
        <time>2016-02-04T15:18:44Z</time>
      </trkpt>
      <trkpt lat="48.2139" lon="-3.0971">
        <ele>160</ele>
        <time>2016-02-04T15:18:47Z</time>
      </trkpt>
      <trkpt lat="48.21393" lon="-3.09715">
        <ele>160</ele>
        <time>2016-02-04T15:18:51Z</time>
      </trkpt>
      <trkpt lat="48.21395" lon="-3.0972">
        <ele>160</ele>
        <time>2016-02-04T15:18:55Z</time>
      </trkpt>
      <trkpt lat="48.21397" lon="-3.09723">
        <ele>160</ele>
        <time>2016-02-04T15:19:03Z</time>
      </trkpt>
      <trkpt lat="48.21399" lon="-3.09728">
        <ele>160</ele>
        <time>2016-02-04T15:19:07Z</time>
      </trkpt>
      <trkpt lat="48.214" lon="-3.09733">
        <ele>160</ele>
        <time>2016-02-04T15:19:11Z</time>
      </trkpt>
      <trkpt lat="48.21403" lon="-3.0974">
        <ele>160</ele>
        <time>2016-02-04T15:19:15Z</time>
      </trkpt>
      <trkpt lat="48.21402" lon="-3.09744">
        <ele>160</ele>
        <time>2016-02-04T15:19:18Z</time>
      </trkpt>
      <trkpt lat="48.21402" lon="-3.09749">
        <ele>160</ele>
        <time>2016-02-04T15:19:22Z</time>
      </trkpt>
      <trkpt lat="48.21403" lon="-3.09755">
        <ele>160</ele>
        <time>2016-02-04T15:19:26Z</time>
      </trkpt>
      <trkpt lat="48.21404" lon="-3.09761">
        <ele>160</ele>
        <time>2016-02-04T15:19:29Z</time>
      </trkpt>
      <trkpt lat="48.21405" lon="-3.09766">
        <ele>160</ele>
        <time>2016-02-04T15:19:32Z</time>
      </trkpt>
      <trkpt lat="48.21405" lon="-3.09771">
        <ele>160</ele>
        <time>2016-02-04T15:19:35Z</time>
      </trkpt>
      <trkpt lat="48.21405" lon="-3.09777">
        <ele>160</ele>
        <time>2016-02-04T15:19:38Z</time>
      </trkpt>
      <trkpt lat="48.21405" lon="-3.09782">
        <ele>160</ele>
        <time>2016-02-04T15:19:41Z</time>
      </trkpt>
      <trkpt lat="48.21406" lon="-3.09788">
        <ele>160</ele>
        <time>2016-02-04T15:19:44Z</time>
      </trkpt>
      <trkpt lat="48.21406" lon="-3.09793">
        <ele>160</ele>
        <time>2016-02-04T15:19:47Z</time>
      </trkpt>
      <trkpt lat="48.21406" lon="-3.09798">
        <ele>160</ele>
        <time>2016-02-04T15:19:50Z</time>
      </trkpt>
      <trkpt lat="48.21407" lon="-3.09804">
        <ele>160</ele>
        <time>2016-02-04T15:19:53Z</time>
      </trkpt>
      <trkpt lat="48.21408" lon="-3.09809">
        <ele>160</ele>
        <time>2016-02-04T15:19:56Z</time>
      </trkpt>
      <trkpt lat="48.21408" lon="-3.09814">
        <ele>160</ele>
        <time>2016-02-04T15:19:59Z</time>
      </trkpt>
      <trkpt lat="48.21408" lon="-3.0982">
        <ele>160</ele>
        <time>2016-02-04T15:20:02Z</time>
      </trkpt>
      <trkpt lat="48.21409" lon="-3.09826">
        <ele>160</ele>
        <time>2016-02-04T15:20:05Z</time>
      </trkpt>
      <trkpt lat="48.2141" lon="-3.09831">
        <ele>160</ele>
        <time>2016-02-04T15:20:08Z</time>
      </trkpt>
      <trkpt lat="48.2141" lon="-3.09837">
        <ele>160</ele>
        <time>2016-02-04T15:20:11Z</time>
      </trkpt>
      <trkpt lat="48.21411" lon="-3.09843">
        <ele>160</ele>
        <time>2016-02-04T15:20:14Z</time>
      </trkpt>
      <trkpt lat="48.21412" lon="-3.09848">
        <ele>160</ele>
        <time>2016-02-04T15:20:17Z</time>
      </trkpt>
      <trkpt lat="48.21413" lon="-3.09854">
        <ele>160</ele>
        <time>2016-02-04T15:20:20Z</time>
      </trkpt>
      <trkpt lat="48.21413" lon="-3.0986">
        <ele>160</ele>
        <time>2016-02-04T15:20:23Z</time>
      </trkpt>
      <trkpt lat="48.21414" lon="-3.09866">
        <ele>160</ele>
        <time>2016-02-04T15:20:26Z</time>
      </trkpt>
      <trkpt lat="48.21415" lon="-3.09872">
        <ele>160</ele>
        <time>2016-02-04T15:20:29Z</time>
      </trkpt>
      <trkpt lat="48.21416" lon="-3.09877">
        <ele>160</ele>
        <time>2016-02-04T15:20:32Z</time>
      </trkpt>
      <trkpt lat="48.21417" lon="-3.09883">
        <ele>160</ele>
        <time>2016-02-04T15:20:35Z</time>
      </trkpt>
      <trkpt lat="48.21419" lon="-3.09888">
        <ele>160</ele>
        <time>2016-02-04T15:20:38Z</time>
      </trkpt>
      <trkpt lat="48.2142" lon="-3.09894">
        <ele>160</ele>
        <time>2016-02-04T15:20:42Z</time>
      </trkpt>
      <trkpt lat="48.21421" lon="-3.09895">
        <ele>160</ele>
        <time>2016-02-04T15:20:53Z</time>
      </trkpt>
      <trkpt lat="48.21422" lon="-3.09899">
        <ele>160</ele>
        <time>2016-02-04T15:20:57Z</time>
      </trkpt>
      <trkpt lat="48.21423" lon="-3.09903">
        <ele>160</ele>
        <time>2016-02-04T15:21:01Z</time>
      </trkpt>
      <trkpt lat="48.21425" lon="-3.09908">
        <ele>160</ele>
        <time>2016-02-04T15:21:05Z</time>
      </trkpt>
      <trkpt lat="48.21425" lon="-3.0991">
        <ele>160</ele>
        <time>2016-02-04T15:21:26Z</time>
      </trkpt>
      <trkpt lat="48.21426" lon="-3.09916">
        <ele>160</ele>
        <time>2016-02-04T15:21:29Z</time>
      </trkpt>
      <trkpt lat="48.21426" lon="-3.09921">
        <ele>160</ele>
        <time>2016-02-04T15:21:32Z</time>
      </trkpt>
      <trkpt lat="48.21426" lon="-3.09928">
        <ele>160</ele>
        <time>2016-02-04T15:21:36Z</time>
      </trkpt>
      <trkpt lat="48.21424" lon="-3.09932">
        <ele>160</ele>
        <time>2016-02-04T15:21:39Z</time>
      </trkpt>
      <trkpt lat="48.21424" lon="-3.09938">
        <ele>160</ele>
        <time>2016-02-04T15:21:42Z</time>
      </trkpt>
      <trkpt lat="48.21424" lon="-3.09944">
        <ele>160</ele>
        <time>2016-02-04T15:21:45Z</time>
      </trkpt>
      <trkpt lat="48.21424" lon="-3.09949">
        <ele>160</ele>
        <time>2016-02-04T15:21:48Z</time>
      </trkpt>
      <trkpt lat="48.21424" lon="-3.09955">
        <ele>160</ele>
        <time>2016-02-04T15:21:51Z</time>
      </trkpt>
      <trkpt lat="48.21424" lon="-3.0996">
        <ele>160</ele>
        <time>2016-02-04T15:21:54Z</time>
      </trkpt>
      <trkpt lat="48.21423" lon="-3.09966">
        <ele>160</ele>
        <time>2016-02-04T15:21:57Z</time>
      </trkpt>
      <trkpt lat="48.21424" lon="-3.09971">
        <ele>160</ele>
        <time>2016-02-04T15:22:00Z</time>
      </trkpt>
      <trkpt lat="48.21424" lon="-3.09977">
        <ele>160</ele>
        <time>2016-02-04T15:22:03Z</time>
      </trkpt>
      <trkpt lat="48.21424" lon="-3.09982">
        <ele>160</ele>
        <time>2016-02-04T15:22:06Z</time>
      </trkpt>
      <trkpt lat="48.21423" lon="-3.09987">
        <ele>160</ele>
        <time>2016-02-04T15:22:09Z</time>
      </trkpt>
      <trkpt lat="48.21423" lon="-3.09993">
        <ele>160</ele>
        <time>2016-02-04T15:22:12Z</time>
      </trkpt>
      <trkpt lat="48.21422" lon="-3.1">
        <ele>160</ele>
        <time>2016-02-04T15:22:16Z</time>
      </trkpt>
      <trkpt lat="48.21422" lon="-3.10005">
        <ele>160</ele>
        <time>2016-02-04T15:22:19Z</time>
      </trkpt>
      <trkpt lat="48.21421" lon="-3.10011">
        <ele>160</ele>
        <time>2016-02-04T15:22:22Z</time>
      </trkpt>
      <trkpt lat="48.21421" lon="-3.10016">
        <ele>160</ele>
        <time>2016-02-04T15:22:25Z</time>
      </trkpt>
      <trkpt lat="48.21421" lon="-3.10021">
        <ele>160</ele>
        <time>2016-02-04T15:22:28Z</time>
      </trkpt>
      <trkpt lat="48.2142" lon="-3.10027">
        <ele>160</ele>
        <time>2016-02-04T15:22:31Z</time>
      </trkpt>
      <trkpt lat="48.21419" lon="-3.10033">
        <ele>160</ele>
        <time>2016-02-04T15:22:35Z</time>
      </trkpt>
      <trkpt lat="48.21418" lon="-3.10039">
        <ele>160</ele>
        <time>2016-02-04T15:22:39Z</time>
      </trkpt>
      <trkpt lat="48.21418" lon="-3.10041">
        <ele>160</ele>
        <time>2016-02-04T15:22:48Z</time>
      </trkpt>
      <trkpt lat="48.21417" lon="-3.10047">
        <ele>160</ele>
        <time>2016-02-04T15:22:52Z</time>
      </trkpt>
      <trkpt lat="48.21416" lon="-3.10052">
        <ele>160</ele>
        <time>2016-02-04T15:22:55Z</time>
      </trkpt>
      <trkpt lat="48.21415" lon="-3.10057">
        <ele>160</ele>
        <time>2016-02-04T15:22:58Z</time>
      </trkpt>
      <trkpt lat="48.21415" lon="-3.10062">
        <ele>160</ele>
        <time>2016-02-04T15:23:01Z</time>
      </trkpt>
      <trkpt lat="48.21414" lon="-3.10067">
        <ele>160</ele>
        <time>2016-02-04T15:23:04Z</time>
      </trkpt>
      <trkpt lat="48.21413" lon="-3.10072">
        <ele>160</ele>
        <time>2016-02-04T15:23:07Z</time>
      </trkpt>
      <trkpt lat="48.21413" lon="-3.10077">
        <ele>160</ele>
        <time>2016-02-04T15:23:10Z</time>
      </trkpt>
      <trkpt lat="48.21412" lon="-3.10083">
        <ele>160</ele>
        <time>2016-02-04T15:23:13Z</time>
      </trkpt>
      <trkpt lat="48.21412" lon="-3.10088">
        <ele>160</ele>
        <time>2016-02-04T15:23:16Z</time>
      </trkpt>
      <trkpt lat="48.21412" lon="-3.10093">
        <ele>160</ele>
        <time>2016-02-04T15:23:19Z</time>
      </trkpt>
      <trkpt lat="48.21412" lon="-3.10098">
        <ele>160</ele>
        <time>2016-02-04T15:23:22Z</time>
      </trkpt>
      <trkpt lat="48.21412" lon="-3.10104">
        <ele>160</ele>
        <time>2016-02-04T15:23:25Z</time>
      </trkpt>
      <trkpt lat="48.21413" lon="-3.10109">
        <ele>161</ele>
        <time>2016-02-04T15:23:28Z</time>
      </trkpt>
      <trkpt lat="48.21413" lon="-3.10115">
        <ele>162</ele>
        <time>2016-02-04T15:23:31Z</time>
      </trkpt>
      <trkpt lat="48.21413" lon="-3.10121">
        <ele>163</ele>
        <time>2016-02-04T15:23:34Z</time>
      </trkpt>
      <trkpt lat="48.21412" lon="-3.10126">
        <ele>164</ele>
        <time>2016-02-04T15:23:37Z</time>
      </trkpt>
      <trkpt lat="48.21413" lon="-3.10132">
        <ele>165</ele>
        <time>2016-02-04T15:23:40Z</time>
      </trkpt>
      <trkpt lat="48.21413" lon="-3.10137">
        <ele>165</ele>
        <time>2016-02-04T15:23:43Z</time>
      </trkpt>
      <trkpt lat="48.21413" lon="-3.10142">
        <ele>165</ele>
        <time>2016-02-04T15:23:46Z</time>
      </trkpt>
      <trkpt lat="48.21413" lon="-3.10147">
        <ele>165</ele>
        <time>2016-02-04T15:23:49Z</time>
      </trkpt>
      <trkpt lat="48.21412" lon="-3.10153">
        <ele>165</ele>
        <time>2016-02-04T15:23:52Z</time>
      </trkpt>
      <trkpt lat="48.21412" lon="-3.10158">
        <ele>165</ele>
        <time>2016-02-04T15:23:55Z</time>
      </trkpt>
      <trkpt lat="48.21412" lon="-3.10164">
        <ele>165</ele>
        <time>2016-02-04T15:23:58Z</time>
      </trkpt>
      <trkpt lat="48.21411" lon="-3.10171">
        <ele>165</ele>
        <time>2016-02-04T15:24:01Z</time>
      </trkpt>
      <trkpt lat="48.2141" lon="-3.10176">
        <ele>165</ele>
        <time>2016-02-04T15:24:04Z</time>
      </trkpt>
      <trkpt lat="48.2141" lon="-3.10182">
        <ele>165</ele>
        <time>2016-02-04T15:24:07Z</time>
      </trkpt>
      <trkpt lat="48.21409" lon="-3.10188">
        <ele>165</ele>
        <time>2016-02-04T15:24:10Z</time>
      </trkpt>
      <trkpt lat="48.21408" lon="-3.10194">
        <ele>165</ele>
        <time>2016-02-04T15:24:13Z</time>
      </trkpt>
      <trkpt lat="48.21408" lon="-3.102">
        <ele>165</ele>
        <time>2016-02-04T15:24:16Z</time>
      </trkpt>
      <trkpt lat="48.21408" lon="-3.10205">
        <ele>165</ele>
        <time>2016-02-04T15:24:19Z</time>
      </trkpt>
      <trkpt lat="48.21407" lon="-3.10211">
        <ele>165</ele>
        <time>2016-02-04T15:24:22Z</time>
      </trkpt>
      <trkpt lat="48.21407" lon="-3.10217">
        <ele>165</ele>
        <time>2016-02-04T15:24:25Z</time>
      </trkpt>
      <trkpt lat="48.21408" lon="-3.10223">
        <ele>166</ele>
        <time>2016-02-04T15:24:28Z</time>
      </trkpt>
      <trkpt lat="48.21408" lon="-3.10229">
        <ele>166</ele>
        <time>2016-02-04T15:24:31Z</time>
      </trkpt>
      <trkpt lat="48.21407" lon="-3.10234">
        <ele>166</ele>
        <time>2016-02-04T15:24:34Z</time>
      </trkpt>
      <trkpt lat="48.21407" lon="-3.1024">
        <ele>166</ele>
        <time>2016-02-04T15:24:37Z</time>
      </trkpt>
      <trkpt lat="48.21407" lon="-3.10246">
        <ele>166</ele>
        <time>2016-02-04T15:24:40Z</time>
      </trkpt>
      <trkpt lat="48.21407" lon="-3.10251">
        <ele>166</ele>
        <time>2016-02-04T15:24:43Z</time>
      </trkpt>
      <trkpt lat="48.21407" lon="-3.10257">
        <ele>166</ele>
        <time>2016-02-04T15:24:46Z</time>
      </trkpt>
      <trkpt lat="48.21406" lon="-3.10263">
        <ele>166</ele>
        <time>2016-02-04T15:24:49Z</time>
      </trkpt>
      <trkpt lat="48.21405" lon="-3.10269">
        <ele>166</ele>
        <time>2016-02-04T15:24:52Z</time>
      </trkpt>
      <trkpt lat="48.21404" lon="-3.10275">
        <ele>166</ele>
        <time>2016-02-04T15:24:55Z</time>
      </trkpt>
      <trkpt lat="48.21404" lon="-3.10281">
        <ele>166</ele>
        <time>2016-02-04T15:24:58Z</time>
      </trkpt>
      <trkpt lat="48.21403" lon="-3.10287">
        <ele>166</ele>
        <time>2016-02-04T15:25:01Z</time>
      </trkpt>
      <trkpt lat="48.21403" lon="-3.10293">
        <ele>166</ele>
        <time>2016-02-04T15:25:04Z</time>
      </trkpt>
      <trkpt lat="48.21403" lon="-3.10299">
        <ele>166</ele>
        <time>2016-02-04T15:25:07Z</time>
      </trkpt>
      <trkpt lat="48.21402" lon="-3.10306">
        <ele>166</ele>
        <time>2016-02-04T15:25:10Z</time>
      </trkpt>
      <trkpt lat="48.21401" lon="-3.10312">
        <ele>166</ele>
        <time>2016-02-04T15:25:13Z</time>
      </trkpt>
      <trkpt lat="48.21401" lon="-3.10317">
        <ele>166</ele>
        <time>2016-02-04T15:25:17Z</time>
      </trkpt>
      <trkpt lat="48.21401" lon="-3.10319">
        <ele>166</ele>
        <time>2016-02-04T15:25:24Z</time>
      </trkpt>
      <trkpt lat="48.21401" lon="-3.10325">
        <ele>166</ele>
        <time>2016-02-04T15:25:28Z</time>
      </trkpt>
      <trkpt lat="48.214" lon="-3.1033">
        <ele>166</ele>
        <time>2016-02-04T15:25:31Z</time>
      </trkpt>
      <trkpt lat="48.214" lon="-3.10335">
        <ele>167</ele>
        <time>2016-02-04T15:25:34Z</time>
      </trkpt>
      <trkpt lat="48.214" lon="-3.1034">
        <ele>167</ele>
        <time>2016-02-04T15:25:37Z</time>
      </trkpt>
      <trkpt lat="48.214" lon="-3.10346">
        <ele>167</ele>
        <time>2016-02-04T15:25:40Z</time>
      </trkpt>
      <trkpt lat="48.214" lon="-3.10351">
        <ele>168</ele>
        <time>2016-02-04T15:25:43Z</time>
      </trkpt>
      <trkpt lat="48.21399" lon="-3.10357">
        <ele>168</ele>
        <time>2016-02-04T15:25:46Z</time>
      </trkpt>
      <trkpt lat="48.21398" lon="-3.10363">
        <ele>169</ele>
        <time>2016-02-04T15:25:49Z</time>
      </trkpt>
      <trkpt lat="48.21398" lon="-3.10367">
        <ele>170</ele>
        <time>2016-02-04T15:25:58Z</time>
      </trkpt>
      <trkpt lat="48.21399" lon="-3.10368">
        <ele>171</ele>
        <time>2016-02-04T15:26:12Z</time>
      </trkpt>
      <trkpt lat="48.21399" lon="-3.10371">
        <ele>171</ele>
        <time>2016-02-04T15:26:16Z</time>
      </trkpt>
      <trkpt lat="48.21398" lon="-3.10375">
        <ele>171</ele>
        <time>2016-02-04T15:26:19Z</time>
      </trkpt>
      <trkpt lat="48.21397" lon="-3.10382">
        <ele>172</ele>
        <time>2016-02-04T15:26:23Z</time>
      </trkpt>
      <trkpt lat="48.21397" lon="-3.10387">
        <ele>172</ele>
        <time>2016-02-04T15:26:26Z</time>
      </trkpt>
      <trkpt lat="48.21397" lon="-3.10392">
        <ele>172</ele>
        <time>2016-02-04T15:26:29Z</time>
      </trkpt>
      <trkpt lat="48.21396" lon="-3.10398">
        <ele>172</ele>
        <time>2016-02-04T15:26:32Z</time>
      </trkpt>
      <trkpt lat="48.21396" lon="-3.10403">
        <ele>172</ele>
        <time>2016-02-04T15:26:35Z</time>
      </trkpt>
      <trkpt lat="48.21395" lon="-3.10409">
        <ele>172</ele>
        <time>2016-02-04T15:26:38Z</time>
      </trkpt>
      <trkpt lat="48.21395" lon="-3.10415">
        <ele>173</ele>
        <time>2016-02-04T15:26:41Z</time>
      </trkpt>
      <trkpt lat="48.21395" lon="-3.1042">
        <ele>173</ele>
        <time>2016-02-04T15:26:44Z</time>
      </trkpt>
      <trkpt lat="48.21394" lon="-3.10426">
        <ele>174</ele>
        <time>2016-02-04T15:26:47Z</time>
      </trkpt>
      <trkpt lat="48.21394" lon="-3.10432">
        <ele>174</ele>
        <time>2016-02-04T15:26:50Z</time>
      </trkpt>
      <trkpt lat="48.21394" lon="-3.10437">
        <ele>175</ele>
        <time>2016-02-04T15:26:53Z</time>
      </trkpt>
      <trkpt lat="48.21393" lon="-3.10443">
        <ele>175</ele>
        <time>2016-02-04T15:26:56Z</time>
      </trkpt>
      <trkpt lat="48.21393" lon="-3.10449">
        <ele>175</ele>
        <time>2016-02-04T15:26:59Z</time>
      </trkpt>
      <trkpt lat="48.21392" lon="-3.10455">
        <ele>176</ele>
        <time>2016-02-04T15:27:02Z</time>
      </trkpt>
      <trkpt lat="48.21392" lon="-3.1046">
        <ele>176</ele>
        <time>2016-02-04T15:27:05Z</time>
      </trkpt>
      <trkpt lat="48.21391" lon="-3.10466">
        <ele>176</ele>
        <time>2016-02-04T15:27:08Z</time>
      </trkpt>
      <trkpt lat="48.21391" lon="-3.10472">
        <ele>177</ele>
        <time>2016-02-04T15:27:11Z</time>
      </trkpt>
      <trkpt lat="48.2139" lon="-3.10478">
        <ele>177</ele>
        <time>2016-02-04T15:27:14Z</time>
      </trkpt>
      <trkpt lat="48.2139" lon="-3.10484">
        <ele>177</ele>
        <time>2016-02-04T15:27:17Z</time>
      </trkpt>
      <trkpt lat="48.21389" lon="-3.1049">
        <ele>177</ele>
        <time>2016-02-04T15:27:20Z</time>
      </trkpt>
      <trkpt lat="48.21388" lon="-3.10495">
        <ele>177</ele>
        <time>2016-02-04T15:27:23Z</time>
      </trkpt>
      <trkpt lat="48.21388" lon="-3.10501">
        <ele>177</ele>
        <time>2016-02-04T15:27:26Z</time>
      </trkpt>
      <trkpt lat="48.21388" lon="-3.10507">
        <ele>177</ele>
        <time>2016-02-04T15:27:29Z</time>
      </trkpt>
      <trkpt lat="48.21387" lon="-3.10513">
        <ele>177</ele>
        <time>2016-02-04T15:27:32Z</time>
      </trkpt>
      <trkpt lat="48.21387" lon="-3.10519">
        <ele>177</ele>
        <time>2016-02-04T15:27:35Z</time>
      </trkpt>
      <trkpt lat="48.21386" lon="-3.10525">
        <ele>177</ele>
        <time>2016-02-04T15:27:38Z</time>
      </trkpt>
      <trkpt lat="48.21386" lon="-3.10531">
        <ele>177</ele>
        <time>2016-02-04T15:27:41Z</time>
      </trkpt>
      <trkpt lat="48.21386" lon="-3.10537">
        <ele>177</ele>
        <time>2016-02-04T15:27:44Z</time>
      </trkpt>
      <trkpt lat="48.21386" lon="-3.10542">
        <ele>177</ele>
        <time>2016-02-04T15:27:47Z</time>
      </trkpt>
      <trkpt lat="48.21385" lon="-3.10548">
        <ele>177</ele>
        <time>2016-02-04T15:27:50Z</time>
      </trkpt>
      <trkpt lat="48.21384" lon="-3.10554">
        <ele>177</ele>
        <time>2016-02-04T15:27:53Z</time>
      </trkpt>
      <trkpt lat="48.21384" lon="-3.1056">
        <ele>177</ele>
        <time>2016-02-04T15:27:56Z</time>
      </trkpt>
      <trkpt lat="48.21384" lon="-3.10566">
        <ele>177</ele>
        <time>2016-02-04T15:27:59Z</time>
      </trkpt>
      <trkpt lat="48.21383" lon="-3.10572">
        <ele>178</ele>
        <time>2016-02-04T15:28:02Z</time>
      </trkpt>
      <trkpt lat="48.21383" lon="-3.10577">
        <ele>178</ele>
        <time>2016-02-04T15:28:05Z</time>
      </trkpt>
      <trkpt lat="48.21382" lon="-3.10583">
        <ele>178</ele>
        <time>2016-02-04T15:28:08Z</time>
      </trkpt>
      <trkpt lat="48.21381" lon="-3.10589">
        <ele>179</ele>
        <time>2016-02-04T15:28:11Z</time>
      </trkpt>
      <trkpt lat="48.21381" lon="-3.10594">
        <ele>179</ele>
        <time>2016-02-04T15:28:14Z</time>
      </trkpt>
      <trkpt lat="48.2138" lon="-3.106">
        <ele>179</ele>
        <time>2016-02-04T15:28:17Z</time>
      </trkpt>
      <trkpt lat="48.21379" lon="-3.10606">
        <ele>179</ele>
        <time>2016-02-04T15:28:20Z</time>
      </trkpt>
      <trkpt lat="48.21378" lon="-3.10611">
        <ele>179</ele>
        <time>2016-02-04T15:28:23Z</time>
      </trkpt>
      <trkpt lat="48.21377" lon="-3.10616">
        <ele>179</ele>
        <time>2016-02-04T15:28:26Z</time>
      </trkpt>
      <trkpt lat="48.21376" lon="-3.10622">
        <ele>179</ele>
        <time>2016-02-04T15:28:29Z</time>
      </trkpt>
      <trkpt lat="48.21373" lon="-3.10628">
        <ele>179</ele>
        <time>2016-02-04T15:28:33Z</time>
      </trkpt>
      <trkpt lat="48.21371" lon="-3.10634">
        <ele>179</ele>
        <time>2016-02-04T15:28:37Z</time>
      </trkpt>
      <trkpt lat="48.21369" lon="-3.1064">
        <ele>179</ele>
        <time>2016-02-04T15:28:40Z</time>
      </trkpt>
      <trkpt lat="48.21366" lon="-3.10646">
        <ele>179</ele>
        <time>2016-02-04T15:28:44Z</time>
      </trkpt>
      <trkpt lat="48.21364" lon="-3.1065">
        <ele>179</ele>
        <time>2016-02-04T15:28:48Z</time>
      </trkpt>
      <trkpt lat="48.21363" lon="-3.10654">
        <ele>179</ele>
        <time>2016-02-04T15:29:03Z</time>
      </trkpt>
      <trkpt lat="48.21363" lon="-3.1066">
        <ele>179</ele>
        <time>2016-02-04T15:29:06Z</time>
      </trkpt>
      <trkpt lat="48.21362" lon="-3.10665">
        <ele>179</ele>
        <time>2016-02-04T15:29:09Z</time>
      </trkpt>
      <trkpt lat="48.21362" lon="-3.1067">
        <ele>179</ele>
        <time>2016-02-04T15:29:12Z</time>
      </trkpt>
      <trkpt lat="48.21362" lon="-3.10671">
        <ele>179</ele>
        <time>2016-02-04T15:29:17Z</time>
      </trkpt>
      <trkpt lat="48.21362" lon="-3.10666">
        <ele>179</ele>
        <time>2016-02-04T15:29:20Z</time>
      </trkpt>
      <trkpt lat="48.21363" lon="-3.1066">
        <ele>179</ele>
        <time>2016-02-04T15:29:23Z</time>
      </trkpt>
      <trkpt lat="48.21364" lon="-3.10655">
        <ele>179</ele>
        <time>2016-02-04T15:29:26Z</time>
      </trkpt>
      <trkpt lat="48.21365" lon="-3.1065">
        <ele>179</ele>
        <time>2016-02-04T15:29:29Z</time>
      </trkpt>
      <trkpt lat="48.21369" lon="-3.10644">
        <ele>179</ele>
        <time>2016-02-04T15:29:33Z</time>
      </trkpt>
      <trkpt lat="48.21372" lon="-3.10638">
        <ele>179</ele>
        <time>2016-02-04T15:29:37Z</time>
      </trkpt>
      <trkpt lat="48.21374" lon="-3.10633">
        <ele>179</ele>
        <time>2016-02-04T15:29:42Z</time>
      </trkpt>
      <trkpt lat="48.21373" lon="-3.10633">
        <ele>179</ele>
        <time>2016-02-04T15:29:50Z</time>
      </trkpt>
      <trkpt lat="48.21372" lon="-3.10632">
        <ele>179</ele>
        <time>2016-02-04T15:30:06Z</time>
      </trkpt>
      <trkpt lat="48.2137" lon="-3.10638">
        <ele>179</ele>
        <time>2016-02-04T15:30:10Z</time>
      </trkpt>
      <trkpt lat="48.21368" lon="-3.10641">
        <ele>179</ele>
        <time>2016-02-04T15:30:43Z</time>
      </trkpt>
      <trkpt lat="48.21367" lon="-3.10643">
        <ele>179</ele>
        <time>2016-02-04T15:30:47Z</time>
      </trkpt>
      <trkpt lat="48.21363" lon="-3.10648">
        <ele>179</ele>
        <time>2016-02-04T15:30:51Z</time>
      </trkpt>
      <trkpt lat="48.21361" lon="-3.1065">
        <ele>179</ele>
        <time>2016-02-04T15:31:00Z</time>
      </trkpt>
      <trkpt lat="48.2136" lon="-3.10652">
        <ele>180</ele>
        <time>2016-02-04T15:31:21Z</time>
      </trkpt>
      <trkpt lat="48.21359" lon="-3.10658">
        <ele>180</ele>
        <time>2016-02-04T15:31:25Z</time>
      </trkpt>
      <trkpt lat="48.21357" lon="-3.10664">
        <ele>180</ele>
        <time>2016-02-04T15:31:28Z</time>
      </trkpt>
      <trkpt lat="48.21355" lon="-3.10669">
        <ele>180</ele>
        <time>2016-02-04T15:31:32Z</time>
      </trkpt>
      <trkpt lat="48.21355" lon="-3.10675">
        <ele>180</ele>
        <time>2016-02-04T15:31:36Z</time>
      </trkpt>
      <trkpt lat="48.21352" lon="-3.10681">
        <ele>180</ele>
        <time>2016-02-04T15:31:40Z</time>
      </trkpt>
      <trkpt lat="48.2135" lon="-3.10687">
        <ele>180</ele>
        <time>2016-02-04T15:31:44Z</time>
      </trkpt>
      <trkpt lat="48.21348" lon="-3.10693">
        <ele>180</ele>
        <time>2016-02-04T15:31:48Z</time>
      </trkpt>
      <trkpt lat="48.21348" lon="-3.10698">
        <ele>180</ele>
        <time>2016-02-04T15:31:51Z</time>
      </trkpt>
      <trkpt lat="48.21347" lon="-3.10702">
        <ele>180</ele>
        <time>2016-02-04T15:31:55Z</time>
      </trkpt>
      <trkpt lat="48.21348" lon="-3.10702">
        <ele>180</ele>
        <time>2016-02-04T15:32:00Z</time>
      </trkpt>
      <trkpt lat="48.2135" lon="-3.10699">
        <ele>180</ele>
        <time>2016-02-04T15:32:19Z</time>
      </trkpt>
      <trkpt lat="48.21352" lon="-3.10693">
        <ele>180</ele>
        <time>2016-02-04T15:32:22Z</time>
      </trkpt>
      <trkpt lat="48.21354" lon="-3.10686">
        <ele>180</ele>
        <time>2016-02-04T15:32:25Z</time>
      </trkpt>
      <trkpt lat="48.21357" lon="-3.1068">
        <ele>180</ele>
        <time>2016-02-04T15:32:28Z</time>
      </trkpt>
      <trkpt lat="48.21358" lon="-3.10675">
        <ele>180</ele>
        <time>2016-02-04T15:32:31Z</time>
      </trkpt>
      <trkpt lat="48.2136" lon="-3.10669">
        <ele>180</ele>
        <time>2016-02-04T15:32:34Z</time>
      </trkpt>
      <trkpt lat="48.21363" lon="-3.10664">
        <ele>180</ele>
        <time>2016-02-04T15:32:37Z</time>
      </trkpt>
      <trkpt lat="48.21365" lon="-3.10659">
        <ele>180</ele>
        <time>2016-02-04T15:32:41Z</time>
      </trkpt>
      <trkpt lat="48.21364" lon="-3.10658">
        <ele>180</ele>
        <time>2016-02-04T15:33:40Z</time>
      </trkpt>
      <trkpt lat="48.21363" lon="-3.1066">
        <ele>180</ele>
        <time>2016-02-04T15:33:47Z</time>
      </trkpt>
      <trkpt lat="48.21362" lon="-3.10662">
        <ele>180</ele>
        <time>2016-02-04T15:33:50Z</time>
      </trkpt>
      <trkpt lat="48.2136" lon="-3.10666">
        <ele>180</ele>
        <time>2016-02-04T15:33:54Z</time>
      </trkpt>
      <trkpt lat="48.21359" lon="-3.10668">
        <ele>180</ele>
        <time>2016-02-04T15:34:24Z</time>
      </trkpt>
      <trkpt lat="48.21358" lon="-3.10668">
        <ele>180</ele>
        <time>2016-02-04T15:34:28Z</time>
      </trkpt>
      <trkpt lat="48.21357" lon="-3.10669">
        <ele>180</ele>
        <time>2016-02-04T15:35:22Z</time>
      </trkpt>
      <trkpt lat="48.21357" lon="-3.10672">
        <ele>180</ele>
        <time>2016-02-04T15:35:29Z</time>
      </trkpt>
      <trkpt lat="48.21356" lon="-3.10678">
        <ele>180</ele>
        <time>2016-02-04T15:35:33Z</time>
      </trkpt>
      <trkpt lat="48.21355" lon="-3.10682">
        <ele>180</ele>
        <time>2016-02-04T15:35:36Z</time>
      </trkpt>
      <trkpt lat="48.21354" lon="-3.10687">
        <ele>180</ele>
        <time>2016-02-04T15:35:39Z</time>
      </trkpt>
      <trkpt lat="48.21352" lon="-3.10691">
        <ele>180</ele>
        <time>2016-02-04T15:35:42Z</time>
      </trkpt>
      <trkpt lat="48.21351" lon="-3.10696">
        <ele>180</ele>
        <time>2016-02-04T15:35:46Z</time>
      </trkpt>
      <trkpt lat="48.21349" lon="-3.107">
        <ele>180</ele>
        <time>2016-02-04T15:35:50Z</time>
      </trkpt>
      <trkpt lat="48.21347" lon="-3.10705">
        <ele>180</ele>
        <time>2016-02-04T15:35:53Z</time>
      </trkpt>
      <trkpt lat="48.21346" lon="-3.10711">
        <ele>180</ele>
        <time>2016-02-04T15:35:57Z</time>
      </trkpt>
      <trkpt lat="48.21346" lon="-3.10713">
        <ele>180</ele>
        <time>2016-02-04T15:36:03Z</time>
      </trkpt>
      <trkpt lat="48.21345" lon="-3.10718">
        <ele>180</ele>
        <time>2016-02-04T15:36:06Z</time>
      </trkpt>
      <trkpt lat="48.21344" lon="-3.10723">
        <ele>180</ele>
        <time>2016-02-04T15:36:09Z</time>
      </trkpt>
      <trkpt lat="48.21343" lon="-3.1073">
        <ele>180</ele>
        <time>2016-02-04T15:36:13Z</time>
      </trkpt>
      <trkpt lat="48.21342" lon="-3.10735">
        <ele>180</ele>
        <time>2016-02-04T15:36:16Z</time>
      </trkpt>
      <trkpt lat="48.21341" lon="-3.1074">
        <ele>180</ele>
        <time>2016-02-04T15:36:19Z</time>
      </trkpt>
      <trkpt lat="48.21341" lon="-3.10745">
        <ele>180</ele>
        <time>2016-02-04T15:36:22Z</time>
      </trkpt>
      <trkpt lat="48.2134" lon="-3.1075">
        <ele>180</ele>
        <time>2016-02-04T15:36:25Z</time>
      </trkpt>
      <trkpt lat="48.21339" lon="-3.10755">
        <ele>180</ele>
        <time>2016-02-04T15:36:28Z</time>
      </trkpt>
      <trkpt lat="48.21339" lon="-3.1076">
        <ele>179</ele>
        <time>2016-02-04T15:36:31Z</time>
      </trkpt>
      <trkpt lat="48.21338" lon="-3.10766">
        <ele>179</ele>
        <time>2016-02-04T15:36:34Z</time>
      </trkpt>
      <trkpt lat="48.21338" lon="-3.10771">
        <ele>179</ele>
        <time>2016-02-04T15:36:37Z</time>
      </trkpt>
      <trkpt lat="48.21338" lon="-3.10777">
        <ele>179</ele>
        <time>2016-02-04T15:36:40Z</time>
      </trkpt>
      <trkpt lat="48.21338" lon="-3.10783">
        <ele>178</ele>
        <time>2016-02-04T15:36:43Z</time>
      </trkpt>
      <trkpt lat="48.21338" lon="-3.10788">
        <ele>178</ele>
        <time>2016-02-04T15:36:46Z</time>
      </trkpt>
      <trkpt lat="48.21338" lon="-3.10794">
        <ele>178</ele>
        <time>2016-02-04T15:36:49Z</time>
      </trkpt>
      <trkpt lat="48.21337" lon="-3.108">
        <ele>178</ele>
        <time>2016-02-04T15:36:52Z</time>
      </trkpt>
      <trkpt lat="48.21336" lon="-3.10805">
        <ele>178</ele>
        <time>2016-02-04T15:36:55Z</time>
      </trkpt>
      <trkpt lat="48.21335" lon="-3.10811">
        <ele>178</ele>
        <time>2016-02-04T15:36:58Z</time>
      </trkpt>
      <trkpt lat="48.21335" lon="-3.10816">
        <ele>178</ele>
        <time>2016-02-04T15:37:01Z</time>
      </trkpt>
      <trkpt lat="48.21335" lon="-3.10822">
        <ele>178</ele>
        <time>2016-02-04T15:37:04Z</time>
      </trkpt>
      <trkpt lat="48.21334" lon="-3.10828">
        <ele>177</ele>
        <time>2016-02-04T15:37:07Z</time>
      </trkpt>
      <trkpt lat="48.21333" lon="-3.10833">
        <ele>177</ele>
        <time>2016-02-04T15:37:10Z</time>
      </trkpt>
      <trkpt lat="48.21332" lon="-3.10839">
        <ele>177</ele>
        <time>2016-02-04T15:37:13Z</time>
      </trkpt>
      <trkpt lat="48.21332" lon="-3.10844">
        <ele>177</ele>
        <time>2016-02-04T15:37:16Z</time>
      </trkpt>
      <trkpt lat="48.21332" lon="-3.1085">
        <ele>177</ele>
        <time>2016-02-04T15:37:19Z</time>
      </trkpt>
      <trkpt lat="48.21331" lon="-3.10856">
        <ele>176</ele>
        <time>2016-02-04T15:37:23Z</time>
      </trkpt>
      <trkpt lat="48.21331" lon="-3.10862">
        <ele>176</ele>
        <time>2016-02-04T15:37:26Z</time>
      </trkpt>
      <trkpt lat="48.2133" lon="-3.10867">
        <ele>176</ele>
        <time>2016-02-04T15:37:29Z</time>
      </trkpt>
      <trkpt lat="48.21329" lon="-3.10873">
        <ele>176</ele>
        <time>2016-02-04T15:37:32Z</time>
      </trkpt>
      <trkpt lat="48.21328" lon="-3.10877">
        <ele>176</ele>
        <time>2016-02-04T15:37:35Z</time>
      </trkpt>
      <trkpt lat="48.21327" lon="-3.10882">
        <ele>176</ele>
        <time>2016-02-04T15:37:38Z</time>
      </trkpt>
      <trkpt lat="48.21327" lon="-3.10887">
        <ele>176</ele>
        <time>2016-02-04T15:37:41Z</time>
      </trkpt>
      <trkpt lat="48.21326" lon="-3.10889">
        <ele>176</ele>
        <time>2016-02-04T15:37:47Z</time>
      </trkpt>
      <trkpt lat="48.21326" lon="-3.10891">
        <ele>176</ele>
        <time>2016-02-04T15:37:50Z</time>
      </trkpt>
      <trkpt lat="48.21324" lon="-3.10892">
        <ele>176</ele>
        <time>2016-02-04T15:37:53Z</time>
      </trkpt>
      <trkpt lat="48.21324" lon="-3.10894">
        <ele>176</ele>
        <time>2016-02-04T15:38:24Z</time>
      </trkpt>
      <trkpt lat="48.21325" lon="-3.10895">
        <ele>175</ele>
        <time>2016-02-04T15:38:55Z</time>
      </trkpt>
      <trkpt lat="48.21325" lon="-3.10896">
        <ele>175</ele>
        <time>2016-02-04T15:39:15Z</time>
      </trkpt>
      <trkpt lat="48.21324" lon="-3.10895">
        <ele>175</ele>
        <time>2016-02-04T15:39:36Z</time>
      </trkpt>
      <trkpt lat="48.21323" lon="-3.10895">
        <ele>175</ele>
        <time>2016-02-04T15:39:58Z</time>
      </trkpt>
      <trkpt lat="48.21324" lon="-3.10894">
        <ele>175</ele>
        <time>2016-02-04T15:40:55Z</time>
      </trkpt>
      <trkpt lat="48.21326" lon="-3.10897">
        <ele>173</ele>
        <time>2016-02-04T15:41:24Z</time>
      </trkpt>
      <trkpt lat="48.21329" lon="-3.109">
        <ele>173</ele>
        <time>2016-02-04T15:41:28Z</time>
      </trkpt>
      <trkpt lat="48.21333" lon="-3.10903">
        <ele>172</ele>
        <time>2016-02-04T15:41:32Z</time>
      </trkpt>
      <trkpt lat="48.21336" lon="-3.10907">
        <ele>171</ele>
        <time>2016-02-04T15:41:35Z</time>
      </trkpt>
      <trkpt lat="48.21339" lon="-3.10912">
        <ele>170</ele>
        <time>2016-02-04T15:41:39Z</time>
      </trkpt>
      <trkpt lat="48.21341" lon="-3.10914">
        <ele>170</ele>
        <time>2016-02-04T15:41:42Z</time>
      </trkpt>
      <trkpt lat="48.21342" lon="-3.10915">
        <ele>170</ele>
        <time>2016-02-04T15:41:57Z</time>
      </trkpt>
      <trkpt lat="48.21343" lon="-3.10916">
        <ele>170</ele>
        <time>2016-02-04T15:42:07Z</time>
      </trkpt>
      <trkpt lat="48.21347" lon="-3.10921">
        <ele>170</ele>
        <time>2016-02-04T15:42:11Z</time>
      </trkpt>
      <trkpt lat="48.2135" lon="-3.10925">
        <ele>169</ele>
        <time>2016-02-04T15:42:15Z</time>
      </trkpt>
      <trkpt lat="48.21353" lon="-3.10929">
        <ele>169</ele>
        <time>2016-02-04T15:42:19Z</time>
      </trkpt>
      <trkpt lat="48.21356" lon="-3.10933">
        <ele>169</ele>
        <time>2016-02-04T15:42:23Z</time>
      </trkpt>
      <trkpt lat="48.21357" lon="-3.10934">
        <ele>169</ele>
        <time>2016-02-04T15:42:36Z</time>
      </trkpt>
      <trkpt lat="48.21358" lon="-3.10937">
        <ele>169</ele>
        <time>2016-02-04T15:42:44Z</time>
      </trkpt>
      <trkpt lat="48.21356" lon="-3.10936">
        <ele>169</ele>
        <time>2016-02-04T15:42:50Z</time>
      </trkpt>
      <trkpt lat="48.21357" lon="-3.10937">
        <ele>169</ele>
        <time>2016-02-04T15:42:55Z</time>
      </trkpt>
      <trkpt lat="48.21361" lon="-3.10942">
        <ele>169</ele>
        <time>2016-02-04T15:42:59Z</time>
      </trkpt>
      <trkpt lat="48.21365" lon="-3.10948">
        <ele>169</ele>
        <time>2016-02-04T15:43:03Z</time>
      </trkpt>
      <trkpt lat="48.21368" lon="-3.10953">
        <ele>169</ele>
        <time>2016-02-04T15:43:07Z</time>
      </trkpt>
      <trkpt lat="48.21371" lon="-3.10961">
        <ele>169</ele>
        <time>2016-02-04T15:43:12Z</time>
      </trkpt>
      <trkpt lat="48.21374" lon="-3.10966">
        <ele>169</ele>
        <time>2016-02-04T15:43:16Z</time>
      </trkpt>
      <trkpt lat="48.21376" lon="-3.10971">
        <ele>169</ele>
        <time>2016-02-04T15:43:20Z</time>
      </trkpt>
      <trkpt lat="48.21378" lon="-3.10976">
        <ele>169</ele>
        <time>2016-02-04T15:43:23Z</time>
      </trkpt>
      <trkpt lat="48.21381" lon="-3.1098">
        <ele>169</ele>
        <time>2016-02-04T15:43:27Z</time>
      </trkpt>
      <trkpt lat="48.21383" lon="-3.10985">
        <ele>169</ele>
        <time>2016-02-04T15:43:31Z</time>
      </trkpt>
      <trkpt lat="48.21385" lon="-3.10991">
        <ele>169</ele>
        <time>2016-02-04T15:43:34Z</time>
      </trkpt>
      <trkpt lat="48.21388" lon="-3.10996">
        <ele>169</ele>
        <time>2016-02-04T15:43:37Z</time>
      </trkpt>
      <trkpt lat="48.21392" lon="-3.11001">
        <ele>169</ele>
        <time>2016-02-04T15:43:41Z</time>
      </trkpt>
      <trkpt lat="48.21394" lon="-3.11006">
        <ele>169</ele>
        <time>2016-02-04T15:43:44Z</time>
      </trkpt>
      <trkpt lat="48.21396" lon="-3.1101">
        <ele>169</ele>
        <time>2016-02-04T15:43:47Z</time>
      </trkpt>
      <trkpt lat="48.21399" lon="-3.11014">
        <ele>169</ele>
        <time>2016-02-04T15:43:50Z</time>
      </trkpt>
      <trkpt lat="48.21402" lon="-3.11019">
        <ele>169</ele>
        <time>2016-02-04T15:43:54Z</time>
      </trkpt>
      <trkpt lat="48.21405" lon="-3.11024">
        <ele>169</ele>
        <time>2016-02-04T15:43:58Z</time>
      </trkpt>
      <trkpt lat="48.21409" lon="-3.11029">
        <ele>169</ele>
        <time>2016-02-04T15:44:01Z</time>
      </trkpt>
      <trkpt lat="48.21412" lon="-3.11033">
        <ele>169</ele>
        <time>2016-02-04T15:44:04Z</time>
      </trkpt>
      <trkpt lat="48.21414" lon="-3.11038">
        <ele>169</ele>
        <time>2016-02-04T15:44:07Z</time>
      </trkpt>
      <trkpt lat="48.21417" lon="-3.11044">
        <ele>169</ele>
        <time>2016-02-04T15:44:11Z</time>
      </trkpt>
      <trkpt lat="48.2142" lon="-3.11048">
        <ele>169</ele>
        <time>2016-02-04T15:44:15Z</time>
      </trkpt>
      <trkpt lat="48.21424" lon="-3.11053">
        <ele>169</ele>
        <time>2016-02-04T15:44:19Z</time>
      </trkpt>
      <trkpt lat="48.21428" lon="-3.11058">
        <ele>169</ele>
        <time>2016-02-04T15:44:22Z</time>
      </trkpt>
      <trkpt lat="48.21431" lon="-3.11063">
        <ele>169</ele>
        <time>2016-02-04T15:44:25Z</time>
      </trkpt>
      <trkpt lat="48.21434" lon="-3.11069">
        <ele>169</ele>
        <time>2016-02-04T15:44:29Z</time>
      </trkpt>
      <trkpt lat="48.21435" lon="-3.11074">
        <ele>168</ele>
        <time>2016-02-04T15:44:32Z</time>
      </trkpt>
      <trkpt lat="48.21438" lon="-3.1108">
        <ele>168</ele>
        <time>2016-02-04T15:44:36Z</time>
      </trkpt>
      <trkpt lat="48.21441" lon="-3.11086">
        <ele>167</ele>
        <time>2016-02-04T15:44:40Z</time>
      </trkpt>
      <trkpt lat="48.21444" lon="-3.11092">
        <ele>166</ele>
        <time>2016-02-04T15:44:44Z</time>
      </trkpt>
      <trkpt lat="48.21447" lon="-3.11097">
        <ele>166</ele>
        <time>2016-02-04T15:44:47Z</time>
      </trkpt>
      <trkpt lat="48.2145" lon="-3.11102">
        <ele>166</ele>
        <time>2016-02-04T15:44:50Z</time>
      </trkpt>
      <trkpt lat="48.21453" lon="-3.11108">
        <ele>165</ele>
        <time>2016-02-04T15:44:54Z</time>
      </trkpt>
      <trkpt lat="48.21455" lon="-3.11114">
        <ele>165</ele>
        <time>2016-02-04T15:44:58Z</time>
      </trkpt>
      <trkpt lat="48.21459" lon="-3.1112">
        <ele>165</ele>
        <time>2016-02-04T15:45:02Z</time>
      </trkpt>
      <trkpt lat="48.21463" lon="-3.11125">
        <ele>165</ele>
        <time>2016-02-04T15:45:06Z</time>
      </trkpt>
      <trkpt lat="48.21465" lon="-3.11132">
        <ele>165</ele>
        <time>2016-02-04T15:45:10Z</time>
      </trkpt>
      <trkpt lat="48.21468" lon="-3.11138">
        <ele>165</ele>
        <time>2016-02-04T15:45:14Z</time>
      </trkpt>
      <trkpt lat="48.21471" lon="-3.11143">
        <ele>165</ele>
        <time>2016-02-04T15:45:17Z</time>
      </trkpt>
      <trkpt lat="48.21474" lon="-3.11148">
        <ele>165</ele>
        <time>2016-02-04T15:45:20Z</time>
      </trkpt>
      <trkpt lat="48.21476" lon="-3.11153">
        <ele>165</ele>
        <time>2016-02-04T15:45:23Z</time>
      </trkpt>
      <trkpt lat="48.21478" lon="-3.11158">
        <ele>165</ele>
        <time>2016-02-04T15:45:26Z</time>
      </trkpt>
      <trkpt lat="48.2148" lon="-3.11164">
        <ele>165</ele>
        <time>2016-02-04T15:45:29Z</time>
      </trkpt>
      <trkpt lat="48.21483" lon="-3.11169">
        <ele>165</ele>
        <time>2016-02-04T15:45:32Z</time>
      </trkpt>
      <trkpt lat="48.21484" lon="-3.11175">
        <ele>165</ele>
        <time>2016-02-04T15:45:35Z</time>
      </trkpt>
      <trkpt lat="48.21486" lon="-3.1118">
        <ele>165</ele>
        <time>2016-02-04T15:45:38Z</time>
      </trkpt>
      <trkpt lat="48.21487" lon="-3.11186">
        <ele>165</ele>
        <time>2016-02-04T15:45:41Z</time>
      </trkpt>
      <trkpt lat="48.21489" lon="-3.11192">
        <ele>165</ele>
        <time>2016-02-04T15:45:44Z</time>
      </trkpt>
      <trkpt lat="48.2149" lon="-3.11197">
        <ele>165</ele>
        <time>2016-02-04T15:45:47Z</time>
      </trkpt>
      <trkpt lat="48.21492" lon="-3.11203">
        <ele>165</ele>
        <time>2016-02-04T15:45:50Z</time>
      </trkpt>
      <trkpt lat="48.21493" lon="-3.11209">
        <ele>165</ele>
        <time>2016-02-04T15:45:53Z</time>
      </trkpt>
      <trkpt lat="48.21495" lon="-3.11214">
        <ele>165</ele>
        <time>2016-02-04T15:45:56Z</time>
      </trkpt>
      <trkpt lat="48.21496" lon="-3.1122">
        <ele>165</ele>
        <time>2016-02-04T15:45:59Z</time>
      </trkpt>
      <trkpt lat="48.21497" lon="-3.11226">
        <ele>165</ele>
        <time>2016-02-04T15:46:02Z</time>
      </trkpt>
      <trkpt lat="48.21498" lon="-3.11232">
        <ele>165</ele>
        <time>2016-02-04T15:46:05Z</time>
      </trkpt>
      <trkpt lat="48.21499" lon="-3.11238">
        <ele>165</ele>
        <time>2016-02-04T15:46:08Z</time>
      </trkpt>
      <trkpt lat="48.215" lon="-3.11244">
        <ele>165</ele>
        <time>2016-02-04T15:46:11Z</time>
      </trkpt>
      <trkpt lat="48.21501" lon="-3.11249">
        <ele>165</ele>
        <time>2016-02-04T15:46:14Z</time>
      </trkpt>
      <trkpt lat="48.21501" lon="-3.11255">
        <ele>165</ele>
        <time>2016-02-04T15:46:17Z</time>
      </trkpt>
      <trkpt lat="48.21502" lon="-3.11261">
        <ele>165</ele>
        <time>2016-02-04T15:46:20Z</time>
      </trkpt>
      <trkpt lat="48.21503" lon="-3.11267">
        <ele>165</ele>
        <time>2016-02-04T15:46:23Z</time>
      </trkpt>
      <trkpt lat="48.21503" lon="-3.11273">
        <ele>165</ele>
        <time>2016-02-04T15:46:26Z</time>
      </trkpt>
      <trkpt lat="48.21503" lon="-3.11281">
        <ele>165</ele>
        <time>2016-02-04T15:46:30Z</time>
      </trkpt>
      <trkpt lat="48.21504" lon="-3.1129">
        <ele>165</ele>
        <time>2016-02-04T15:46:34Z</time>
      </trkpt>
      <trkpt lat="48.21505" lon="-3.11295">
        <ele>165</ele>
        <time>2016-02-04T15:46:37Z</time>
      </trkpt>
      <trkpt lat="48.21505" lon="-3.11301">
        <ele>165</ele>
        <time>2016-02-04T15:46:40Z</time>
      </trkpt>
      <trkpt lat="48.21505" lon="-3.11306">
        <ele>164</ele>
        <time>2016-02-04T15:46:43Z</time>
      </trkpt>
      <trkpt lat="48.21505" lon="-3.11312">
        <ele>164</ele>
        <time>2016-02-04T15:46:46Z</time>
      </trkpt>
      <trkpt lat="48.21506" lon="-3.1132">
        <ele>164</ele>
        <time>2016-02-04T15:46:50Z</time>
      </trkpt>
      <trkpt lat="48.21506" lon="-3.11326">
        <ele>164</ele>
        <time>2016-02-04T15:46:53Z</time>
      </trkpt>
      <trkpt lat="48.21506" lon="-3.11332">
        <ele>164</ele>
        <time>2016-02-04T15:46:57Z</time>
      </trkpt>
      <trkpt lat="48.21506" lon="-3.11337">
        <ele>164</ele>
        <time>2016-02-04T15:47:00Z</time>
      </trkpt>
      <trkpt lat="48.21506" lon="-3.11344">
        <ele>164</ele>
        <time>2016-02-04T15:47:03Z</time>
      </trkpt>
      <trkpt lat="48.21507" lon="-3.1135">
        <ele>164</ele>
        <time>2016-02-04T15:47:06Z</time>
      </trkpt>
      <trkpt lat="48.21507" lon="-3.11356">
        <ele>164</ele>
        <time>2016-02-04T15:47:09Z</time>
      </trkpt>
      <trkpt lat="48.21507" lon="-3.11364">
        <ele>164</ele>
        <time>2016-02-04T15:47:13Z</time>
      </trkpt>
      <trkpt lat="48.21508" lon="-3.1137">
        <ele>162</ele>
        <time>2016-02-04T15:47:16Z</time>
      </trkpt>
      <trkpt lat="48.21508" lon="-3.11375">
        <ele>162</ele>
        <time>2016-02-04T15:47:19Z</time>
      </trkpt>
      <trkpt lat="48.21508" lon="-3.11383">
        <ele>161</ele>
        <time>2016-02-04T15:47:23Z</time>
      </trkpt>
      <trkpt lat="48.21508" lon="-3.11392">
        <ele>161</ele>
        <time>2016-02-04T15:47:27Z</time>
      </trkpt>
      <trkpt lat="48.21509" lon="-3.11398">
        <ele>160</ele>
        <time>2016-02-04T15:47:30Z</time>
      </trkpt>
      <trkpt lat="48.21509" lon="-3.11404">
        <ele>159</ele>
        <time>2016-02-04T15:47:33Z</time>
      </trkpt>
      <trkpt lat="48.2151" lon="-3.11413">
        <ele>159</ele>
        <time>2016-02-04T15:47:38Z</time>
      </trkpt>
      <trkpt lat="48.21511" lon="-3.11417">
        <ele>158</ele>
        <time>2016-02-04T15:47:41Z</time>
      </trkpt>
      <trkpt lat="48.21511" lon="-3.11423">
        <ele>158</ele>
        <time>2016-02-04T15:47:44Z</time>
      </trkpt>
      <trkpt lat="48.21511" lon="-3.1143">
        <ele>158</ele>
        <time>2016-02-04T15:47:47Z</time>
      </trkpt>
      <trkpt lat="48.21512" lon="-3.11437">
        <ele>157</ele>
        <time>2016-02-04T15:47:51Z</time>
      </trkpt>
      <trkpt lat="48.21513" lon="-3.11445">
        <ele>157</ele>
        <time>2016-02-04T15:47:55Z</time>
      </trkpt>
      <trkpt lat="48.21513" lon="-3.11452">
        <ele>157</ele>
        <time>2016-02-04T15:47:58Z</time>
      </trkpt>
      <trkpt lat="48.21514" lon="-3.11457">
        <ele>157</ele>
        <time>2016-02-04T15:48:01Z</time>
      </trkpt>
      <trkpt lat="48.21515" lon="-3.11462">
        <ele>157</ele>
        <time>2016-02-04T15:48:04Z</time>
      </trkpt>
      <trkpt lat="48.21516" lon="-3.11469">
        <ele>157</ele>
        <time>2016-02-04T15:48:07Z</time>
      </trkpt>
      <trkpt lat="48.21516" lon="-3.11474">
        <ele>157</ele>
        <time>2016-02-04T15:48:10Z</time>
      </trkpt>
      <trkpt lat="48.21516" lon="-3.1148">
        <ele>157</ele>
        <time>2016-02-04T15:48:13Z</time>
      </trkpt>
      <trkpt lat="48.21516" lon="-3.11488">
        <ele>157</ele>
        <time>2016-02-04T15:48:17Z</time>
      </trkpt>
      <trkpt lat="48.21517" lon="-3.11493">
        <ele>157</ele>
        <time>2016-02-04T15:48:20Z</time>
      </trkpt>
      <trkpt lat="48.21518" lon="-3.11499">
        <ele>157</ele>
        <time>2016-02-04T15:48:23Z</time>
      </trkpt>
      <trkpt lat="48.21519" lon="-3.11507">
        <ele>157</ele>
        <time>2016-02-04T15:48:27Z</time>
      </trkpt>
      <trkpt lat="48.21519" lon="-3.11515">
        <ele>157</ele>
        <time>2016-02-04T15:48:31Z</time>
      </trkpt>
      <trkpt lat="48.2152" lon="-3.11521">
        <ele>157</ele>
        <time>2016-02-04T15:48:34Z</time>
      </trkpt>
      <trkpt lat="48.21522" lon="-3.11529">
        <ele>156</ele>
        <time>2016-02-04T15:48:38Z</time>
      </trkpt>
      <trkpt lat="48.21523" lon="-3.11535">
        <ele>156</ele>
        <time>2016-02-04T15:48:41Z</time>
      </trkpt>
      <trkpt lat="48.21525" lon="-3.11543">
        <ele>156</ele>
        <time>2016-02-04T15:48:45Z</time>
      </trkpt>
      <trkpt lat="48.21524" lon="-3.11549">
        <ele>156</ele>
        <time>2016-02-04T15:48:48Z</time>
      </trkpt>
      <trkpt lat="48.21525" lon="-3.11557">
        <ele>156</ele>
        <time>2016-02-04T15:48:52Z</time>
      </trkpt>
      <trkpt lat="48.21527" lon="-3.11563">
        <ele>156</ele>
        <time>2016-02-04T15:48:56Z</time>
      </trkpt>
      <trkpt lat="48.21528" lon="-3.11569">
        <ele>156</ele>
        <time>2016-02-04T15:48:59Z</time>
      </trkpt>
      <trkpt lat="48.2153" lon="-3.11578">
        <ele>156</ele>
        <time>2016-02-04T15:49:04Z</time>
      </trkpt>
      <trkpt lat="48.21531" lon="-3.11583">
        <ele>156</ele>
        <time>2016-02-04T15:49:07Z</time>
      </trkpt>
      <trkpt lat="48.21532" lon="-3.1159">
        <ele>156</ele>
        <time>2016-02-04T15:49:11Z</time>
      </trkpt>
      <trkpt lat="48.21534" lon="-3.11598">
        <ele>156</ele>
        <time>2016-02-04T15:49:15Z</time>
      </trkpt>
      <trkpt lat="48.21535" lon="-3.11603">
        <ele>155</ele>
        <time>2016-02-04T15:49:18Z</time>
      </trkpt>
      <trkpt lat="48.21535" lon="-3.11608">
        <ele>155</ele>
        <time>2016-02-04T15:49:21Z</time>
      </trkpt>
      <trkpt lat="48.21536" lon="-3.11613">
        <ele>155</ele>
        <time>2016-02-04T15:49:24Z</time>
      </trkpt>
      <trkpt lat="48.21537" lon="-3.11619">
        <ele>155</ele>
        <time>2016-02-04T15:49:27Z</time>
      </trkpt>
      <trkpt lat="48.21539" lon="-3.11628">
        <ele>154</ele>
        <time>2016-02-04T15:49:31Z</time>
      </trkpt>
      <trkpt lat="48.2154" lon="-3.11633">
        <ele>154</ele>
        <time>2016-02-04T15:49:34Z</time>
      </trkpt>
      <trkpt lat="48.21541" lon="-3.11638">
        <ele>154</ele>
        <time>2016-02-04T15:49:37Z</time>
      </trkpt>
      <trkpt lat="48.21543" lon="-3.11645">
        <ele>154</ele>
        <time>2016-02-04T15:49:41Z</time>
      </trkpt>
      <trkpt lat="48.21545" lon="-3.11651">
        <ele>154</ele>
        <time>2016-02-04T15:49:44Z</time>
      </trkpt>
      <trkpt lat="48.21548" lon="-3.11658">
        <ele>154</ele>
        <time>2016-02-04T15:49:48Z</time>
      </trkpt>
      <trkpt lat="48.21551" lon="-3.11666">
        <ele>152</ele>
        <time>2016-02-04T15:49:53Z</time>
      </trkpt>
      <trkpt lat="48.21553" lon="-3.11675">
        <ele>151</ele>
        <time>2016-02-04T15:49:57Z</time>
      </trkpt>
      <trkpt lat="48.21555" lon="-3.11681">
        <ele>151</ele>
        <time>2016-02-04T15:50:00Z</time>
      </trkpt>
      <trkpt lat="48.21556" lon="-3.11687">
        <ele>151</ele>
        <time>2016-02-04T15:50:03Z</time>
      </trkpt>
      <trkpt lat="48.21557" lon="-3.11695">
        <ele>151</ele>
        <time>2016-02-04T15:50:07Z</time>
      </trkpt>
      <trkpt lat="48.21559" lon="-3.11701">
        <ele>151</ele>
        <time>2016-02-04T15:50:10Z</time>
      </trkpt>
      <trkpt lat="48.2156" lon="-3.11706">
        <ele>151</ele>
        <time>2016-02-04T15:50:13Z</time>
      </trkpt>
      <trkpt lat="48.21561" lon="-3.11713">
        <ele>151</ele>
        <time>2016-02-04T15:50:17Z</time>
      </trkpt>
      <trkpt lat="48.21564" lon="-3.11719">
        <ele>151</ele>
        <time>2016-02-04T15:50:20Z</time>
      </trkpt>
      <trkpt lat="48.21565" lon="-3.11724">
        <ele>151</ele>
        <time>2016-02-04T15:50:23Z</time>
      </trkpt>
      <trkpt lat="48.21568" lon="-3.11731">
        <ele>151</ele>
        <time>2016-02-04T15:50:27Z</time>
      </trkpt>
      <trkpt lat="48.2157" lon="-3.11736">
        <ele>151</ele>
        <time>2016-02-04T15:50:30Z</time>
      </trkpt>
      <trkpt lat="48.21573" lon="-3.11743">
        <ele>151</ele>
        <time>2016-02-04T15:50:34Z</time>
      </trkpt>
      <trkpt lat="48.21576" lon="-3.11749">
        <ele>150</ele>
        <time>2016-02-04T15:50:38Z</time>
      </trkpt>
      <trkpt lat="48.21579" lon="-3.11754">
        <ele>150</ele>
        <time>2016-02-04T15:50:41Z</time>
      </trkpt>
      <trkpt lat="48.21582" lon="-3.11759">
        <ele>150</ele>
        <time>2016-02-04T15:50:44Z</time>
      </trkpt>
      <trkpt lat="48.21584" lon="-3.11765">
        <ele>150</ele>
        <time>2016-02-04T15:50:47Z</time>
      </trkpt>
      <trkpt lat="48.21586" lon="-3.11772">
        <ele>150</ele>
        <time>2016-02-04T15:50:51Z</time>
      </trkpt>
      <trkpt lat="48.21587" lon="-3.11777">
        <ele>150</ele>
        <time>2016-02-04T15:50:54Z</time>
      </trkpt>
      <trkpt lat="48.2159" lon="-3.11784">
        <ele>150</ele>
        <time>2016-02-04T15:50:58Z</time>
      </trkpt>
      <trkpt lat="48.21592" lon="-3.1179">
        <ele>150</ele>
        <time>2016-02-04T15:51:02Z</time>
      </trkpt>
      <trkpt lat="48.21594" lon="-3.11795">
        <ele>150</ele>
        <time>2016-02-04T15:51:05Z</time>
      </trkpt>
      <trkpt lat="48.21595" lon="-3.11802">
        <ele>150</ele>
        <time>2016-02-04T15:51:09Z</time>
      </trkpt>
      <trkpt lat="48.21597" lon="-3.11809">
        <ele>150</ele>
        <time>2016-02-04T15:51:13Z</time>
      </trkpt>
      <trkpt lat="48.21599" lon="-3.11813">
        <ele>150</ele>
        <time>2016-02-04T15:51:16Z</time>
      </trkpt>
      <trkpt lat="48.21601" lon="-3.11818">
        <ele>150</ele>
        <time>2016-02-04T15:51:19Z</time>
      </trkpt>
      <trkpt lat="48.21604" lon="-3.11825">
        <ele>150</ele>
        <time>2016-02-04T15:51:23Z</time>
      </trkpt>
      <trkpt lat="48.21607" lon="-3.1183">
        <ele>150</ele>
        <time>2016-02-04T15:51:26Z</time>
      </trkpt>
      <trkpt lat="48.21609" lon="-3.11836">
        <ele>150</ele>
        <time>2016-02-04T15:51:29Z</time>
      </trkpt>
      <trkpt lat="48.21611" lon="-3.11841">
        <ele>150</ele>
        <time>2016-02-04T15:51:32Z</time>
      </trkpt>
      <trkpt lat="48.21613" lon="-3.11846">
        <ele>150</ele>
        <time>2016-02-04T15:51:35Z</time>
      </trkpt>
      <trkpt lat="48.21616" lon="-3.11853">
        <ele>149</ele>
        <time>2016-02-04T15:51:39Z</time>
      </trkpt>
      <trkpt lat="48.21617" lon="-3.11858">
        <ele>149</ele>
        <time>2016-02-04T15:51:42Z</time>
      </trkpt>
      <trkpt lat="48.21619" lon="-3.11862">
        <ele>149</ele>
        <time>2016-02-04T15:51:46Z</time>
      </trkpt>
      <trkpt lat="48.21622" lon="-3.11867">
        <ele>149</ele>
        <time>2016-02-04T15:51:50Z</time>
      </trkpt>
      <trkpt lat="48.21625" lon="-3.11872">
        <ele>149</ele>
        <time>2016-02-04T15:51:53Z</time>
      </trkpt>
      <trkpt lat="48.21627" lon="-3.11878">
        <ele>149</ele>
        <time>2016-02-04T15:51:57Z</time>
      </trkpt>
      <trkpt lat="48.21632" lon="-3.11884">
        <ele>149</ele>
        <time>2016-02-04T15:52:01Z</time>
      </trkpt>
      <trkpt lat="48.21636" lon="-3.11889">
        <ele>149</ele>
        <time>2016-02-04T15:52:05Z</time>
      </trkpt>
      <trkpt lat="48.21638" lon="-3.11893">
        <ele>149</ele>
        <time>2016-02-04T15:52:08Z</time>
      </trkpt>
      <trkpt lat="48.2164" lon="-3.11898">
        <ele>149</ele>
        <time>2016-02-04T15:52:11Z</time>
      </trkpt>
      <trkpt lat="48.21644" lon="-3.11903">
        <ele>149</ele>
        <time>2016-02-04T15:52:14Z</time>
      </trkpt>
      <trkpt lat="48.21648" lon="-3.1191">
        <ele>149</ele>
        <time>2016-02-04T15:52:18Z</time>
      </trkpt>
      <trkpt lat="48.21651" lon="-3.11914">
        <ele>149</ele>
        <time>2016-02-04T15:52:21Z</time>
      </trkpt>
      <trkpt lat="48.21653" lon="-3.11919">
        <ele>150</ele>
        <time>2016-02-04T15:52:25Z</time>
      </trkpt>
      <trkpt lat="48.21656" lon="-3.11924">
        <ele>150</ele>
        <time>2016-02-04T15:52:29Z</time>
      </trkpt>
      <trkpt lat="48.21659" lon="-3.11931">
        <ele>150</ele>
        <time>2016-02-04T15:52:34Z</time>
      </trkpt>
      <trkpt lat="48.21662" lon="-3.11936">
        <ele>150</ele>
        <time>2016-02-04T15:52:38Z</time>
      </trkpt>
      <trkpt lat="48.21665" lon="-3.11941">
        <ele>150</ele>
        <time>2016-02-04T15:52:42Z</time>
      </trkpt>
      <trkpt lat="48.21668" lon="-3.11947">
        <ele>150</ele>
        <time>2016-02-04T15:52:46Z</time>
      </trkpt>
      <trkpt lat="48.21672" lon="-3.11953">
        <ele>150</ele>
        <time>2016-02-04T15:52:50Z</time>
      </trkpt>
      <trkpt lat="48.21675" lon="-3.11957">
        <ele>150</ele>
        <time>2016-02-04T15:52:53Z</time>
      </trkpt>
      <trkpt lat="48.21677" lon="-3.11961">
        <ele>150</ele>
        <time>2016-02-04T15:52:56Z</time>
      </trkpt>
      <trkpt lat="48.21679" lon="-3.11967">
        <ele>150</ele>
        <time>2016-02-04T15:53:00Z</time>
      </trkpt>
      <trkpt lat="48.21683" lon="-3.11973">
        <ele>150</ele>
        <time>2016-02-04T15:53:04Z</time>
      </trkpt>
      <trkpt lat="48.21687" lon="-3.11977">
        <ele>150</ele>
        <time>2016-02-04T15:53:07Z</time>
      </trkpt>
      <trkpt lat="48.21692" lon="-3.11982">
        <ele>150</ele>
        <time>2016-02-04T15:53:12Z</time>
      </trkpt>
      <trkpt lat="48.21694" lon="-3.11987">
        <ele>150</ele>
        <time>2016-02-04T15:53:16Z</time>
      </trkpt>
      <trkpt lat="48.21697" lon="-3.11992">
        <ele>150</ele>
        <time>2016-02-04T15:53:20Z</time>
      </trkpt>
      <trkpt lat="48.217" lon="-3.11998">
        <ele>150</ele>
        <time>2016-02-04T15:53:24Z</time>
      </trkpt>
      <trkpt lat="48.21702" lon="-3.12002">
        <ele>150</ele>
        <time>2016-02-04T15:53:27Z</time>
      </trkpt>
      <trkpt lat="48.21703" lon="-3.12007">
        <ele>150</ele>
        <time>2016-02-04T15:53:30Z</time>
      </trkpt>
      <trkpt lat="48.21707" lon="-3.12014">
        <ele>150</ele>
        <time>2016-02-04T15:53:34Z</time>
      </trkpt>
      <trkpt lat="48.2171" lon="-3.12018">
        <ele>150</ele>
        <time>2016-02-04T15:53:37Z</time>
      </trkpt>
      <trkpt lat="48.21713" lon="-3.12024">
        <ele>150</ele>
        <time>2016-02-04T15:53:41Z</time>
      </trkpt>
      <trkpt lat="48.21716" lon="-3.12029">
        <ele>149</ele>
        <time>2016-02-04T15:53:45Z</time>
      </trkpt>
      <trkpt lat="48.21719" lon="-3.12034">
        <ele>148</ele>
        <time>2016-02-04T15:53:49Z</time>
      </trkpt>
      <trkpt lat="48.21722" lon="-3.12039">
        <ele>148</ele>
        <time>2016-02-04T15:53:53Z</time>
      </trkpt>
      <trkpt lat="48.21725" lon="-3.12046">
        <ele>147</ele>
        <time>2016-02-04T15:53:57Z</time>
      </trkpt>
      <trkpt lat="48.21728" lon="-3.12051">
        <ele>147</ele>
        <time>2016-02-04T15:54:01Z</time>
      </trkpt>
      <trkpt lat="48.2173" lon="-3.12056">
        <ele>147</ele>
        <time>2016-02-04T15:54:05Z</time>
      </trkpt>
      <trkpt lat="48.21734" lon="-3.12062">
        <ele>146</ele>
        <time>2016-02-04T15:54:09Z</time>
      </trkpt>
      <trkpt lat="48.21737" lon="-3.12067">
        <ele>145</ele>
        <time>2016-02-04T15:54:13Z</time>
      </trkpt>
      <trkpt lat="48.2174" lon="-3.12072">
        <ele>145</ele>
        <time>2016-02-04T15:54:17Z</time>
      </trkpt>
      <trkpt lat="48.21743" lon="-3.12078">
        <ele>144</ele>
        <time>2016-02-04T15:54:21Z</time>
      </trkpt>
      <trkpt lat="48.21747" lon="-3.12083">
        <ele>144</ele>
        <time>2016-02-04T15:54:25Z</time>
      </trkpt>
      <trkpt lat="48.21751" lon="-3.12089">
        <ele>144</ele>
        <time>2016-02-04T15:54:29Z</time>
      </trkpt>
      <trkpt lat="48.21755" lon="-3.12093">
        <ele>144</ele>
        <time>2016-02-04T15:54:33Z</time>
      </trkpt>
      <trkpt lat="48.21759" lon="-3.12098">
        <ele>144</ele>
        <time>2016-02-04T15:54:37Z</time>
      </trkpt>
      <trkpt lat="48.21762" lon="-3.12103">
        <ele>144</ele>
        <time>2016-02-04T15:54:40Z</time>
      </trkpt>
      <trkpt lat="48.21765" lon="-3.12107">
        <ele>144</ele>
        <time>2016-02-04T15:54:43Z</time>
      </trkpt>
      <trkpt lat="48.21768" lon="-3.12112">
        <ele>144</ele>
        <time>2016-02-04T15:54:46Z</time>
      </trkpt>
      <trkpt lat="48.21771" lon="-3.12117">
        <ele>144</ele>
        <time>2016-02-04T15:54:50Z</time>
      </trkpt>
      <trkpt lat="48.21776" lon="-3.12123">
        <ele>144</ele>
        <time>2016-02-04T15:54:54Z</time>
      </trkpt>
      <trkpt lat="48.21779" lon="-3.12129">
        <ele>144</ele>
        <time>2016-02-04T15:54:58Z</time>
      </trkpt>
      <trkpt lat="48.21783" lon="-3.12133">
        <ele>144</ele>
        <time>2016-02-04T15:55:01Z</time>
      </trkpt>
      <trkpt lat="48.21786" lon="-3.12137">
        <ele>144</ele>
        <time>2016-02-04T15:55:04Z</time>
      </trkpt>
      <trkpt lat="48.2179" lon="-3.12142">
        <ele>144</ele>
        <time>2016-02-04T15:55:08Z</time>
      </trkpt>
      <trkpt lat="48.21792" lon="-3.12147">
        <ele>144</ele>
        <time>2016-02-04T15:55:11Z</time>
      </trkpt>
      <trkpt lat="48.21796" lon="-3.12154">
        <ele>144</ele>
        <time>2016-02-04T15:55:15Z</time>
      </trkpt>
      <trkpt lat="48.21798" lon="-3.12159">
        <ele>144</ele>
        <time>2016-02-04T15:55:18Z</time>
      </trkpt>
      <trkpt lat="48.21801" lon="-3.12164">
        <ele>144</ele>
        <time>2016-02-04T15:55:21Z</time>
      </trkpt>
      <trkpt lat="48.21805" lon="-3.1217">
        <ele>144</ele>
        <time>2016-02-04T15:55:25Z</time>
      </trkpt>
      <trkpt lat="48.21808" lon="-3.12175">
        <ele>144</ele>
        <time>2016-02-04T15:55:29Z</time>
      </trkpt>
      <trkpt lat="48.21811" lon="-3.1218">
        <ele>144</ele>
        <time>2016-02-04T15:55:32Z</time>
      </trkpt>
      <trkpt lat="48.21813" lon="-3.12187">
        <ele>144</ele>
        <time>2016-02-04T15:55:36Z</time>
      </trkpt>
      <trkpt lat="48.21814" lon="-3.12192">
        <ele>144</ele>
        <time>2016-02-04T15:55:40Z</time>
      </trkpt>
      <trkpt lat="48.21816" lon="-3.12198">
        <ele>145</ele>
        <time>2016-02-04T15:55:43Z</time>
      </trkpt>
      <trkpt lat="48.21818" lon="-3.12204">
        <ele>145</ele>
        <time>2016-02-04T15:55:46Z</time>
      </trkpt>
      <trkpt lat="48.21819" lon="-3.1221">
        <ele>145</ele>
        <time>2016-02-04T15:55:49Z</time>
      </trkpt>
      <trkpt lat="48.21821" lon="-3.12215">
        <ele>145</ele>
        <time>2016-02-04T15:55:52Z</time>
      </trkpt>
      <trkpt lat="48.21823" lon="-3.12223">
        <ele>145</ele>
        <time>2016-02-04T15:55:56Z</time>
      </trkpt>
      <trkpt lat="48.21824" lon="-3.1223">
        <ele>145</ele>
        <time>2016-02-04T15:56:00Z</time>
      </trkpt>
      <trkpt lat="48.21827" lon="-3.12236">
        <ele>145</ele>
        <time>2016-02-04T15:56:03Z</time>
      </trkpt>
      <trkpt lat="48.21828" lon="-3.12241">
        <ele>145</ele>
        <time>2016-02-04T15:56:06Z</time>
      </trkpt>
      <trkpt lat="48.2183" lon="-3.12248">
        <ele>145</ele>
        <time>2016-02-04T15:56:10Z</time>
      </trkpt>
      <trkpt lat="48.21831" lon="-3.12255">
        <ele>145</ele>
        <time>2016-02-04T15:56:14Z</time>
      </trkpt>
      <trkpt lat="48.21833" lon="-3.12263">
        <ele>145</ele>
        <time>2016-02-04T15:56:18Z</time>
      </trkpt>
      <trkpt lat="48.21833" lon="-3.12269">
        <ele>145</ele>
        <time>2016-02-04T15:56:21Z</time>
      </trkpt>
      <trkpt lat="48.21834" lon="-3.12275">
        <ele>145</ele>
        <time>2016-02-04T15:56:24Z</time>
      </trkpt>
      <trkpt lat="48.21836" lon="-3.12281">
        <ele>144</ele>
        <time>2016-02-04T15:56:27Z</time>
      </trkpt>
      <trkpt lat="48.21836" lon="-3.12288">
        <ele>144</ele>
        <time>2016-02-04T15:56:30Z</time>
      </trkpt>
      <trkpt lat="48.21837" lon="-3.12294">
        <ele>144</ele>
        <time>2016-02-04T15:56:33Z</time>
      </trkpt>
      <trkpt lat="48.21838" lon="-3.12299">
        <ele>144</ele>
        <time>2016-02-04T15:56:36Z</time>
      </trkpt>
      <trkpt lat="48.21838" lon="-3.12305">
        <ele>144</ele>
        <time>2016-02-04T15:56:39Z</time>
      </trkpt>
      <trkpt lat="48.21838" lon="-3.12311">
        <ele>144</ele>
        <time>2016-02-04T15:56:42Z</time>
      </trkpt>
      <trkpt lat="48.21838" lon="-3.12318">
        <ele>144</ele>
        <time>2016-02-04T15:56:46Z</time>
      </trkpt>
      <trkpt lat="48.21838" lon="-3.1232">
        <ele>142</ele>
        <time>2016-02-04T15:56:59Z</time>
      </trkpt>
      <trkpt lat="48.21838" lon="-3.12322">
        <ele>142</ele>
        <time>2016-02-04T15:57:12Z</time>
      </trkpt>
      <trkpt lat="48.2184" lon="-3.12326">
        <ele>142</ele>
        <time>2016-02-04T15:57:15Z</time>
      </trkpt>
      <trkpt lat="48.2184" lon="-3.12332">
        <ele>142</ele>
        <time>2016-02-04T15:57:18Z</time>
      </trkpt>
      <trkpt lat="48.2184" lon="-3.12338">
        <ele>142</ele>
        <time>2016-02-04T15:57:21Z</time>
      </trkpt>
      <trkpt lat="48.2184" lon="-3.12343">
        <ele>142</ele>
        <time>2016-02-04T15:57:24Z</time>
      </trkpt>
      <trkpt lat="48.21839" lon="-3.12349">
        <ele>142</ele>
        <time>2016-02-04T15:57:27Z</time>
      </trkpt>
      <trkpt lat="48.21839" lon="-3.12354">
        <ele>142</ele>
        <time>2016-02-04T15:57:30Z</time>
      </trkpt>
      <trkpt lat="48.21838" lon="-3.1236">
        <ele>142</ele>
        <time>2016-02-04T15:57:33Z</time>
      </trkpt>
      <trkpt lat="48.21838" lon="-3.12366">
        <ele>142</ele>
        <time>2016-02-04T15:57:36Z</time>
      </trkpt>
      <trkpt lat="48.21837" lon="-3.12372">
        <ele>142</ele>
        <time>2016-02-04T15:57:39Z</time>
      </trkpt>
      <trkpt lat="48.21836" lon="-3.12379">
        <ele>142</ele>
        <time>2016-02-04T15:57:43Z</time>
      </trkpt>
      <trkpt lat="48.21835" lon="-3.12383">
        <ele>143</ele>
        <time>2016-02-04T15:57:50Z</time>
      </trkpt>
      <trkpt lat="48.21833" lon="-3.12389">
        <ele>145</ele>
        <time>2016-02-04T15:57:54Z</time>
      </trkpt>
      <trkpt lat="48.21834" lon="-3.12394">
        <ele>146</ele>
        <time>2016-02-04T15:57:58Z</time>
      </trkpt>
      <trkpt lat="48.21833" lon="-3.12399">
        <ele>146</ele>
        <time>2016-02-04T15:58:01Z</time>
      </trkpt>
      <trkpt lat="48.21832" lon="-3.12404">
        <ele>146</ele>
        <time>2016-02-04T15:58:04Z</time>
      </trkpt>
      <trkpt lat="48.21832" lon="-3.12409">
        <ele>148</ele>
        <time>2016-02-04T15:58:14Z</time>
      </trkpt>
      <trkpt lat="48.21831" lon="-3.1241">
        <ele>149</ele>
        <time>2016-02-04T15:58:20Z</time>
      </trkpt>
      <trkpt lat="48.21829" lon="-3.12415">
        <ele>150</ele>
        <time>2016-02-04T15:58:24Z</time>
      </trkpt>
      <trkpt lat="48.21828" lon="-3.1242">
        <ele>150</ele>
        <time>2016-02-04T15:58:27Z</time>
      </trkpt>
      <trkpt lat="48.21826" lon="-3.12424">
        <ele>150</ele>
        <time>2016-02-04T15:58:30Z</time>
      </trkpt>
      <trkpt lat="48.21825" lon="-3.12431">
        <ele>150</ele>
        <time>2016-02-04T15:58:34Z</time>
      </trkpt>
      <trkpt lat="48.21824" lon="-3.12437">
        <ele>150</ele>
        <time>2016-02-04T15:58:38Z</time>
      </trkpt>
      <trkpt lat="48.21823" lon="-3.12442">
        <ele>150</ele>
        <time>2016-02-04T15:58:41Z</time>
      </trkpt>
      <trkpt lat="48.21821" lon="-3.12449">
        <ele>150</ele>
        <time>2016-02-04T15:58:45Z</time>
      </trkpt>
      <trkpt lat="48.21819" lon="-3.12456">
        <ele>150</ele>
        <time>2016-02-04T15:58:49Z</time>
      </trkpt>
      <trkpt lat="48.21817" lon="-3.12461">
        <ele>150</ele>
        <time>2016-02-04T15:58:52Z</time>
      </trkpt>
      <trkpt lat="48.21815" lon="-3.12466">
        <ele>148</ele>
        <time>2016-02-04T15:58:56Z</time>
      </trkpt>
      <trkpt lat="48.21814" lon="-3.12471">
        <ele>147</ele>
        <time>2016-02-04T15:58:59Z</time>
      </trkpt>
      <trkpt lat="48.21812" lon="-3.12478">
        <ele>145</ele>
        <time>2016-02-04T15:59:03Z</time>
      </trkpt>
      <trkpt lat="48.21809" lon="-3.12484">
        <ele>144</ele>
        <time>2016-02-04T15:59:06Z</time>
      </trkpt>
      <trkpt lat="48.21806" lon="-3.1249">
        <ele>144</ele>
        <time>2016-02-04T15:59:10Z</time>
      </trkpt>
      <trkpt lat="48.21803" lon="-3.12496">
        <ele>143</ele>
        <time>2016-02-04T15:59:14Z</time>
      </trkpt>
      <trkpt lat="48.21801" lon="-3.12501">
        <ele>142</ele>
        <time>2016-02-04T15:59:17Z</time>
      </trkpt>
      <trkpt lat="48.21799" lon="-3.12505">
        <ele>142</ele>
        <time>2016-02-04T15:59:20Z</time>
      </trkpt>
      <trkpt lat="48.21795" lon="-3.1251">
        <ele>142</ele>
        <time>2016-02-04T15:59:24Z</time>
      </trkpt>
      <trkpt lat="48.21792" lon="-3.12512">
        <ele>142</ele>
        <time>2016-02-04T15:59:27Z</time>
      </trkpt>
      <trkpt lat="48.21789" lon="-3.12517">
        <ele>142</ele>
        <time>2016-02-04T15:59:31Z</time>
      </trkpt>
      <trkpt lat="48.21786" lon="-3.12523">
        <ele>142</ele>
        <time>2016-02-04T15:59:34Z</time>
      </trkpt>
      <trkpt lat="48.21784" lon="-3.12527">
        <ele>142</ele>
        <time>2016-02-04T15:59:37Z</time>
      </trkpt>
      <trkpt lat="48.21781" lon="-3.12531">
        <ele>142</ele>
        <time>2016-02-04T15:59:40Z</time>
      </trkpt>
      <trkpt lat="48.21779" lon="-3.12537">
        <ele>142</ele>
        <time>2016-02-04T15:59:43Z</time>
      </trkpt>
      <trkpt lat="48.21776" lon="-3.12542">
        <ele>142</ele>
        <time>2016-02-04T15:59:47Z</time>
      </trkpt>
      <trkpt lat="48.21772" lon="-3.12546">
        <ele>142</ele>
        <time>2016-02-04T15:59:51Z</time>
      </trkpt>
      <trkpt lat="48.21768" lon="-3.12551">
        <ele>142</ele>
        <time>2016-02-04T15:59:55Z</time>
      </trkpt>
      <trkpt lat="48.21766" lon="-3.12556">
        <ele>142</ele>
        <time>2016-02-04T15:59:58Z</time>
      </trkpt>
      <trkpt lat="48.21764" lon="-3.12562">
        <ele>142</ele>
        <time>2016-02-04T16:00:02Z</time>
      </trkpt>
      <trkpt lat="48.2176" lon="-3.12568">
        <ele>142</ele>
        <time>2016-02-04T16:00:06Z</time>
      </trkpt>
      <trkpt lat="48.21758" lon="-3.12572">
        <ele>142</ele>
        <time>2016-02-04T16:00:09Z</time>
      </trkpt>
      <trkpt lat="48.21755" lon="-3.12578">
        <ele>141</ele>
        <time>2016-02-04T16:00:13Z</time>
      </trkpt>
      <trkpt lat="48.21751" lon="-3.12584">
        <ele>141</ele>
        <time>2016-02-04T16:00:17Z</time>
      </trkpt>
      <trkpt lat="48.21749" lon="-3.12588">
        <ele>141</ele>
        <time>2016-02-04T16:00:20Z</time>
      </trkpt>
      <trkpt lat="48.21747" lon="-3.12593">
        <ele>141</ele>
        <time>2016-02-04T16:00:23Z</time>
      </trkpt>
      <trkpt lat="48.21745" lon="-3.12598">
        <ele>141</ele>
        <time>2016-02-04T16:00:26Z</time>
      </trkpt>
      <trkpt lat="48.21743" lon="-3.12603">
        <ele>140</ele>
        <time>2016-02-04T16:00:29Z</time>
      </trkpt>
      <trkpt lat="48.2174" lon="-3.12606">
        <ele>140</ele>
        <time>2016-02-04T16:00:32Z</time>
      </trkpt>
      <trkpt lat="48.21739" lon="-3.1261">
        <ele>140</ele>
        <time>2016-02-04T16:00:35Z</time>
      </trkpt>
      <trkpt lat="48.21736" lon="-3.12616">
        <ele>140</ele>
        <time>2016-02-04T16:00:38Z</time>
      </trkpt>
      <trkpt lat="48.21734" lon="-3.12621">
        <ele>140</ele>
        <time>2016-02-04T16:00:41Z</time>
      </trkpt>
      <trkpt lat="48.21732" lon="-3.12626">
        <ele>140</ele>
        <time>2016-02-04T16:00:44Z</time>
      </trkpt>
      <trkpt lat="48.2173" lon="-3.1263">
        <ele>140</ele>
        <time>2016-02-04T16:00:47Z</time>
      </trkpt>
      <trkpt lat="48.21727" lon="-3.12636">
        <ele>140</ele>
        <time>2016-02-04T16:00:50Z</time>
      </trkpt>
      <trkpt lat="48.21724" lon="-3.12642">
        <ele>140</ele>
        <time>2016-02-04T16:00:54Z</time>
      </trkpt>
      <trkpt lat="48.21722" lon="-3.12647">
        <ele>140</ele>
        <time>2016-02-04T16:00:57Z</time>
      </trkpt>
      <trkpt lat="48.2172" lon="-3.12652">
        <ele>140</ele>
        <time>2016-02-04T16:01:00Z</time>
      </trkpt>
      <trkpt lat="48.21719" lon="-3.12657">
        <ele>140</ele>
        <time>2016-02-04T16:01:03Z</time>
      </trkpt>
      <trkpt lat="48.21717" lon="-3.12662">
        <ele>140</ele>
        <time>2016-02-04T16:01:06Z</time>
      </trkpt>
      <trkpt lat="48.21715" lon="-3.12668">
        <ele>140</ele>
        <time>2016-02-04T16:01:10Z</time>
      </trkpt>
      <trkpt lat="48.21712" lon="-3.12674">
        <ele>140</ele>
        <time>2016-02-04T16:01:14Z</time>
      </trkpt>
      <trkpt lat="48.2171" lon="-3.1268">
        <ele>140</ele>
        <time>2016-02-04T16:01:17Z</time>
      </trkpt>
      <trkpt lat="48.21708" lon="-3.12685">
        <ele>140</ele>
        <time>2016-02-04T16:01:20Z</time>
      </trkpt>
      <trkpt lat="48.21706" lon="-3.12692">
        <ele>140</ele>
        <time>2016-02-04T16:01:23Z</time>
      </trkpt>
      <trkpt lat="48.21704" lon="-3.12697">
        <ele>140</ele>
        <time>2016-02-04T16:01:26Z</time>
      </trkpt>
      <trkpt lat="48.21702" lon="-3.12703">
        <ele>140</ele>
        <time>2016-02-04T16:01:29Z</time>
      </trkpt>
      <trkpt lat="48.21699" lon="-3.12709">
        <ele>140</ele>
        <time>2016-02-04T16:01:33Z</time>
      </trkpt>
      <trkpt lat="48.21698" lon="-3.12714">
        <ele>140</ele>
        <time>2016-02-04T16:01:36Z</time>
      </trkpt>
      <trkpt lat="48.21697" lon="-3.12719">
        <ele>140</ele>
        <time>2016-02-04T16:01:39Z</time>
      </trkpt>
      <trkpt lat="48.21695" lon="-3.12724">
        <ele>140</ele>
        <time>2016-02-04T16:01:44Z</time>
      </trkpt>
      <trkpt lat="48.21693" lon="-3.1273">
        <ele>140</ele>
        <time>2016-02-04T16:01:48Z</time>
      </trkpt>
      <trkpt lat="48.21691" lon="-3.12736">
        <ele>140</ele>
        <time>2016-02-04T16:01:52Z</time>
      </trkpt>
      <trkpt lat="48.21689" lon="-3.12741">
        <ele>140</ele>
        <time>2016-02-04T16:01:55Z</time>
      </trkpt>
      <trkpt lat="48.21687" lon="-3.12746">
        <ele>140</ele>
        <time>2016-02-04T16:01:59Z</time>
      </trkpt>
      <trkpt lat="48.21684" lon="-3.12752">
        <ele>140</ele>
        <time>2016-02-04T16:02:03Z</time>
      </trkpt>
      <trkpt lat="48.21683" lon="-3.12756">
        <ele>140</ele>
        <time>2016-02-04T16:02:06Z</time>
      </trkpt>
      <trkpt lat="48.2168" lon="-3.12762">
        <ele>140</ele>
        <time>2016-02-04T16:02:10Z</time>
      </trkpt>
      <trkpt lat="48.21679" lon="-3.12767">
        <ele>140</ele>
        <time>2016-02-04T16:02:14Z</time>
      </trkpt>
      <trkpt lat="48.21676" lon="-3.12773">
        <ele>140</ele>
        <time>2016-02-04T16:02:18Z</time>
      </trkpt>
      <trkpt lat="48.21674" lon="-3.12779">
        <ele>140</ele>
        <time>2016-02-04T16:02:21Z</time>
      </trkpt>
      <trkpt lat="48.21672" lon="-3.12786">
        <ele>140</ele>
        <time>2016-02-04T16:02:24Z</time>
      </trkpt>
      <trkpt lat="48.21669" lon="-3.12792">
        <ele>140</ele>
        <time>2016-02-04T16:02:27Z</time>
      </trkpt>
      <trkpt lat="48.21666" lon="-3.12798">
        <ele>140</ele>
        <time>2016-02-04T16:02:30Z</time>
      </trkpt>
      <trkpt lat="48.21664" lon="-3.12804">
        <ele>140</ele>
        <time>2016-02-04T16:02:34Z</time>
      </trkpt>
      <trkpt lat="48.21661" lon="-3.1281">
        <ele>140</ele>
        <time>2016-02-04T16:02:38Z</time>
      </trkpt>
      <trkpt lat="48.21658" lon="-3.12814">
        <ele>140</ele>
        <time>2016-02-04T16:02:41Z</time>
      </trkpt>
      <trkpt lat="48.21655" lon="-3.12819">
        <ele>140</ele>
        <time>2016-02-04T16:02:44Z</time>
      </trkpt>
      <trkpt lat="48.21651" lon="-3.12823">
        <ele>140</ele>
        <time>2016-02-04T16:02:47Z</time>
      </trkpt>
      <trkpt lat="48.21648" lon="-3.12828">
        <ele>140</ele>
        <time>2016-02-04T16:02:51Z</time>
      </trkpt>
      <trkpt lat="48.21645" lon="-3.1283">
        <ele>140</ele>
        <time>2016-02-04T16:02:55Z</time>
      </trkpt>
      <trkpt lat="48.21644" lon="-3.12834">
        <ele>140</ele>
        <time>2016-02-04T16:02:59Z</time>
      </trkpt>
      <trkpt lat="48.2164" lon="-3.12839">
        <ele>140</ele>
        <time>2016-02-04T16:03:03Z</time>
      </trkpt>
      <trkpt lat="48.21638" lon="-3.12843">
        <ele>140</ele>
        <time>2016-02-04T16:03:06Z</time>
      </trkpt>
      <trkpt lat="48.21635" lon="-3.12848">
        <ele>140</ele>
        <time>2016-02-04T16:03:09Z</time>
      </trkpt>
      <trkpt lat="48.21632" lon="-3.12853">
        <ele>140</ele>
        <time>2016-02-04T16:03:12Z</time>
      </trkpt>
      <trkpt lat="48.21629" lon="-3.12857">
        <ele>140</ele>
        <time>2016-02-04T16:03:15Z</time>
      </trkpt>
      <trkpt lat="48.21627" lon="-3.12861">
        <ele>140</ele>
        <time>2016-02-04T16:03:19Z</time>
      </trkpt>
      <trkpt lat="48.21623" lon="-3.12865">
        <ele>140</ele>
        <time>2016-02-04T16:03:22Z</time>
      </trkpt>
      <trkpt lat="48.21619" lon="-3.12871">
        <ele>140</ele>
        <time>2016-02-04T16:03:26Z</time>
      </trkpt>
      <trkpt lat="48.21616" lon="-3.12876">
        <ele>141</ele>
        <time>2016-02-04T16:03:30Z</time>
      </trkpt>
      <trkpt lat="48.21613" lon="-3.1288">
        <ele>141</ele>
        <time>2016-02-04T16:03:34Z</time>
      </trkpt>
      <trkpt lat="48.2161" lon="-3.12882">
        <ele>141</ele>
        <time>2016-02-04T16:03:37Z</time>
      </trkpt>
      <trkpt lat="48.21606" lon="-3.12883">
        <ele>141</ele>
        <time>2016-02-04T16:03:40Z</time>
      </trkpt>
      <trkpt lat="48.21602" lon="-3.12879">
        <ele>141</ele>
        <time>2016-02-04T16:03:44Z</time>
      </trkpt>
      <trkpt lat="48.21601" lon="-3.12872">
        <ele>141</ele>
        <time>2016-02-04T16:03:48Z</time>
      </trkpt>
      <trkpt lat="48.21601" lon="-3.12867">
        <ele>141</ele>
        <time>2016-02-04T16:03:51Z</time>
      </trkpt>
      <trkpt lat="48.21601" lon="-3.12861">
        <ele>141</ele>
        <time>2016-02-04T16:03:55Z</time>
      </trkpt>
      <trkpt lat="48.21603" lon="-3.12856">
        <ele>141</ele>
        <time>2016-02-04T16:03:58Z</time>
      </trkpt>
      <trkpt lat="48.21603" lon="-3.12851">
        <ele>141</ele>
        <time>2016-02-04T16:04:01Z</time>
      </trkpt>
      <trkpt lat="48.21604" lon="-3.12846">
        <ele>141</ele>
        <time>2016-02-04T16:04:04Z</time>
      </trkpt>
      <trkpt lat="48.21604" lon="-3.1284">
        <ele>141</ele>
        <time>2016-02-04T16:04:08Z</time>
      </trkpt>
      <trkpt lat="48.21604" lon="-3.12834">
        <ele>141</ele>
        <time>2016-02-04T16:04:12Z</time>
      </trkpt>
      <trkpt lat="48.21603" lon="-3.12829">
        <ele>140</ele>
        <time>2016-02-04T16:04:15Z</time>
      </trkpt>
      <trkpt lat="48.21602" lon="-3.12824">
        <ele>139</ele>
        <time>2016-02-04T16:04:19Z</time>
      </trkpt>
      <trkpt lat="48.21601" lon="-3.12819">
        <ele>139</ele>
        <time>2016-02-04T16:04:22Z</time>
      </trkpt>
      <trkpt lat="48.21598" lon="-3.12814">
        <ele>138</ele>
        <time>2016-02-04T16:04:26Z</time>
      </trkpt>
      <trkpt lat="48.21594" lon="-3.1281">
        <ele>138</ele>
        <time>2016-02-04T16:04:30Z</time>
      </trkpt>
      <trkpt lat="48.2159" lon="-3.12807">
        <ele>138</ele>
        <time>2016-02-04T16:04:34Z</time>
      </trkpt>
      <trkpt lat="48.21586" lon="-3.12805">
        <ele>137</ele>
        <time>2016-02-04T16:04:37Z</time>
      </trkpt>
      <trkpt lat="48.21583" lon="-3.12804">
        <ele>137</ele>
        <time>2016-02-04T16:04:40Z</time>
      </trkpt>
      <trkpt lat="48.21579" lon="-3.12803">
        <ele>137</ele>
        <time>2016-02-04T16:04:43Z</time>
      </trkpt>
      <trkpt lat="48.21576" lon="-3.12802">
        <ele>136</ele>
        <time>2016-02-04T16:04:46Z</time>
      </trkpt>
      <trkpt lat="48.21572" lon="-3.12801">
        <ele>136</ele>
        <time>2016-02-04T16:04:49Z</time>
      </trkpt>
      <trkpt lat="48.21568" lon="-3.12801">
        <ele>135</ele>
        <time>2016-02-04T16:04:53Z</time>
      </trkpt>
      <trkpt lat="48.21565" lon="-3.12801">
        <ele>135</ele>
        <time>2016-02-04T16:04:56Z</time>
      </trkpt>
      <trkpt lat="48.21561" lon="-3.12801">
        <ele>135</ele>
        <time>2016-02-04T16:04:59Z</time>
      </trkpt>
      <trkpt lat="48.21558" lon="-3.12801">
        <ele>135</ele>
        <time>2016-02-04T16:05:02Z</time>
      </trkpt>
      <trkpt lat="48.21554" lon="-3.12802">
        <ele>135</ele>
        <time>2016-02-04T16:05:05Z</time>
      </trkpt>
      <trkpt lat="48.21551" lon="-3.12802">
        <ele>134</ele>
        <time>2016-02-04T16:05:08Z</time>
      </trkpt>
      <trkpt lat="48.21547" lon="-3.12802">
        <ele>134</ele>
        <time>2016-02-04T16:05:11Z</time>
      </trkpt>
      <trkpt lat="48.21543" lon="-3.12802">
        <ele>134</ele>
        <time>2016-02-04T16:05:14Z</time>
      </trkpt>
      <trkpt lat="48.2154" lon="-3.12802">
        <ele>134</ele>
        <time>2016-02-04T16:05:17Z</time>
      </trkpt>
      <trkpt lat="48.21536" lon="-3.12801">
        <ele>134</ele>
        <time>2016-02-04T16:05:20Z</time>
      </trkpt>
      <trkpt lat="48.21532" lon="-3.12801">
        <ele>134</ele>
        <time>2016-02-04T16:05:23Z</time>
      </trkpt>
      <trkpt lat="48.21529" lon="-3.12801">
        <ele>133</ele>
        <time>2016-02-04T16:05:26Z</time>
      </trkpt>
      <trkpt lat="48.21525" lon="-3.12801">
        <ele>133</ele>
        <time>2016-02-04T16:05:29Z</time>
      </trkpt>
      <trkpt lat="48.21521" lon="-3.12801">
        <ele>133</ele>
        <time>2016-02-04T16:05:32Z</time>
      </trkpt>
      <trkpt lat="48.21518" lon="-3.12802">
        <ele>133</ele>
        <time>2016-02-04T16:05:35Z</time>
      </trkpt>
      <trkpt lat="48.21514" lon="-3.12801">
        <ele>133</ele>
        <time>2016-02-04T16:05:38Z</time>
      </trkpt>
      <trkpt lat="48.2151" lon="-3.12801">
        <ele>133</ele>
        <time>2016-02-04T16:05:41Z</time>
      </trkpt>
      <trkpt lat="48.21507" lon="-3.12801">
        <ele>132</ele>
        <time>2016-02-04T16:05:44Z</time>
      </trkpt>
      <trkpt lat="48.21503" lon="-3.12802">
        <ele>132</ele>
        <time>2016-02-04T16:05:47Z</time>
      </trkpt>
      <trkpt lat="48.215" lon="-3.12802">
        <ele>132</ele>
        <time>2016-02-04T16:05:50Z</time>
      </trkpt>
      <trkpt lat="48.21496" lon="-3.12802">
        <ele>132</ele>
        <time>2016-02-04T16:05:53Z</time>
      </trkpt>
      <trkpt lat="48.21492" lon="-3.12802">
        <ele>132</ele>
        <time>2016-02-04T16:05:56Z</time>
      </trkpt>
      <trkpt lat="48.21489" lon="-3.12801">
        <ele>132</ele>
        <time>2016-02-04T16:05:59Z</time>
      </trkpt>
      <trkpt lat="48.21485" lon="-3.128">
        <ele>132</ele>
        <time>2016-02-04T16:06:02Z</time>
      </trkpt>
      <trkpt lat="48.21481" lon="-3.12797">
        <ele>132</ele>
        <time>2016-02-04T16:06:06Z</time>
      </trkpt>
      <trkpt lat="48.21478" lon="-3.12796">
        <ele>132</ele>
        <time>2016-02-04T16:06:10Z</time>
      </trkpt>
      <trkpt lat="48.21474" lon="-3.12796">
        <ele>131</ele>
        <time>2016-02-04T16:06:14Z</time>
      </trkpt>
      <trkpt lat="48.21469" lon="-3.12797">
        <ele>130</ele>
        <time>2016-02-04T16:06:18Z</time>
      </trkpt>
      <trkpt lat="48.21466" lon="-3.12797">
        <ele>130</ele>
        <time>2016-02-04T16:06:21Z</time>
      </trkpt>
      <trkpt lat="48.21462" lon="-3.12797">
        <ele>129</ele>
        <time>2016-02-04T16:06:24Z</time>
      </trkpt>
      <trkpt lat="48.21459" lon="-3.12797">
        <ele>128</ele>
        <time>2016-02-04T16:06:27Z</time>
      </trkpt>
      <trkpt lat="48.21454" lon="-3.12798">
        <ele>128</ele>
        <time>2016-02-04T16:06:31Z</time>
      </trkpt>
      <trkpt lat="48.2145" lon="-3.12799">
        <ele>128</ele>
        <time>2016-02-04T16:06:34Z</time>
      </trkpt>
      <trkpt lat="48.21445" lon="-3.12802">
        <ele>128</ele>
        <time>2016-02-04T16:06:37Z</time>
      </trkpt>
      <trkpt lat="48.21441" lon="-3.12802">
        <ele>128</ele>
        <time>2016-02-04T16:06:40Z</time>
      </trkpt>
      <trkpt lat="48.21439" lon="-3.12802">
        <ele>128</ele>
        <time>2016-02-04T16:06:43Z</time>
      </trkpt>
      <trkpt lat="48.21437" lon="-3.12802">
        <ele>128</ele>
        <time>2016-02-04T16:06:46Z</time>
      </trkpt>
      <trkpt lat="48.21435" lon="-3.12799">
        <ele>128</ele>
        <time>2016-02-04T16:06:50Z</time>
      </trkpt>
      <trkpt lat="48.21431" lon="-3.12797">
        <ele>128</ele>
        <time>2016-02-04T16:06:53Z</time>
      </trkpt>
      <trkpt lat="48.21428" lon="-3.12797">
        <ele>128</ele>
        <time>2016-02-04T16:06:56Z</time>
      </trkpt>
      <trkpt lat="48.21425" lon="-3.12799">
        <ele>128</ele>
        <time>2016-02-04T16:06:59Z</time>
      </trkpt>
      <trkpt lat="48.21421" lon="-3.12802">
        <ele>128</ele>
        <time>2016-02-04T16:07:03Z</time>
      </trkpt>
      <trkpt lat="48.21416" lon="-3.12804">
        <ele>128</ele>
        <time>2016-02-04T16:07:06Z</time>
      </trkpt>
      <trkpt lat="48.21412" lon="-3.12805">
        <ele>128</ele>
        <time>2016-02-04T16:07:09Z</time>
      </trkpt>
      <trkpt lat="48.21409" lon="-3.12805">
        <ele>128</ele>
        <time>2016-02-04T16:07:12Z</time>
      </trkpt>
      <trkpt lat="48.21404" lon="-3.12805">
        <ele>128</ele>
        <time>2016-02-04T16:07:16Z</time>
      </trkpt>
      <trkpt lat="48.214" lon="-3.12806">
        <ele>128</ele>
        <time>2016-02-04T16:07:19Z</time>
      </trkpt>
      <trkpt lat="48.21397" lon="-3.12807">
        <ele>128</ele>
        <time>2016-02-04T16:07:22Z</time>
      </trkpt>
      <trkpt lat="48.21393" lon="-3.12807">
        <ele>128</ele>
        <time>2016-02-04T16:07:25Z</time>
      </trkpt>
      <trkpt lat="48.21389" lon="-3.12808">
        <ele>128</ele>
        <time>2016-02-04T16:07:28Z</time>
      </trkpt>
      <trkpt lat="48.21385" lon="-3.12809">
        <ele>128</ele>
        <time>2016-02-04T16:07:31Z</time>
      </trkpt>
      <trkpt lat="48.21382" lon="-3.12811">
        <ele>128</ele>
        <time>2016-02-04T16:07:34Z</time>
      </trkpt>
      <trkpt lat="48.21378" lon="-3.12812">
        <ele>127</ele>
        <time>2016-02-04T16:07:37Z</time>
      </trkpt>
      <trkpt lat="48.21374" lon="-3.12813">
        <ele>126</ele>
        <time>2016-02-04T16:07:40Z</time>
      </trkpt>
      <trkpt lat="48.21371" lon="-3.12814">
        <ele>126</ele>
        <time>2016-02-04T16:07:43Z</time>
      </trkpt>
      <trkpt lat="48.21366" lon="-3.12817">
        <ele>125</ele>
        <time>2016-02-04T16:07:47Z</time>
      </trkpt>
      <trkpt lat="48.21363" lon="-3.12819">
        <ele>125</ele>
        <time>2016-02-04T16:07:50Z</time>
      </trkpt>
      <trkpt lat="48.21359" lon="-3.1282">
        <ele>124</ele>
        <time>2016-02-04T16:07:53Z</time>
      </trkpt>
      <trkpt lat="48.21354" lon="-3.12825">
        <ele>123</ele>
        <time>2016-02-04T16:07:57Z</time>
      </trkpt>
      <trkpt lat="48.21351" lon="-3.12827">
        <ele>123</ele>
        <time>2016-02-04T16:08:00Z</time>
      </trkpt>
      <trkpt lat="48.21347" lon="-3.12832">
        <ele>122</ele>
        <time>2016-02-04T16:08:04Z</time>
      </trkpt>
      <trkpt lat="48.21344" lon="-3.12835">
        <ele>122</ele>
        <time>2016-02-04T16:08:07Z</time>
      </trkpt>
      <trkpt lat="48.2134" lon="-3.12839">
        <ele>122</ele>
        <time>2016-02-04T16:08:11Z</time>
      </trkpt>
      <trkpt lat="48.21336" lon="-3.12844">
        <ele>122</ele>
        <time>2016-02-04T16:08:15Z</time>
      </trkpt>
      <trkpt lat="48.21333" lon="-3.12847">
        <ele>122</ele>
        <time>2016-02-04T16:08:19Z</time>
      </trkpt>
      <trkpt lat="48.21329" lon="-3.12852">
        <ele>122</ele>
        <time>2016-02-04T16:08:23Z</time>
      </trkpt>
      <trkpt lat="48.21326" lon="-3.12855">
        <ele>122</ele>
        <time>2016-02-04T16:08:26Z</time>
      </trkpt>
      <trkpt lat="48.21323" lon="-3.12853">
        <ele>122</ele>
        <time>2016-02-04T16:08:29Z</time>
      </trkpt>
      <trkpt lat="48.21321" lon="-3.12849">
        <ele>122</ele>
        <time>2016-02-04T16:08:32Z</time>
      </trkpt>
      <trkpt lat="48.21319" lon="-3.12845">
        <ele>122</ele>
        <time>2016-02-04T16:08:36Z</time>
      </trkpt>
      <trkpt lat="48.21318" lon="-3.1284">
        <ele>122</ele>
        <time>2016-02-04T16:08:40Z</time>
      </trkpt>
      <trkpt lat="48.2132" lon="-3.12837">
        <ele>122</ele>
        <time>2016-02-04T16:08:46Z</time>
      </trkpt>
      <trkpt lat="48.2132" lon="-3.12834">
        <ele>122</ele>
        <time>2016-02-04T16:08:49Z</time>
      </trkpt>
    </trkseg>
  </trk>
</gpx>